<?xml version="1.0" encoding="UTF-8" standalone="no" ?>
<gpx xmlns="http://www.topografix.com/GPX/1/1" xmlns:xsi="http://www.w3.org/2001/XMLSchema-instance" xsi:schemaLocation="http://www.topografix.com/GPX/1/1 http://www.topografix.com/GPX/1/1/gpx.xsd" version="1.1" creator="VisuGPX - https://www.visugpx.com">
  <metadata>
    <name>Dimanche 13 septembre 26</name>
  </metadata>
  <trk>
    <name><![CDATA[Dimanche 13 septembre 26]]></name>
    <extensions>
      <line xmlns="http://www.topografix.com/GPX/gpx_style/0/2">
        <width>7</width>
      </line>
    </extensions>
    <trkseg>
      <trkpt lat="43.38673" lon="-1.66333">
        <ele>4</ele>
        <time>2026-08-23T12:41:59.000Z</time>
      </trkpt>
      <trkpt lat="43.38672" lon="-1.66333">
        <ele>4</ele>
        <time>2026-08-23T12:41:59.000Z</time>
      </trkpt>
      <trkpt lat="43.38671" lon="-1.66332">
        <ele>4</ele>
        <time>2026-08-23T12:41:59.000Z</time>
      </trkpt>
      <trkpt lat="43.38671" lon="-1.6633">
        <ele>4</ele>
        <time>2026-08-23T12:42:00.000Z</time>
      </trkpt>
      <trkpt lat="43.38669" lon="-1.66328">
        <ele>4</ele>
        <time>2026-08-23T12:42:00.000Z</time>
      </trkpt>
      <trkpt lat="43.38669" lon="-1.66328">
        <ele>4</ele>
        <time>2026-08-23T12:42:00.000Z</time>
      </trkpt>
      <trkpt lat="43.38665" lon="-1.66329">
        <ele>4</ele>
        <time>2026-08-23T12:42:01.000Z</time>
      </trkpt>
      <trkpt lat="43.38662" lon="-1.66329">
        <ele>4</ele>
        <time>2026-08-23T12:42:01.000Z</time>
      </trkpt>
      <trkpt lat="43.38655" lon="-1.66328">
        <ele>4</ele>
        <time>2026-08-23T12:42:03.000Z</time>
      </trkpt>
      <trkpt lat="43.38646" lon="-1.66326">
        <ele>4</ele>
        <time>2026-08-23T12:42:04.000Z</time>
      </trkpt>
      <trkpt lat="43.38637" lon="-1.66324">
        <ele>3.9</ele>
        <time>2026-08-23T12:42:06.000Z</time>
      </trkpt>
      <trkpt lat="43.3863" lon="-1.66321">
        <ele>3.6</ele>
        <time>2026-08-23T12:42:07.000Z</time>
      </trkpt>
      <trkpt lat="43.38626" lon="-1.6632">
        <ele>3.5</ele>
        <time>2026-08-23T12:42:08.000Z</time>
      </trkpt>
      <trkpt lat="43.38623" lon="-1.66318">
        <ele>3.5</ele>
        <time>2026-08-23T12:42:08.000Z</time>
      </trkpt>
      <trkpt lat="43.3862" lon="-1.66316">
        <ele>3.5</ele>
        <time>2026-08-23T12:42:09.000Z</time>
      </trkpt>
      <trkpt lat="43.38616" lon="-1.66314">
        <ele>3.5</ele>
        <time>2026-08-23T12:42:10.000Z</time>
      </trkpt>
      <trkpt lat="43.38609" lon="-1.66308">
        <ele>1</ele>
        <time>2026-08-23T12:42:11.000Z</time>
      </trkpt>
      <trkpt lat="43.38594" lon="-1.66297">
        <ele>1</ele>
        <time>2026-08-23T12:42:14.000Z</time>
      </trkpt>
      <trkpt lat="43.38591" lon="-1.66282">
        <ele>2</ele>
        <time>2026-08-23T12:42:16.000Z</time>
      </trkpt>
      <trkpt lat="43.38568" lon="-1.6626">
        <ele>3</ele>
        <time>2026-08-23T12:42:21.000Z</time>
      </trkpt>
      <trkpt lat="43.38547" lon="-1.66242">
        <ele>4</ele>
        <time>2026-08-23T12:42:26.000Z</time>
      </trkpt>
      <trkpt lat="43.38506" lon="-1.66205">
        <ele>4</ele>
        <time>2026-08-23T12:42:34.000Z</time>
      </trkpt>
      <trkpt lat="43.38504" lon="-1.66202">
        <ele>5</ele>
        <time>2026-08-23T12:42:35.000Z</time>
      </trkpt>
      <trkpt lat="43.38502" lon="-1.662">
        <ele>5</ele>
        <time>2026-08-23T12:42:35.000Z</time>
      </trkpt>
      <trkpt lat="43.385" lon="-1.66198">
        <ele>5</ele>
        <time>2026-08-23T12:42:36.000Z</time>
      </trkpt>
      <trkpt lat="43.38495" lon="-1.66191">
        <ele>5</ele>
        <time>2026-08-23T12:42:37.000Z</time>
      </trkpt>
      <trkpt lat="43.3849" lon="-1.66182">
        <ele>5</ele>
        <time>2026-08-23T12:42:39.000Z</time>
      </trkpt>
      <trkpt lat="43.38483" lon="-1.66161">
        <ele>5</ele>
        <time>2026-08-23T12:42:42.000Z</time>
      </trkpt>
      <trkpt lat="43.38481" lon="-1.66156">
        <ele>5</ele>
        <time>2026-08-23T12:42:42.000Z</time>
      </trkpt>
      <trkpt lat="43.38473" lon="-1.66138">
        <ele>5</ele>
        <time>2026-08-23T12:42:45.000Z</time>
      </trkpt>
      <trkpt lat="43.38462" lon="-1.66117">
        <ele>5</ele>
        <time>2026-08-23T12:42:48.000Z</time>
      </trkpt>
      <trkpt lat="43.38446" lon="-1.66092">
        <ele>5</ele>
        <time>2026-08-23T12:42:53.000Z</time>
      </trkpt>
      <trkpt lat="43.38436" lon="-1.6608">
        <ele>5</ele>
        <time>2026-08-23T12:42:55.000Z</time>
      </trkpt>
      <trkpt lat="43.38429" lon="-1.66071">
        <ele>5</ele>
        <time>2026-08-23T12:42:57.000Z</time>
      </trkpt>
      <trkpt lat="43.38424" lon="-1.66064">
        <ele>5</ele>
        <time>2026-08-23T12:42:58.000Z</time>
      </trkpt>
      <trkpt lat="43.38395" lon="-1.66025">
        <ele>5</ele>
        <time>2026-08-23T12:43:05.000Z</time>
      </trkpt>
      <trkpt lat="43.38382" lon="-1.66008">
        <ele>5</ele>
        <time>2026-08-23T12:43:08.000Z</time>
      </trkpt>
      <trkpt lat="43.38358" lon="-1.65973">
        <ele>6</ele>
        <time>2026-08-23T12:43:15.000Z</time>
      </trkpt>
      <trkpt lat="43.38341" lon="-1.65941">
        <ele>6</ele>
        <time>2026-08-23T12:43:20.000Z</time>
      </trkpt>
      <trkpt lat="43.38339" lon="-1.65944">
        <ele>6</ele>
        <time>2026-08-23T12:43:20.000Z</time>
      </trkpt>
      <trkpt lat="43.38337" lon="-1.65945">
        <ele>6</ele>
        <time>2026-08-23T12:43:21.000Z</time>
      </trkpt>
      <trkpt lat="43.38336" lon="-1.65945">
        <ele>6</ele>
        <time>2026-08-23T12:43:21.000Z</time>
      </trkpt>
      <trkpt lat="43.38333" lon="-1.65945">
        <ele>6</ele>
        <time>2026-08-23T12:43:21.000Z</time>
      </trkpt>
      <trkpt lat="43.38331" lon="-1.65944">
        <ele>6</ele>
        <time>2026-08-23T12:43:22.000Z</time>
      </trkpt>
      <trkpt lat="43.3833" lon="-1.65944">
        <ele>6</ele>
        <time>2026-08-23T12:43:22.000Z</time>
      </trkpt>
      <trkpt lat="43.38329" lon="-1.65943">
        <ele>6</ele>
        <time>2026-08-23T12:43:22.000Z</time>
      </trkpt>
      <trkpt lat="43.38328" lon="-1.6594">
        <ele>6</ele>
        <time>2026-08-23T12:43:23.000Z</time>
      </trkpt>
      <trkpt lat="43.38327" lon="-1.65938">
        <ele>6</ele>
        <time>2026-08-23T12:43:23.000Z</time>
      </trkpt>
      <trkpt lat="43.38327" lon="-1.65936">
        <ele>6</ele>
        <time>2026-08-23T12:43:23.000Z</time>
      </trkpt>
      <trkpt lat="43.38327" lon="-1.65933">
        <ele>6</ele>
        <time>2026-08-23T12:43:24.000Z</time>
      </trkpt>
      <trkpt lat="43.38328" lon="-1.6593">
        <ele>6</ele>
        <time>2026-08-23T12:43:24.000Z</time>
      </trkpt>
      <trkpt lat="43.38328" lon="-1.65928">
        <ele>6</ele>
        <time>2026-08-23T12:43:24.000Z</time>
      </trkpt>
      <trkpt lat="43.38329" lon="-1.65927">
        <ele>6</ele>
        <time>2026-08-23T12:43:24.000Z</time>
      </trkpt>
      <trkpt lat="43.38317" lon="-1.65914">
        <ele>5</ele>
        <time>2026-08-23T12:43:27.000Z</time>
      </trkpt>
      <trkpt lat="43.3831" lon="-1.65904">
        <ele>5</ele>
        <time>2026-08-23T12:43:29.000Z</time>
      </trkpt>
      <trkpt lat="43.38308" lon="-1.65901">
        <ele>5</ele>
        <time>2026-08-23T12:43:30.000Z</time>
      </trkpt>
      <trkpt lat="43.38304" lon="-1.65892">
        <ele>4</ele>
        <time>2026-08-23T12:43:31.000Z</time>
      </trkpt>
      <trkpt lat="43.38303" lon="-1.6589">
        <ele>4</ele>
        <time>2026-08-23T12:43:31.000Z</time>
      </trkpt>
      <trkpt lat="43.38296" lon="-1.65874">
        <ele>4</ele>
        <time>2026-08-23T12:43:34.000Z</time>
      </trkpt>
      <trkpt lat="43.38264" lon="-1.65784">
        <ele>4</ele>
        <time>2026-08-23T12:43:47.000Z</time>
      </trkpt>
      <trkpt lat="43.38236" lon="-1.65703">
        <ele>4</ele>
        <time>2026-08-23T12:43:58.000Z</time>
      </trkpt>
      <trkpt lat="43.38235" lon="-1.65696">
        <ele>4</ele>
        <time>2026-08-23T12:43:59.000Z</time>
      </trkpt>
      <trkpt lat="43.38235" lon="-1.65689">
        <ele>4</ele>
        <time>2026-08-23T12:44:00.000Z</time>
      </trkpt>
      <trkpt lat="43.38235" lon="-1.65683">
        <ele>4</ele>
        <time>2026-08-23T12:44:01.000Z</time>
      </trkpt>
      <trkpt lat="43.38237" lon="-1.65676">
        <ele>4</ele>
        <time>2026-08-23T12:44:02.000Z</time>
      </trkpt>
      <trkpt lat="43.3824" lon="-1.6567">
        <ele>4</ele>
        <time>2026-08-23T12:44:03.000Z</time>
      </trkpt>
      <trkpt lat="43.38246" lon="-1.65661">
        <ele>4</ele>
        <time>2026-08-23T12:44:04.000Z</time>
      </trkpt>
      <trkpt lat="43.38267" lon="-1.65633">
        <ele>4</ele>
        <time>2026-08-23T12:44:09.000Z</time>
      </trkpt>
      <trkpt lat="43.38285" lon="-1.65609">
        <ele>3</ele>
        <time>2026-08-23T12:44:14.000Z</time>
      </trkpt>
      <trkpt lat="43.38299" lon="-1.6559">
        <ele>3</ele>
        <time>2026-08-23T12:44:17.000Z</time>
      </trkpt>
      <trkpt lat="43.38304" lon="-1.65583">
        <ele>3</ele>
        <time>2026-08-23T12:44:19.000Z</time>
      </trkpt>
      <trkpt lat="43.38308" lon="-1.65578">
        <ele>3</ele>
        <time>2026-08-23T12:44:20.000Z</time>
      </trkpt>
      <trkpt lat="43.38352" lon="-1.65518">
        <ele>4</ele>
        <time>2026-08-23T12:44:31.000Z</time>
      </trkpt>
      <trkpt lat="43.38359" lon="-1.65509">
        <ele>4</ele>
        <time>2026-08-23T12:44:32.000Z</time>
      </trkpt>
      <trkpt lat="43.38359" lon="-1.65509">
        <ele>4</ele>
        <time>2026-08-23T12:44:32.000Z</time>
      </trkpt>
      <trkpt lat="43.38356" lon="-1.65509">
        <ele>4</ele>
        <time>2026-08-23T12:44:33.000Z</time>
      </trkpt>
      <trkpt lat="43.38355" lon="-1.65508">
        <ele>4</ele>
        <time>2026-08-23T12:44:33.000Z</time>
      </trkpt>
      <trkpt lat="43.38352" lon="-1.65506">
        <ele>4</ele>
        <time>2026-08-23T12:44:34.000Z</time>
      </trkpt>
      <trkpt lat="43.38348" lon="-1.65501">
        <ele>4</ele>
        <time>2026-08-23T12:44:35.000Z</time>
      </trkpt>
      <trkpt lat="43.38328" lon="-1.65474">
        <ele>4</ele>
        <time>2026-08-23T12:44:40.000Z</time>
      </trkpt>
      <trkpt lat="43.38327" lon="-1.65473">
        <ele>4</ele>
        <time>2026-08-23T12:44:40.000Z</time>
      </trkpt>
      <trkpt lat="43.38327" lon="-1.65472">
        <ele>4</ele>
        <time>2026-08-23T12:44:40.000Z</time>
      </trkpt>
      <trkpt lat="43.38326" lon="-1.65471">
        <ele>4</ele>
        <time>2026-08-23T12:44:40.000Z</time>
      </trkpt>
      <trkpt lat="43.38326" lon="-1.6547">
        <ele>4</ele>
        <time>2026-08-23T12:44:40.000Z</time>
      </trkpt>
      <trkpt lat="43.38326" lon="-1.65469">
        <ele>4</ele>
        <time>2026-08-23T12:44:40.000Z</time>
      </trkpt>
      <trkpt lat="43.38325" lon="-1.65469">
        <ele>4</ele>
        <time>2026-08-23T12:44:41.000Z</time>
      </trkpt>
      <trkpt lat="43.38325" lon="-1.65468">
        <ele>4</ele>
        <time>2026-08-23T12:44:41.000Z</time>
      </trkpt>
      <trkpt lat="43.38325" lon="-1.65467">
        <ele>4</ele>
        <time>2026-08-23T12:44:41.000Z</time>
      </trkpt>
      <trkpt lat="43.38325" lon="-1.65466">
        <ele>4</ele>
        <time>2026-08-23T12:44:41.000Z</time>
      </trkpt>
      <trkpt lat="43.38325" lon="-1.65465">
        <ele>4</ele>
        <time>2026-08-23T12:44:41.000Z</time>
      </trkpt>
      <trkpt lat="43.38324" lon="-1.65464">
        <ele>4</ele>
        <time>2026-08-23T12:44:41.000Z</time>
      </trkpt>
      <trkpt lat="43.38324" lon="-1.65463">
        <ele>4</ele>
        <time>2026-08-23T12:44:42.000Z</time>
      </trkpt>
      <trkpt lat="43.38324" lon="-1.65462">
        <ele>4</ele>
        <time>2026-08-23T12:44:42.000Z</time>
      </trkpt>
      <trkpt lat="43.38324" lon="-1.65461">
        <ele>4</ele>
        <time>2026-08-23T12:44:42.000Z</time>
      </trkpt>
      <trkpt lat="43.38324" lon="-1.65461">
        <ele>4</ele>
        <time>2026-08-23T12:44:42.000Z</time>
      </trkpt>
      <trkpt lat="43.38325" lon="-1.6546">
        <ele>4</ele>
        <time>2026-08-23T12:44:42.000Z</time>
      </trkpt>
      <trkpt lat="43.38325" lon="-1.65459">
        <ele>4</ele>
        <time>2026-08-23T12:44:42.000Z</time>
      </trkpt>
      <trkpt lat="43.38325" lon="-1.65458">
        <ele>4</ele>
        <time>2026-08-23T12:44:42.000Z</time>
      </trkpt>
      <trkpt lat="43.38325" lon="-1.65457">
        <ele>4</ele>
        <time>2026-08-23T12:44:42.000Z</time>
      </trkpt>
      <trkpt lat="43.38326" lon="-1.65456">
        <ele>4</ele>
        <time>2026-08-23T12:44:43.000Z</time>
      </trkpt>
      <trkpt lat="43.38326" lon="-1.65455">
        <ele>4</ele>
        <time>2026-08-23T12:44:43.000Z</time>
      </trkpt>
      <trkpt lat="43.38327" lon="-1.65454">
        <ele>4</ele>
        <time>2026-08-23T12:44:43.000Z</time>
      </trkpt>
      <trkpt lat="43.38328" lon="-1.65453">
        <ele>4</ele>
        <time>2026-08-23T12:44:43.000Z</time>
      </trkpt>
      <trkpt lat="43.38328" lon="-1.65452">
        <ele>5</ele>
        <time>2026-08-23T12:44:43.000Z</time>
      </trkpt>
      <trkpt lat="43.38329" lon="-1.65452">
        <ele>5</ele>
        <time>2026-08-23T12:44:43.000Z</time>
      </trkpt>
      <trkpt lat="43.38329" lon="-1.65451">
        <ele>5</ele>
        <time>2026-08-23T12:44:44.000Z</time>
      </trkpt>
      <trkpt lat="43.3833" lon="-1.65451">
        <ele>5</ele>
        <time>2026-08-23T12:44:44.000Z</time>
      </trkpt>
      <trkpt lat="43.3833" lon="-1.6545">
        <ele>5</ele>
        <time>2026-08-23T12:44:44.000Z</time>
      </trkpt>
      <trkpt lat="43.38331" lon="-1.6545">
        <ele>5</ele>
        <time>2026-08-23T12:44:44.000Z</time>
      </trkpt>
      <trkpt lat="43.38332" lon="-1.6545">
        <ele>5</ele>
        <time>2026-08-23T12:44:44.000Z</time>
      </trkpt>
      <trkpt lat="43.38332" lon="-1.65449">
        <ele>5</ele>
        <time>2026-08-23T12:44:44.000Z</time>
      </trkpt>
      <trkpt lat="43.38333" lon="-1.65449">
        <ele>5</ele>
        <time>2026-08-23T12:44:45.000Z</time>
      </trkpt>
      <trkpt lat="43.38334" lon="-1.65447">
        <ele>5</ele>
        <time>2026-08-23T12:44:45.000Z</time>
      </trkpt>
      <trkpt lat="43.3837" lon="-1.65377">
        <ele>5</ele>
        <time>2026-08-23T12:44:56.000Z</time>
      </trkpt>
      <trkpt lat="43.38375" lon="-1.65366">
        <ele>5</ele>
        <time>2026-08-23T12:44:58.000Z</time>
      </trkpt>
      <trkpt lat="43.38376" lon="-1.65365">
        <ele>5</ele>
        <time>2026-08-23T12:44:58.000Z</time>
      </trkpt>
      <trkpt lat="43.38377" lon="-1.65362">
        <ele>5</ele>
        <time>2026-08-23T12:44:58.000Z</time>
      </trkpt>
      <trkpt lat="43.38397" lon="-1.65314">
        <ele>8</ele>
        <time>2026-08-23T12:45:05.000Z</time>
      </trkpt>
      <trkpt lat="43.38397" lon="-1.65314">
        <ele>8</ele>
        <time>2026-08-23T12:45:05.000Z</time>
      </trkpt>
      <trkpt lat="43.38396" lon="-1.65297">
        <ele>10</ele>
        <time>2026-08-23T12:45:08.000Z</time>
      </trkpt>
      <trkpt lat="43.38395" lon="-1.6529">
        <ele>11</ele>
        <time>2026-08-23T12:45:09.000Z</time>
      </trkpt>
      <trkpt lat="43.38393" lon="-1.65281">
        <ele>12</ele>
        <time>2026-08-23T12:45:10.000Z</time>
      </trkpt>
      <trkpt lat="43.38392" lon="-1.65276">
        <ele>12</ele>
        <time>2026-08-23T12:45:10.000Z</time>
      </trkpt>
      <trkpt lat="43.38389" lon="-1.65266">
        <ele>13</ele>
        <time>2026-08-23T12:45:12.000Z</time>
      </trkpt>
      <trkpt lat="43.38382" lon="-1.65259">
        <ele>13</ele>
        <time>2026-08-23T12:45:13.000Z</time>
      </trkpt>
      <trkpt lat="43.38376" lon="-1.65252">
        <ele>13</ele>
        <time>2026-08-23T12:45:15.000Z</time>
      </trkpt>
      <trkpt lat="43.3837" lon="-1.65245">
        <ele>13</ele>
        <time>2026-08-23T12:45:16.000Z</time>
      </trkpt>
      <trkpt lat="43.38363" lon="-1.65236">
        <ele>13</ele>
        <time>2026-08-23T12:45:18.000Z</time>
      </trkpt>
      <trkpt lat="43.38358" lon="-1.65228">
        <ele>13</ele>
        <time>2026-08-23T12:45:19.000Z</time>
      </trkpt>
      <trkpt lat="43.38353" lon="-1.6522">
        <ele>13</ele>
        <time>2026-08-23T12:45:21.000Z</time>
      </trkpt>
      <trkpt lat="43.38346" lon="-1.65208">
        <ele>12</ele>
        <time>2026-08-23T12:45:23.000Z</time>
      </trkpt>
      <trkpt lat="43.38344" lon="-1.65203">
        <ele>12</ele>
        <time>2026-08-23T12:45:23.000Z</time>
      </trkpt>
      <trkpt lat="43.38341" lon="-1.65197">
        <ele>12</ele>
        <time>2026-08-23T12:45:24.000Z</time>
      </trkpt>
      <trkpt lat="43.3834" lon="-1.65189">
        <ele>12</ele>
        <time>2026-08-23T12:45:25.000Z</time>
      </trkpt>
      <trkpt lat="43.38334" lon="-1.65171">
        <ele>12</ele>
        <time>2026-08-23T12:45:28.000Z</time>
      </trkpt>
      <trkpt lat="43.38302" lon="-1.65083">
        <ele>11</ele>
        <time>2026-08-23T12:45:41.000Z</time>
      </trkpt>
      <trkpt lat="43.38279" lon="-1.6502">
        <ele>9</ele>
        <time>2026-08-23T12:45:50.000Z</time>
      </trkpt>
      <trkpt lat="43.38275" lon="-1.65009">
        <ele>9</ele>
        <time>2026-08-23T12:45:51.000Z</time>
      </trkpt>
      <trkpt lat="43.38267" lon="-1.64988">
        <ele>9</ele>
        <time>2026-08-23T12:45:54.000Z</time>
      </trkpt>
      <trkpt lat="43.38262" lon="-1.64974">
        <ele>8</ele>
        <time>2026-08-23T12:45:56.000Z</time>
      </trkpt>
      <trkpt lat="43.3826" lon="-1.64966">
        <ele>8</ele>
        <time>2026-08-23T12:45:58.000Z</time>
      </trkpt>
      <trkpt lat="43.38258" lon="-1.64958">
        <ele>8</ele>
        <time>2026-08-23T12:45:59.000Z</time>
      </trkpt>
      <trkpt lat="43.38256" lon="-1.6495">
        <ele>8</ele>
        <time>2026-08-23T12:46:00.000Z</time>
      </trkpt>
      <trkpt lat="43.38255" lon="-1.64941">
        <ele>8</ele>
        <time>2026-08-23T12:46:01.000Z</time>
      </trkpt>
      <trkpt lat="43.38254" lon="-1.64936">
        <ele>8</ele>
        <time>2026-08-23T12:46:02.000Z</time>
      </trkpt>
      <trkpt lat="43.38254" lon="-1.64928">
        <ele>8</ele>
        <time>2026-08-23T12:46:03.000Z</time>
      </trkpt>
      <trkpt lat="43.38254" lon="-1.64919">
        <ele>9</ele>
        <time>2026-08-23T12:46:04.000Z</time>
      </trkpt>
      <trkpt lat="43.38254" lon="-1.64913">
        <ele>9</ele>
        <time>2026-08-23T12:46:05.000Z</time>
      </trkpt>
      <trkpt lat="43.38254" lon="-1.64905">
        <ele>9</ele>
        <time>2026-08-23T12:46:06.000Z</time>
      </trkpt>
      <trkpt lat="43.38254" lon="-1.64897">
        <ele>9</ele>
        <time>2026-08-23T12:46:07.000Z</time>
      </trkpt>
      <trkpt lat="43.38255" lon="-1.64888">
        <ele>9</ele>
        <time>2026-08-23T12:46:08.000Z</time>
      </trkpt>
      <trkpt lat="43.38259" lon="-1.64848">
        <ele>10</ele>
        <time>2026-08-23T12:46:13.000Z</time>
      </trkpt>
      <trkpt lat="43.38265" lon="-1.64789">
        <ele>9</ele>
        <time>2026-08-23T12:46:21.000Z</time>
      </trkpt>
      <trkpt lat="43.38271" lon="-1.6473">
        <ele>7</ele>
        <time>2026-08-23T12:46:28.000Z</time>
      </trkpt>
      <trkpt lat="43.38273" lon="-1.64712">
        <ele>7</ele>
        <time>2026-08-23T12:46:31.000Z</time>
      </trkpt>
      <trkpt lat="43.38274" lon="-1.64697">
        <ele>7</ele>
        <time>2026-08-23T12:46:33.000Z</time>
      </trkpt>
      <trkpt lat="43.38277" lon="-1.64667">
        <ele>7</ele>
        <time>2026-08-23T12:46:37.000Z</time>
      </trkpt>
      <trkpt lat="43.38281" lon="-1.64622">
        <ele>8</ele>
        <time>2026-08-23T12:46:43.000Z</time>
      </trkpt>
      <trkpt lat="43.38282" lon="-1.64596">
        <ele>8</ele>
        <time>2026-08-23T12:46:46.000Z</time>
      </trkpt>
      <trkpt lat="43.38282" lon="-1.64568">
        <ele>9</ele>
        <time>2026-08-23T12:46:49.000Z</time>
      </trkpt>
      <trkpt lat="43.38282" lon="-1.64534">
        <ele>10</ele>
        <time>2026-08-23T12:46:54.000Z</time>
      </trkpt>
      <trkpt lat="43.38282" lon="-1.64525">
        <ele>10</ele>
        <time>2026-08-23T12:46:55.000Z</time>
      </trkpt>
      <trkpt lat="43.38281" lon="-1.64501">
        <ele>11</ele>
        <time>2026-08-23T12:46:58.000Z</time>
      </trkpt>
      <trkpt lat="43.38279" lon="-1.64473">
        <ele>10</ele>
        <time>2026-08-23T12:47:02.000Z</time>
      </trkpt>
      <trkpt lat="43.38277" lon="-1.64442">
        <ele>9</ele>
        <time>2026-08-23T12:47:06.000Z</time>
      </trkpt>
      <trkpt lat="43.38276" lon="-1.64431">
        <ele>9</ele>
        <time>2026-08-23T12:47:07.000Z</time>
      </trkpt>
      <trkpt lat="43.38275" lon="-1.64423">
        <ele>8</ele>
        <time>2026-08-23T12:47:08.000Z</time>
      </trkpt>
      <trkpt lat="43.38274" lon="-1.64415">
        <ele>8</ele>
        <time>2026-08-23T12:47:09.000Z</time>
      </trkpt>
      <trkpt lat="43.38273" lon="-1.64407">
        <ele>8</ele>
        <time>2026-08-23T12:47:10.000Z</time>
      </trkpt>
      <trkpt lat="43.38272" lon="-1.64398">
        <ele>8</ele>
        <time>2026-08-23T12:47:12.000Z</time>
      </trkpt>
      <trkpt lat="43.38269" lon="-1.64385">
        <ele>7</ele>
        <time>2026-08-23T12:47:13.000Z</time>
      </trkpt>
      <trkpt lat="43.38267" lon="-1.64378">
        <ele>7</ele>
        <time>2026-08-23T12:47:14.000Z</time>
      </trkpt>
      <trkpt lat="43.38264" lon="-1.64367">
        <ele>6</ele>
        <time>2026-08-23T12:47:16.000Z</time>
      </trkpt>
      <trkpt lat="43.3826" lon="-1.64355">
        <ele>6</ele>
        <time>2026-08-23T12:47:18.000Z</time>
      </trkpt>
      <trkpt lat="43.38254" lon="-1.64342">
        <ele>5</ele>
        <time>2026-08-23T12:47:20.000Z</time>
      </trkpt>
      <trkpt lat="43.3825" lon="-1.64332">
        <ele>5</ele>
        <time>2026-08-23T12:47:21.000Z</time>
      </trkpt>
      <trkpt lat="43.38247" lon="-1.64326">
        <ele>5</ele>
        <time>2026-08-23T12:47:22.000Z</time>
      </trkpt>
      <trkpt lat="43.38243" lon="-1.6432">
        <ele>5</ele>
        <time>2026-08-23T12:47:23.000Z</time>
      </trkpt>
      <trkpt lat="43.3824" lon="-1.64314">
        <ele>5</ele>
        <time>2026-08-23T12:47:24.000Z</time>
      </trkpt>
      <trkpt lat="43.38235" lon="-1.64307">
        <ele>5</ele>
        <time>2026-08-23T12:47:25.000Z</time>
      </trkpt>
      <trkpt lat="43.38231" lon="-1.64301">
        <ele>5</ele>
        <time>2026-08-23T12:47:26.000Z</time>
      </trkpt>
      <trkpt lat="43.38227" lon="-1.64296">
        <ele>5</ele>
        <time>2026-08-23T12:47:27.000Z</time>
      </trkpt>
      <trkpt lat="43.38223" lon="-1.64291">
        <ele>5</ele>
        <time>2026-08-23T12:47:28.000Z</time>
      </trkpt>
      <trkpt lat="43.38219" lon="-1.64286">
        <ele>5</ele>
        <time>2026-08-23T12:47:29.000Z</time>
      </trkpt>
      <trkpt lat="43.38215" lon="-1.64282">
        <ele>5</ele>
        <time>2026-08-23T12:47:30.000Z</time>
      </trkpt>
      <trkpt lat="43.38212" lon="-1.6428">
        <ele>5</ele>
        <time>2026-08-23T12:47:31.000Z</time>
      </trkpt>
      <trkpt lat="43.38203" lon="-1.64271">
        <ele>5</ele>
        <time>2026-08-23T12:47:33.000Z</time>
      </trkpt>
      <trkpt lat="43.38195" lon="-1.64264">
        <ele>5</ele>
        <time>2026-08-23T12:47:34.000Z</time>
      </trkpt>
      <trkpt lat="43.38187" lon="-1.64257">
        <ele>5</ele>
        <time>2026-08-23T12:47:36.000Z</time>
      </trkpt>
      <trkpt lat="43.3817" lon="-1.6424">
        <ele>6</ele>
        <time>2026-08-23T12:47:40.000Z</time>
      </trkpt>
      <trkpt lat="43.38155" lon="-1.64227">
        <ele>6</ele>
        <time>2026-08-23T12:47:43.000Z</time>
      </trkpt>
      <trkpt lat="43.38141" lon="-1.64213">
        <ele>7</ele>
        <time>2026-08-23T12:47:46.000Z</time>
      </trkpt>
      <trkpt lat="43.38139" lon="-1.64212">
        <ele>6</ele>
        <time>2026-08-23T12:47:46.000Z</time>
      </trkpt>
      <trkpt lat="43.38135" lon="-1.64208">
        <ele>6</ele>
        <time>2026-08-23T12:47:47.000Z</time>
      </trkpt>
      <trkpt lat="43.38132" lon="-1.64204">
        <ele>7</ele>
        <time>2026-08-23T12:47:48.000Z</time>
      </trkpt>
      <trkpt lat="43.38126" lon="-1.64198">
        <ele>7</ele>
        <time>2026-08-23T12:47:49.000Z</time>
      </trkpt>
      <trkpt lat="43.38121" lon="-1.6419">
        <ele>7</ele>
        <time>2026-08-23T12:47:51.000Z</time>
      </trkpt>
      <trkpt lat="43.38119" lon="-1.64186">
        <ele>7</ele>
        <time>2026-08-23T12:47:51.000Z</time>
      </trkpt>
      <trkpt lat="43.38116" lon="-1.6418">
        <ele>7</ele>
        <time>2026-08-23T12:47:52.000Z</time>
      </trkpt>
      <trkpt lat="43.3811" lon="-1.64167">
        <ele>7</ele>
        <time>2026-08-23T12:47:54.000Z</time>
      </trkpt>
      <trkpt lat="43.38103" lon="-1.6415">
        <ele>7</ele>
        <time>2026-08-23T12:47:57.000Z</time>
      </trkpt>
      <trkpt lat="43.38094" lon="-1.64129">
        <ele>8</ele>
        <time>2026-08-23T12:48:00.000Z</time>
      </trkpt>
      <trkpt lat="43.38084" lon="-1.64107">
        <ele>8</ele>
        <time>2026-08-23T12:48:03.000Z</time>
      </trkpt>
      <trkpt lat="43.38074" lon="-1.64086">
        <ele>8</ele>
        <time>2026-08-23T12:48:06.000Z</time>
      </trkpt>
      <trkpt lat="43.38071" lon="-1.64078">
        <ele>9</ele>
        <time>2026-08-23T12:48:08.000Z</time>
      </trkpt>
      <trkpt lat="43.38067" lon="-1.64071">
        <ele>9</ele>
        <time>2026-08-23T12:48:09.000Z</time>
      </trkpt>
      <trkpt lat="43.38062" lon="-1.64063">
        <ele>9</ele>
        <time>2026-08-23T12:48:10.000Z</time>
      </trkpt>
      <trkpt lat="43.38056" lon="-1.64055">
        <ele>9</ele>
        <time>2026-08-23T12:48:12.000Z</time>
      </trkpt>
      <trkpt lat="43.3805" lon="-1.64047">
        <ele>9</ele>
        <time>2026-08-23T12:48:13.000Z</time>
      </trkpt>
      <trkpt lat="43.3804" lon="-1.64037">
        <ele>9</ele>
        <time>2026-08-23T12:48:15.000Z</time>
      </trkpt>
      <trkpt lat="43.38026" lon="-1.64024">
        <ele>9</ele>
        <time>2026-08-23T12:48:18.000Z</time>
      </trkpt>
      <trkpt lat="43.38001" lon="-1.64001">
        <ele>8</ele>
        <time>2026-08-23T12:48:24.000Z</time>
      </trkpt>
      <trkpt lat="43.37975" lon="-1.63977">
        <ele>8</ele>
        <time>2026-08-23T12:48:29.000Z</time>
      </trkpt>
      <trkpt lat="43.37951" lon="-1.63955">
        <ele>7</ele>
        <time>2026-08-23T12:48:34.000Z</time>
      </trkpt>
      <trkpt lat="43.37911" lon="-1.63917">
        <ele>7</ele>
        <time>2026-08-23T12:48:43.000Z</time>
      </trkpt>
      <trkpt lat="43.37885" lon="-1.63891">
        <ele>6</ele>
        <time>2026-08-23T12:48:49.000Z</time>
      </trkpt>
      <trkpt lat="43.37864" lon="-1.63869">
        <ele>7</ele>
        <time>2026-08-23T12:48:53.000Z</time>
      </trkpt>
      <trkpt lat="43.37836" lon="-1.6384">
        <ele>8</ele>
        <time>2026-08-23T12:49:00.000Z</time>
      </trkpt>
      <trkpt lat="43.37817" lon="-1.6382">
        <ele>8</ele>
        <time>2026-08-23T12:49:04.000Z</time>
      </trkpt>
      <trkpt lat="43.37803" lon="-1.63806">
        <ele>8</ele>
        <time>2026-08-23T12:49:07.000Z</time>
      </trkpt>
      <trkpt lat="43.37796" lon="-1.638">
        <ele>8</ele>
        <time>2026-08-23T12:49:09.000Z</time>
      </trkpt>
      <trkpt lat="43.37788" lon="-1.63791">
        <ele>8</ele>
        <time>2026-08-23T12:49:10.000Z</time>
      </trkpt>
      <trkpt lat="43.37781" lon="-1.63785">
        <ele>8</ele>
        <time>2026-08-23T12:49:12.000Z</time>
      </trkpt>
      <trkpt lat="43.37774" lon="-1.63781">
        <ele>8</ele>
        <time>2026-08-23T12:49:13.000Z</time>
      </trkpt>
      <trkpt lat="43.37768" lon="-1.63777">
        <ele>8</ele>
        <time>2026-08-23T12:49:14.000Z</time>
      </trkpt>
      <trkpt lat="43.37762" lon="-1.63774">
        <ele>8</ele>
        <time>2026-08-23T12:49:15.000Z</time>
      </trkpt>
      <trkpt lat="43.37756" lon="-1.63772">
        <ele>8</ele>
        <time>2026-08-23T12:49:17.000Z</time>
      </trkpt>
      <trkpt lat="43.37754" lon="-1.63771">
        <ele>8</ele>
        <time>2026-08-23T12:49:17.000Z</time>
      </trkpt>
      <trkpt lat="43.3775" lon="-1.6377">
        <ele>8</ele>
        <time>2026-08-23T12:49:18.000Z</time>
      </trkpt>
      <trkpt lat="43.37746" lon="-1.6377">
        <ele>8</ele>
        <time>2026-08-23T12:49:18.000Z</time>
      </trkpt>
      <trkpt lat="43.37735" lon="-1.6377">
        <ele>8</ele>
        <time>2026-08-23T12:49:20.000Z</time>
      </trkpt>
      <trkpt lat="43.37724" lon="-1.6377">
        <ele>8</ele>
        <time>2026-08-23T12:49:22.000Z</time>
      </trkpt>
      <trkpt lat="43.37654" lon="-1.63774">
        <ele>6</ele>
        <time>2026-08-23T12:49:35.000Z</time>
      </trkpt>
      <trkpt lat="43.3765" lon="-1.63776">
        <ele>6</ele>
        <time>2026-08-23T12:49:36.000Z</time>
      </trkpt>
      <trkpt lat="43.37623" lon="-1.63779">
        <ele>6</ele>
        <time>2026-08-23T12:49:40.000Z</time>
      </trkpt>
      <trkpt lat="43.37609" lon="-1.63782">
        <ele>6</ele>
        <time>2026-08-23T12:49:43.000Z</time>
      </trkpt>
      <trkpt lat="43.37597" lon="-1.63783">
        <ele>6</ele>
        <time>2026-08-23T12:49:45.000Z</time>
      </trkpt>
      <trkpt lat="43.3759" lon="-1.63784">
        <ele>6</ele>
        <time>2026-08-23T12:49:46.000Z</time>
      </trkpt>
      <trkpt lat="43.37537" lon="-1.63787">
        <ele>5</ele>
        <time>2026-08-23T12:49:56.000Z</time>
      </trkpt>
      <trkpt lat="43.37521" lon="-1.63788">
        <ele>4</ele>
        <time>2026-08-23T12:49:59.000Z</time>
      </trkpt>
      <trkpt lat="43.37451" lon="-1.63792">
        <ele>4</ele>
        <time>2026-08-23T12:50:11.000Z</time>
      </trkpt>
      <trkpt lat="43.37439" lon="-1.6379">
        <ele>4</ele>
        <time>2026-08-23T12:50:13.000Z</time>
      </trkpt>
      <trkpt lat="43.37429" lon="-1.63789">
        <ele>4</ele>
        <time>2026-08-23T12:50:15.000Z</time>
      </trkpt>
      <trkpt lat="43.37421" lon="-1.63789">
        <ele>4</ele>
        <time>2026-08-23T12:50:16.000Z</time>
      </trkpt>
      <trkpt lat="43.37416" lon="-1.63789">
        <ele>4</ele>
        <time>2026-08-23T12:50:17.000Z</time>
      </trkpt>
      <trkpt lat="43.37396" lon="-1.6379">
        <ele>4</ele>
        <time>2026-08-23T12:50:21.000Z</time>
      </trkpt>
      <trkpt lat="43.37385" lon="-1.63788">
        <ele>3</ele>
        <time>2026-08-23T12:50:23.000Z</time>
      </trkpt>
      <trkpt lat="43.37298" lon="-1.63793">
        <ele>3</ele>
        <time>2026-08-23T12:50:38.000Z</time>
      </trkpt>
      <trkpt lat="43.37189" lon="-1.63801">
        <ele>4</ele>
        <time>2026-08-23T12:50:58.000Z</time>
      </trkpt>
      <trkpt lat="43.37146" lon="-1.63804">
        <ele>5</ele>
        <time>2026-08-23T12:51:05.000Z</time>
      </trkpt>
      <trkpt lat="43.37123" lon="-1.63805">
        <ele>5</ele>
        <time>2026-08-23T12:51:09.000Z</time>
      </trkpt>
      <trkpt lat="43.37111" lon="-1.63805">
        <ele>5</ele>
        <time>2026-08-23T12:51:12.000Z</time>
      </trkpt>
      <trkpt lat="43.37108" lon="-1.63804">
        <ele>5</ele>
        <time>2026-08-23T12:51:12.000Z</time>
      </trkpt>
      <trkpt lat="43.37105" lon="-1.63804">
        <ele>5</ele>
        <time>2026-08-23T12:51:13.000Z</time>
      </trkpt>
      <trkpt lat="43.37099" lon="-1.63803">
        <ele>6</ele>
        <time>2026-08-23T12:51:14.000Z</time>
      </trkpt>
      <trkpt lat="43.37093" lon="-1.63802">
        <ele>6</ele>
        <time>2026-08-23T12:51:15.000Z</time>
      </trkpt>
      <trkpt lat="43.37085" lon="-1.638">
        <ele>6</ele>
        <time>2026-08-23T12:51:16.000Z</time>
      </trkpt>
      <trkpt lat="43.37076" lon="-1.63796">
        <ele>6</ele>
        <time>2026-08-23T12:51:18.000Z</time>
      </trkpt>
      <trkpt lat="43.37067" lon="-1.63793">
        <ele>6</ele>
        <time>2026-08-23T12:51:20.000Z</time>
      </trkpt>
      <trkpt lat="43.37058" lon="-1.63788">
        <ele>6</ele>
        <time>2026-08-23T12:51:21.000Z</time>
      </trkpt>
      <trkpt lat="43.37045" lon="-1.6378">
        <ele>6</ele>
        <time>2026-08-23T12:51:24.000Z</time>
      </trkpt>
      <trkpt lat="43.3703" lon="-1.63771">
        <ele>5</ele>
        <time>2026-08-23T12:51:27.000Z</time>
      </trkpt>
      <trkpt lat="43.36898" lon="-1.63685">
        <ele>4</ele>
        <time>2026-08-23T12:51:53.000Z</time>
      </trkpt>
      <trkpt lat="43.36857" lon="-1.63658">
        <ele>4</ele>
        <time>2026-08-23T12:52:01.000Z</time>
      </trkpt>
      <trkpt lat="43.36809" lon="-1.63627">
        <ele>5</ele>
        <time>2026-08-23T12:52:10.000Z</time>
      </trkpt>
      <trkpt lat="43.36787" lon="-1.63613">
        <ele>6</ele>
        <time>2026-08-23T12:52:15.000Z</time>
      </trkpt>
      <trkpt lat="43.36771" lon="-1.63603">
        <ele>6</ele>
        <time>2026-08-23T12:52:18.000Z</time>
      </trkpt>
      <trkpt lat="43.36756" lon="-1.63595">
        <ele>7</ele>
        <time>2026-08-23T12:52:21.000Z</time>
      </trkpt>
      <trkpt lat="43.36748" lon="-1.63591">
        <ele>7</ele>
        <time>2026-08-23T12:52:22.000Z</time>
      </trkpt>
      <trkpt lat="43.36734" lon="-1.63586">
        <ele>7</ele>
        <time>2026-08-23T12:52:25.000Z</time>
      </trkpt>
      <trkpt lat="43.36717" lon="-1.6358">
        <ele>7</ele>
        <time>2026-08-23T12:52:28.000Z</time>
      </trkpt>
      <trkpt lat="43.36701" lon="-1.63577">
        <ele>8</ele>
        <time>2026-08-23T12:52:31.000Z</time>
      </trkpt>
      <trkpt lat="43.36683" lon="-1.63575">
        <ele>8</ele>
        <time>2026-08-23T12:52:34.000Z</time>
      </trkpt>
      <trkpt lat="43.36668" lon="-1.63574">
        <ele>8</ele>
        <time>2026-08-23T12:52:37.000Z</time>
      </trkpt>
      <trkpt lat="43.36653" lon="-1.63575">
        <ele>8</ele>
        <time>2026-08-23T12:52:39.000Z</time>
      </trkpt>
      <trkpt lat="43.36641" lon="-1.63575">
        <ele>7</ele>
        <time>2026-08-23T12:52:41.000Z</time>
      </trkpt>
      <trkpt lat="43.36636" lon="-1.63576">
        <ele>7</ele>
        <time>2026-08-23T12:52:42.000Z</time>
      </trkpt>
      <trkpt lat="43.36633" lon="-1.63576">
        <ele>7</ele>
        <time>2026-08-23T12:52:43.000Z</time>
      </trkpt>
      <trkpt lat="43.36631" lon="-1.63577">
        <ele>7</ele>
        <time>2026-08-23T12:52:43.000Z</time>
      </trkpt>
      <trkpt lat="43.36616" lon="-1.6358">
        <ele>6</ele>
        <time>2026-08-23T12:52:46.000Z</time>
      </trkpt>
      <trkpt lat="43.36599" lon="-1.63585">
        <ele>6</ele>
        <time>2026-08-23T12:52:49.000Z</time>
      </trkpt>
      <trkpt lat="43.36581" lon="-1.63591">
        <ele>5</ele>
        <time>2026-08-23T12:52:52.000Z</time>
      </trkpt>
      <trkpt lat="43.36559" lon="-1.63598">
        <ele>5</ele>
        <time>2026-08-23T12:52:56.000Z</time>
      </trkpt>
      <trkpt lat="43.36551" lon="-1.63603">
        <ele>4</ele>
        <time>2026-08-23T12:52:58.000Z</time>
      </trkpt>
      <trkpt lat="43.36535" lon="-1.63609">
        <ele>4</ele>
        <time>2026-08-23T12:53:01.000Z</time>
      </trkpt>
      <trkpt lat="43.36502" lon="-1.63622">
        <ele>4</ele>
        <time>2026-08-23T12:53:07.000Z</time>
      </trkpt>
      <trkpt lat="43.36463" lon="-1.63635">
        <ele>5</ele>
        <time>2026-08-23T12:53:14.000Z</time>
      </trkpt>
      <trkpt lat="43.36461" lon="-1.63635">
        <ele>5</ele>
        <time>2026-08-23T12:53:14.000Z</time>
      </trkpt>
      <trkpt lat="43.36415" lon="-1.63651">
        <ele>7</ele>
        <time>2026-08-23T12:53:23.000Z</time>
      </trkpt>
      <trkpt lat="43.36403" lon="-1.63655">
        <ele>7</ele>
        <time>2026-08-23T12:53:25.000Z</time>
      </trkpt>
      <trkpt lat="43.3637" lon="-1.63665">
        <ele>7</ele>
        <time>2026-08-23T12:53:31.000Z</time>
      </trkpt>
      <trkpt lat="43.36356" lon="-1.63669">
        <ele>7</ele>
        <time>2026-08-23T12:53:34.000Z</time>
      </trkpt>
      <trkpt lat="43.36346" lon="-1.63671">
        <ele>7</ele>
        <time>2026-08-23T12:53:35.000Z</time>
      </trkpt>
      <trkpt lat="43.36337" lon="-1.63673">
        <ele>7</ele>
        <time>2026-08-23T12:53:37.000Z</time>
      </trkpt>
      <trkpt lat="43.36322" lon="-1.63674">
        <ele>7</ele>
        <time>2026-08-23T12:53:40.000Z</time>
      </trkpt>
      <trkpt lat="43.36309" lon="-1.63675">
        <ele>7</ele>
        <time>2026-08-23T12:53:42.000Z</time>
      </trkpt>
      <trkpt lat="43.36298" lon="-1.63675">
        <ele>6</ele>
        <time>2026-08-23T12:53:44.000Z</time>
      </trkpt>
      <trkpt lat="43.36287" lon="-1.63674">
        <ele>6</ele>
        <time>2026-08-23T12:53:46.000Z</time>
      </trkpt>
      <trkpt lat="43.36273" lon="-1.63671">
        <ele>6</ele>
        <time>2026-08-23T12:53:48.000Z</time>
      </trkpt>
      <trkpt lat="43.36268" lon="-1.63666">
        <ele>6</ele>
        <time>2026-08-23T12:53:50.000Z</time>
      </trkpt>
      <trkpt lat="43.36261" lon="-1.63665">
        <ele>6</ele>
        <time>2026-08-23T12:53:51.000Z</time>
      </trkpt>
      <trkpt lat="43.36255" lon="-1.63663">
        <ele>6</ele>
        <time>2026-08-23T12:53:52.000Z</time>
      </trkpt>
      <trkpt lat="43.36245" lon="-1.6366">
        <ele>6</ele>
        <time>2026-08-23T12:53:54.000Z</time>
      </trkpt>
      <trkpt lat="43.36235" lon="-1.63656">
        <ele>6</ele>
        <time>2026-08-23T12:53:56.000Z</time>
      </trkpt>
      <trkpt lat="43.36221" lon="-1.63649">
        <ele>6</ele>
        <time>2026-08-23T12:53:58.000Z</time>
      </trkpt>
      <trkpt lat="43.36214" lon="-1.63651">
        <ele>6</ele>
        <time>2026-08-23T12:54:00.000Z</time>
      </trkpt>
      <trkpt lat="43.36197" lon="-1.63644">
        <ele>6</ele>
        <time>2026-08-23T12:54:03.000Z</time>
      </trkpt>
      <trkpt lat="43.36171" lon="-1.63633">
        <ele>6</ele>
        <time>2026-08-23T12:54:07.000Z</time>
      </trkpt>
      <trkpt lat="43.36114" lon="-1.63609">
        <ele>5</ele>
        <time>2026-08-23T12:54:18.000Z</time>
      </trkpt>
      <trkpt lat="43.36108" lon="-1.63606">
        <ele>5</ele>
        <time>2026-08-23T12:54:19.000Z</time>
      </trkpt>
      <trkpt lat="43.361" lon="-1.636">
        <ele>5</ele>
        <time>2026-08-23T12:54:21.000Z</time>
      </trkpt>
      <trkpt lat="43.36096" lon="-1.63598">
        <ele>5</ele>
        <time>2026-08-23T12:54:22.000Z</time>
      </trkpt>
      <trkpt lat="43.3609" lon="-1.63595">
        <ele>5</ele>
        <time>2026-08-23T12:54:23.000Z</time>
      </trkpt>
      <trkpt lat="43.3608" lon="-1.63589">
        <ele>6</ele>
        <time>2026-08-23T12:54:25.000Z</time>
      </trkpt>
      <trkpt lat="43.36072" lon="-1.63582">
        <ele>6</ele>
        <time>2026-08-23T12:54:26.000Z</time>
      </trkpt>
      <trkpt lat="43.36065" lon="-1.63575">
        <ele>6</ele>
        <time>2026-08-23T12:54:28.000Z</time>
      </trkpt>
      <trkpt lat="43.36059" lon="-1.63568">
        <ele>6</ele>
        <time>2026-08-23T12:54:29.000Z</time>
      </trkpt>
      <trkpt lat="43.3605" lon="-1.63557">
        <ele>6</ele>
        <time>2026-08-23T12:54:31.000Z</time>
      </trkpt>
      <trkpt lat="43.36041" lon="-1.63544">
        <ele>6</ele>
        <time>2026-08-23T12:54:34.000Z</time>
      </trkpt>
      <trkpt lat="43.36033" lon="-1.63531">
        <ele>6</ele>
        <time>2026-08-23T12:54:36.000Z</time>
      </trkpt>
      <trkpt lat="43.36027" lon="-1.6352">
        <ele>6</ele>
        <time>2026-08-23T12:54:38.000Z</time>
      </trkpt>
      <trkpt lat="43.36022" lon="-1.63509">
        <ele>6</ele>
        <time>2026-08-23T12:54:39.000Z</time>
      </trkpt>
      <trkpt lat="43.36018" lon="-1.635">
        <ele>7</ele>
        <time>2026-08-23T12:54:41.000Z</time>
      </trkpt>
      <trkpt lat="43.36012" lon="-1.63486">
        <ele>7</ele>
        <time>2026-08-23T12:54:43.000Z</time>
      </trkpt>
      <trkpt lat="43.36007" lon="-1.63472">
        <ele>7</ele>
        <time>2026-08-23T12:54:45.000Z</time>
      </trkpt>
      <trkpt lat="43.36001" lon="-1.6346">
        <ele>8</ele>
        <time>2026-08-23T12:54:47.000Z</time>
      </trkpt>
      <trkpt lat="43.35996" lon="-1.63448">
        <ele>8</ele>
        <time>2026-08-23T12:54:49.000Z</time>
      </trkpt>
      <trkpt lat="43.35995" lon="-1.63444">
        <ele>8</ele>
        <time>2026-08-23T12:54:49.000Z</time>
      </trkpt>
      <trkpt lat="43.3599" lon="-1.63435">
        <ele>8</ele>
        <time>2026-08-23T12:54:51.000Z</time>
      </trkpt>
      <trkpt lat="43.35977" lon="-1.63416">
        <ele>9</ele>
        <time>2026-08-23T12:54:54.000Z</time>
      </trkpt>
      <trkpt lat="43.35963" lon="-1.63394">
        <ele>9</ele>
        <time>2026-08-23T12:54:58.000Z</time>
      </trkpt>
      <trkpt lat="43.35949" lon="-1.63373">
        <ele>9</ele>
        <time>2026-08-23T12:55:01.000Z</time>
      </trkpt>
      <trkpt lat="43.35936" lon="-1.63353">
        <ele>9</ele>
        <time>2026-08-23T12:55:05.000Z</time>
      </trkpt>
      <trkpt lat="43.35929" lon="-1.63344">
        <ele>9</ele>
        <time>2026-08-23T12:55:07.000Z</time>
      </trkpt>
      <trkpt lat="43.3592" lon="-1.63334">
        <ele>8</ele>
        <time>2026-08-23T12:55:09.000Z</time>
      </trkpt>
      <trkpt lat="43.35908" lon="-1.63322">
        <ele>9</ele>
        <time>2026-08-23T12:55:11.000Z</time>
      </trkpt>
      <trkpt lat="43.35896" lon="-1.6331">
        <ele>10</ele>
        <time>2026-08-23T12:55:14.000Z</time>
      </trkpt>
      <trkpt lat="43.35854" lon="-1.63273">
        <ele>9</ele>
        <time>2026-08-23T12:55:23.000Z</time>
      </trkpt>
      <trkpt lat="43.35825" lon="-1.63247">
        <ele>8</ele>
        <time>2026-08-23T12:55:29.000Z</time>
      </trkpt>
      <trkpt lat="43.35808" lon="-1.63232">
        <ele>9</ele>
        <time>2026-08-23T12:55:33.000Z</time>
      </trkpt>
      <trkpt lat="43.35793" lon="-1.6322">
        <ele>9</ele>
        <time>2026-08-23T12:55:36.000Z</time>
      </trkpt>
      <trkpt lat="43.35781" lon="-1.6321">
        <ele>9</ele>
        <time>2026-08-23T12:55:38.000Z</time>
      </trkpt>
      <trkpt lat="43.35768" lon="-1.63201">
        <ele>8</ele>
        <time>2026-08-23T12:55:41.000Z</time>
      </trkpt>
      <trkpt lat="43.35753" lon="-1.63193">
        <ele>7</ele>
        <time>2026-08-23T12:55:44.000Z</time>
      </trkpt>
      <trkpt lat="43.35736" lon="-1.63185">
        <ele>7</ele>
        <time>2026-08-23T12:55:47.000Z</time>
      </trkpt>
      <trkpt lat="43.35717" lon="-1.63177">
        <ele>7</ele>
        <time>2026-08-23T12:55:50.000Z</time>
      </trkpt>
      <trkpt lat="43.35716" lon="-1.63177">
        <ele>7</ele>
        <time>2026-08-23T12:55:51.000Z</time>
      </trkpt>
      <trkpt lat="43.35697" lon="-1.6317">
        <ele>6</ele>
        <time>2026-08-23T12:55:54.000Z</time>
      </trkpt>
      <trkpt lat="43.35673" lon="-1.63163">
        <ele>6</ele>
        <time>2026-08-23T12:55:58.000Z</time>
      </trkpt>
      <trkpt lat="43.35655" lon="-1.63157">
        <ele>6</ele>
        <time>2026-08-23T12:56:02.000Z</time>
      </trkpt>
      <trkpt lat="43.35647" lon="-1.63155">
        <ele>6</ele>
        <time>2026-08-23T12:56:03.000Z</time>
      </trkpt>
      <trkpt lat="43.35613" lon="-1.63143">
        <ele>5</ele>
        <time>2026-08-23T12:56:09.000Z</time>
      </trkpt>
      <trkpt lat="43.35543" lon="-1.63125">
        <ele>5</ele>
        <time>2026-08-23T12:56:22.000Z</time>
      </trkpt>
      <trkpt lat="43.35512" lon="-1.63118">
        <ele>6</ele>
        <time>2026-08-23T12:56:28.000Z</time>
      </trkpt>
      <trkpt lat="43.35482" lon="-1.63109">
        <ele>6</ele>
        <time>2026-08-23T12:56:33.000Z</time>
      </trkpt>
      <trkpt lat="43.35453" lon="-1.631">
        <ele>6</ele>
        <time>2026-08-23T12:56:38.000Z</time>
      </trkpt>
      <trkpt lat="43.35441" lon="-1.63096">
        <ele>6</ele>
        <time>2026-08-23T12:56:41.000Z</time>
      </trkpt>
      <trkpt lat="43.35426" lon="-1.63091">
        <ele>7</ele>
        <time>2026-08-23T12:56:43.000Z</time>
      </trkpt>
      <trkpt lat="43.35417" lon="-1.63087">
        <ele>7</ele>
        <time>2026-08-23T12:56:45.000Z</time>
      </trkpt>
      <trkpt lat="43.35405" lon="-1.63082">
        <ele>7</ele>
        <time>2026-08-23T12:56:47.000Z</time>
      </trkpt>
      <trkpt lat="43.35395" lon="-1.63077">
        <ele>7</ele>
        <time>2026-08-23T12:56:49.000Z</time>
      </trkpt>
      <trkpt lat="43.35386" lon="-1.63072">
        <ele>7</ele>
        <time>2026-08-23T12:56:51.000Z</time>
      </trkpt>
      <trkpt lat="43.35377" lon="-1.63066">
        <ele>7</ele>
        <time>2026-08-23T12:56:53.000Z</time>
      </trkpt>
      <trkpt lat="43.35366" lon="-1.63058">
        <ele>7</ele>
        <time>2026-08-23T12:56:55.000Z</time>
      </trkpt>
      <trkpt lat="43.35351" lon="-1.63045">
        <ele>7</ele>
        <time>2026-08-23T12:56:58.000Z</time>
      </trkpt>
      <trkpt lat="43.35342" lon="-1.63036">
        <ele>7</ele>
        <time>2026-08-23T12:57:00.000Z</time>
      </trkpt>
      <trkpt lat="43.3533" lon="-1.63025">
        <ele>7</ele>
        <time>2026-08-23T12:57:03.000Z</time>
      </trkpt>
      <trkpt lat="43.3532" lon="-1.63013">
        <ele>6</ele>
        <time>2026-08-23T12:57:05.000Z</time>
      </trkpt>
      <trkpt lat="43.3531" lon="-1.63002">
        <ele>6</ele>
        <time>2026-08-23T12:57:07.000Z</time>
      </trkpt>
      <trkpt lat="43.35302" lon="-1.62992">
        <ele>6</ele>
        <time>2026-08-23T12:57:09.000Z</time>
      </trkpt>
      <trkpt lat="43.35297" lon="-1.62986">
        <ele>6</ele>
        <time>2026-08-23T12:57:10.000Z</time>
      </trkpt>
      <trkpt lat="43.35291" lon="-1.62976">
        <ele>6</ele>
        <time>2026-08-23T12:57:12.000Z</time>
      </trkpt>
      <trkpt lat="43.35284" lon="-1.62963">
        <ele>6</ele>
        <time>2026-08-23T12:57:14.000Z</time>
      </trkpt>
      <trkpt lat="43.35274" lon="-1.62944">
        <ele>6</ele>
        <time>2026-08-23T12:57:17.000Z</time>
      </trkpt>
      <trkpt lat="43.35268" lon="-1.6293">
        <ele>6</ele>
        <time>2026-08-23T12:57:19.000Z</time>
      </trkpt>
      <trkpt lat="43.35263" lon="-1.62918">
        <ele>7</ele>
        <time>2026-08-23T12:57:21.000Z</time>
      </trkpt>
      <trkpt lat="43.35258" lon="-1.62906">
        <ele>6</ele>
        <time>2026-08-23T12:57:23.000Z</time>
      </trkpt>
      <trkpt lat="43.35251" lon="-1.62887">
        <ele>6</ele>
        <time>2026-08-23T12:57:26.000Z</time>
      </trkpt>
      <trkpt lat="43.35244" lon="-1.62867">
        <ele>6</ele>
        <time>2026-08-23T12:57:28.000Z</time>
      </trkpt>
      <trkpt lat="43.35236" lon="-1.62843">
        <ele>7</ele>
        <time>2026-08-23T12:57:32.000Z</time>
      </trkpt>
      <trkpt lat="43.35228" lon="-1.62818">
        <ele>7</ele>
        <time>2026-08-23T12:57:35.000Z</time>
      </trkpt>
      <trkpt lat="43.35221" lon="-1.62797">
        <ele>8</ele>
        <time>2026-08-23T12:57:38.000Z</time>
      </trkpt>
      <trkpt lat="43.35207" lon="-1.62758">
        <ele>8</ele>
        <time>2026-08-23T12:57:44.000Z</time>
      </trkpt>
      <trkpt lat="43.35189" lon="-1.62714">
        <ele>8</ele>
        <time>2026-08-23T12:57:51.000Z</time>
      </trkpt>
      <trkpt lat="43.3517" lon="-1.62665">
        <ele>8</ele>
        <time>2026-08-23T12:57:58.000Z</time>
      </trkpt>
      <trkpt lat="43.35157" lon="-1.62632">
        <ele>10</ele>
        <time>2026-08-23T12:58:03.000Z</time>
      </trkpt>
      <trkpt lat="43.35147" lon="-1.62608">
        <ele>11</ele>
        <time>2026-08-23T12:58:06.000Z</time>
      </trkpt>
      <trkpt lat="43.35145" lon="-1.62603">
        <ele>12</ele>
        <time>2026-08-23T12:58:07.000Z</time>
      </trkpt>
      <trkpt lat="43.3513" lon="-1.62562">
        <ele>12</ele>
        <time>2026-08-23T12:58:13.000Z</time>
      </trkpt>
      <trkpt lat="43.35121" lon="-1.62539">
        <ele>12</ele>
        <time>2026-08-23T12:58:16.000Z</time>
      </trkpt>
      <trkpt lat="43.35116" lon="-1.62524">
        <ele>11</ele>
        <time>2026-08-23T12:58:18.000Z</time>
      </trkpt>
      <trkpt lat="43.3511" lon="-1.62497">
        <ele>11</ele>
        <time>2026-08-23T12:58:22.000Z</time>
      </trkpt>
      <trkpt lat="43.35106" lon="-1.62475">
        <ele>11</ele>
        <time>2026-08-23T12:58:25.000Z</time>
      </trkpt>
      <trkpt lat="43.35103" lon="-1.62455">
        <ele>10</ele>
        <time>2026-08-23T12:58:28.000Z</time>
      </trkpt>
      <trkpt lat="43.35103" lon="-1.62449">
        <ele>11</ele>
        <time>2026-08-23T12:58:28.000Z</time>
      </trkpt>
      <trkpt lat="43.35102" lon="-1.62437">
        <ele>11</ele>
        <time>2026-08-23T12:58:30.000Z</time>
      </trkpt>
      <trkpt lat="43.35102" lon="-1.62423">
        <ele>11</ele>
        <time>2026-08-23T12:58:32.000Z</time>
      </trkpt>
      <trkpt lat="43.35102" lon="-1.62403">
        <ele>11</ele>
        <time>2026-08-23T12:58:34.000Z</time>
      </trkpt>
      <trkpt lat="43.35104" lon="-1.62381">
        <ele>10</ele>
        <time>2026-08-23T12:58:37.000Z</time>
      </trkpt>
      <trkpt lat="43.35105" lon="-1.62359">
        <ele>10</ele>
        <time>2026-08-23T12:58:40.000Z</time>
      </trkpt>
      <trkpt lat="43.35106" lon="-1.62351">
        <ele>10</ele>
        <time>2026-08-23T12:58:41.000Z</time>
      </trkpt>
      <trkpt lat="43.35107" lon="-1.62343">
        <ele>10</ele>
        <time>2026-08-23T12:58:42.000Z</time>
      </trkpt>
      <trkpt lat="43.35108" lon="-1.62337">
        <ele>10</ele>
        <time>2026-08-23T12:58:43.000Z</time>
      </trkpt>
      <trkpt lat="43.35109" lon="-1.6233">
        <ele>10</ele>
        <time>2026-08-23T12:58:44.000Z</time>
      </trkpt>
      <trkpt lat="43.3511" lon="-1.62326">
        <ele>10</ele>
        <time>2026-08-23T12:58:44.000Z</time>
      </trkpt>
      <trkpt lat="43.35111" lon="-1.62321">
        <ele>10</ele>
        <time>2026-08-23T12:58:45.000Z</time>
      </trkpt>
      <trkpt lat="43.35114" lon="-1.62315">
        <ele>11</ele>
        <time>2026-08-23T12:58:46.000Z</time>
      </trkpt>
      <trkpt lat="43.35116" lon="-1.62309">
        <ele>11</ele>
        <time>2026-08-23T12:58:47.000Z</time>
      </trkpt>
      <trkpt lat="43.35122" lon="-1.62299">
        <ele>11</ele>
        <time>2026-08-23T12:58:49.000Z</time>
      </trkpt>
      <trkpt lat="43.35125" lon="-1.62292">
        <ele>11</ele>
        <time>2026-08-23T12:58:50.000Z</time>
      </trkpt>
      <trkpt lat="43.35127" lon="-1.62288">
        <ele>11</ele>
        <time>2026-08-23T12:58:50.000Z</time>
      </trkpt>
      <trkpt lat="43.35142" lon="-1.6226">
        <ele>11</ele>
        <time>2026-08-23T12:58:55.000Z</time>
      </trkpt>
      <trkpt lat="43.35152" lon="-1.62239">
        <ele>10</ele>
        <time>2026-08-23T12:58:58.000Z</time>
      </trkpt>
      <trkpt lat="43.35168" lon="-1.62208">
        <ele>10</ele>
        <time>2026-08-23T12:59:03.000Z</time>
      </trkpt>
      <trkpt lat="43.35178" lon="-1.62189">
        <ele>10</ele>
        <time>2026-08-23T12:59:06.000Z</time>
      </trkpt>
      <trkpt lat="43.35188" lon="-1.62171">
        <ele>11</ele>
        <time>2026-08-23T12:59:09.000Z</time>
      </trkpt>
      <trkpt lat="43.35193" lon="-1.62165">
        <ele>11</ele>
        <time>2026-08-23T12:59:10.000Z</time>
      </trkpt>
      <trkpt lat="43.35198" lon="-1.62158">
        <ele>12</ele>
        <time>2026-08-23T12:59:11.000Z</time>
      </trkpt>
      <trkpt lat="43.35202" lon="-1.62154">
        <ele>12</ele>
        <time>2026-08-23T12:59:12.000Z</time>
      </trkpt>
      <trkpt lat="43.35207" lon="-1.62149">
        <ele>12</ele>
        <time>2026-08-23T12:59:13.000Z</time>
      </trkpt>
      <trkpt lat="43.35213" lon="-1.62144">
        <ele>12</ele>
        <time>2026-08-23T12:59:15.000Z</time>
      </trkpt>
      <trkpt lat="43.35217" lon="-1.6214">
        <ele>13</ele>
        <time>2026-08-23T12:59:15.000Z</time>
      </trkpt>
      <trkpt lat="43.35221" lon="-1.62137">
        <ele>13</ele>
        <time>2026-08-23T12:59:16.000Z</time>
      </trkpt>
      <trkpt lat="43.35224" lon="-1.62135">
        <ele>13</ele>
        <time>2026-08-23T12:59:17.000Z</time>
      </trkpt>
      <trkpt lat="43.35231" lon="-1.6213">
        <ele>13</ele>
        <time>2026-08-23T12:59:18.000Z</time>
      </trkpt>
      <trkpt lat="43.35235" lon="-1.62128">
        <ele>13</ele>
        <time>2026-08-23T12:59:19.000Z</time>
      </trkpt>
      <trkpt lat="43.35243" lon="-1.62124">
        <ele>14</ele>
        <time>2026-08-23T12:59:21.000Z</time>
      </trkpt>
      <trkpt lat="43.35252" lon="-1.6212">
        <ele>14</ele>
        <time>2026-08-23T12:59:22.000Z</time>
      </trkpt>
      <trkpt lat="43.35271" lon="-1.62113">
        <ele>16</ele>
        <time>2026-08-23T12:59:26.000Z</time>
      </trkpt>
      <trkpt lat="43.35285" lon="-1.62107">
        <ele>17</ele>
        <time>2026-08-23T12:59:28.000Z</time>
      </trkpt>
      <trkpt lat="43.35307" lon="-1.62098">
        <ele>18</ele>
        <time>2026-08-23T12:59:32.000Z</time>
      </trkpt>
      <trkpt lat="43.35336" lon="-1.62087">
        <ele>19</ele>
        <time>2026-08-23T12:59:38.000Z</time>
      </trkpt>
      <trkpt lat="43.35365" lon="-1.62076">
        <ele>20</ele>
        <time>2026-08-23T12:59:43.000Z</time>
      </trkpt>
      <trkpt lat="43.35389" lon="-1.62066">
        <ele>21</ele>
        <time>2026-08-23T12:59:48.000Z</time>
      </trkpt>
      <trkpt lat="43.35402" lon="-1.6206">
        <ele>21</ele>
        <time>2026-08-23T12:59:50.000Z</time>
      </trkpt>
      <trkpt lat="43.3541" lon="-1.62056">
        <ele>21</ele>
        <time>2026-08-23T12:59:52.000Z</time>
      </trkpt>
      <trkpt lat="43.35415" lon="-1.62054">
        <ele>21</ele>
        <time>2026-08-23T12:59:52.000Z</time>
      </trkpt>
      <trkpt lat="43.35422" lon="-1.62049">
        <ele>20</ele>
        <time>2026-08-23T12:59:54.000Z</time>
      </trkpt>
      <trkpt lat="43.35433" lon="-1.62042">
        <ele>20</ele>
        <time>2026-08-23T12:59:56.000Z</time>
      </trkpt>
      <trkpt lat="43.35443" lon="-1.62035">
        <ele>20</ele>
        <time>2026-08-23T12:59:58.000Z</time>
      </trkpt>
      <trkpt lat="43.35454" lon="-1.62026">
        <ele>19</ele>
        <time>2026-08-23T13:00:00.000Z</time>
      </trkpt>
      <trkpt lat="43.35468" lon="-1.62014">
        <ele>19</ele>
        <time>2026-08-23T13:00:03.000Z</time>
      </trkpt>
      <trkpt lat="43.35481" lon="-1.62002">
        <ele>18</ele>
        <time>2026-08-23T13:00:06.000Z</time>
      </trkpt>
      <trkpt lat="43.35493" lon="-1.6199">
        <ele>18</ele>
        <time>2026-08-23T13:00:09.000Z</time>
      </trkpt>
      <trkpt lat="43.35504" lon="-1.61975">
        <ele>17</ele>
        <time>2026-08-23T13:00:11.000Z</time>
      </trkpt>
      <trkpt lat="43.35513" lon="-1.61962">
        <ele>17</ele>
        <time>2026-08-23T13:00:14.000Z</time>
      </trkpt>
      <trkpt lat="43.35532" lon="-1.61933">
        <ele>17</ele>
        <time>2026-08-23T13:00:19.000Z</time>
      </trkpt>
      <trkpt lat="43.35566" lon="-1.6188">
        <ele>16</ele>
        <time>2026-08-23T13:00:28.000Z</time>
      </trkpt>
      <trkpt lat="43.35594" lon="-1.61837">
        <ele>12</ele>
        <time>2026-08-23T13:00:35.000Z</time>
      </trkpt>
      <trkpt lat="43.35615" lon="-1.61803">
        <ele>13</ele>
        <time>2026-08-23T13:00:41.000Z</time>
      </trkpt>
      <trkpt lat="43.35638" lon="-1.61767">
        <ele>15</ele>
        <time>2026-08-23T13:00:47.000Z</time>
      </trkpt>
      <trkpt lat="43.35668" lon="-1.6172">
        <ele>15</ele>
        <time>2026-08-23T13:00:55.000Z</time>
      </trkpt>
      <trkpt lat="43.35689" lon="-1.61686">
        <ele>16</ele>
        <time>2026-08-23T13:01:01.000Z</time>
      </trkpt>
      <trkpt lat="43.35714" lon="-1.61647">
        <ele>17</ele>
        <time>2026-08-23T13:01:08.000Z</time>
      </trkpt>
      <trkpt lat="43.35742" lon="-1.61603">
        <ele>15</ele>
        <time>2026-08-23T13:01:15.000Z</time>
      </trkpt>
      <trkpt lat="43.35758" lon="-1.61578">
        <ele>14</ele>
        <time>2026-08-23T13:01:20.000Z</time>
      </trkpt>
      <trkpt lat="43.35779" lon="-1.61546">
        <ele>14</ele>
        <time>2026-08-23T13:01:25.000Z</time>
      </trkpt>
      <trkpt lat="43.3579" lon="-1.61528">
        <ele>14</ele>
        <time>2026-08-23T13:01:28.000Z</time>
      </trkpt>
      <trkpt lat="43.358" lon="-1.61516">
        <ele>13</ele>
        <time>2026-08-23T13:01:31.000Z</time>
      </trkpt>
      <trkpt lat="43.35811" lon="-1.61503">
        <ele>12</ele>
        <time>2026-08-23T13:01:33.000Z</time>
      </trkpt>
      <trkpt lat="43.35826" lon="-1.61489">
        <ele>12</ele>
        <time>2026-08-23T13:01:37.000Z</time>
      </trkpt>
      <trkpt lat="43.35841" lon="-1.61476">
        <ele>13</ele>
        <time>2026-08-23T13:01:40.000Z</time>
      </trkpt>
      <trkpt lat="43.35872" lon="-1.61452">
        <ele>16</ele>
        <time>2026-08-23T13:01:46.000Z</time>
      </trkpt>
      <trkpt lat="43.35895" lon="-1.61433">
        <ele>16</ele>
        <time>2026-08-23T13:01:51.000Z</time>
      </trkpt>
      <trkpt lat="43.35903" lon="-1.61426">
        <ele>16</ele>
        <time>2026-08-23T13:01:53.000Z</time>
      </trkpt>
      <trkpt lat="43.3591" lon="-1.6142">
        <ele>16</ele>
        <time>2026-08-23T13:01:54.000Z</time>
      </trkpt>
      <trkpt lat="43.3592" lon="-1.61409">
        <ele>16</ele>
        <time>2026-08-23T13:01:56.000Z</time>
      </trkpt>
      <trkpt lat="43.35932" lon="-1.61396">
        <ele>15</ele>
        <time>2026-08-23T13:01:59.000Z</time>
      </trkpt>
      <trkpt lat="43.3594" lon="-1.61386">
        <ele>15</ele>
        <time>2026-08-23T13:02:01.000Z</time>
      </trkpt>
      <trkpt lat="43.35953" lon="-1.61369">
        <ele>14</ele>
        <time>2026-08-23T13:02:04.000Z</time>
      </trkpt>
      <trkpt lat="43.35992" lon="-1.6132">
        <ele>11</ele>
        <time>2026-08-23T13:02:14.000Z</time>
      </trkpt>
      <trkpt lat="43.36005" lon="-1.61304">
        <ele>11</ele>
        <time>2026-08-23T13:02:17.000Z</time>
      </trkpt>
      <trkpt lat="43.36026" lon="-1.61276">
        <ele>11</ele>
        <time>2026-08-23T13:02:22.000Z</time>
      </trkpt>
      <trkpt lat="43.36036" lon="-1.61262">
        <ele>11</ele>
        <time>2026-08-23T13:02:24.000Z</time>
      </trkpt>
      <trkpt lat="43.36042" lon="-1.61254">
        <ele>11</ele>
        <time>2026-08-23T13:02:26.000Z</time>
      </trkpt>
      <trkpt lat="43.36048" lon="-1.61243">
        <ele>11</ele>
        <time>2026-08-23T13:02:28.000Z</time>
      </trkpt>
      <trkpt lat="43.36058" lon="-1.61226">
        <ele>11</ele>
        <time>2026-08-23T13:02:30.000Z</time>
      </trkpt>
      <trkpt lat="43.36068" lon="-1.61204">
        <ele>11</ele>
        <time>2026-08-23T13:02:34.000Z</time>
      </trkpt>
      <trkpt lat="43.36076" lon="-1.61184">
        <ele>12</ele>
        <time>2026-08-23T13:02:37.000Z</time>
      </trkpt>
      <trkpt lat="43.36079" lon="-1.61175">
        <ele>12</ele>
        <time>2026-08-23T13:02:38.000Z</time>
      </trkpt>
      <trkpt lat="43.36082" lon="-1.61167">
        <ele>12</ele>
        <time>2026-08-23T13:02:39.000Z</time>
      </trkpt>
      <trkpt lat="43.36087" lon="-1.61149">
        <ele>13</ele>
        <time>2026-08-23T13:02:42.000Z</time>
      </trkpt>
      <trkpt lat="43.36088" lon="-1.61141">
        <ele>13</ele>
        <time>2026-08-23T13:02:43.000Z</time>
      </trkpt>
      <trkpt lat="43.36092" lon="-1.6112">
        <ele>14</ele>
        <time>2026-08-23T13:02:46.000Z</time>
      </trkpt>
      <trkpt lat="43.36094" lon="-1.61106">
        <ele>14</ele>
        <time>2026-08-23T13:02:47.000Z</time>
      </trkpt>
      <trkpt lat="43.36096" lon="-1.61087">
        <ele>14</ele>
        <time>2026-08-23T13:02:50.000Z</time>
      </trkpt>
      <trkpt lat="43.36098" lon="-1.61075">
        <ele>15</ele>
        <time>2026-08-23T13:02:51.000Z</time>
      </trkpt>
      <trkpt lat="43.36099" lon="-1.61059">
        <ele>15</ele>
        <time>2026-08-23T13:02:54.000Z</time>
      </trkpt>
      <trkpt lat="43.361" lon="-1.61043">
        <ele>16</ele>
        <time>2026-08-23T13:02:56.000Z</time>
      </trkpt>
      <trkpt lat="43.36101" lon="-1.61017">
        <ele>16</ele>
        <time>2026-08-23T13:02:59.000Z</time>
      </trkpt>
      <trkpt lat="43.36102" lon="-1.60996">
        <ele>17</ele>
        <time>2026-08-23T13:03:02.000Z</time>
      </trkpt>
      <trkpt lat="43.36104" lon="-1.60959">
        <ele>16</ele>
        <time>2026-08-23T13:03:07.000Z</time>
      </trkpt>
      <trkpt lat="43.36105" lon="-1.60957">
        <ele>16</ele>
        <time>2026-08-23T13:03:07.000Z</time>
      </trkpt>
      <trkpt lat="43.36107" lon="-1.60911">
        <ele>15</ele>
        <time>2026-08-23T13:03:13.000Z</time>
      </trkpt>
      <trkpt lat="43.36109" lon="-1.60875">
        <ele>15</ele>
        <time>2026-08-23T13:03:17.000Z</time>
      </trkpt>
      <trkpt lat="43.36112" lon="-1.60861">
        <ele>16</ele>
        <time>2026-08-23T13:03:19.000Z</time>
      </trkpt>
      <trkpt lat="43.36113" lon="-1.60832">
        <ele>16</ele>
        <time>2026-08-23T13:03:23.000Z</time>
      </trkpt>
      <trkpt lat="43.36116" lon="-1.6078">
        <ele>17</ele>
        <time>2026-08-23T13:03:30.000Z</time>
      </trkpt>
      <trkpt lat="43.36117" lon="-1.60759">
        <ele>18</ele>
        <time>2026-08-23T13:03:33.000Z</time>
      </trkpt>
      <trkpt lat="43.36117" lon="-1.60752">
        <ele>18</ele>
        <time>2026-08-23T13:03:33.000Z</time>
      </trkpt>
      <trkpt lat="43.36117" lon="-1.60739">
        <ele>18</ele>
        <time>2026-08-23T13:03:35.000Z</time>
      </trkpt>
      <trkpt lat="43.36117" lon="-1.60726">
        <ele>18</ele>
        <time>2026-08-23T13:03:37.000Z</time>
      </trkpt>
      <trkpt lat="43.36116" lon="-1.60708">
        <ele>18</ele>
        <time>2026-08-23T13:03:39.000Z</time>
      </trkpt>
      <trkpt lat="43.36115" lon="-1.60689">
        <ele>18</ele>
        <time>2026-08-23T13:03:42.000Z</time>
      </trkpt>
      <trkpt lat="43.36113" lon="-1.60672">
        <ele>18</ele>
        <time>2026-08-23T13:03:44.000Z</time>
      </trkpt>
      <trkpt lat="43.36112" lon="-1.60659">
        <ele>18</ele>
        <time>2026-08-23T13:03:46.000Z</time>
      </trkpt>
      <trkpt lat="43.3611" lon="-1.60644">
        <ele>18</ele>
        <time>2026-08-23T13:03:48.000Z</time>
      </trkpt>
      <trkpt lat="43.36106" lon="-1.60609">
        <ele>18</ele>
        <time>2026-08-23T13:03:52.000Z</time>
      </trkpt>
      <trkpt lat="43.36103" lon="-1.60584">
        <ele>18</ele>
        <time>2026-08-23T13:03:55.000Z</time>
      </trkpt>
      <trkpt lat="43.36102" lon="-1.60567">
        <ele>18</ele>
        <time>2026-08-23T13:03:58.000Z</time>
      </trkpt>
      <trkpt lat="43.36101" lon="-1.60551">
        <ele>17</ele>
        <time>2026-08-23T13:04:00.000Z</time>
      </trkpt>
      <trkpt lat="43.36101" lon="-1.60537">
        <ele>17</ele>
        <time>2026-08-23T13:04:01.000Z</time>
      </trkpt>
      <trkpt lat="43.36101" lon="-1.60516">
        <ele>17</ele>
        <time>2026-08-23T13:04:04.000Z</time>
      </trkpt>
      <trkpt lat="43.36102" lon="-1.60503">
        <ele>17</ele>
        <time>2026-08-23T13:04:06.000Z</time>
      </trkpt>
      <trkpt lat="43.36104" lon="-1.60486">
        <ele>17</ele>
        <time>2026-08-23T13:04:08.000Z</time>
      </trkpt>
      <trkpt lat="43.36108" lon="-1.60465">
        <ele>16</ele>
        <time>2026-08-23T13:04:11.000Z</time>
      </trkpt>
      <trkpt lat="43.36113" lon="-1.60445">
        <ele>16</ele>
        <time>2026-08-23T13:04:14.000Z</time>
      </trkpt>
      <trkpt lat="43.36116" lon="-1.60437">
        <ele>16</ele>
        <time>2026-08-23T13:04:15.000Z</time>
      </trkpt>
      <trkpt lat="43.36119" lon="-1.60427">
        <ele>15</ele>
        <time>2026-08-23T13:04:16.000Z</time>
      </trkpt>
      <trkpt lat="43.36125" lon="-1.60412">
        <ele>15</ele>
        <time>2026-08-23T13:04:18.000Z</time>
      </trkpt>
      <trkpt lat="43.36132" lon="-1.60396">
        <ele>15</ele>
        <time>2026-08-23T13:04:21.000Z</time>
      </trkpt>
      <trkpt lat="43.36135" lon="-1.60388">
        <ele>15</ele>
        <time>2026-08-23T13:04:22.000Z</time>
      </trkpt>
      <trkpt lat="43.36139" lon="-1.60381">
        <ele>15</ele>
        <time>2026-08-23T13:04:23.000Z</time>
      </trkpt>
      <trkpt lat="43.36143" lon="-1.60375">
        <ele>15</ele>
        <time>2026-08-23T13:04:24.000Z</time>
      </trkpt>
      <trkpt lat="43.36147" lon="-1.60369">
        <ele>14</ele>
        <time>2026-08-23T13:04:25.000Z</time>
      </trkpt>
      <trkpt lat="43.36158" lon="-1.60355">
        <ele>14</ele>
        <time>2026-08-23T13:04:28.000Z</time>
      </trkpt>
      <trkpt lat="43.36163" lon="-1.60348">
        <ele>14</ele>
        <time>2026-08-23T13:04:29.000Z</time>
      </trkpt>
      <trkpt lat="43.3617" lon="-1.60341">
        <ele>13</ele>
        <time>2026-08-23T13:04:31.000Z</time>
      </trkpt>
      <trkpt lat="43.36175" lon="-1.60334">
        <ele>13</ele>
        <time>2026-08-23T13:04:32.000Z</time>
      </trkpt>
      <trkpt lat="43.3618" lon="-1.60329">
        <ele>13</ele>
        <time>2026-08-23T13:04:33.000Z</time>
      </trkpt>
      <trkpt lat="43.36198" lon="-1.60313">
        <ele>15</ele>
        <time>2026-08-23T13:04:37.000Z</time>
      </trkpt>
      <trkpt lat="43.36212" lon="-1.60301">
        <ele>16</ele>
        <time>2026-08-23T13:04:40.000Z</time>
      </trkpt>
      <trkpt lat="43.36229" lon="-1.60286">
        <ele>17</ele>
        <time>2026-08-23T13:04:43.000Z</time>
      </trkpt>
      <trkpt lat="43.36258" lon="-1.60262">
        <ele>18</ele>
        <time>2026-08-23T13:04:49.000Z</time>
      </trkpt>
      <trkpt lat="43.36289" lon="-1.60232">
        <ele>20</ele>
        <time>2026-08-23T13:04:56.000Z</time>
      </trkpt>
      <trkpt lat="43.36292" lon="-1.60229">
        <ele>20</ele>
        <time>2026-08-23T13:04:57.000Z</time>
      </trkpt>
      <trkpt lat="43.36299" lon="-1.60221">
        <ele>20</ele>
        <time>2026-08-23T13:04:59.000Z</time>
      </trkpt>
      <trkpt lat="43.36304" lon="-1.60215">
        <ele>20</ele>
        <time>2026-08-23T13:05:00.000Z</time>
      </trkpt>
      <trkpt lat="43.3631" lon="-1.60208">
        <ele>20</ele>
        <time>2026-08-23T13:05:01.000Z</time>
      </trkpt>
      <trkpt lat="43.36318" lon="-1.60196">
        <ele>19</ele>
        <time>2026-08-23T13:05:03.000Z</time>
      </trkpt>
      <trkpt lat="43.36322" lon="-1.6019">
        <ele>19</ele>
        <time>2026-08-23T13:05:04.000Z</time>
      </trkpt>
      <trkpt lat="43.36329" lon="-1.60177">
        <ele>17</ele>
        <time>2026-08-23T13:05:06.000Z</time>
      </trkpt>
      <trkpt lat="43.36334" lon="-1.60167">
        <ele>16</ele>
        <time>2026-08-23T13:05:08.000Z</time>
      </trkpt>
      <trkpt lat="43.36337" lon="-1.60161">
        <ele>16</ele>
        <time>2026-08-23T13:05:09.000Z</time>
      </trkpt>
      <trkpt lat="43.3634" lon="-1.60153">
        <ele>16</ele>
        <time>2026-08-23T13:05:10.000Z</time>
      </trkpt>
      <trkpt lat="43.36345" lon="-1.6014">
        <ele>16</ele>
        <time>2026-08-23T13:05:12.000Z</time>
      </trkpt>
      <trkpt lat="43.36351" lon="-1.60124">
        <ele>16</ele>
        <time>2026-08-23T13:05:14.000Z</time>
      </trkpt>
      <trkpt lat="43.36355" lon="-1.60113">
        <ele>16</ele>
        <time>2026-08-23T13:05:16.000Z</time>
      </trkpt>
      <trkpt lat="43.36358" lon="-1.60105">
        <ele>16</ele>
        <time>2026-08-23T13:05:17.000Z</time>
      </trkpt>
      <trkpt lat="43.36362" lon="-1.60094">
        <ele>16</ele>
        <time>2026-08-23T13:05:19.000Z</time>
      </trkpt>
      <trkpt lat="43.36367" lon="-1.6008">
        <ele>15</ele>
        <time>2026-08-23T13:05:21.000Z</time>
      </trkpt>
      <trkpt lat="43.36375" lon="-1.60065">
        <ele>15</ele>
        <time>2026-08-23T13:05:23.000Z</time>
      </trkpt>
      <trkpt lat="43.36381" lon="-1.60052">
        <ele>15</ele>
        <time>2026-08-23T13:05:25.000Z</time>
      </trkpt>
      <trkpt lat="43.3639" lon="-1.60038">
        <ele>15</ele>
        <time>2026-08-23T13:05:27.000Z</time>
      </trkpt>
      <trkpt lat="43.364" lon="-1.6002">
        <ele>14</ele>
        <time>2026-08-23T13:05:30.000Z</time>
      </trkpt>
      <trkpt lat="43.36411" lon="-1.60004">
        <ele>13</ele>
        <time>2026-08-23T13:05:33.000Z</time>
      </trkpt>
      <trkpt lat="43.36421" lon="-1.59991">
        <ele>13</ele>
        <time>2026-08-23T13:05:36.000Z</time>
      </trkpt>
      <trkpt lat="43.36432" lon="-1.59979">
        <ele>14</ele>
        <time>2026-08-23T13:05:38.000Z</time>
      </trkpt>
      <trkpt lat="43.36444" lon="-1.59966">
        <ele>14</ele>
        <time>2026-08-23T13:05:41.000Z</time>
      </trkpt>
      <trkpt lat="43.36456" lon="-1.59956">
        <ele>14</ele>
        <time>2026-08-23T13:05:43.000Z</time>
      </trkpt>
      <trkpt lat="43.36469" lon="-1.59944">
        <ele>14</ele>
        <time>2026-08-23T13:05:46.000Z</time>
      </trkpt>
      <trkpt lat="43.36488" lon="-1.5993">
        <ele>13</ele>
        <time>2026-08-23T13:05:50.000Z</time>
      </trkpt>
      <trkpt lat="43.36497" lon="-1.59923">
        <ele>13</ele>
        <time>2026-08-23T13:05:52.000Z</time>
      </trkpt>
      <trkpt lat="43.36511" lon="-1.59913">
        <ele>13</ele>
        <time>2026-08-23T13:05:55.000Z</time>
      </trkpt>
      <trkpt lat="43.36516" lon="-1.5991">
        <ele>14</ele>
        <time>2026-08-23T13:05:56.000Z</time>
      </trkpt>
      <trkpt lat="43.36519" lon="-1.59907">
        <ele>14</ele>
        <time>2026-08-23T13:05:56.000Z</time>
      </trkpt>
      <trkpt lat="43.36523" lon="-1.59904">
        <ele>15</ele>
        <time>2026-08-23T13:05:57.000Z</time>
      </trkpt>
      <trkpt lat="43.36528" lon="-1.599">
        <ele>15</ele>
        <time>2026-08-23T13:05:58.000Z</time>
      </trkpt>
      <trkpt lat="43.3653" lon="-1.59897">
        <ele>15</ele>
        <time>2026-08-23T13:05:59.000Z</time>
      </trkpt>
      <trkpt lat="43.36533" lon="-1.59895">
        <ele>16</ele>
        <time>2026-08-23T13:05:59.000Z</time>
      </trkpt>
      <trkpt lat="43.36535" lon="-1.59892">
        <ele>16</ele>
        <time>2026-08-23T13:06:00.000Z</time>
      </trkpt>
      <trkpt lat="43.36537" lon="-1.59889">
        <ele>16</ele>
        <time>2026-08-23T13:06:00.000Z</time>
      </trkpt>
      <trkpt lat="43.36541" lon="-1.59882">
        <ele>16</ele>
        <time>2026-08-23T13:06:01.000Z</time>
      </trkpt>
      <trkpt lat="43.36546" lon="-1.59875">
        <ele>17</ele>
        <time>2026-08-23T13:06:03.000Z</time>
      </trkpt>
      <trkpt lat="43.3655" lon="-1.59867">
        <ele>17</ele>
        <time>2026-08-23T13:06:04.000Z</time>
      </trkpt>
      <trkpt lat="43.36553" lon="-1.59861">
        <ele>17</ele>
        <time>2026-08-23T13:06:05.000Z</time>
      </trkpt>
      <trkpt lat="43.36556" lon="-1.59854">
        <ele>18</ele>
        <time>2026-08-23T13:06:06.000Z</time>
      </trkpt>
      <trkpt lat="43.36557" lon="-1.5985">
        <ele>18</ele>
        <time>2026-08-23T13:06:07.000Z</time>
      </trkpt>
      <trkpt lat="43.36558" lon="-1.59845">
        <ele>18</ele>
        <time>2026-08-23T13:06:07.000Z</time>
      </trkpt>
      <trkpt lat="43.3656" lon="-1.59839">
        <ele>18</ele>
        <time>2026-08-23T13:06:08.000Z</time>
      </trkpt>
      <trkpt lat="43.36562" lon="-1.59828">
        <ele>18</ele>
        <time>2026-08-23T13:06:10.000Z</time>
      </trkpt>
      <trkpt lat="43.36564" lon="-1.59818">
        <ele>18</ele>
        <time>2026-08-23T13:06:11.000Z</time>
      </trkpt>
      <trkpt lat="43.36566" lon="-1.59803">
        <ele>18</ele>
        <time>2026-08-23T13:06:13.000Z</time>
      </trkpt>
      <trkpt lat="43.36575" lon="-1.59691">
        <ele>18</ele>
        <time>2026-08-23T13:06:27.000Z</time>
      </trkpt>
      <trkpt lat="43.36582" lon="-1.59605">
        <ele>13</ele>
        <time>2026-08-23T13:06:39.000Z</time>
      </trkpt>
      <trkpt lat="43.36588" lon="-1.59545">
        <ele>11</ele>
        <time>2026-08-23T13:06:46.000Z</time>
      </trkpt>
      <trkpt lat="43.36591" lon="-1.59506">
        <ele>10</ele>
        <time>2026-08-23T13:06:51.000Z</time>
      </trkpt>
      <trkpt lat="43.36591" lon="-1.5949">
        <ele>9</ele>
        <time>2026-08-23T13:06:54.000Z</time>
      </trkpt>
      <trkpt lat="43.36592" lon="-1.59476">
        <ele>9</ele>
        <time>2026-08-23T13:06:55.000Z</time>
      </trkpt>
      <trkpt lat="43.36591" lon="-1.59458">
        <ele>9</ele>
        <time>2026-08-23T13:06:58.000Z</time>
      </trkpt>
      <trkpt lat="43.36589" lon="-1.59436">
        <ele>9</ele>
        <time>2026-08-23T13:07:01.000Z</time>
      </trkpt>
      <trkpt lat="43.36586" lon="-1.59409">
        <ele>9</ele>
        <time>2026-08-23T13:07:04.000Z</time>
      </trkpt>
      <trkpt lat="43.36584" lon="-1.59396">
        <ele>9</ele>
        <time>2026-08-23T13:07:06.000Z</time>
      </trkpt>
      <trkpt lat="43.3658" lon="-1.59376">
        <ele>9</ele>
        <time>2026-08-23T13:07:09.000Z</time>
      </trkpt>
      <trkpt lat="43.36574" lon="-1.59349">
        <ele>9</ele>
        <time>2026-08-23T13:07:12.000Z</time>
      </trkpt>
      <trkpt lat="43.36562" lon="-1.59304">
        <ele>9</ele>
        <time>2026-08-23T13:07:18.000Z</time>
      </trkpt>
      <trkpt lat="43.36548" lon="-1.5926">
        <ele>10</ele>
        <time>2026-08-23T13:07:25.000Z</time>
      </trkpt>
      <trkpt lat="43.36538" lon="-1.59228">
        <ele>10</ele>
        <time>2026-08-23T13:07:29.000Z</time>
      </trkpt>
      <trkpt lat="43.3651" lon="-1.59136">
        <ele>9</ele>
        <time>2026-08-23T13:07:42.000Z</time>
      </trkpt>
      <trkpt lat="43.36481" lon="-1.59044">
        <ele>9</ele>
        <time>2026-08-23T13:07:55.000Z</time>
      </trkpt>
      <trkpt lat="43.3648" lon="-1.59037">
        <ele>9</ele>
        <time>2026-08-23T13:07:56.000Z</time>
      </trkpt>
      <trkpt lat="43.3647" lon="-1.59005">
        <ele>10</ele>
        <time>2026-08-23T13:08:00.000Z</time>
      </trkpt>
      <trkpt lat="43.36465" lon="-1.58989">
        <ele>10</ele>
        <time>2026-08-23T13:08:03.000Z</time>
      </trkpt>
      <trkpt lat="43.3646" lon="-1.58976">
        <ele>11</ele>
        <time>2026-08-23T13:08:05.000Z</time>
      </trkpt>
      <trkpt lat="43.36454" lon="-1.58963">
        <ele>11</ele>
        <time>2026-08-23T13:08:07.000Z</time>
      </trkpt>
      <trkpt lat="43.36448" lon="-1.5895">
        <ele>12</ele>
        <time>2026-08-23T13:08:09.000Z</time>
      </trkpt>
      <trkpt lat="43.36439" lon="-1.58935">
        <ele>12</ele>
        <time>2026-08-23T13:08:11.000Z</time>
      </trkpt>
      <trkpt lat="43.3643" lon="-1.58921">
        <ele>12</ele>
        <time>2026-08-23T13:08:13.000Z</time>
      </trkpt>
      <trkpt lat="43.36423" lon="-1.58911">
        <ele>13</ele>
        <time>2026-08-23T13:08:15.000Z</time>
      </trkpt>
      <trkpt lat="43.36413" lon="-1.58899">
        <ele>15</ele>
        <time>2026-08-23T13:08:18.000Z</time>
      </trkpt>
      <trkpt lat="43.36407" lon="-1.58892">
        <ele>16</ele>
        <time>2026-08-23T13:08:19.000Z</time>
      </trkpt>
      <trkpt lat="43.36402" lon="-1.58886">
        <ele>17</ele>
        <time>2026-08-23T13:08:20.000Z</time>
      </trkpt>
      <trkpt lat="43.36356" lon="-1.58846">
        <ele>18</ele>
        <time>2026-08-23T13:08:30.000Z</time>
      </trkpt>
      <trkpt lat="43.36336" lon="-1.58829">
        <ele>18</ele>
        <time>2026-08-23T13:08:34.000Z</time>
      </trkpt>
      <trkpt lat="43.36323" lon="-1.58817">
        <ele>19</ele>
        <time>2026-08-23T13:08:37.000Z</time>
      </trkpt>
      <trkpt lat="43.36306" lon="-1.58801">
        <ele>19</ele>
        <time>2026-08-23T13:08:41.000Z</time>
      </trkpt>
      <trkpt lat="43.36292" lon="-1.58786">
        <ele>18</ele>
        <time>2026-08-23T13:08:44.000Z</time>
      </trkpt>
      <trkpt lat="43.36282" lon="-1.58772">
        <ele>18</ele>
        <time>2026-08-23T13:08:46.000Z</time>
      </trkpt>
      <trkpt lat="43.36273" lon="-1.58756">
        <ele>18</ele>
        <time>2026-08-23T13:08:49.000Z</time>
      </trkpt>
      <trkpt lat="43.36265" lon="-1.5874">
        <ele>16</ele>
        <time>2026-08-23T13:08:51.000Z</time>
      </trkpt>
      <trkpt lat="43.36257" lon="-1.58721">
        <ele>14</ele>
        <time>2026-08-23T13:08:54.000Z</time>
      </trkpt>
      <trkpt lat="43.3625" lon="-1.58703">
        <ele>12</ele>
        <time>2026-08-23T13:08:57.000Z</time>
      </trkpt>
      <trkpt lat="43.36239" lon="-1.5867">
        <ele>12</ele>
        <time>2026-08-23T13:09:02.000Z</time>
      </trkpt>
      <trkpt lat="43.36231" lon="-1.58645">
        <ele>11</ele>
        <time>2026-08-23T13:09:05.000Z</time>
      </trkpt>
      <trkpt lat="43.3623" lon="-1.5864">
        <ele>11</ele>
        <time>2026-08-23T13:09:06.000Z</time>
      </trkpt>
      <trkpt lat="43.36229" lon="-1.58636">
        <ele>11</ele>
        <time>2026-08-23T13:09:06.000Z</time>
      </trkpt>
      <trkpt lat="43.36206" lon="-1.58564">
        <ele>11</ele>
        <time>2026-08-23T13:09:16.000Z</time>
      </trkpt>
      <trkpt lat="43.36189" lon="-1.58508">
        <ele>11</ele>
        <time>2026-08-23T13:09:24.000Z</time>
      </trkpt>
      <trkpt lat="43.36169" lon="-1.58447">
        <ele>12</ele>
        <time>2026-08-23T13:09:33.000Z</time>
      </trkpt>
      <trkpt lat="43.36157" lon="-1.58412">
        <ele>12</ele>
        <time>2026-08-23T13:09:38.000Z</time>
      </trkpt>
      <trkpt lat="43.3615" lon="-1.5839">
        <ele>12</ele>
        <time>2026-08-23T13:09:41.000Z</time>
      </trkpt>
      <trkpt lat="43.36144" lon="-1.58377">
        <ele>12</ele>
        <time>2026-08-23T13:09:43.000Z</time>
      </trkpt>
      <trkpt lat="43.3614" lon="-1.58367">
        <ele>12</ele>
        <time>2026-08-23T13:09:45.000Z</time>
      </trkpt>
      <trkpt lat="43.36135" lon="-1.58354">
        <ele>12</ele>
        <time>2026-08-23T13:09:46.000Z</time>
      </trkpt>
      <trkpt lat="43.3613" lon="-1.58342">
        <ele>12</ele>
        <time>2026-08-23T13:09:48.000Z</time>
      </trkpt>
      <trkpt lat="43.36116" lon="-1.58316">
        <ele>12</ele>
        <time>2026-08-23T13:09:52.000Z</time>
      </trkpt>
      <trkpt lat="43.36105" lon="-1.58298">
        <ele>12</ele>
        <time>2026-08-23T13:09:55.000Z</time>
      </trkpt>
      <trkpt lat="43.36092" lon="-1.58277">
        <ele>12</ele>
        <time>2026-08-23T13:09:59.000Z</time>
      </trkpt>
      <trkpt lat="43.36078" lon="-1.58256">
        <ele>12</ele>
        <time>2026-08-23T13:10:03.000Z</time>
      </trkpt>
      <trkpt lat="43.36063" lon="-1.58235">
        <ele>12</ele>
        <time>2026-08-23T13:10:07.000Z</time>
      </trkpt>
      <trkpt lat="43.36029" lon="-1.58186">
        <ele>12</ele>
        <time>2026-08-23T13:10:15.000Z</time>
      </trkpt>
      <trkpt lat="43.36003" lon="-1.58148">
        <ele>11</ele>
        <time>2026-08-23T13:10:22.000Z</time>
      </trkpt>
      <trkpt lat="43.35992" lon="-1.58132">
        <ele>11</ele>
        <time>2026-08-23T13:10:25.000Z</time>
      </trkpt>
      <trkpt lat="43.35923" lon="-1.58033">
        <ele>11</ele>
        <time>2026-08-23T13:10:43.000Z</time>
      </trkpt>
      <trkpt lat="43.35898" lon="-1.57996">
        <ele>11</ele>
        <time>2026-08-23T13:10:49.000Z</time>
      </trkpt>
      <trkpt lat="43.35887" lon="-1.57979">
        <ele>11</ele>
        <time>2026-08-23T13:10:52.000Z</time>
      </trkpt>
      <trkpt lat="43.3587" lon="-1.57949">
        <ele>12</ele>
        <time>2026-08-23T13:10:57.000Z</time>
      </trkpt>
      <trkpt lat="43.35864" lon="-1.57936">
        <ele>12</ele>
        <time>2026-08-23T13:10:59.000Z</time>
      </trkpt>
      <trkpt lat="43.35859" lon="-1.57925">
        <ele>12</ele>
        <time>2026-08-23T13:11:01.000Z</time>
      </trkpt>
      <trkpt lat="43.3585" lon="-1.57904">
        <ele>12</ele>
        <time>2026-08-23T13:11:04.000Z</time>
      </trkpt>
      <trkpt lat="43.35844" lon="-1.57887">
        <ele>12</ele>
        <time>2026-08-23T13:11:06.000Z</time>
      </trkpt>
      <trkpt lat="43.35837" lon="-1.57863">
        <ele>11</ele>
        <time>2026-08-23T13:11:10.000Z</time>
      </trkpt>
      <trkpt lat="43.35829" lon="-1.57824">
        <ele>11</ele>
        <time>2026-08-23T13:11:15.000Z</time>
      </trkpt>
      <trkpt lat="43.35819" lon="-1.57781">
        <ele>11</ele>
        <time>2026-08-23T13:11:21.000Z</time>
      </trkpt>
      <trkpt lat="43.35808" lon="-1.57721">
        <ele>12</ele>
        <time>2026-08-23T13:11:29.000Z</time>
      </trkpt>
      <trkpt lat="43.35788" lon="-1.57615">
        <ele>13</ele>
        <time>2026-08-23T13:11:43.000Z</time>
      </trkpt>
      <trkpt lat="43.35782" lon="-1.57577">
        <ele>13</ele>
        <time>2026-08-23T13:11:48.000Z</time>
      </trkpt>
      <trkpt lat="43.3578" lon="-1.57562">
        <ele>13</ele>
        <time>2026-08-23T13:11:50.000Z</time>
      </trkpt>
      <trkpt lat="43.35779" lon="-1.57548">
        <ele>13</ele>
        <time>2026-08-23T13:11:52.000Z</time>
      </trkpt>
      <trkpt lat="43.35779" lon="-1.57536">
        <ele>13</ele>
        <time>2026-08-23T13:11:53.000Z</time>
      </trkpt>
      <trkpt lat="43.35778" lon="-1.57524">
        <ele>13</ele>
        <time>2026-08-23T13:11:55.000Z</time>
      </trkpt>
      <trkpt lat="43.35777" lon="-1.5752">
        <ele>13</ele>
        <time>2026-08-23T13:11:55.000Z</time>
      </trkpt>
      <trkpt lat="43.35777" lon="-1.57509">
        <ele>13</ele>
        <time>2026-08-23T13:11:57.000Z</time>
      </trkpt>
      <trkpt lat="43.35776" lon="-1.57505">
        <ele>13</ele>
        <time>2026-08-23T13:11:57.000Z</time>
      </trkpt>
      <trkpt lat="43.35775" lon="-1.57497">
        <ele>13</ele>
        <time>2026-08-23T13:11:58.000Z</time>
      </trkpt>
      <trkpt lat="43.35772" lon="-1.57479">
        <ele>13</ele>
        <time>2026-08-23T13:12:01.000Z</time>
      </trkpt>
      <trkpt lat="43.35772" lon="-1.57478">
        <ele>13</ele>
        <time>2026-08-23T13:12:01.000Z</time>
      </trkpt>
      <trkpt lat="43.35771" lon="-1.57478">
        <ele>13</ele>
        <time>2026-08-23T13:12:01.000Z</time>
      </trkpt>
      <trkpt lat="43.35771" lon="-1.57477">
        <ele>13</ele>
        <time>2026-08-23T13:12:01.000Z</time>
      </trkpt>
      <trkpt lat="43.3577" lon="-1.57476">
        <ele>13</ele>
        <time>2026-08-23T13:12:01.000Z</time>
      </trkpt>
      <trkpt lat="43.3577" lon="-1.57475">
        <ele>13</ele>
        <time>2026-08-23T13:12:02.000Z</time>
      </trkpt>
      <trkpt lat="43.35769" lon="-1.57475">
        <ele>13</ele>
        <time>2026-08-23T13:12:02.000Z</time>
      </trkpt>
      <trkpt lat="43.35769" lon="-1.57474">
        <ele>13</ele>
        <time>2026-08-23T13:12:02.000Z</time>
      </trkpt>
      <trkpt lat="43.35769" lon="-1.57473">
        <ele>13</ele>
        <time>2026-08-23T13:12:02.000Z</time>
      </trkpt>
      <trkpt lat="43.35769" lon="-1.57472">
        <ele>13</ele>
        <time>2026-08-23T13:12:02.000Z</time>
      </trkpt>
      <trkpt lat="43.35768" lon="-1.57472">
        <ele>13</ele>
        <time>2026-08-23T13:12:02.000Z</time>
      </trkpt>
      <trkpt lat="43.35768" lon="-1.57471">
        <ele>13</ele>
        <time>2026-08-23T13:12:02.000Z</time>
      </trkpt>
      <trkpt lat="43.35768" lon="-1.5747">
        <ele>13</ele>
        <time>2026-08-23T13:12:03.000Z</time>
      </trkpt>
      <trkpt lat="43.35768" lon="-1.57469">
        <ele>13</ele>
        <time>2026-08-23T13:12:03.000Z</time>
      </trkpt>
      <trkpt lat="43.35768" lon="-1.57468">
        <ele>13</ele>
        <time>2026-08-23T13:12:03.000Z</time>
      </trkpt>
      <trkpt lat="43.35768" lon="-1.57467">
        <ele>13</ele>
        <time>2026-08-23T13:12:03.000Z</time>
      </trkpt>
      <trkpt lat="43.35768" lon="-1.57466">
        <ele>13</ele>
        <time>2026-08-23T13:12:03.000Z</time>
      </trkpt>
      <trkpt lat="43.35768" lon="-1.57465">
        <ele>13</ele>
        <time>2026-08-23T13:12:03.000Z</time>
      </trkpt>
      <trkpt lat="43.35768" lon="-1.57464">
        <ele>13</ele>
        <time>2026-08-23T13:12:03.000Z</time>
      </trkpt>
      <trkpt lat="43.35768" lon="-1.57463">
        <ele>13</ele>
        <time>2026-08-23T13:12:03.000Z</time>
      </trkpt>
      <trkpt lat="43.35769" lon="-1.57463">
        <ele>13</ele>
        <time>2026-08-23T13:12:04.000Z</time>
      </trkpt>
      <trkpt lat="43.35769" lon="-1.57462">
        <ele>13</ele>
        <time>2026-08-23T13:12:04.000Z</time>
      </trkpt>
      <trkpt lat="43.35769" lon="-1.57461">
        <ele>13</ele>
        <time>2026-08-23T13:12:04.000Z</time>
      </trkpt>
      <trkpt lat="43.35769" lon="-1.5746">
        <ele>13</ele>
        <time>2026-08-23T13:12:04.000Z</time>
      </trkpt>
      <trkpt lat="43.3577" lon="-1.57459">
        <ele>13</ele>
        <time>2026-08-23T13:12:04.000Z</time>
      </trkpt>
      <trkpt lat="43.3577" lon="-1.57458">
        <ele>13</ele>
        <time>2026-08-23T13:12:04.000Z</time>
      </trkpt>
      <trkpt lat="43.35771" lon="-1.57458">
        <ele>13</ele>
        <time>2026-08-23T13:12:05.000Z</time>
      </trkpt>
      <trkpt lat="43.35768" lon="-1.57443">
        <ele>13</ele>
        <time>2026-08-23T13:12:07.000Z</time>
      </trkpt>
      <trkpt lat="43.35762" lon="-1.57423">
        <ele>13</ele>
        <time>2026-08-23T13:12:09.000Z</time>
      </trkpt>
      <trkpt lat="43.35764" lon="-1.57416">
        <ele>13</ele>
        <time>2026-08-23T13:12:10.000Z</time>
      </trkpt>
      <trkpt lat="43.35758" lon="-1.57369">
        <ele>13</ele>
        <time>2026-08-23T13:12:17.000Z</time>
      </trkpt>
      <trkpt lat="43.35756" lon="-1.57342">
        <ele>13</ele>
        <time>2026-08-23T13:12:20.000Z</time>
      </trkpt>
      <trkpt lat="43.35754" lon="-1.57324">
        <ele>13</ele>
        <time>2026-08-23T13:12:22.000Z</time>
      </trkpt>
      <trkpt lat="43.35748" lon="-1.57256">
        <ele>14</ele>
        <time>2026-08-23T13:12:31.000Z</time>
      </trkpt>
      <trkpt lat="43.35745" lon="-1.57225">
        <ele>14</ele>
        <time>2026-08-23T13:12:35.000Z</time>
      </trkpt>
      <trkpt lat="43.35743" lon="-1.57209">
        <ele>14</ele>
        <time>2026-08-23T13:12:37.000Z</time>
      </trkpt>
      <trkpt lat="43.35741" lon="-1.57197">
        <ele>15</ele>
        <time>2026-08-23T13:12:39.000Z</time>
      </trkpt>
      <trkpt lat="43.3574" lon="-1.57186">
        <ele>15</ele>
        <time>2026-08-23T13:12:40.000Z</time>
      </trkpt>
      <trkpt lat="43.35737" lon="-1.57174">
        <ele>15</ele>
        <time>2026-08-23T13:12:42.000Z</time>
      </trkpt>
      <trkpt lat="43.35734" lon="-1.57164">
        <ele>15</ele>
        <time>2026-08-23T13:12:43.000Z</time>
      </trkpt>
      <trkpt lat="43.35731" lon="-1.57153">
        <ele>15</ele>
        <time>2026-08-23T13:12:45.000Z</time>
      </trkpt>
      <trkpt lat="43.35727" lon="-1.57142">
        <ele>15</ele>
        <time>2026-08-23T13:12:47.000Z</time>
      </trkpt>
      <trkpt lat="43.35723" lon="-1.57133">
        <ele>15</ele>
        <time>2026-08-23T13:12:48.000Z</time>
      </trkpt>
      <trkpt lat="43.35712" lon="-1.57106">
        <ele>15</ele>
        <time>2026-08-23T13:12:52.000Z</time>
      </trkpt>
      <trkpt lat="43.35681" lon="-1.57041">
        <ele>15</ele>
        <time>2026-08-23T13:13:02.000Z</time>
      </trkpt>
      <trkpt lat="43.35663" lon="-1.57005">
        <ele>15</ele>
        <time>2026-08-23T13:13:08.000Z</time>
      </trkpt>
      <trkpt lat="43.35648" lon="-1.56969">
        <ele>16</ele>
        <time>2026-08-23T13:13:13.000Z</time>
      </trkpt>
      <trkpt lat="43.35641" lon="-1.56954">
        <ele>16</ele>
        <time>2026-08-23T13:13:15.000Z</time>
      </trkpt>
      <trkpt lat="43.35632" lon="-1.56938">
        <ele>17</ele>
        <time>2026-08-23T13:13:18.000Z</time>
      </trkpt>
      <trkpt lat="43.35623" lon="-1.56921">
        <ele>17</ele>
        <time>2026-08-23T13:13:21.000Z</time>
      </trkpt>
      <trkpt lat="43.35616" lon="-1.56908">
        <ele>17</ele>
        <time>2026-08-23T13:13:23.000Z</time>
      </trkpt>
      <trkpt lat="43.35612" lon="-1.56902">
        <ele>17</ele>
        <time>2026-08-23T13:13:24.000Z</time>
      </trkpt>
      <trkpt lat="43.35608" lon="-1.56894">
        <ele>17</ele>
        <time>2026-08-23T13:13:25.000Z</time>
      </trkpt>
      <trkpt lat="43.35603" lon="-1.56887">
        <ele>17</ele>
        <time>2026-08-23T13:13:26.000Z</time>
      </trkpt>
      <trkpt lat="43.35598" lon="-1.56877">
        <ele>17</ele>
        <time>2026-08-23T13:13:28.000Z</time>
      </trkpt>
      <trkpt lat="43.35595" lon="-1.56868">
        <ele>17</ele>
        <time>2026-08-23T13:13:29.000Z</time>
      </trkpt>
      <trkpt lat="43.35591" lon="-1.56856">
        <ele>17</ele>
        <time>2026-08-23T13:13:31.000Z</time>
      </trkpt>
      <trkpt lat="43.35588" lon="-1.56846">
        <ele>17</ele>
        <time>2026-08-23T13:13:32.000Z</time>
      </trkpt>
      <trkpt lat="43.35587" lon="-1.56837">
        <ele>17</ele>
        <time>2026-08-23T13:13:33.000Z</time>
      </trkpt>
      <trkpt lat="43.35586" lon="-1.56829">
        <ele>17</ele>
        <time>2026-08-23T13:13:35.000Z</time>
      </trkpt>
      <trkpt lat="43.35586" lon="-1.56819">
        <ele>17</ele>
        <time>2026-08-23T13:13:36.000Z</time>
      </trkpt>
      <trkpt lat="43.35586" lon="-1.56809">
        <ele>17</ele>
        <time>2026-08-23T13:13:37.000Z</time>
      </trkpt>
      <trkpt lat="43.35586" lon="-1.56805">
        <ele>17</ele>
        <time>2026-08-23T13:13:38.000Z</time>
      </trkpt>
      <trkpt lat="43.35588" lon="-1.56797">
        <ele>17</ele>
        <time>2026-08-23T13:13:39.000Z</time>
      </trkpt>
      <trkpt lat="43.3559" lon="-1.56786">
        <ele>17</ele>
        <time>2026-08-23T13:13:40.000Z</time>
      </trkpt>
      <trkpt lat="43.3561" lon="-1.56721">
        <ele>18</ele>
        <time>2026-08-23T13:13:49.000Z</time>
      </trkpt>
      <trkpt lat="43.35615" lon="-1.56701">
        <ele>19</ele>
        <time>2026-08-23T13:13:52.000Z</time>
      </trkpt>
      <trkpt lat="43.35618" lon="-1.56687">
        <ele>19</ele>
        <time>2026-08-23T13:13:54.000Z</time>
      </trkpt>
      <trkpt lat="43.3562" lon="-1.56677">
        <ele>19</ele>
        <time>2026-08-23T13:13:55.000Z</time>
      </trkpt>
      <trkpt lat="43.35621" lon="-1.56668">
        <ele>19</ele>
        <time>2026-08-23T13:13:56.000Z</time>
      </trkpt>
      <trkpt lat="43.35622" lon="-1.56656">
        <ele>19</ele>
        <time>2026-08-23T13:13:58.000Z</time>
      </trkpt>
      <trkpt lat="43.35623" lon="-1.56643">
        <ele>19</ele>
        <time>2026-08-23T13:14:00.000Z</time>
      </trkpt>
      <trkpt lat="43.35623" lon="-1.5661">
        <ele>19</ele>
        <time>2026-08-23T13:14:04.000Z</time>
      </trkpt>
      <trkpt lat="43.35622" lon="-1.56561">
        <ele>19</ele>
        <time>2026-08-23T13:14:10.000Z</time>
      </trkpt>
      <trkpt lat="43.35621" lon="-1.56516">
        <ele>19</ele>
        <time>2026-08-23T13:14:16.000Z</time>
      </trkpt>
      <trkpt lat="43.35621" lon="-1.56507">
        <ele>19</ele>
        <time>2026-08-23T13:14:17.000Z</time>
      </trkpt>
      <trkpt lat="43.35619" lon="-1.56377">
        <ele>18</ele>
        <time>2026-08-23T13:14:34.000Z</time>
      </trkpt>
      <trkpt lat="43.35619" lon="-1.56369">
        <ele>18</ele>
        <time>2026-08-23T13:14:35.000Z</time>
      </trkpt>
      <trkpt lat="43.35617" lon="-1.56314">
        <ele>18</ele>
        <time>2026-08-23T13:14:42.000Z</time>
      </trkpt>
      <trkpt lat="43.35616" lon="-1.56297">
        <ele>18</ele>
        <time>2026-08-23T13:14:45.000Z</time>
      </trkpt>
      <trkpt lat="43.35615" lon="-1.56269">
        <ele>18</ele>
        <time>2026-08-23T13:14:48.000Z</time>
      </trkpt>
      <trkpt lat="43.35615" lon="-1.56229">
        <ele>18</ele>
        <time>2026-08-23T13:14:53.000Z</time>
      </trkpt>
      <trkpt lat="43.35615" lon="-1.56214">
        <ele>19</ele>
        <time>2026-08-23T13:14:55.000Z</time>
      </trkpt>
      <trkpt lat="43.35615" lon="-1.5618">
        <ele>19</ele>
        <time>2026-08-23T13:15:00.000Z</time>
      </trkpt>
      <trkpt lat="43.35618" lon="-1.56158">
        <ele>19</ele>
        <time>2026-08-23T13:15:03.000Z</time>
      </trkpt>
      <trkpt lat="43.35619" lon="-1.56151">
        <ele>19</ele>
        <time>2026-08-23T13:15:03.000Z</time>
      </trkpt>
      <trkpt lat="43.3562" lon="-1.56143">
        <ele>19</ele>
        <time>2026-08-23T13:15:05.000Z</time>
      </trkpt>
      <trkpt lat="43.35622" lon="-1.56134">
        <ele>18</ele>
        <time>2026-08-23T13:15:06.000Z</time>
      </trkpt>
      <trkpt lat="43.35628" lon="-1.56117">
        <ele>18</ele>
        <time>2026-08-23T13:15:08.000Z</time>
      </trkpt>
      <trkpt lat="43.35632" lon="-1.56109">
        <ele>18</ele>
        <time>2026-08-23T13:15:09.000Z</time>
      </trkpt>
      <trkpt lat="43.35637" lon="-1.56102">
        <ele>18</ele>
        <time>2026-08-23T13:15:11.000Z</time>
      </trkpt>
      <trkpt lat="43.35641" lon="-1.56097">
        <ele>18</ele>
        <time>2026-08-23T13:15:12.000Z</time>
      </trkpt>
      <trkpt lat="43.35644" lon="-1.56093">
        <ele>18</ele>
        <time>2026-08-23T13:15:12.000Z</time>
      </trkpt>
      <trkpt lat="43.35652" lon="-1.56087">
        <ele>18</ele>
        <time>2026-08-23T13:15:14.000Z</time>
      </trkpt>
      <trkpt lat="43.35674" lon="-1.5607">
        <ele>18</ele>
        <time>2026-08-23T13:15:19.000Z</time>
      </trkpt>
      <trkpt lat="43.35697" lon="-1.56056">
        <ele>18</ele>
        <time>2026-08-23T13:15:23.000Z</time>
      </trkpt>
      <trkpt lat="43.35714" lon="-1.56046">
        <ele>19</ele>
        <time>2026-08-23T13:15:26.000Z</time>
      </trkpt>
      <trkpt lat="43.35724" lon="-1.56038">
        <ele>19</ele>
        <time>2026-08-23T13:15:28.000Z</time>
      </trkpt>
      <trkpt lat="43.35725" lon="-1.56034">
        <ele>19</ele>
        <time>2026-08-23T13:15:29.000Z</time>
      </trkpt>
      <trkpt lat="43.35726" lon="-1.56032">
        <ele>19</ele>
        <time>2026-08-23T13:15:29.000Z</time>
      </trkpt>
      <trkpt lat="43.3573" lon="-1.56027">
        <ele>19</ele>
        <time>2026-08-23T13:15:30.000Z</time>
      </trkpt>
      <trkpt lat="43.35733" lon="-1.56022">
        <ele>18</ele>
        <time>2026-08-23T13:15:31.000Z</time>
      </trkpt>
      <trkpt lat="43.35736" lon="-1.56014">
        <ele>18</ele>
        <time>2026-08-23T13:15:32.000Z</time>
      </trkpt>
      <trkpt lat="43.35738" lon="-1.56006">
        <ele>18</ele>
        <time>2026-08-23T13:15:33.000Z</time>
      </trkpt>
      <trkpt lat="43.35738" lon="-1.56006">
        <ele>18</ele>
        <time>2026-08-23T13:15:33.000Z</time>
      </trkpt>
      <trkpt lat="43.35738" lon="-1.56005">
        <ele>18</ele>
        <time>2026-08-23T13:15:33.000Z</time>
      </trkpt>
      <trkpt lat="43.35738" lon="-1.56003">
        <ele>18</ele>
        <time>2026-08-23T13:15:34.000Z</time>
      </trkpt>
      <trkpt lat="43.35738" lon="-1.56002">
        <ele>18</ele>
        <time>2026-08-23T13:15:34.000Z</time>
      </trkpt>
      <trkpt lat="43.35737" lon="-1.56001">
        <ele>17</ele>
        <time>2026-08-23T13:15:34.000Z</time>
      </trkpt>
      <trkpt lat="43.35737" lon="-1.55999">
        <ele>17</ele>
        <time>2026-08-23T13:15:34.000Z</time>
      </trkpt>
      <trkpt lat="43.35737" lon="-1.55998">
        <ele>17</ele>
        <time>2026-08-23T13:15:34.000Z</time>
      </trkpt>
      <trkpt lat="43.35737" lon="-1.55997">
        <ele>17</ele>
        <time>2026-08-23T13:15:35.000Z</time>
      </trkpt>
      <trkpt lat="43.35737" lon="-1.55995">
        <ele>17</ele>
        <time>2026-08-23T13:15:35.000Z</time>
      </trkpt>
      <trkpt lat="43.35737" lon="-1.55994">
        <ele>17</ele>
        <time>2026-08-23T13:15:35.000Z</time>
      </trkpt>
      <trkpt lat="43.35737" lon="-1.55993">
        <ele>17</ele>
        <time>2026-08-23T13:15:35.000Z</time>
      </trkpt>
      <trkpt lat="43.35738" lon="-1.55991">
        <ele>17</ele>
        <time>2026-08-23T13:15:35.000Z</time>
      </trkpt>
      <trkpt lat="43.35734" lon="-1.55988">
        <ele>17</ele>
        <time>2026-08-23T13:15:36.000Z</time>
      </trkpt>
      <trkpt lat="43.35724" lon="-1.55977">
        <ele>16</ele>
        <time>2026-08-23T13:15:38.000Z</time>
      </trkpt>
      <trkpt lat="43.35714" lon="-1.55968">
        <ele>16</ele>
        <time>2026-08-23T13:15:41.000Z</time>
      </trkpt>
      <trkpt lat="43.35692" lon="-1.55949">
        <ele>16</ele>
        <time>2026-08-23T13:15:45.000Z</time>
      </trkpt>
      <trkpt lat="43.35667" lon="-1.55929">
        <ele>16</ele>
        <time>2026-08-23T13:15:50.000Z</time>
      </trkpt>
      <trkpt lat="43.35645" lon="-1.55912">
        <ele>16</ele>
        <time>2026-08-23T13:15:55.000Z</time>
      </trkpt>
      <trkpt lat="43.35635" lon="-1.55902">
        <ele>15</ele>
        <time>2026-08-23T13:15:57.000Z</time>
      </trkpt>
      <trkpt lat="43.3562" lon="-1.55881">
        <ele>15</ele>
        <time>2026-08-23T13:16:01.000Z</time>
      </trkpt>
      <trkpt lat="43.3561" lon="-1.55866">
        <ele>15</ele>
        <time>2026-08-23T13:16:03.000Z</time>
      </trkpt>
      <trkpt lat="43.356" lon="-1.55842">
        <ele>15</ele>
        <time>2026-08-23T13:16:07.000Z</time>
      </trkpt>
      <trkpt lat="43.35594" lon="-1.55822">
        <ele>15</ele>
        <time>2026-08-23T13:16:10.000Z</time>
      </trkpt>
      <trkpt lat="43.35589" lon="-1.55803">
        <ele>15</ele>
        <time>2026-08-23T13:16:12.000Z</time>
      </trkpt>
      <trkpt lat="43.35587" lon="-1.55787">
        <ele>16</ele>
        <time>2026-08-23T13:16:15.000Z</time>
      </trkpt>
      <trkpt lat="43.35585" lon="-1.55768">
        <ele>16</ele>
        <time>2026-08-23T13:16:17.000Z</time>
      </trkpt>
      <trkpt lat="43.35582" lon="-1.55621">
        <ele>16</ele>
        <time>2026-08-23T13:16:36.000Z</time>
      </trkpt>
      <trkpt lat="43.35581" lon="-1.55542">
        <ele>14</ele>
        <time>2026-08-23T13:16:46.000Z</time>
      </trkpt>
      <trkpt lat="43.35579" lon="-1.55503">
        <ele>13</ele>
        <time>2026-08-23T13:16:51.000Z</time>
      </trkpt>
      <trkpt lat="43.35577" lon="-1.55483">
        <ele>14</ele>
        <time>2026-08-23T13:16:54.000Z</time>
      </trkpt>
      <trkpt lat="43.35575" lon="-1.55473">
        <ele>14</ele>
        <time>2026-08-23T13:16:55.000Z</time>
      </trkpt>
      <trkpt lat="43.35571" lon="-1.55462">
        <ele>14</ele>
        <time>2026-08-23T13:16:57.000Z</time>
      </trkpt>
      <trkpt lat="43.35564" lon="-1.55445">
        <ele>15</ele>
        <time>2026-08-23T13:16:59.000Z</time>
      </trkpt>
      <trkpt lat="43.35557" lon="-1.55434">
        <ele>15</ele>
        <time>2026-08-23T13:17:01.000Z</time>
      </trkpt>
      <trkpt lat="43.35556" lon="-1.55434">
        <ele>15</ele>
        <time>2026-08-23T13:17:01.000Z</time>
      </trkpt>
      <trkpt lat="43.35554" lon="-1.55434">
        <ele>15</ele>
        <time>2026-08-23T13:17:02.000Z</time>
      </trkpt>
      <trkpt lat="43.35553" lon="-1.55435">
        <ele>15</ele>
        <time>2026-08-23T13:17:02.000Z</time>
      </trkpt>
      <trkpt lat="43.35551" lon="-1.55435">
        <ele>15</ele>
        <time>2026-08-23T13:17:02.000Z</time>
      </trkpt>
      <trkpt lat="43.3555" lon="-1.55434">
        <ele>15</ele>
        <time>2026-08-23T13:17:03.000Z</time>
      </trkpt>
      <trkpt lat="43.35549" lon="-1.55434">
        <ele>15</ele>
        <time>2026-08-23T13:17:03.000Z</time>
      </trkpt>
      <trkpt lat="43.35548" lon="-1.55434">
        <ele>15</ele>
        <time>2026-08-23T13:17:03.000Z</time>
      </trkpt>
      <trkpt lat="43.35547" lon="-1.55433">
        <ele>15</ele>
        <time>2026-08-23T13:17:03.000Z</time>
      </trkpt>
      <trkpt lat="43.35546" lon="-1.55433">
        <ele>15</ele>
        <time>2026-08-23T13:17:03.000Z</time>
      </trkpt>
      <trkpt lat="43.35545" lon="-1.55432">
        <ele>15</ele>
        <time>2026-08-23T13:17:04.000Z</time>
      </trkpt>
      <trkpt lat="43.35544" lon="-1.55432">
        <ele>15</ele>
        <time>2026-08-23T13:17:04.000Z</time>
      </trkpt>
      <trkpt lat="43.35544" lon="-1.55431">
        <ele>15</ele>
        <time>2026-08-23T13:17:04.000Z</time>
      </trkpt>
      <trkpt lat="43.35543" lon="-1.5543">
        <ele>15</ele>
        <time>2026-08-23T13:17:04.000Z</time>
      </trkpt>
      <trkpt lat="43.35542" lon="-1.55429">
        <ele>15</ele>
        <time>2026-08-23T13:17:04.000Z</time>
      </trkpt>
      <trkpt lat="43.35541" lon="-1.55428">
        <ele>15</ele>
        <time>2026-08-23T13:17:05.000Z</time>
      </trkpt>
      <trkpt lat="43.3554" lon="-1.55427">
        <ele>15</ele>
        <time>2026-08-23T13:17:05.000Z</time>
      </trkpt>
      <trkpt lat="43.3554" lon="-1.55426">
        <ele>15</ele>
        <time>2026-08-23T13:17:05.000Z</time>
      </trkpt>
      <trkpt lat="43.35539" lon="-1.55425">
        <ele>15</ele>
        <time>2026-08-23T13:17:05.000Z</time>
      </trkpt>
      <trkpt lat="43.35538" lon="-1.55423">
        <ele>15</ele>
        <time>2026-08-23T13:17:05.000Z</time>
      </trkpt>
      <trkpt lat="43.35538" lon="-1.55422">
        <ele>15</ele>
        <time>2026-08-23T13:17:06.000Z</time>
      </trkpt>
      <trkpt lat="43.35537" lon="-1.55421">
        <ele>15</ele>
        <time>2026-08-23T13:17:06.000Z</time>
      </trkpt>
      <trkpt lat="43.35537" lon="-1.55419">
        <ele>15</ele>
        <time>2026-08-23T13:17:06.000Z</time>
      </trkpt>
      <trkpt lat="43.35537" lon="-1.55418">
        <ele>15</ele>
        <time>2026-08-23T13:17:06.000Z</time>
      </trkpt>
      <trkpt lat="43.35537" lon="-1.55416">
        <ele>15</ele>
        <time>2026-08-23T13:17:06.000Z</time>
      </trkpt>
      <trkpt lat="43.35536" lon="-1.55415">
        <ele>15</ele>
        <time>2026-08-23T13:17:07.000Z</time>
      </trkpt>
      <trkpt lat="43.35536" lon="-1.55413">
        <ele>15</ele>
        <time>2026-08-23T13:17:07.000Z</time>
      </trkpt>
      <trkpt lat="43.35536" lon="-1.55412">
        <ele>15</ele>
        <time>2026-08-23T13:17:07.000Z</time>
      </trkpt>
      <trkpt lat="43.35537" lon="-1.5541">
        <ele>16</ele>
        <time>2026-08-23T13:17:07.000Z</time>
      </trkpt>
      <trkpt lat="43.35537" lon="-1.55409">
        <ele>16</ele>
        <time>2026-08-23T13:17:07.000Z</time>
      </trkpt>
      <trkpt lat="43.35537" lon="-1.55407">
        <ele>16</ele>
        <time>2026-08-23T13:17:08.000Z</time>
      </trkpt>
      <trkpt lat="43.35535" lon="-1.55403">
        <ele>16</ele>
        <time>2026-08-23T13:17:08.000Z</time>
      </trkpt>
      <trkpt lat="43.35529" lon="-1.55396">
        <ele>16</ele>
        <time>2026-08-23T13:17:10.000Z</time>
      </trkpt>
      <trkpt lat="43.35524" lon="-1.55392">
        <ele>16</ele>
        <time>2026-08-23T13:17:11.000Z</time>
      </trkpt>
      <trkpt lat="43.35513" lon="-1.55383">
        <ele>16</ele>
        <time>2026-08-23T13:17:13.000Z</time>
      </trkpt>
      <trkpt lat="43.35505" lon="-1.55378">
        <ele>16</ele>
        <time>2026-08-23T13:17:15.000Z</time>
      </trkpt>
      <trkpt lat="43.35494" lon="-1.55374">
        <ele>16</ele>
        <time>2026-08-23T13:17:17.000Z</time>
      </trkpt>
      <trkpt lat="43.35475" lon="-1.55372">
        <ele>16</ele>
        <time>2026-08-23T13:17:20.000Z</time>
      </trkpt>
      <trkpt lat="43.35462" lon="-1.55373">
        <ele>16</ele>
        <time>2026-08-23T13:17:22.000Z</time>
      </trkpt>
      <trkpt lat="43.35441" lon="-1.55375">
        <ele>16</ele>
        <time>2026-08-23T13:17:26.000Z</time>
      </trkpt>
      <trkpt lat="43.35416" lon="-1.55379">
        <ele>15</ele>
        <time>2026-08-23T13:17:31.000Z</time>
      </trkpt>
      <trkpt lat="43.35375" lon="-1.55384">
        <ele>16</ele>
        <time>2026-08-23T13:17:38.000Z</time>
      </trkpt>
      <trkpt lat="43.35354" lon="-1.55383">
        <ele>16</ele>
        <time>2026-08-23T13:17:42.000Z</time>
      </trkpt>
      <trkpt lat="43.35343" lon="-1.5538">
        <ele>16</ele>
        <time>2026-08-23T13:17:44.000Z</time>
      </trkpt>
      <trkpt lat="43.35328" lon="-1.55374">
        <ele>17</ele>
        <time>2026-08-23T13:17:46.000Z</time>
      </trkpt>
      <trkpt lat="43.35309" lon="-1.55363">
        <ele>17</ele>
        <time>2026-08-23T13:17:50.000Z</time>
      </trkpt>
      <trkpt lat="43.35292" lon="-1.55347">
        <ele>17</ele>
        <time>2026-08-23T13:17:54.000Z</time>
      </trkpt>
      <trkpt lat="43.35276" lon="-1.55328">
        <ele>18</ele>
        <time>2026-08-23T13:17:58.000Z</time>
      </trkpt>
      <trkpt lat="43.3527" lon="-1.55319">
        <ele>18</ele>
        <time>2026-08-23T13:17:59.000Z</time>
      </trkpt>
      <trkpt lat="43.35261" lon="-1.55303">
        <ele>18</ele>
        <time>2026-08-23T13:18:02.000Z</time>
      </trkpt>
      <trkpt lat="43.35238" lon="-1.55251">
        <ele>17</ele>
        <time>2026-08-23T13:18:10.000Z</time>
      </trkpt>
      <trkpt lat="43.35215" lon="-1.55199">
        <ele>16</ele>
        <time>2026-08-23T13:18:17.000Z</time>
      </trkpt>
      <trkpt lat="43.35188" lon="-1.55138">
        <ele>16</ele>
        <time>2026-08-23T13:18:27.000Z</time>
      </trkpt>
      <trkpt lat="43.35145" lon="-1.5504">
        <ele>17</ele>
        <time>2026-08-23T13:18:42.000Z</time>
      </trkpt>
      <trkpt lat="43.35134" lon="-1.55018">
        <ele>17</ele>
        <time>2026-08-23T13:18:45.000Z</time>
      </trkpt>
      <trkpt lat="43.35126" lon="-1.55004">
        <ele>17</ele>
        <time>2026-08-23T13:18:47.000Z</time>
      </trkpt>
      <trkpt lat="43.3512" lon="-1.54996">
        <ele>18</ele>
        <time>2026-08-23T13:18:49.000Z</time>
      </trkpt>
      <trkpt lat="43.35116" lon="-1.54991">
        <ele>18</ele>
        <time>2026-08-23T13:18:50.000Z</time>
      </trkpt>
      <trkpt lat="43.35116" lon="-1.54991">
        <ele>18</ele>
        <time>2026-08-23T13:18:50.000Z</time>
      </trkpt>
      <trkpt lat="43.35114" lon="-1.54992">
        <ele>18</ele>
        <time>2026-08-23T13:18:50.000Z</time>
      </trkpt>
      <trkpt lat="43.35112" lon="-1.54992">
        <ele>18</ele>
        <time>2026-08-23T13:18:50.000Z</time>
      </trkpt>
      <trkpt lat="43.3511" lon="-1.54992">
        <ele>18</ele>
        <time>2026-08-23T13:18:51.000Z</time>
      </trkpt>
      <trkpt lat="43.35108" lon="-1.54992">
        <ele>18</ele>
        <time>2026-08-23T13:18:51.000Z</time>
      </trkpt>
      <trkpt lat="43.35106" lon="-1.54991">
        <ele>18</ele>
        <time>2026-08-23T13:18:52.000Z</time>
      </trkpt>
      <trkpt lat="43.35104" lon="-1.5499">
        <ele>18</ele>
        <time>2026-08-23T13:18:52.000Z</time>
      </trkpt>
      <trkpt lat="43.35102" lon="-1.54989">
        <ele>18</ele>
        <time>2026-08-23T13:18:52.000Z</time>
      </trkpt>
      <trkpt lat="43.35077" lon="-1.54991">
        <ele>19</ele>
        <time>2026-08-23T13:18:57.000Z</time>
      </trkpt>
      <trkpt lat="43.35056" lon="-1.55008">
        <ele>20</ele>
        <time>2026-08-23T13:19:01.000Z</time>
      </trkpt>
      <trkpt lat="43.3504" lon="-1.55026">
        <ele>20</ele>
        <time>2026-08-23T13:19:05.000Z</time>
      </trkpt>
      <trkpt lat="43.34993" lon="-1.55064">
        <ele>22</ele>
        <time>2026-08-23T13:19:14.000Z</time>
      </trkpt>
      <trkpt lat="43.34963" lon="-1.55089">
        <ele>22</ele>
        <time>2026-08-23T13:19:21.000Z</time>
      </trkpt>
      <trkpt lat="43.34905" lon="-1.55136">
        <ele>22</ele>
        <time>2026-08-23T13:19:33.000Z</time>
      </trkpt>
      <trkpt lat="43.34899" lon="-1.55143">
        <ele>21</ele>
        <time>2026-08-23T13:19:34.000Z</time>
      </trkpt>
      <trkpt lat="43.34879" lon="-1.55162">
        <ele>20</ele>
        <time>2026-08-23T13:19:38.000Z</time>
      </trkpt>
      <trkpt lat="43.3487" lon="-1.55173">
        <ele>20</ele>
        <time>2026-08-23T13:19:41.000Z</time>
      </trkpt>
      <trkpt lat="43.34868" lon="-1.55177">
        <ele>20</ele>
        <time>2026-08-23T13:19:41.000Z</time>
      </trkpt>
      <trkpt lat="43.34867" lon="-1.5518">
        <ele>20</ele>
        <time>2026-08-23T13:19:42.000Z</time>
      </trkpt>
      <trkpt lat="43.34867" lon="-1.55182">
        <ele>20</ele>
        <time>2026-08-23T13:19:42.000Z</time>
      </trkpt>
      <trkpt lat="43.34865" lon="-1.55191">
        <ele>20</ele>
        <time>2026-08-23T13:19:43.000Z</time>
      </trkpt>
      <trkpt lat="43.34862" lon="-1.55213">
        <ele>19</ele>
        <time>2026-08-23T13:19:46.000Z</time>
      </trkpt>
      <trkpt lat="43.34859" lon="-1.55228">
        <ele>19</ele>
        <time>2026-08-23T13:19:48.000Z</time>
      </trkpt>
      <trkpt lat="43.34856" lon="-1.55234">
        <ele>18</ele>
        <time>2026-08-23T13:19:49.000Z</time>
      </trkpt>
      <trkpt lat="43.34851" lon="-1.5524">
        <ele>18</ele>
        <time>2026-08-23T13:19:50.000Z</time>
      </trkpt>
      <trkpt lat="43.34845" lon="-1.55244">
        <ele>18</ele>
        <time>2026-08-23T13:19:51.000Z</time>
      </trkpt>
      <trkpt lat="43.34838" lon="-1.55247">
        <ele>18</ele>
        <time>2026-08-23T13:19:53.000Z</time>
      </trkpt>
      <trkpt lat="43.34833" lon="-1.55248">
        <ele>18</ele>
        <time>2026-08-23T13:19:54.000Z</time>
      </trkpt>
      <trkpt lat="43.34829" lon="-1.55248">
        <ele>18</ele>
        <time>2026-08-23T13:19:54.000Z</time>
      </trkpt>
      <trkpt lat="43.34821" lon="-1.55247">
        <ele>18</ele>
        <time>2026-08-23T13:19:56.000Z</time>
      </trkpt>
      <trkpt lat="43.3481" lon="-1.55242">
        <ele>19</ele>
        <time>2026-08-23T13:19:58.000Z</time>
      </trkpt>
      <trkpt lat="43.34802" lon="-1.55238">
        <ele>19</ele>
        <time>2026-08-23T13:19:59.000Z</time>
      </trkpt>
      <trkpt lat="43.34799" lon="-1.55237">
        <ele>19</ele>
        <time>2026-08-23T13:20:00.000Z</time>
      </trkpt>
      <trkpt lat="43.34791" lon="-1.55235">
        <ele>19</ele>
        <time>2026-08-23T13:20:01.000Z</time>
      </trkpt>
      <trkpt lat="43.34774" lon="-1.55233">
        <ele>19</ele>
        <time>2026-08-23T13:20:04.000Z</time>
      </trkpt>
      <trkpt lat="43.34707" lon="-1.55227">
        <ele>20</ele>
        <time>2026-08-23T13:20:16.000Z</time>
      </trkpt>
      <trkpt lat="43.34632" lon="-1.55219">
        <ele>19</ele>
        <time>2026-08-23T13:20:30.000Z</time>
      </trkpt>
      <trkpt lat="43.3462" lon="-1.55218">
        <ele>19</ele>
        <time>2026-08-23T13:20:32.000Z</time>
      </trkpt>
      <trkpt lat="43.34599" lon="-1.55215">
        <ele>19</ele>
        <time>2026-08-23T13:20:36.000Z</time>
      </trkpt>
      <trkpt lat="43.34589" lon="-1.55213">
        <ele>19</ele>
        <time>2026-08-23T13:20:37.000Z</time>
      </trkpt>
      <trkpt lat="43.34576" lon="-1.55208">
        <ele>19</ele>
        <time>2026-08-23T13:20:40.000Z</time>
      </trkpt>
      <trkpt lat="43.34561" lon="-1.552">
        <ele>20</ele>
        <time>2026-08-23T13:20:43.000Z</time>
      </trkpt>
      <trkpt lat="43.34553" lon="-1.55194">
        <ele>20</ele>
        <time>2026-08-23T13:20:44.000Z</time>
      </trkpt>
      <trkpt lat="43.34542" lon="-1.55183">
        <ele>21</ele>
        <time>2026-08-23T13:20:47.000Z</time>
      </trkpt>
      <trkpt lat="43.34525" lon="-1.55163">
        <ele>21</ele>
        <time>2026-08-23T13:20:51.000Z</time>
      </trkpt>
      <trkpt lat="43.34508" lon="-1.55141">
        <ele>22</ele>
        <time>2026-08-23T13:20:55.000Z</time>
      </trkpt>
      <trkpt lat="43.34477" lon="-1.55097">
        <ele>22</ele>
        <time>2026-08-23T13:21:03.000Z</time>
      </trkpt>
      <trkpt lat="43.34475" lon="-1.55095">
        <ele>22</ele>
        <time>2026-08-23T13:21:03.000Z</time>
      </trkpt>
      <trkpt lat="43.34437" lon="-1.55041">
        <ele>23</ele>
        <time>2026-08-23T13:21:13.000Z</time>
      </trkpt>
      <trkpt lat="43.34426" lon="-1.55026">
        <ele>23</ele>
        <time>2026-08-23T13:21:16.000Z</time>
      </trkpt>
      <trkpt lat="43.34424" lon="-1.55023">
        <ele>23</ele>
        <time>2026-08-23T13:21:16.000Z</time>
      </trkpt>
      <trkpt lat="43.3442" lon="-1.55018">
        <ele>22</ele>
        <time>2026-08-23T13:21:17.000Z</time>
      </trkpt>
      <trkpt lat="43.34402" lon="-1.54994">
        <ele>23</ele>
        <time>2026-08-23T13:21:22.000Z</time>
      </trkpt>
      <trkpt lat="43.34391" lon="-1.54978">
        <ele>24</ele>
        <time>2026-08-23T13:21:24.000Z</time>
      </trkpt>
      <trkpt lat="43.34373" lon="-1.54952">
        <ele>26</ele>
        <time>2026-08-23T13:21:29.000Z</time>
      </trkpt>
      <trkpt lat="43.3435" lon="-1.54921">
        <ele>29</ele>
        <time>2026-08-23T13:21:35.000Z</time>
      </trkpt>
      <trkpt lat="43.34337" lon="-1.54904">
        <ele>30</ele>
        <time>2026-08-23T13:21:38.000Z</time>
      </trkpt>
      <trkpt lat="43.34324" lon="-1.54891">
        <ele>30</ele>
        <time>2026-08-23T13:21:41.000Z</time>
      </trkpt>
      <trkpt lat="43.34307" lon="-1.54879">
        <ele>30</ele>
        <time>2026-08-23T13:21:44.000Z</time>
      </trkpt>
      <trkpt lat="43.3429" lon="-1.54868">
        <ele>30</ele>
        <time>2026-08-23T13:21:48.000Z</time>
      </trkpt>
      <trkpt lat="43.34272" lon="-1.5486">
        <ele>30</ele>
        <time>2026-08-23T13:21:51.000Z</time>
      </trkpt>
      <trkpt lat="43.34255" lon="-1.54857">
        <ele>31</ele>
        <time>2026-08-23T13:21:54.000Z</time>
      </trkpt>
      <trkpt lat="43.34238" lon="-1.54856">
        <ele>32</ele>
        <time>2026-08-23T13:21:57.000Z</time>
      </trkpt>
      <trkpt lat="43.34223" lon="-1.54858">
        <ele>32</ele>
        <time>2026-08-23T13:22:00.000Z</time>
      </trkpt>
      <trkpt lat="43.34209" lon="-1.54861">
        <ele>33</ele>
        <time>2026-08-23T13:22:02.000Z</time>
      </trkpt>
      <trkpt lat="43.34202" lon="-1.54864">
        <ele>33</ele>
        <time>2026-08-23T13:22:04.000Z</time>
      </trkpt>
      <trkpt lat="43.34193" lon="-1.54869">
        <ele>34</ele>
        <time>2026-08-23T13:22:05.000Z</time>
      </trkpt>
      <trkpt lat="43.34188" lon="-1.54871">
        <ele>34</ele>
        <time>2026-08-23T13:22:06.000Z</time>
      </trkpt>
      <trkpt lat="43.34185" lon="-1.54874">
        <ele>35</ele>
        <time>2026-08-23T13:22:07.000Z</time>
      </trkpt>
      <trkpt lat="43.34138" lon="-1.54902">
        <ele>37</ele>
        <time>2026-08-23T13:22:16.000Z</time>
      </trkpt>
      <trkpt lat="43.34135" lon="-1.54904">
        <ele>37</ele>
        <time>2026-08-23T13:22:17.000Z</time>
      </trkpt>
      <trkpt lat="43.341" lon="-1.54925">
        <ele>38</ele>
        <time>2026-08-23T13:22:23.000Z</time>
      </trkpt>
      <trkpt lat="43.34089" lon="-1.54932">
        <ele>39</ele>
        <time>2026-08-23T13:22:25.000Z</time>
      </trkpt>
      <trkpt lat="43.34074" lon="-1.54941">
        <ele>39</ele>
        <time>2026-08-23T13:22:28.000Z</time>
      </trkpt>
      <trkpt lat="43.34017" lon="-1.54976">
        <ele>40</ele>
        <time>2026-08-23T13:22:40.000Z</time>
      </trkpt>
      <trkpt lat="43.33975" lon="-1.55002">
        <ele>42</ele>
        <time>2026-08-23T13:22:48.000Z</time>
      </trkpt>
      <trkpt lat="43.3395" lon="-1.55018">
        <ele>43</ele>
        <time>2026-08-23T13:22:53.000Z</time>
      </trkpt>
      <trkpt lat="43.33941" lon="-1.55024">
        <ele>44</ele>
        <time>2026-08-23T13:22:54.000Z</time>
      </trkpt>
      <trkpt lat="43.3393" lon="-1.5503">
        <ele>44</ele>
        <time>2026-08-23T13:22:56.000Z</time>
      </trkpt>
      <trkpt lat="43.33921" lon="-1.55035">
        <ele>45</ele>
        <time>2026-08-23T13:22:58.000Z</time>
      </trkpt>
      <trkpt lat="43.33909" lon="-1.55038">
        <ele>44</ele>
        <time>2026-08-23T13:23:00.000Z</time>
      </trkpt>
      <trkpt lat="43.33902" lon="-1.5504">
        <ele>44</ele>
        <time>2026-08-23T13:23:02.000Z</time>
      </trkpt>
      <trkpt lat="43.33895" lon="-1.55041">
        <ele>43</ele>
        <time>2026-08-23T13:23:03.000Z</time>
      </trkpt>
      <trkpt lat="43.33887" lon="-1.55041">
        <ele>42</ele>
        <time>2026-08-23T13:23:04.000Z</time>
      </trkpt>
      <trkpt lat="43.33886" lon="-1.55041">
        <ele>42</ele>
        <time>2026-08-23T13:23:05.000Z</time>
      </trkpt>
      <trkpt lat="43.33865" lon="-1.55035">
        <ele>40</ele>
        <time>2026-08-23T13:23:08.000Z</time>
      </trkpt>
      <trkpt lat="43.33848" lon="-1.55026">
        <ele>38</ele>
        <time>2026-08-23T13:23:12.000Z</time>
      </trkpt>
      <trkpt lat="43.33831" lon="-1.55017">
        <ele>37</ele>
        <time>2026-08-23T13:23:15.000Z</time>
      </trkpt>
      <trkpt lat="43.33826" lon="-1.55014">
        <ele>36</ele>
        <time>2026-08-23T13:23:16.000Z</time>
      </trkpt>
      <trkpt lat="43.33797" lon="-1.54996">
        <ele>35</ele>
        <time>2026-08-23T13:23:21.000Z</time>
      </trkpt>
      <trkpt lat="43.33768" lon="-1.54979">
        <ele>34</ele>
        <time>2026-08-23T13:23:27.000Z</time>
      </trkpt>
      <trkpt lat="43.33744" lon="-1.54965">
        <ele>34</ele>
        <time>2026-08-23T13:23:32.000Z</time>
      </trkpt>
      <trkpt lat="43.33722" lon="-1.54953">
        <ele>34</ele>
        <time>2026-08-23T13:23:36.000Z</time>
      </trkpt>
      <trkpt lat="43.33707" lon="-1.54943">
        <ele>34</ele>
        <time>2026-08-23T13:23:39.000Z</time>
      </trkpt>
      <trkpt lat="43.3369" lon="-1.54934">
        <ele>34</ele>
        <time>2026-08-23T13:23:42.000Z</time>
      </trkpt>
      <trkpt lat="43.3368" lon="-1.5493">
        <ele>34</ele>
        <time>2026-08-23T13:23:44.000Z</time>
      </trkpt>
      <trkpt lat="43.33665" lon="-1.54924">
        <ele>34</ele>
        <time>2026-08-23T13:23:47.000Z</time>
      </trkpt>
      <trkpt lat="43.33643" lon="-1.54917">
        <ele>35</ele>
        <time>2026-08-23T13:23:51.000Z</time>
      </trkpt>
      <trkpt lat="43.33626" lon="-1.54909">
        <ele>36</ele>
        <time>2026-08-23T13:23:54.000Z</time>
      </trkpt>
      <trkpt lat="43.33609" lon="-1.54902">
        <ele>37</ele>
        <time>2026-08-23T13:23:57.000Z</time>
      </trkpt>
      <trkpt lat="43.3358" lon="-1.54886">
        <ele>38</ele>
        <time>2026-08-23T13:24:03.000Z</time>
      </trkpt>
      <trkpt lat="43.33556" lon="-1.54875">
        <ele>37</ele>
        <time>2026-08-23T13:24:07.000Z</time>
      </trkpt>
      <trkpt lat="43.33545" lon="-1.54871">
        <ele>36</ele>
        <time>2026-08-23T13:24:09.000Z</time>
      </trkpt>
      <trkpt lat="43.33507" lon="-1.54854">
        <ele>35</ele>
        <time>2026-08-23T13:24:16.000Z</time>
      </trkpt>
      <trkpt lat="43.33473" lon="-1.54842">
        <ele>35</ele>
        <time>2026-08-23T13:24:23.000Z</time>
      </trkpt>
      <trkpt lat="43.33446" lon="-1.54832">
        <ele>35</ele>
        <time>2026-08-23T13:24:28.000Z</time>
      </trkpt>
      <trkpt lat="43.33427" lon="-1.54826">
        <ele>35</ele>
        <time>2026-08-23T13:24:31.000Z</time>
      </trkpt>
      <trkpt lat="43.33398" lon="-1.5482">
        <ele>36</ele>
        <time>2026-08-23T13:24:36.000Z</time>
      </trkpt>
      <trkpt lat="43.33374" lon="-1.54816">
        <ele>38</ele>
        <time>2026-08-23T13:24:41.000Z</time>
      </trkpt>
      <trkpt lat="43.33346" lon="-1.54811">
        <ele>40</ele>
        <time>2026-08-23T13:24:46.000Z</time>
      </trkpt>
      <trkpt lat="43.33333" lon="-1.54808">
        <ele>41</ele>
        <time>2026-08-23T13:24:48.000Z</time>
      </trkpt>
      <trkpt lat="43.33325" lon="-1.54804">
        <ele>41</ele>
        <time>2026-08-23T13:24:49.000Z</time>
      </trkpt>
      <trkpt lat="43.33319" lon="-1.548">
        <ele>41</ele>
        <time>2026-08-23T13:24:51.000Z</time>
      </trkpt>
      <trkpt lat="43.33314" lon="-1.54796">
        <ele>42</ele>
        <time>2026-08-23T13:24:52.000Z</time>
      </trkpt>
      <trkpt lat="43.33294" lon="-1.5478">
        <ele>42</ele>
        <time>2026-08-23T13:24:56.000Z</time>
      </trkpt>
      <trkpt lat="43.33258" lon="-1.54746">
        <ele>42</ele>
        <time>2026-08-23T13:25:04.000Z</time>
      </trkpt>
      <trkpt lat="43.3324" lon="-1.54729">
        <ele>42</ele>
        <time>2026-08-23T13:25:07.000Z</time>
      </trkpt>
      <trkpt lat="43.33228" lon="-1.54715">
        <ele>40</ele>
        <time>2026-08-23T13:25:10.000Z</time>
      </trkpt>
      <trkpt lat="43.33225" lon="-1.54713">
        <ele>40</ele>
        <time>2026-08-23T13:25:11.000Z</time>
      </trkpt>
      <trkpt lat="43.33212" lon="-1.54698">
        <ele>39</ele>
        <time>2026-08-23T13:25:14.000Z</time>
      </trkpt>
      <trkpt lat="43.33204" lon="-1.54689">
        <ele>39</ele>
        <time>2026-08-23T13:25:16.000Z</time>
      </trkpt>
      <trkpt lat="43.33202" lon="-1.54685">
        <ele>38</ele>
        <time>2026-08-23T13:25:16.000Z</time>
      </trkpt>
      <trkpt lat="43.33196" lon="-1.54671">
        <ele>38</ele>
        <time>2026-08-23T13:25:18.000Z</time>
      </trkpt>
      <trkpt lat="43.33191" lon="-1.54656">
        <ele>37</ele>
        <time>2026-08-23T13:25:21.000Z</time>
      </trkpt>
      <trkpt lat="43.33187" lon="-1.54643">
        <ele>37</ele>
        <time>2026-08-23T13:25:22.000Z</time>
      </trkpt>
      <trkpt lat="43.33182" lon="-1.54623">
        <ele>36</ele>
        <time>2026-08-23T13:25:25.000Z</time>
      </trkpt>
      <trkpt lat="43.33177" lon="-1.54606">
        <ele>36</ele>
        <time>2026-08-23T13:25:27.000Z</time>
      </trkpt>
      <trkpt lat="43.33172" lon="-1.54594">
        <ele>35</ele>
        <time>2026-08-23T13:25:29.000Z</time>
      </trkpt>
      <trkpt lat="43.33163" lon="-1.54577">
        <ele>35</ele>
        <time>2026-08-23T13:25:32.000Z</time>
      </trkpt>
      <trkpt lat="43.33154" lon="-1.54563">
        <ele>34</ele>
        <time>2026-08-23T13:25:34.000Z</time>
      </trkpt>
      <trkpt lat="43.33135" lon="-1.54541">
        <ele>34</ele>
        <time>2026-08-23T13:25:39.000Z</time>
      </trkpt>
      <trkpt lat="43.33082" lon="-1.54477">
        <ele>32</ele>
        <time>2026-08-23T13:25:51.000Z</time>
      </trkpt>
      <trkpt lat="43.33071" lon="-1.54463">
        <ele>32</ele>
        <time>2026-08-23T13:25:54.000Z</time>
      </trkpt>
      <trkpt lat="43.33066" lon="-1.54457">
        <ele>32</ele>
        <time>2026-08-23T13:25:55.000Z</time>
      </trkpt>
      <trkpt lat="43.3306" lon="-1.54452">
        <ele>32</ele>
        <time>2026-08-23T13:25:56.000Z</time>
      </trkpt>
      <trkpt lat="43.33054" lon="-1.54448">
        <ele>32</ele>
        <time>2026-08-23T13:25:58.000Z</time>
      </trkpt>
      <trkpt lat="43.33038" lon="-1.54439">
        <ele>31</ele>
        <time>2026-08-23T13:26:01.000Z</time>
      </trkpt>
      <trkpt lat="43.33027" lon="-1.54435">
        <ele>31</ele>
        <time>2026-08-23T13:26:03.000Z</time>
      </trkpt>
      <trkpt lat="43.33017" lon="-1.54434">
        <ele>31</ele>
        <time>2026-08-23T13:26:05.000Z</time>
      </trkpt>
      <trkpt lat="43.33003" lon="-1.54434">
        <ele>31</ele>
        <time>2026-08-23T13:26:07.000Z</time>
      </trkpt>
      <trkpt lat="43.32992" lon="-1.54436">
        <ele>31</ele>
        <time>2026-08-23T13:26:09.000Z</time>
      </trkpt>
      <trkpt lat="43.32978" lon="-1.54442">
        <ele>31</ele>
        <time>2026-08-23T13:26:12.000Z</time>
      </trkpt>
      <trkpt lat="43.32952" lon="-1.54458">
        <ele>31</ele>
        <time>2026-08-23T13:26:17.000Z</time>
      </trkpt>
      <trkpt lat="43.32944" lon="-1.54463">
        <ele>32</ele>
        <time>2026-08-23T13:26:18.000Z</time>
      </trkpt>
      <trkpt lat="43.32938" lon="-1.54467">
        <ele>32</ele>
        <time>2026-08-23T13:26:19.000Z</time>
      </trkpt>
      <trkpt lat="43.32922" lon="-1.54476">
        <ele>32</ele>
        <time>2026-08-23T13:26:22.000Z</time>
      </trkpt>
      <trkpt lat="43.32906" lon="-1.54486">
        <ele>33</ele>
        <time>2026-08-23T13:26:26.000Z</time>
      </trkpt>
      <trkpt lat="43.32899" lon="-1.54492">
        <ele>33</ele>
        <time>2026-08-23T13:26:27.000Z</time>
      </trkpt>
      <trkpt lat="43.32871" lon="-1.54511">
        <ele>35</ele>
        <time>2026-08-23T13:26:33.000Z</time>
      </trkpt>
      <trkpt lat="43.32854" lon="-1.54523">
        <ele>36</ele>
        <time>2026-08-23T13:26:36.000Z</time>
      </trkpt>
      <trkpt lat="43.32839" lon="-1.54536">
        <ele>38</ele>
        <time>2026-08-23T13:26:39.000Z</time>
      </trkpt>
      <trkpt lat="43.32817" lon="-1.54559">
        <ele>40</ele>
        <time>2026-08-23T13:26:44.000Z</time>
      </trkpt>
      <trkpt lat="43.32789" lon="-1.54586">
        <ele>39</ele>
        <time>2026-08-23T13:26:50.000Z</time>
      </trkpt>
      <trkpt lat="43.32748" lon="-1.54627">
        <ele>42</ele>
        <time>2026-08-23T13:26:59.000Z</time>
      </trkpt>
      <trkpt lat="43.32744" lon="-1.54631">
        <ele>42</ele>
        <time>2026-08-23T13:27:00.000Z</time>
      </trkpt>
      <trkpt lat="43.32734" lon="-1.5464">
        <ele>43</ele>
        <time>2026-08-23T13:27:02.000Z</time>
      </trkpt>
      <trkpt lat="43.32722" lon="-1.54652">
        <ele>42</ele>
        <time>2026-08-23T13:27:05.000Z</time>
      </trkpt>
      <trkpt lat="43.32714" lon="-1.54662">
        <ele>42</ele>
        <time>2026-08-23T13:27:07.000Z</time>
      </trkpt>
      <trkpt lat="43.32697" lon="-1.54678">
        <ele>40</ele>
        <time>2026-08-23T13:27:10.000Z</time>
      </trkpt>
      <trkpt lat="43.32658" lon="-1.54717">
        <ele>35</ele>
        <time>2026-08-23T13:27:19.000Z</time>
      </trkpt>
      <trkpt lat="43.32648" lon="-1.54727">
        <ele>35</ele>
        <time>2026-08-23T13:27:21.000Z</time>
      </trkpt>
      <trkpt lat="43.32643" lon="-1.54732">
        <ele>35</ele>
        <time>2026-08-23T13:27:22.000Z</time>
      </trkpt>
      <trkpt lat="43.32601" lon="-1.54772">
        <ele>35</ele>
        <time>2026-08-23T13:27:31.000Z</time>
      </trkpt>
      <trkpt lat="43.32552" lon="-1.54819">
        <ele>36</ele>
        <time>2026-08-23T13:27:42.000Z</time>
      </trkpt>
      <trkpt lat="43.32548" lon="-1.54823">
        <ele>36</ele>
        <time>2026-08-23T13:27:43.000Z</time>
      </trkpt>
      <trkpt lat="43.32507" lon="-1.54859">
        <ele>34</ele>
        <time>2026-08-23T13:27:52.000Z</time>
      </trkpt>
      <trkpt lat="43.32479" lon="-1.54882">
        <ele>34</ele>
        <time>2026-08-23T13:27:57.000Z</time>
      </trkpt>
      <trkpt lat="43.32467" lon="-1.54891">
        <ele>34</ele>
        <time>2026-08-23T13:28:00.000Z</time>
      </trkpt>
      <trkpt lat="43.32454" lon="-1.54898">
        <ele>34</ele>
        <time>2026-08-23T13:28:02.000Z</time>
      </trkpt>
      <trkpt lat="43.32427" lon="-1.54913">
        <ele>33</ele>
        <time>2026-08-23T13:28:07.000Z</time>
      </trkpt>
      <trkpt lat="43.32405" lon="-1.54921">
        <ele>32</ele>
        <time>2026-08-23T13:28:12.000Z</time>
      </trkpt>
      <trkpt lat="43.3238" lon="-1.54931">
        <ele>32</ele>
        <time>2026-08-23T13:28:16.000Z</time>
      </trkpt>
      <trkpt lat="43.32374" lon="-1.54933">
        <ele>32</ele>
        <time>2026-08-23T13:28:17.000Z</time>
      </trkpt>
      <trkpt lat="43.32366" lon="-1.54937">
        <ele>32</ele>
        <time>2026-08-23T13:28:19.000Z</time>
      </trkpt>
      <trkpt lat="43.32306" lon="-1.54962">
        <ele>30</ele>
        <time>2026-08-23T13:28:30.000Z</time>
      </trkpt>
      <trkpt lat="43.32254" lon="-1.54986">
        <ele>30</ele>
        <time>2026-08-23T13:28:40.000Z</time>
      </trkpt>
      <trkpt lat="43.32234" lon="-1.54996">
        <ele>30</ele>
        <time>2026-08-23T13:28:43.000Z</time>
      </trkpt>
      <trkpt lat="43.32224" lon="-1.55001">
        <ele>30</ele>
        <time>2026-08-23T13:28:45.000Z</time>
      </trkpt>
      <trkpt lat="43.32196" lon="-1.55015">
        <ele>30</ele>
        <time>2026-08-23T13:28:51.000Z</time>
      </trkpt>
      <trkpt lat="43.32178" lon="-1.55025">
        <ele>31</ele>
        <time>2026-08-23T13:28:54.000Z</time>
      </trkpt>
      <trkpt lat="43.3217" lon="-1.55031">
        <ele>31</ele>
        <time>2026-08-23T13:28:56.000Z</time>
      </trkpt>
      <trkpt lat="43.32162" lon="-1.55041">
        <ele>31</ele>
        <time>2026-08-23T13:28:58.000Z</time>
      </trkpt>
      <trkpt lat="43.32155" lon="-1.55049">
        <ele>31</ele>
        <time>2026-08-23T13:28:59.000Z</time>
      </trkpt>
      <trkpt lat="43.32155" lon="-1.55049">
        <ele>31</ele>
        <time>2026-08-23T13:28:59.000Z</time>
      </trkpt>
      <trkpt lat="43.32148" lon="-1.55035">
        <ele>31</ele>
        <time>2026-08-23T13:29:02.000Z</time>
      </trkpt>
      <trkpt lat="43.32145" lon="-1.55025">
        <ele>31</ele>
        <time>2026-08-23T13:29:03.000Z</time>
      </trkpt>
      <trkpt lat="43.32142" lon="-1.55005">
        <ele>30</ele>
        <time>2026-08-23T13:29:06.000Z</time>
      </trkpt>
      <trkpt lat="43.32138" lon="-1.54972">
        <ele>30</ele>
        <time>2026-08-23T13:29:10.000Z</time>
      </trkpt>
      <trkpt lat="43.32136" lon="-1.54959">
        <ele>30</ele>
        <time>2026-08-23T13:29:12.000Z</time>
      </trkpt>
      <trkpt lat="43.32135" lon="-1.54948">
        <ele>30</ele>
        <time>2026-08-23T13:29:13.000Z</time>
      </trkpt>
      <trkpt lat="43.32133" lon="-1.54934">
        <ele>30</ele>
        <time>2026-08-23T13:29:15.000Z</time>
      </trkpt>
      <trkpt lat="43.3213" lon="-1.54924">
        <ele>30</ele>
        <time>2026-08-23T13:29:16.000Z</time>
      </trkpt>
      <trkpt lat="43.32127" lon="-1.54916">
        <ele>29</ele>
        <time>2026-08-23T13:29:17.000Z</time>
      </trkpt>
      <trkpt lat="43.32123" lon="-1.54908">
        <ele>30</ele>
        <time>2026-08-23T13:29:19.000Z</time>
      </trkpt>
      <trkpt lat="43.32117" lon="-1.54899">
        <ele>30</ele>
        <time>2026-08-23T13:29:20.000Z</time>
      </trkpt>
      <trkpt lat="43.32062" lon="-1.5483">
        <ele>33</ele>
        <time>2026-08-23T13:29:34.000Z</time>
      </trkpt>
      <trkpt lat="43.31997" lon="-1.54746">
        <ele>40</ele>
        <time>2026-08-23T13:29:49.000Z</time>
      </trkpt>
      <trkpt lat="43.31979" lon="-1.54724">
        <ele>42</ele>
        <time>2026-08-23T13:29:54.000Z</time>
      </trkpt>
      <trkpt lat="43.31939" lon="-1.54674">
        <ele>41</ele>
        <time>2026-08-23T13:30:03.000Z</time>
      </trkpt>
      <trkpt lat="43.31922" lon="-1.5465">
        <ele>39</ele>
        <time>2026-08-23T13:30:08.000Z</time>
      </trkpt>
      <trkpt lat="43.31912" lon="-1.54633">
        <ele>39</ele>
        <time>2026-08-23T13:30:10.000Z</time>
      </trkpt>
      <trkpt lat="43.31907" lon="-1.54623">
        <ele>39</ele>
        <time>2026-08-23T13:30:12.000Z</time>
      </trkpt>
      <trkpt lat="43.31899" lon="-1.54604">
        <ele>40</ele>
        <time>2026-08-23T13:30:15.000Z</time>
      </trkpt>
      <trkpt lat="43.31892" lon="-1.54584">
        <ele>40</ele>
        <time>2026-08-23T13:30:18.000Z</time>
      </trkpt>
      <trkpt lat="43.31886" lon="-1.54563">
        <ele>40</ele>
        <time>2026-08-23T13:30:21.000Z</time>
      </trkpt>
      <trkpt lat="43.31883" lon="-1.54552">
        <ele>40</ele>
        <time>2026-08-23T13:30:22.000Z</time>
      </trkpt>
      <trkpt lat="43.31879" lon="-1.54529">
        <ele>40</ele>
        <time>2026-08-23T13:30:25.000Z</time>
      </trkpt>
      <trkpt lat="43.31877" lon="-1.54495">
        <ele>41</ele>
        <time>2026-08-23T13:30:30.000Z</time>
      </trkpt>
      <trkpt lat="43.31877" lon="-1.54472">
        <ele>41</ele>
        <time>2026-08-23T13:30:33.000Z</time>
      </trkpt>
      <trkpt lat="43.31879" lon="-1.54449">
        <ele>41</ele>
        <time>2026-08-23T13:30:36.000Z</time>
      </trkpt>
      <trkpt lat="43.31883" lon="-1.54426">
        <ele>42</ele>
        <time>2026-08-23T13:30:39.000Z</time>
      </trkpt>
      <trkpt lat="43.31888" lon="-1.54403">
        <ele>42</ele>
        <time>2026-08-23T13:30:42.000Z</time>
      </trkpt>
      <trkpt lat="43.31903" lon="-1.54348">
        <ele>41</ele>
        <time>2026-08-23T13:30:49.000Z</time>
      </trkpt>
      <trkpt lat="43.31925" lon="-1.54268">
        <ele>38</ele>
        <time>2026-08-23T13:31:01.000Z</time>
      </trkpt>
      <trkpt lat="43.31937" lon="-1.54229">
        <ele>37</ele>
        <time>2026-08-23T13:31:06.000Z</time>
      </trkpt>
      <trkpt lat="43.31973" lon="-1.54098">
        <ele>37</ele>
        <time>2026-08-23T13:31:24.000Z</time>
      </trkpt>
      <trkpt lat="43.32003" lon="-1.53988">
        <ele>38</ele>
        <time>2026-08-23T13:31:39.000Z</time>
      </trkpt>
      <trkpt lat="43.32008" lon="-1.5397">
        <ele>38</ele>
        <time>2026-08-23T13:31:42.000Z</time>
      </trkpt>
      <trkpt lat="43.3201" lon="-1.5396">
        <ele>38</ele>
        <time>2026-08-23T13:31:43.000Z</time>
      </trkpt>
      <trkpt lat="43.32012" lon="-1.5395">
        <ele>39</ele>
        <time>2026-08-23T13:31:45.000Z</time>
      </trkpt>
      <trkpt lat="43.32013" lon="-1.53939">
        <ele>39</ele>
        <time>2026-08-23T13:31:46.000Z</time>
      </trkpt>
      <trkpt lat="43.32014" lon="-1.53928">
        <ele>39</ele>
        <time>2026-08-23T13:31:47.000Z</time>
      </trkpt>
      <trkpt lat="43.32014" lon="-1.53917">
        <ele>39</ele>
        <time>2026-08-23T13:31:49.000Z</time>
      </trkpt>
      <trkpt lat="43.32013" lon="-1.53894">
        <ele>40</ele>
        <time>2026-08-23T13:31:52.000Z</time>
      </trkpt>
      <trkpt lat="43.32011" lon="-1.53872">
        <ele>40</ele>
        <time>2026-08-23T13:31:55.000Z</time>
      </trkpt>
      <trkpt lat="43.32009" lon="-1.53837">
        <ele>41</ele>
        <time>2026-08-23T13:31:59.000Z</time>
      </trkpt>
      <trkpt lat="43.32007" lon="-1.53802">
        <ele>41</ele>
        <time>2026-08-23T13:32:04.000Z</time>
      </trkpt>
      <trkpt lat="43.32005" lon="-1.53767">
        <ele>41</ele>
        <time>2026-08-23T13:32:08.000Z</time>
      </trkpt>
      <trkpt lat="43.31999" lon="-1.53664">
        <ele>40</ele>
        <time>2026-08-23T13:32:22.000Z</time>
      </trkpt>
      <trkpt lat="43.31997" lon="-1.53641">
        <ele>40</ele>
        <time>2026-08-23T13:32:25.000Z</time>
      </trkpt>
      <trkpt lat="43.31996" lon="-1.53625">
        <ele>40</ele>
        <time>2026-08-23T13:32:27.000Z</time>
      </trkpt>
      <trkpt lat="43.31993" lon="-1.53606">
        <ele>39</ele>
        <time>2026-08-23T13:32:29.000Z</time>
      </trkpt>
      <trkpt lat="43.3199" lon="-1.53595">
        <ele>39</ele>
        <time>2026-08-23T13:32:31.000Z</time>
      </trkpt>
      <trkpt lat="43.31986" lon="-1.53583">
        <ele>39</ele>
        <time>2026-08-23T13:32:32.000Z</time>
      </trkpt>
      <trkpt lat="43.31983" lon="-1.53574">
        <ele>39</ele>
        <time>2026-08-23T13:32:34.000Z</time>
      </trkpt>
      <trkpt lat="43.31978" lon="-1.53564">
        <ele>40</ele>
        <time>2026-08-23T13:32:35.000Z</time>
      </trkpt>
      <trkpt lat="43.31971" lon="-1.53551">
        <ele>40</ele>
        <time>2026-08-23T13:32:37.000Z</time>
      </trkpt>
      <trkpt lat="43.31959" lon="-1.53532">
        <ele>40</ele>
        <time>2026-08-23T13:32:41.000Z</time>
      </trkpt>
      <trkpt lat="43.31942" lon="-1.53509">
        <ele>41</ele>
        <time>2026-08-23T13:32:45.000Z</time>
      </trkpt>
      <trkpt lat="43.3193" lon="-1.53492">
        <ele>41</ele>
        <time>2026-08-23T13:32:48.000Z</time>
      </trkpt>
      <trkpt lat="43.3192" lon="-1.53476">
        <ele>41</ele>
        <time>2026-08-23T13:32:51.000Z</time>
      </trkpt>
      <trkpt lat="43.31705" lon="-1.53146">
        <ele>48</ele>
        <time>2026-08-23T13:33:48.000Z</time>
      </trkpt>
      <trkpt lat="43.31658" lon="-1.53073">
        <ele>51</ele>
        <time>2026-08-23T13:34:01.000Z</time>
      </trkpt>
      <trkpt lat="43.31653" lon="-1.53067">
        <ele>52</ele>
        <time>2026-08-23T13:34:02.000Z</time>
      </trkpt>
      <trkpt lat="43.31651" lon="-1.53063">
        <ele>52</ele>
        <time>2026-08-23T13:34:03.000Z</time>
      </trkpt>
      <trkpt lat="43.31644" lon="-1.53053">
        <ele>53</ele>
        <time>2026-08-23T13:34:04.000Z</time>
      </trkpt>
      <trkpt lat="43.31637" lon="-1.53044">
        <ele>53</ele>
        <time>2026-08-23T13:34:06.000Z</time>
      </trkpt>
      <trkpt lat="43.31631" lon="-1.53037">
        <ele>54</ele>
        <time>2026-08-23T13:34:07.000Z</time>
      </trkpt>
      <trkpt lat="43.31619" lon="-1.53028">
        <ele>55</ele>
        <time>2026-08-23T13:34:10.000Z</time>
      </trkpt>
      <trkpt lat="43.31609" lon="-1.53022">
        <ele>56</ele>
        <time>2026-08-23T13:34:12.000Z</time>
      </trkpt>
      <trkpt lat="43.31606" lon="-1.5302">
        <ele>56</ele>
        <time>2026-08-23T13:34:12.000Z</time>
      </trkpt>
      <trkpt lat="43.31599" lon="-1.53016">
        <ele>57</ele>
        <time>2026-08-23T13:34:14.000Z</time>
      </trkpt>
      <trkpt lat="43.31588" lon="-1.53011">
        <ele>58</ele>
        <time>2026-08-23T13:34:16.000Z</time>
      </trkpt>
      <trkpt lat="43.31576" lon="-1.53007">
        <ele>59</ele>
        <time>2026-08-23T13:34:18.000Z</time>
      </trkpt>
      <trkpt lat="43.31565" lon="-1.53004">
        <ele>59</ele>
        <time>2026-08-23T13:34:20.000Z</time>
      </trkpt>
      <trkpt lat="43.31553" lon="-1.53002">
        <ele>59</ele>
        <time>2026-08-23T13:34:22.000Z</time>
      </trkpt>
      <trkpt lat="43.31541" lon="-1.53001">
        <ele>59</ele>
        <time>2026-08-23T13:34:24.000Z</time>
      </trkpt>
      <trkpt lat="43.31528" lon="-1.53001">
        <ele>59</ele>
        <time>2026-08-23T13:34:27.000Z</time>
      </trkpt>
      <trkpt lat="43.31515" lon="-1.53002">
        <ele>59</ele>
        <time>2026-08-23T13:34:29.000Z</time>
      </trkpt>
      <trkpt lat="43.31502" lon="-1.53003">
        <ele>59</ele>
        <time>2026-08-23T13:34:31.000Z</time>
      </trkpt>
      <trkpt lat="43.31488" lon="-1.53002">
        <ele>59</ele>
        <time>2026-08-23T13:34:34.000Z</time>
      </trkpt>
      <trkpt lat="43.31475" lon="-1.53">
        <ele>59</ele>
        <time>2026-08-23T13:34:36.000Z</time>
      </trkpt>
      <trkpt lat="43.31462" lon="-1.52998">
        <ele>59</ele>
        <time>2026-08-23T13:34:38.000Z</time>
      </trkpt>
      <trkpt lat="43.31449" lon="-1.52995">
        <ele>60</ele>
        <time>2026-08-23T13:34:41.000Z</time>
      </trkpt>
      <trkpt lat="43.31436" lon="-1.5299">
        <ele>60</ele>
        <time>2026-08-23T13:34:43.000Z</time>
      </trkpt>
      <trkpt lat="43.31424" lon="-1.52985">
        <ele>60</ele>
        <time>2026-08-23T13:34:45.000Z</time>
      </trkpt>
      <trkpt lat="43.31411" lon="-1.52979">
        <ele>60</ele>
        <time>2026-08-23T13:34:48.000Z</time>
      </trkpt>
      <trkpt lat="43.31399" lon="-1.52972">
        <ele>60</ele>
        <time>2026-08-23T13:34:50.000Z</time>
      </trkpt>
      <trkpt lat="43.31388" lon="-1.52965">
        <ele>60</ele>
        <time>2026-08-23T13:34:52.000Z</time>
      </trkpt>
      <trkpt lat="43.31377" lon="-1.52957">
        <ele>60</ele>
        <time>2026-08-23T13:34:54.000Z</time>
      </trkpt>
      <trkpt lat="43.31367" lon="-1.5295">
        <ele>60</ele>
        <time>2026-08-23T13:34:56.000Z</time>
      </trkpt>
      <trkpt lat="43.31356" lon="-1.52944">
        <ele>59</ele>
        <time>2026-08-23T13:34:59.000Z</time>
      </trkpt>
      <trkpt lat="43.31345" lon="-1.5294">
        <ele>59</ele>
        <time>2026-08-23T13:35:01.000Z</time>
      </trkpt>
      <trkpt lat="43.31335" lon="-1.52938">
        <ele>58</ele>
        <time>2026-08-23T13:35:02.000Z</time>
      </trkpt>
      <trkpt lat="43.31323" lon="-1.52937">
        <ele>58</ele>
        <time>2026-08-23T13:35:05.000Z</time>
      </trkpt>
      <trkpt lat="43.31312" lon="-1.52937">
        <ele>57</ele>
        <time>2026-08-23T13:35:07.000Z</time>
      </trkpt>
      <trkpt lat="43.31301" lon="-1.5294">
        <ele>57</ele>
        <time>2026-08-23T13:35:08.000Z</time>
      </trkpt>
      <trkpt lat="43.3129" lon="-1.52943">
        <ele>56</ele>
        <time>2026-08-23T13:35:10.000Z</time>
      </trkpt>
      <trkpt lat="43.3128" lon="-1.52949">
        <ele>56</ele>
        <time>2026-08-23T13:35:12.000Z</time>
      </trkpt>
      <trkpt lat="43.3127" lon="-1.52955">
        <ele>55</ele>
        <time>2026-08-23T13:35:14.000Z</time>
      </trkpt>
      <trkpt lat="43.31262" lon="-1.52963">
        <ele>54</ele>
        <time>2026-08-23T13:35:16.000Z</time>
      </trkpt>
      <trkpt lat="43.31253" lon="-1.52971">
        <ele>53</ele>
        <time>2026-08-23T13:35:18.000Z</time>
      </trkpt>
      <trkpt lat="43.31245" lon="-1.5298">
        <ele>52</ele>
        <time>2026-08-23T13:35:20.000Z</time>
      </trkpt>
      <trkpt lat="43.31239" lon="-1.52985">
        <ele>51</ele>
        <time>2026-08-23T13:35:21.000Z</time>
      </trkpt>
      <trkpt lat="43.31226" lon="-1.52994">
        <ele>51</ele>
        <time>2026-08-23T13:35:24.000Z</time>
      </trkpt>
      <trkpt lat="43.31223" lon="-1.52996">
        <ele>50</ele>
        <time>2026-08-23T13:35:24.000Z</time>
      </trkpt>
      <trkpt lat="43.31216" lon="-1.53">
        <ele>50</ele>
        <time>2026-08-23T13:35:26.000Z</time>
      </trkpt>
      <trkpt lat="43.31205" lon="-1.53004">
        <ele>50</ele>
        <time>2026-08-23T13:35:28.000Z</time>
      </trkpt>
      <trkpt lat="43.31195" lon="-1.53006">
        <ele>50</ele>
        <time>2026-08-23T13:35:29.000Z</time>
      </trkpt>
      <trkpt lat="43.31185" lon="-1.53007">
        <ele>49</ele>
        <time>2026-08-23T13:35:31.000Z</time>
      </trkpt>
      <trkpt lat="43.31174" lon="-1.53006">
        <ele>50</ele>
        <time>2026-08-23T13:35:33.000Z</time>
      </trkpt>
      <trkpt lat="43.31164" lon="-1.53005">
        <ele>50</ele>
        <time>2026-08-23T13:35:35.000Z</time>
      </trkpt>
      <trkpt lat="43.31155" lon="-1.53003">
        <ele>50</ele>
        <time>2026-08-23T13:35:37.000Z</time>
      </trkpt>
      <trkpt lat="43.31146" lon="-1.53">
        <ele>50</ele>
        <time>2026-08-23T13:35:38.000Z</time>
      </trkpt>
      <trkpt lat="43.31137" lon="-1.52996">
        <ele>50</ele>
        <time>2026-08-23T13:35:40.000Z</time>
      </trkpt>
      <trkpt lat="43.31129" lon="-1.52992">
        <ele>50</ele>
        <time>2026-08-23T13:35:41.000Z</time>
      </trkpt>
      <trkpt lat="43.31122" lon="-1.52987">
        <ele>51</ele>
        <time>2026-08-23T13:35:43.000Z</time>
      </trkpt>
      <trkpt lat="43.31116" lon="-1.52983">
        <ele>51</ele>
        <time>2026-08-23T13:35:44.000Z</time>
      </trkpt>
      <trkpt lat="43.31111" lon="-1.52978">
        <ele>51</ele>
        <time>2026-08-23T13:35:45.000Z</time>
      </trkpt>
      <trkpt lat="43.31104" lon="-1.52973">
        <ele>51</ele>
        <time>2026-08-23T13:35:47.000Z</time>
      </trkpt>
      <trkpt lat="43.31098" lon="-1.52967">
        <ele>52</ele>
        <time>2026-08-23T13:35:48.000Z</time>
      </trkpt>
      <trkpt lat="43.3109" lon="-1.52962">
        <ele>52</ele>
        <time>2026-08-23T13:35:49.000Z</time>
      </trkpt>
      <trkpt lat="43.31082" lon="-1.52957">
        <ele>52</ele>
        <time>2026-08-23T13:35:51.000Z</time>
      </trkpt>
      <trkpt lat="43.31076" lon="-1.52955">
        <ele>52</ele>
        <time>2026-08-23T13:35:52.000Z</time>
      </trkpt>
      <trkpt lat="43.31071" lon="-1.52953">
        <ele>52</ele>
        <time>2026-08-23T13:35:53.000Z</time>
      </trkpt>
      <trkpt lat="43.31064" lon="-1.52951">
        <ele>52</ele>
        <time>2026-08-23T13:35:54.000Z</time>
      </trkpt>
      <trkpt lat="43.31052" lon="-1.5295">
        <ele>52</ele>
        <time>2026-08-23T13:35:56.000Z</time>
      </trkpt>
      <trkpt lat="43.31038" lon="-1.5295">
        <ele>51</ele>
        <time>2026-08-23T13:35:59.000Z</time>
      </trkpt>
      <trkpt lat="43.31021" lon="-1.52948">
        <ele>51</ele>
        <time>2026-08-23T13:36:02.000Z</time>
      </trkpt>
      <trkpt lat="43.3101" lon="-1.52946">
        <ele>51</ele>
        <time>2026-08-23T13:36:04.000Z</time>
      </trkpt>
      <trkpt lat="43.31005" lon="-1.52944">
        <ele>51</ele>
        <time>2026-08-23T13:36:05.000Z</time>
      </trkpt>
      <trkpt lat="43.31001" lon="-1.52942">
        <ele>51</ele>
        <time>2026-08-23T13:36:06.000Z</time>
      </trkpt>
      <trkpt lat="43.30998" lon="-1.5294">
        <ele>51</ele>
        <time>2026-08-23T13:36:06.000Z</time>
      </trkpt>
      <trkpt lat="43.30995" lon="-1.52937">
        <ele>51</ele>
        <time>2026-08-23T13:36:07.000Z</time>
      </trkpt>
      <trkpt lat="43.30992" lon="-1.52932">
        <ele>51</ele>
        <time>2026-08-23T13:36:08.000Z</time>
      </trkpt>
      <trkpt lat="43.30989" lon="-1.52927">
        <ele>52</ele>
        <time>2026-08-23T13:36:09.000Z</time>
      </trkpt>
      <trkpt lat="43.30986" lon="-1.5292">
        <ele>52</ele>
        <time>2026-08-23T13:36:10.000Z</time>
      </trkpt>
      <trkpt lat="43.30982" lon="-1.5291">
        <ele>52</ele>
        <time>2026-08-23T13:36:11.000Z</time>
      </trkpt>
      <trkpt lat="43.30957" lon="-1.52832">
        <ele>55</ele>
        <time>2026-08-23T13:36:22.000Z</time>
      </trkpt>
      <trkpt lat="43.30953" lon="-1.52824">
        <ele>55</ele>
        <time>2026-08-23T13:36:23.000Z</time>
      </trkpt>
      <trkpt lat="43.3095" lon="-1.52818">
        <ele>56</ele>
        <time>2026-08-23T13:36:24.000Z</time>
      </trkpt>
      <trkpt lat="43.30946" lon="-1.52812">
        <ele>56</ele>
        <time>2026-08-23T13:36:25.000Z</time>
      </trkpt>
      <trkpt lat="43.30942" lon="-1.52807">
        <ele>56</ele>
        <time>2026-08-23T13:36:26.000Z</time>
      </trkpt>
      <trkpt lat="43.30933" lon="-1.52795">
        <ele>57</ele>
        <time>2026-08-23T13:36:29.000Z</time>
      </trkpt>
      <trkpt lat="43.30924" lon="-1.52782">
        <ele>58</ele>
        <time>2026-08-23T13:36:31.000Z</time>
      </trkpt>
      <trkpt lat="43.30903" lon="-1.52759">
        <ele>59</ele>
        <time>2026-08-23T13:36:36.000Z</time>
      </trkpt>
      <trkpt lat="43.30897" lon="-1.52753">
        <ele>59</ele>
        <time>2026-08-23T13:36:37.000Z</time>
      </trkpt>
      <trkpt lat="43.30891" lon="-1.5275">
        <ele>58</ele>
        <time>2026-08-23T13:36:38.000Z</time>
      </trkpt>
      <trkpt lat="43.30885" lon="-1.52748">
        <ele>58</ele>
        <time>2026-08-23T13:36:39.000Z</time>
      </trkpt>
      <trkpt lat="43.30878" lon="-1.52746">
        <ele>58</ele>
        <time>2026-08-23T13:36:41.000Z</time>
      </trkpt>
      <trkpt lat="43.30864" lon="-1.52744">
        <ele>57</ele>
        <time>2026-08-23T13:36:43.000Z</time>
      </trkpt>
      <trkpt lat="43.30846" lon="-1.52741">
        <ele>57</ele>
        <time>2026-08-23T13:36:46.000Z</time>
      </trkpt>
      <trkpt lat="43.30839" lon="-1.52739">
        <ele>56</ele>
        <time>2026-08-23T13:36:48.000Z</time>
      </trkpt>
      <trkpt lat="43.30829" lon="-1.52736">
        <ele>56</ele>
        <time>2026-08-23T13:36:49.000Z</time>
      </trkpt>
      <trkpt lat="43.3082" lon="-1.52733">
        <ele>56</ele>
        <time>2026-08-23T13:36:51.000Z</time>
      </trkpt>
      <trkpt lat="43.30809" lon="-1.52728">
        <ele>56</ele>
        <time>2026-08-23T13:36:53.000Z</time>
      </trkpt>
      <trkpt lat="43.30801" lon="-1.52723">
        <ele>56</ele>
        <time>2026-08-23T13:36:55.000Z</time>
      </trkpt>
      <trkpt lat="43.30796" lon="-1.5272">
        <ele>56</ele>
        <time>2026-08-23T13:36:56.000Z</time>
      </trkpt>
      <trkpt lat="43.30792" lon="-1.52716">
        <ele>56</ele>
        <time>2026-08-23T13:36:56.000Z</time>
      </trkpt>
      <trkpt lat="43.30781" lon="-1.52706">
        <ele>56</ele>
        <time>2026-08-23T13:36:59.000Z</time>
      </trkpt>
      <trkpt lat="43.30743" lon="-1.52668">
        <ele>57</ele>
        <time>2026-08-23T13:37:07.000Z</time>
      </trkpt>
      <trkpt lat="43.30724" lon="-1.52647">
        <ele>58</ele>
        <time>2026-08-23T13:37:12.000Z</time>
      </trkpt>
      <trkpt lat="43.30707" lon="-1.52625">
        <ele>58</ele>
        <time>2026-08-23T13:37:16.000Z</time>
      </trkpt>
      <trkpt lat="43.30697" lon="-1.52612">
        <ele>58</ele>
        <time>2026-08-23T13:37:18.000Z</time>
      </trkpt>
      <trkpt lat="43.30693" lon="-1.52607">
        <ele>57</ele>
        <time>2026-08-23T13:37:19.000Z</time>
      </trkpt>
      <trkpt lat="43.30689" lon="-1.52603">
        <ele>57</ele>
        <time>2026-08-23T13:37:20.000Z</time>
      </trkpt>
      <trkpt lat="43.3068" lon="-1.52596">
        <ele>56</ele>
        <time>2026-08-23T13:37:22.000Z</time>
      </trkpt>
      <trkpt lat="43.30664" lon="-1.52587">
        <ele>54</ele>
        <time>2026-08-23T13:37:25.000Z</time>
      </trkpt>
      <trkpt lat="43.3066" lon="-1.52584">
        <ele>54</ele>
        <time>2026-08-23T13:37:26.000Z</time>
      </trkpt>
      <trkpt lat="43.30657" lon="-1.52579">
        <ele>54</ele>
        <time>2026-08-23T13:37:27.000Z</time>
      </trkpt>
      <trkpt lat="43.30654" lon="-1.52574">
        <ele>55</ele>
        <time>2026-08-23T13:37:27.000Z</time>
      </trkpt>
      <trkpt lat="43.3065" lon="-1.52566">
        <ele>55</ele>
        <time>2026-08-23T13:37:29.000Z</time>
      </trkpt>
      <trkpt lat="43.30648" lon="-1.52558">
        <ele>56</ele>
        <time>2026-08-23T13:37:30.000Z</time>
      </trkpt>
      <trkpt lat="43.30647" lon="-1.52546">
        <ele>57</ele>
        <time>2026-08-23T13:37:31.000Z</time>
      </trkpt>
      <trkpt lat="43.30647" lon="-1.52535">
        <ele>57</ele>
        <time>2026-08-23T13:37:33.000Z</time>
      </trkpt>
      <trkpt lat="43.30645" lon="-1.52517">
        <ele>58</ele>
        <time>2026-08-23T13:37:35.000Z</time>
      </trkpt>
      <trkpt lat="43.30642" lon="-1.525">
        <ele>59</ele>
        <time>2026-08-23T13:37:37.000Z</time>
      </trkpt>
      <trkpt lat="43.30639" lon="-1.52488">
        <ele>59</ele>
        <time>2026-08-23T13:37:39.000Z</time>
      </trkpt>
      <trkpt lat="43.30629" lon="-1.52459">
        <ele>59</ele>
        <time>2026-08-23T13:37:43.000Z</time>
      </trkpt>
      <trkpt lat="43.30625" lon="-1.52445">
        <ele>59</ele>
        <time>2026-08-23T13:37:45.000Z</time>
      </trkpt>
      <trkpt lat="43.30622" lon="-1.5243">
        <ele>59</ele>
        <time>2026-08-23T13:37:47.000Z</time>
      </trkpt>
      <trkpt lat="43.30622" lon="-1.52418">
        <ele>60</ele>
        <time>2026-08-23T13:37:49.000Z</time>
      </trkpt>
      <trkpt lat="43.30622" lon="-1.52409">
        <ele>59</ele>
        <time>2026-08-23T13:37:50.000Z</time>
      </trkpt>
      <trkpt lat="43.30623" lon="-1.52398">
        <ele>59</ele>
        <time>2026-08-23T13:37:51.000Z</time>
      </trkpt>
      <trkpt lat="43.30624" lon="-1.52385">
        <ele>59</ele>
        <time>2026-08-23T13:37:53.000Z</time>
      </trkpt>
      <trkpt lat="43.30626" lon="-1.52369">
        <ele>58</ele>
        <time>2026-08-23T13:37:55.000Z</time>
      </trkpt>
      <trkpt lat="43.30627" lon="-1.52355">
        <ele>58</ele>
        <time>2026-08-23T13:37:57.000Z</time>
      </trkpt>
      <trkpt lat="43.30627" lon="-1.5234">
        <ele>57</ele>
        <time>2026-08-23T13:37:59.000Z</time>
      </trkpt>
      <trkpt lat="43.30627" lon="-1.5233">
        <ele>57</ele>
        <time>2026-08-23T13:38:00.000Z</time>
      </trkpt>
      <trkpt lat="43.30627" lon="-1.52316">
        <ele>57</ele>
        <time>2026-08-23T13:38:02.000Z</time>
      </trkpt>
      <trkpt lat="43.30626" lon="-1.52303">
        <ele>58</ele>
        <time>2026-08-23T13:38:04.000Z</time>
      </trkpt>
      <trkpt lat="43.30626" lon="-1.52295">
        <ele>58</ele>
        <time>2026-08-23T13:38:05.000Z</time>
      </trkpt>
      <trkpt lat="43.30625" lon="-1.52286">
        <ele>58</ele>
        <time>2026-08-23T13:38:06.000Z</time>
      </trkpt>
      <trkpt lat="43.30624" lon="-1.52272">
        <ele>58</ele>
        <time>2026-08-23T13:38:08.000Z</time>
      </trkpt>
      <trkpt lat="43.30622" lon="-1.52252">
        <ele>59</ele>
        <time>2026-08-23T13:38:10.000Z</time>
      </trkpt>
      <trkpt lat="43.30622" lon="-1.52235">
        <ele>60</ele>
        <time>2026-08-23T13:38:12.000Z</time>
      </trkpt>
      <trkpt lat="43.30621" lon="-1.52221">
        <ele>61</ele>
        <time>2026-08-23T13:38:14.000Z</time>
      </trkpt>
      <trkpt lat="43.30623" lon="-1.52209">
        <ele>61</ele>
        <time>2026-08-23T13:38:16.000Z</time>
      </trkpt>
      <trkpt lat="43.30627" lon="-1.52197">
        <ele>61</ele>
        <time>2026-08-23T13:38:18.000Z</time>
      </trkpt>
      <trkpt lat="43.30631" lon="-1.52186">
        <ele>62</ele>
        <time>2026-08-23T13:38:19.000Z</time>
      </trkpt>
      <trkpt lat="43.30635" lon="-1.52181">
        <ele>62</ele>
        <time>2026-08-23T13:38:20.000Z</time>
      </trkpt>
      <trkpt lat="43.30638" lon="-1.52176">
        <ele>62</ele>
        <time>2026-08-23T13:38:21.000Z</time>
      </trkpt>
      <trkpt lat="43.30663" lon="-1.5215">
        <ele>62</ele>
        <time>2026-08-23T13:38:27.000Z</time>
      </trkpt>
      <trkpt lat="43.30683" lon="-1.52132">
        <ele>62</ele>
        <time>2026-08-23T13:38:31.000Z</time>
      </trkpt>
      <trkpt lat="43.30694" lon="-1.52122">
        <ele>62</ele>
        <time>2026-08-23T13:38:33.000Z</time>
      </trkpt>
      <trkpt lat="43.30706" lon="-1.52109">
        <ele>62</ele>
        <time>2026-08-23T13:38:36.000Z</time>
      </trkpt>
      <trkpt lat="43.30711" lon="-1.52103">
        <ele>62</ele>
        <time>2026-08-23T13:38:37.000Z</time>
      </trkpt>
      <trkpt lat="43.30714" lon="-1.52097">
        <ele>62</ele>
        <time>2026-08-23T13:38:38.000Z</time>
      </trkpt>
      <trkpt lat="43.30738" lon="-1.52056">
        <ele>62</ele>
        <time>2026-08-23T13:38:45.000Z</time>
      </trkpt>
      <trkpt lat="43.30747" lon="-1.52043">
        <ele>62</ele>
        <time>2026-08-23T13:38:47.000Z</time>
      </trkpt>
      <trkpt lat="43.30749" lon="-1.52038">
        <ele>62</ele>
        <time>2026-08-23T13:38:48.000Z</time>
      </trkpt>
      <trkpt lat="43.30749" lon="-1.5203">
        <ele>62</ele>
        <time>2026-08-23T13:38:49.000Z</time>
      </trkpt>
      <trkpt lat="43.30748" lon="-1.52023">
        <ele>62</ele>
        <time>2026-08-23T13:38:50.000Z</time>
      </trkpt>
      <trkpt lat="43.30745" lon="-1.52017">
        <ele>62</ele>
        <time>2026-08-23T13:38:51.000Z</time>
      </trkpt>
      <trkpt lat="43.30735" lon="-1.52005">
        <ele>63</ele>
        <time>2026-08-23T13:38:53.000Z</time>
      </trkpt>
      <trkpt lat="43.30723" lon="-1.51988">
        <ele>64</ele>
        <time>2026-08-23T13:38:56.000Z</time>
      </trkpt>
      <trkpt lat="43.30716" lon="-1.51975">
        <ele>65</ele>
        <time>2026-08-23T13:38:58.000Z</time>
      </trkpt>
      <trkpt lat="43.3071" lon="-1.51963">
        <ele>65</ele>
        <time>2026-08-23T13:39:00.000Z</time>
      </trkpt>
      <trkpt lat="43.30708" lon="-1.51953">
        <ele>65</ele>
        <time>2026-08-23T13:39:02.000Z</time>
      </trkpt>
      <trkpt lat="43.30704" lon="-1.5194">
        <ele>66</ele>
        <time>2026-08-23T13:39:03.000Z</time>
      </trkpt>
      <trkpt lat="43.30695" lon="-1.51904">
        <ele>67</ele>
        <time>2026-08-23T13:39:08.000Z</time>
      </trkpt>
      <trkpt lat="43.30689" lon="-1.51881">
        <ele>67</ele>
        <time>2026-08-23T13:39:11.000Z</time>
      </trkpt>
      <trkpt lat="43.30684" lon="-1.51866">
        <ele>67</ele>
        <time>2026-08-23T13:39:14.000Z</time>
      </trkpt>
      <trkpt lat="43.30678" lon="-1.51855">
        <ele>67</ele>
        <time>2026-08-23T13:39:15.000Z</time>
      </trkpt>
      <trkpt lat="43.30672" lon="-1.51846">
        <ele>68</ele>
        <time>2026-08-23T13:39:17.000Z</time>
      </trkpt>
      <trkpt lat="43.30661" lon="-1.51833">
        <ele>68</ele>
        <time>2026-08-23T13:39:20.000Z</time>
      </trkpt>
      <trkpt lat="43.3064" lon="-1.51809">
        <ele>69</ele>
        <time>2026-08-23T13:39:24.000Z</time>
      </trkpt>
      <trkpt lat="43.30635" lon="-1.51804">
        <ele>70</ele>
        <time>2026-08-23T13:39:25.000Z</time>
      </trkpt>
      <trkpt lat="43.30608" lon="-1.51774">
        <ele>71</ele>
        <time>2026-08-23T13:39:32.000Z</time>
      </trkpt>
      <trkpt lat="43.30598" lon="-1.51762">
        <ele>71</ele>
        <time>2026-08-23T13:39:34.000Z</time>
      </trkpt>
      <trkpt lat="43.30591" lon="-1.5175">
        <ele>71</ele>
        <time>2026-08-23T13:39:36.000Z</time>
      </trkpt>
      <trkpt lat="43.30586" lon="-1.51739">
        <ele>71</ele>
        <time>2026-08-23T13:39:38.000Z</time>
      </trkpt>
      <trkpt lat="43.30582" lon="-1.51729">
        <ele>71</ele>
        <time>2026-08-23T13:39:39.000Z</time>
      </trkpt>
      <trkpt lat="43.30575" lon="-1.51713">
        <ele>71</ele>
        <time>2026-08-23T13:39:42.000Z</time>
      </trkpt>
      <trkpt lat="43.30572" lon="-1.51707">
        <ele>71</ele>
        <time>2026-08-23T13:39:43.000Z</time>
      </trkpt>
      <trkpt lat="43.30568" lon="-1.517">
        <ele>71</ele>
        <time>2026-08-23T13:39:44.000Z</time>
      </trkpt>
      <trkpt lat="43.30562" lon="-1.5169">
        <ele>71</ele>
        <time>2026-08-23T13:39:45.000Z</time>
      </trkpt>
      <trkpt lat="43.30548" lon="-1.5167">
        <ele>70</ele>
        <time>2026-08-23T13:39:49.000Z</time>
      </trkpt>
      <trkpt lat="43.30458" lon="-1.51566">
        <ele>72</ele>
        <time>2026-08-23T13:40:10.000Z</time>
      </trkpt>
      <trkpt lat="43.30436" lon="-1.51542">
        <ele>72</ele>
        <time>2026-08-23T13:40:15.000Z</time>
      </trkpt>
      <trkpt lat="43.30334" lon="-1.51431">
        <ele>74</ele>
        <time>2026-08-23T13:40:38.000Z</time>
      </trkpt>
      <trkpt lat="43.30219" lon="-1.51316">
        <ele>67</ele>
        <time>2026-08-23T13:41:03.000Z</time>
      </trkpt>
      <trkpt lat="43.30206" lon="-1.51304">
        <ele>66</ele>
        <time>2026-08-23T13:41:06.000Z</time>
      </trkpt>
      <trkpt lat="43.30197" lon="-1.51297">
        <ele>66</ele>
        <time>2026-08-23T13:41:08.000Z</time>
      </trkpt>
      <trkpt lat="43.30186" lon="-1.51291">
        <ele>66</ele>
        <time>2026-08-23T13:41:10.000Z</time>
      </trkpt>
      <trkpt lat="43.30176" lon="-1.51286">
        <ele>66</ele>
        <time>2026-08-23T13:41:12.000Z</time>
      </trkpt>
      <trkpt lat="43.30166" lon="-1.51282">
        <ele>66</ele>
        <time>2026-08-23T13:41:14.000Z</time>
      </trkpt>
      <trkpt lat="43.30152" lon="-1.5128">
        <ele>66</ele>
        <time>2026-08-23T13:41:16.000Z</time>
      </trkpt>
      <trkpt lat="43.30098" lon="-1.51279">
        <ele>68</ele>
        <time>2026-08-23T13:41:26.000Z</time>
      </trkpt>
      <trkpt lat="43.3009" lon="-1.51277">
        <ele>69</ele>
        <time>2026-08-23T13:41:27.000Z</time>
      </trkpt>
      <trkpt lat="43.30081" lon="-1.51273">
        <ele>69</ele>
        <time>2026-08-23T13:41:29.000Z</time>
      </trkpt>
      <trkpt lat="43.30076" lon="-1.51269">
        <ele>68</ele>
        <time>2026-08-23T13:41:30.000Z</time>
      </trkpt>
      <trkpt lat="43.30069" lon="-1.51262">
        <ele>68</ele>
        <time>2026-08-23T13:41:32.000Z</time>
      </trkpt>
      <trkpt lat="43.30053" lon="-1.51243">
        <ele>68</ele>
        <time>2026-08-23T13:41:35.000Z</time>
      </trkpt>
      <trkpt lat="43.30049" lon="-1.51239">
        <ele>68</ele>
        <time>2026-08-23T13:41:36.000Z</time>
      </trkpt>
      <trkpt lat="43.30045" lon="-1.51236">
        <ele>68</ele>
        <time>2026-08-23T13:41:37.000Z</time>
      </trkpt>
      <trkpt lat="43.30039" lon="-1.51234">
        <ele>69</ele>
        <time>2026-08-23T13:41:38.000Z</time>
      </trkpt>
      <trkpt lat="43.30035" lon="-1.51233">
        <ele>69</ele>
        <time>2026-08-23T13:41:39.000Z</time>
      </trkpt>
      <trkpt lat="43.30031" lon="-1.51232">
        <ele>69</ele>
        <time>2026-08-23T13:41:40.000Z</time>
      </trkpt>
      <trkpt lat="43.30027" lon="-1.51233">
        <ele>70</ele>
        <time>2026-08-23T13:41:40.000Z</time>
      </trkpt>
      <trkpt lat="43.30023" lon="-1.51235">
        <ele>70</ele>
        <time>2026-08-23T13:41:41.000Z</time>
      </trkpt>
      <trkpt lat="43.30004" lon="-1.51247">
        <ele>72</ele>
        <time>2026-08-23T13:41:45.000Z</time>
      </trkpt>
      <trkpt lat="43.29996" lon="-1.51253">
        <ele>73</ele>
        <time>2026-08-23T13:41:46.000Z</time>
      </trkpt>
      <trkpt lat="43.29989" lon="-1.51257">
        <ele>74</ele>
        <time>2026-08-23T13:41:48.000Z</time>
      </trkpt>
      <trkpt lat="43.29987" lon="-1.51257">
        <ele>74</ele>
        <time>2026-08-23T13:41:48.000Z</time>
      </trkpt>
      <trkpt lat="43.29985" lon="-1.51257">
        <ele>75</ele>
        <time>2026-08-23T13:41:48.000Z</time>
      </trkpt>
      <trkpt lat="43.29984" lon="-1.51257">
        <ele>75</ele>
        <time>2026-08-23T13:41:49.000Z</time>
      </trkpt>
      <trkpt lat="43.29983" lon="-1.51257">
        <ele>75</ele>
        <time>2026-08-23T13:41:49.000Z</time>
      </trkpt>
      <trkpt lat="43.29982" lon="-1.51256">
        <ele>75</ele>
        <time>2026-08-23T13:41:49.000Z</time>
      </trkpt>
      <trkpt lat="43.2998" lon="-1.51256">
        <ele>75</ele>
        <time>2026-08-23T13:41:49.000Z</time>
      </trkpt>
      <trkpt lat="43.29973" lon="-1.5125">
        <ele>76</ele>
        <time>2026-08-23T13:41:51.000Z</time>
      </trkpt>
      <trkpt lat="43.29968" lon="-1.51245">
        <ele>77</ele>
        <time>2026-08-23T13:41:52.000Z</time>
      </trkpt>
      <trkpt lat="43.29967" lon="-1.51244">
        <ele>77</ele>
        <time>2026-08-23T13:41:52.000Z</time>
      </trkpt>
      <trkpt lat="43.29966" lon="-1.51242">
        <ele>77</ele>
        <time>2026-08-23T13:41:53.000Z</time>
      </trkpt>
      <trkpt lat="43.29965" lon="-1.51242">
        <ele>77</ele>
        <time>2026-08-23T13:41:53.000Z</time>
      </trkpt>
      <trkpt lat="43.29965" lon="-1.5124">
        <ele>77</ele>
        <time>2026-08-23T13:41:53.000Z</time>
      </trkpt>
      <trkpt lat="43.29965" lon="-1.51239">
        <ele>77</ele>
        <time>2026-08-23T13:41:53.000Z</time>
      </trkpt>
      <trkpt lat="43.29964" lon="-1.51237">
        <ele>78</ele>
        <time>2026-08-23T13:41:53.000Z</time>
      </trkpt>
      <trkpt lat="43.29964" lon="-1.51235">
        <ele>78</ele>
        <time>2026-08-23T13:41:54.000Z</time>
      </trkpt>
      <trkpt lat="43.29965" lon="-1.5123">
        <ele>77</ele>
        <time>2026-08-23T13:41:54.000Z</time>
      </trkpt>
      <trkpt lat="43.29965" lon="-1.51219">
        <ele>77</ele>
        <time>2026-08-23T13:41:56.000Z</time>
      </trkpt>
      <trkpt lat="43.29966" lon="-1.51216">
        <ele>77</ele>
        <time>2026-08-23T13:41:56.000Z</time>
      </trkpt>
      <trkpt lat="43.29967" lon="-1.51212">
        <ele>77</ele>
        <time>2026-08-23T13:41:57.000Z</time>
      </trkpt>
      <trkpt lat="43.29968" lon="-1.5121">
        <ele>77</ele>
        <time>2026-08-23T13:41:57.000Z</time>
      </trkpt>
      <trkpt lat="43.29969" lon="-1.51209">
        <ele>77</ele>
        <time>2026-08-23T13:41:57.000Z</time>
      </trkpt>
      <trkpt lat="43.2997" lon="-1.51207">
        <ele>77</ele>
        <time>2026-08-23T13:41:58.000Z</time>
      </trkpt>
      <trkpt lat="43.29971" lon="-1.51206">
        <ele>76</ele>
        <time>2026-08-23T13:41:58.000Z</time>
      </trkpt>
      <trkpt lat="43.2998" lon="-1.51197">
        <ele>75</ele>
        <time>2026-08-23T13:42:00.000Z</time>
      </trkpt>
      <trkpt lat="43.3" lon="-1.51168">
        <ele>71</ele>
        <time>2026-08-23T13:42:05.000Z</time>
      </trkpt>
      <trkpt lat="43.30004" lon="-1.51161">
        <ele>70</ele>
        <time>2026-08-23T13:42:06.000Z</time>
      </trkpt>
      <trkpt lat="43.30007" lon="-1.51154">
        <ele>69</ele>
        <time>2026-08-23T13:42:07.000Z</time>
      </trkpt>
      <trkpt lat="43.30011" lon="-1.51146">
        <ele>69</ele>
        <time>2026-08-23T13:42:08.000Z</time>
      </trkpt>
      <trkpt lat="43.30013" lon="-1.51138">
        <ele>68</ele>
        <time>2026-08-23T13:42:10.000Z</time>
      </trkpt>
      <trkpt lat="43.30014" lon="-1.5113">
        <ele>68</ele>
        <time>2026-08-23T13:42:11.000Z</time>
      </trkpt>
      <trkpt lat="43.30015" lon="-1.51121">
        <ele>67</ele>
        <time>2026-08-23T13:42:12.000Z</time>
      </trkpt>
      <trkpt lat="43.30016" lon="-1.51115">
        <ele>67</ele>
        <time>2026-08-23T13:42:13.000Z</time>
      </trkpt>
      <trkpt lat="43.30016" lon="-1.51111">
        <ele>67</ele>
        <time>2026-08-23T13:42:13.000Z</time>
      </trkpt>
      <trkpt lat="43.30015" lon="-1.51104">
        <ele>66</ele>
        <time>2026-08-23T13:42:14.000Z</time>
      </trkpt>
      <trkpt lat="43.30015" lon="-1.51098">
        <ele>66</ele>
        <time>2026-08-23T13:42:15.000Z</time>
      </trkpt>
      <trkpt lat="43.30014" lon="-1.51094">
        <ele>66</ele>
        <time>2026-08-23T13:42:15.000Z</time>
      </trkpt>
      <trkpt lat="43.30012" lon="-1.51089">
        <ele>66</ele>
        <time>2026-08-23T13:42:16.000Z</time>
      </trkpt>
      <trkpt lat="43.30007" lon="-1.51081">
        <ele>66</ele>
        <time>2026-08-23T13:42:17.000Z</time>
      </trkpt>
      <trkpt lat="43.30002" lon="-1.51073">
        <ele>66</ele>
        <time>2026-08-23T13:42:19.000Z</time>
      </trkpt>
      <trkpt lat="43.29932" lon="-1.50955">
        <ele>69</ele>
        <time>2026-08-23T13:42:39.000Z</time>
      </trkpt>
      <trkpt lat="43.29917" lon="-1.50932">
        <ele>68</ele>
        <time>2026-08-23T13:42:43.000Z</time>
      </trkpt>
      <trkpt lat="43.29901" lon="-1.50908">
        <ele>69</ele>
        <time>2026-08-23T13:42:47.000Z</time>
      </trkpt>
      <trkpt lat="43.29895" lon="-1.509">
        <ele>70</ele>
        <time>2026-08-23T13:42:48.000Z</time>
      </trkpt>
      <trkpt lat="43.29886" lon="-1.50889">
        <ele>70</ele>
        <time>2026-08-23T13:42:50.000Z</time>
      </trkpt>
      <trkpt lat="43.29868" lon="-1.50867">
        <ele>71</ele>
        <time>2026-08-23T13:42:55.000Z</time>
      </trkpt>
      <trkpt lat="43.29811" lon="-1.5081">
        <ele>71</ele>
        <time>2026-08-23T13:43:07.000Z</time>
      </trkpt>
      <trkpt lat="43.29792" lon="-1.50793">
        <ele>72</ele>
        <time>2026-08-23T13:43:11.000Z</time>
      </trkpt>
      <trkpt lat="43.2976" lon="-1.50766">
        <ele>72</ele>
        <time>2026-08-23T13:43:18.000Z</time>
      </trkpt>
      <trkpt lat="43.29727" lon="-1.5074">
        <ele>72</ele>
        <time>2026-08-23T13:43:25.000Z</time>
      </trkpt>
      <trkpt lat="43.29695" lon="-1.50722">
        <ele>73</ele>
        <time>2026-08-23T13:43:31.000Z</time>
      </trkpt>
      <trkpt lat="43.29677" lon="-1.50711">
        <ele>73</ele>
        <time>2026-08-23T13:43:34.000Z</time>
      </trkpt>
      <trkpt lat="43.29664" lon="-1.50704">
        <ele>72</ele>
        <time>2026-08-23T13:43:37.000Z</time>
      </trkpt>
      <trkpt lat="43.29652" lon="-1.50696">
        <ele>72</ele>
        <time>2026-08-23T13:43:39.000Z</time>
      </trkpt>
      <trkpt lat="43.29637" lon="-1.50686">
        <ele>72</ele>
        <time>2026-08-23T13:43:42.000Z</time>
      </trkpt>
      <trkpt lat="43.29625" lon="-1.50676">
        <ele>72</ele>
        <time>2026-08-23T13:43:45.000Z</time>
      </trkpt>
      <trkpt lat="43.29604" lon="-1.50642">
        <ele>72</ele>
        <time>2026-08-23T13:43:50.000Z</time>
      </trkpt>
      <trkpt lat="43.29595" lon="-1.50629">
        <ele>72</ele>
        <time>2026-08-23T13:43:53.000Z</time>
      </trkpt>
      <trkpt lat="43.29591" lon="-1.50623">
        <ele>71</ele>
        <time>2026-08-23T13:43:54.000Z</time>
      </trkpt>
      <trkpt lat="43.29587" lon="-1.50618">
        <ele>71</ele>
        <time>2026-08-23T13:43:55.000Z</time>
      </trkpt>
      <trkpt lat="43.29585" lon="-1.50616">
        <ele>71</ele>
        <time>2026-08-23T13:43:55.000Z</time>
      </trkpt>
      <trkpt lat="43.29581" lon="-1.50613">
        <ele>71</ele>
        <time>2026-08-23T13:43:56.000Z</time>
      </trkpt>
      <trkpt lat="43.29577" lon="-1.5061">
        <ele>71</ele>
        <time>2026-08-23T13:43:57.000Z</time>
      </trkpt>
      <trkpt lat="43.29573" lon="-1.50607">
        <ele>71</ele>
        <time>2026-08-23T13:43:58.000Z</time>
      </trkpt>
      <trkpt lat="43.29569" lon="-1.50604">
        <ele>71</ele>
        <time>2026-08-23T13:43:58.000Z</time>
      </trkpt>
      <trkpt lat="43.29564" lon="-1.50603">
        <ele>71</ele>
        <time>2026-08-23T13:43:59.000Z</time>
      </trkpt>
      <trkpt lat="43.29555" lon="-1.50601">
        <ele>71</ele>
        <time>2026-08-23T13:44:01.000Z</time>
      </trkpt>
      <trkpt lat="43.29542" lon="-1.50604">
        <ele>71</ele>
        <time>2026-08-23T13:44:03.000Z</time>
      </trkpt>
      <trkpt lat="43.29534" lon="-1.50606">
        <ele>71</ele>
        <time>2026-08-23T13:44:05.000Z</time>
      </trkpt>
      <trkpt lat="43.29476" lon="-1.50631">
        <ele>72</ele>
        <time>2026-08-23T13:44:16.000Z</time>
      </trkpt>
      <trkpt lat="43.2947" lon="-1.50633">
        <ele>72</ele>
        <time>2026-08-23T13:44:17.000Z</time>
      </trkpt>
      <trkpt lat="43.29459" lon="-1.50635">
        <ele>72</ele>
        <time>2026-08-23T13:44:19.000Z</time>
      </trkpt>
      <trkpt lat="43.29453" lon="-1.50635">
        <ele>72</ele>
        <time>2026-08-23T13:44:20.000Z</time>
      </trkpt>
      <trkpt lat="43.29448" lon="-1.50634">
        <ele>72</ele>
        <time>2026-08-23T13:44:21.000Z</time>
      </trkpt>
      <trkpt lat="43.29445" lon="-1.50634">
        <ele>72</ele>
        <time>2026-08-23T13:44:21.000Z</time>
      </trkpt>
      <trkpt lat="43.29421" lon="-1.5063">
        <ele>71</ele>
        <time>2026-08-23T13:44:25.000Z</time>
      </trkpt>
      <trkpt lat="43.29421" lon="-1.5063">
        <ele>71</ele>
        <time>2026-08-23T13:44:25.000Z</time>
      </trkpt>
      <trkpt lat="43.2942" lon="-1.5063">
        <ele>71</ele>
        <time>2026-08-23T13:44:26.000Z</time>
      </trkpt>
      <trkpt lat="43.29419" lon="-1.5063">
        <ele>71</ele>
        <time>2026-08-23T13:44:26.000Z</time>
      </trkpt>
      <trkpt lat="43.29418" lon="-1.5063">
        <ele>71</ele>
        <time>2026-08-23T13:44:26.000Z</time>
      </trkpt>
      <trkpt lat="43.29417" lon="-1.5063">
        <ele>71</ele>
        <time>2026-08-23T13:44:26.000Z</time>
      </trkpt>
      <trkpt lat="43.29416" lon="-1.5063">
        <ele>71</ele>
        <time>2026-08-23T13:44:26.000Z</time>
      </trkpt>
      <trkpt lat="43.29415" lon="-1.5063">
        <ele>71</ele>
        <time>2026-08-23T13:44:27.000Z</time>
      </trkpt>
      <trkpt lat="43.29414" lon="-1.5063">
        <ele>71</ele>
        <time>2026-08-23T13:44:27.000Z</time>
      </trkpt>
      <trkpt lat="43.29414" lon="-1.50629">
        <ele>71</ele>
        <time>2026-08-23T13:44:27.000Z</time>
      </trkpt>
      <trkpt lat="43.29413" lon="-1.50629">
        <ele>71</ele>
        <time>2026-08-23T13:44:27.000Z</time>
      </trkpt>
      <trkpt lat="43.29412" lon="-1.50628">
        <ele>71</ele>
        <time>2026-08-23T13:44:27.000Z</time>
      </trkpt>
      <trkpt lat="43.29411" lon="-1.50627">
        <ele>71</ele>
        <time>2026-08-23T13:44:27.000Z</time>
      </trkpt>
      <trkpt lat="43.2941" lon="-1.50626">
        <ele>71</ele>
        <time>2026-08-23T13:44:28.000Z</time>
      </trkpt>
      <trkpt lat="43.2941" lon="-1.50625">
        <ele>71</ele>
        <time>2026-08-23T13:44:28.000Z</time>
      </trkpt>
      <trkpt lat="43.29409" lon="-1.50625">
        <ele>71</ele>
        <time>2026-08-23T13:44:28.000Z</time>
      </trkpt>
      <trkpt lat="43.29409" lon="-1.50624">
        <ele>70</ele>
        <time>2026-08-23T13:44:28.000Z</time>
      </trkpt>
      <trkpt lat="43.29408" lon="-1.50623">
        <ele>70</ele>
        <time>2026-08-23T13:44:28.000Z</time>
      </trkpt>
      <trkpt lat="43.29408" lon="-1.50622">
        <ele>70</ele>
        <time>2026-08-23T13:44:28.000Z</time>
      </trkpt>
      <trkpt lat="43.29407" lon="-1.50621">
        <ele>70</ele>
        <time>2026-08-23T13:44:29.000Z</time>
      </trkpt>
      <trkpt lat="43.29407" lon="-1.5062">
        <ele>70</ele>
        <time>2026-08-23T13:44:29.000Z</time>
      </trkpt>
      <trkpt lat="43.29407" lon="-1.50619">
        <ele>70</ele>
        <time>2026-08-23T13:44:29.000Z</time>
      </trkpt>
      <trkpt lat="43.29407" lon="-1.50618">
        <ele>70</ele>
        <time>2026-08-23T13:44:29.000Z</time>
      </trkpt>
      <trkpt lat="43.29406" lon="-1.50618">
        <ele>70</ele>
        <time>2026-08-23T13:44:29.000Z</time>
      </trkpt>
      <trkpt lat="43.29406" lon="-1.50617">
        <ele>70</ele>
        <time>2026-08-23T13:44:29.000Z</time>
      </trkpt>
      <trkpt lat="43.29406" lon="-1.50616">
        <ele>70</ele>
        <time>2026-08-23T13:44:30.000Z</time>
      </trkpt>
      <trkpt lat="43.29406" lon="-1.50615">
        <ele>70</ele>
        <time>2026-08-23T13:44:30.000Z</time>
      </trkpt>
      <trkpt lat="43.29406" lon="-1.50614">
        <ele>69</ele>
        <time>2026-08-23T13:44:30.000Z</time>
      </trkpt>
      <trkpt lat="43.29406" lon="-1.50613">
        <ele>69</ele>
        <time>2026-08-23T13:44:30.000Z</time>
      </trkpt>
      <trkpt lat="43.29406" lon="-1.50612">
        <ele>69</ele>
        <time>2026-08-23T13:44:30.000Z</time>
      </trkpt>
      <trkpt lat="43.29406" lon="-1.50611">
        <ele>69</ele>
        <time>2026-08-23T13:44:30.000Z</time>
      </trkpt>
      <trkpt lat="43.29406" lon="-1.5061">
        <ele>69</ele>
        <time>2026-08-23T13:44:30.000Z</time>
      </trkpt>
      <trkpt lat="43.29407" lon="-1.50609">
        <ele>69</ele>
        <time>2026-08-23T13:44:30.000Z</time>
      </trkpt>
      <trkpt lat="43.29407" lon="-1.50608">
        <ele>69</ele>
        <time>2026-08-23T13:44:31.000Z</time>
      </trkpt>
      <trkpt lat="43.29407" lon="-1.50607">
        <ele>69</ele>
        <time>2026-08-23T13:44:31.000Z</time>
      </trkpt>
      <trkpt lat="43.29407" lon="-1.50606">
        <ele>69</ele>
        <time>2026-08-23T13:44:31.000Z</time>
      </trkpt>
      <trkpt lat="43.29408" lon="-1.50606">
        <ele>69</ele>
        <time>2026-08-23T13:44:31.000Z</time>
      </trkpt>
      <trkpt lat="43.29408" lon="-1.50605">
        <ele>68</ele>
        <time>2026-08-23T13:44:31.000Z</time>
      </trkpt>
      <trkpt lat="43.29408" lon="-1.50604">
        <ele>68</ele>
        <time>2026-08-23T13:44:31.000Z</time>
      </trkpt>
      <trkpt lat="43.29409" lon="-1.50603">
        <ele>68</ele>
        <time>2026-08-23T13:44:32.000Z</time>
      </trkpt>
      <trkpt lat="43.29401" lon="-1.50589">
        <ele>67</ele>
        <time>2026-08-23T13:44:34.000Z</time>
      </trkpt>
      <trkpt lat="43.294" lon="-1.50586">
        <ele>66</ele>
        <time>2026-08-23T13:44:34.000Z</time>
      </trkpt>
      <trkpt lat="43.29344" lon="-1.50522">
        <ele>71</ele>
        <time>2026-08-23T13:44:47.000Z</time>
      </trkpt>
      <trkpt lat="43.29338" lon="-1.50515">
        <ele>71</ele>
        <time>2026-08-23T13:44:49.000Z</time>
      </trkpt>
      <trkpt lat="43.29334" lon="-1.50509">
        <ele>71</ele>
        <time>2026-08-23T13:44:50.000Z</time>
      </trkpt>
      <trkpt lat="43.29334" lon="-1.50509">
        <ele>71</ele>
        <time>2026-08-23T13:44:50.000Z</time>
      </trkpt>
      <trkpt lat="43.29329" lon="-1.50499">
        <ele>72</ele>
        <time>2026-08-23T13:44:51.000Z</time>
      </trkpt>
      <trkpt lat="43.29336" lon="-1.50491">
        <ele>72</ele>
        <time>2026-08-23T13:44:53.000Z</time>
      </trkpt>
      <trkpt lat="43.29339" lon="-1.50488">
        <ele>72</ele>
        <time>2026-08-23T13:44:54.000Z</time>
      </trkpt>
      <trkpt lat="43.29341" lon="-1.50483">
        <ele>73</ele>
        <time>2026-08-23T13:44:54.000Z</time>
      </trkpt>
      <trkpt lat="43.29342" lon="-1.50481">
        <ele>73</ele>
        <time>2026-08-23T13:44:55.000Z</time>
      </trkpt>
      <trkpt lat="43.29345" lon="-1.50472">
        <ele>73</ele>
        <time>2026-08-23T13:44:56.000Z</time>
      </trkpt>
      <trkpt lat="43.29348" lon="-1.50467">
        <ele>73</ele>
        <time>2026-08-23T13:44:57.000Z</time>
      </trkpt>
      <trkpt lat="43.29351" lon="-1.5045">
        <ele>74</ele>
        <time>2026-08-23T13:44:59.000Z</time>
      </trkpt>
      <trkpt lat="43.29352" lon="-1.50443">
        <ele>74</ele>
        <time>2026-08-23T13:45:00.000Z</time>
      </trkpt>
      <trkpt lat="43.29352" lon="-1.50435">
        <ele>75</ele>
        <time>2026-08-23T13:45:01.000Z</time>
      </trkpt>
      <trkpt lat="43.29353" lon="-1.50427">
        <ele>75</ele>
        <time>2026-08-23T13:45:02.000Z</time>
      </trkpt>
      <trkpt lat="43.29352" lon="-1.50418">
        <ele>76</ele>
        <time>2026-08-23T13:45:03.000Z</time>
      </trkpt>
      <trkpt lat="43.29352" lon="-1.50403">
        <ele>76</ele>
        <time>2026-08-23T13:45:05.000Z</time>
      </trkpt>
      <trkpt lat="43.29349" lon="-1.50374">
        <ele>76</ele>
        <time>2026-08-23T13:45:09.000Z</time>
      </trkpt>
      <trkpt lat="43.29348" lon="-1.50347">
        <ele>77</ele>
        <time>2026-08-23T13:45:12.000Z</time>
      </trkpt>
      <trkpt lat="43.29347" lon="-1.50334">
        <ele>77</ele>
        <time>2026-08-23T13:45:14.000Z</time>
      </trkpt>
      <trkpt lat="43.29347" lon="-1.50326">
        <ele>77</ele>
        <time>2026-08-23T13:45:15.000Z</time>
      </trkpt>
      <trkpt lat="43.29347" lon="-1.50312">
        <ele>78</ele>
        <time>2026-08-23T13:45:17.000Z</time>
      </trkpt>
      <trkpt lat="43.29349" lon="-1.50291">
        <ele>79</ele>
        <time>2026-08-23T13:45:20.000Z</time>
      </trkpt>
      <trkpt lat="43.2935" lon="-1.50279">
        <ele>80</ele>
        <time>2026-08-23T13:45:21.000Z</time>
      </trkpt>
      <trkpt lat="43.29352" lon="-1.50268">
        <ele>80</ele>
        <time>2026-08-23T13:45:23.000Z</time>
      </trkpt>
      <trkpt lat="43.29354" lon="-1.50258">
        <ele>81</ele>
        <time>2026-08-23T13:45:24.000Z</time>
      </trkpt>
      <trkpt lat="43.29358" lon="-1.50244">
        <ele>82</ele>
        <time>2026-08-23T13:45:26.000Z</time>
      </trkpt>
      <trkpt lat="43.2937" lon="-1.50177">
        <ele>84</ele>
        <time>2026-08-23T13:45:35.000Z</time>
      </trkpt>
      <trkpt lat="43.29377" lon="-1.5015">
        <ele>85</ele>
        <time>2026-08-23T13:45:39.000Z</time>
      </trkpt>
      <trkpt lat="43.29383" lon="-1.50129">
        <ele>86</ele>
        <time>2026-08-23T13:45:42.000Z</time>
      </trkpt>
      <trkpt lat="43.29398" lon="-1.50094">
        <ele>87</ele>
        <time>2026-08-23T13:45:47.000Z</time>
      </trkpt>
      <trkpt lat="43.2941" lon="-1.50069">
        <ele>88</ele>
        <time>2026-08-23T13:45:51.000Z</time>
      </trkpt>
      <trkpt lat="43.29419" lon="-1.50047">
        <ele>88</ele>
        <time>2026-08-23T13:45:54.000Z</time>
      </trkpt>
      <trkpt lat="43.29423" lon="-1.5003">
        <ele>89</ele>
        <time>2026-08-23T13:45:56.000Z</time>
      </trkpt>
      <trkpt lat="43.29425" lon="-1.50013">
        <ele>89</ele>
        <time>2026-08-23T13:45:59.000Z</time>
      </trkpt>
      <trkpt lat="43.29426" lon="-1.49995">
        <ele>89</ele>
        <time>2026-08-23T13:46:01.000Z</time>
      </trkpt>
      <trkpt lat="43.29426" lon="-1.49987">
        <ele>90</ele>
        <time>2026-08-23T13:46:02.000Z</time>
      </trkpt>
      <trkpt lat="43.29426" lon="-1.4997">
        <ele>90</ele>
        <time>2026-08-23T13:46:04.000Z</time>
      </trkpt>
      <trkpt lat="43.29424" lon="-1.49942">
        <ele>91</ele>
        <time>2026-08-23T13:46:08.000Z</time>
      </trkpt>
      <trkpt lat="43.2942" lon="-1.499">
        <ele>94</ele>
        <time>2026-08-23T13:46:13.000Z</time>
      </trkpt>
      <trkpt lat="43.29416" lon="-1.4987">
        <ele>96</ele>
        <time>2026-08-23T13:46:17.000Z</time>
      </trkpt>
      <trkpt lat="43.29409" lon="-1.49796">
        <ele>101</ele>
        <time>2026-08-23T13:46:27.000Z</time>
      </trkpt>
      <trkpt lat="43.29408" lon="-1.49787">
        <ele>102</ele>
        <time>2026-08-23T13:46:28.000Z</time>
      </trkpt>
      <trkpt lat="43.29407" lon="-1.49771">
        <ele>103</ele>
        <time>2026-08-23T13:46:30.000Z</time>
      </trkpt>
      <trkpt lat="43.29407" lon="-1.49752">
        <ele>104</ele>
        <time>2026-08-23T13:46:33.000Z</time>
      </trkpt>
      <trkpt lat="43.29407" lon="-1.49741">
        <ele>103</ele>
        <time>2026-08-23T13:46:34.000Z</time>
      </trkpt>
      <trkpt lat="43.29408" lon="-1.49728">
        <ele>102</ele>
        <time>2026-08-23T13:46:36.000Z</time>
      </trkpt>
      <trkpt lat="43.29411" lon="-1.49713">
        <ele>101</ele>
        <time>2026-08-23T13:46:38.000Z</time>
      </trkpt>
      <trkpt lat="43.29414" lon="-1.49701">
        <ele>100</ele>
        <time>2026-08-23T13:46:39.000Z</time>
      </trkpt>
      <trkpt lat="43.29417" lon="-1.49688">
        <ele>100</ele>
        <time>2026-08-23T13:46:41.000Z</time>
      </trkpt>
      <trkpt lat="43.29422" lon="-1.49677">
        <ele>100</ele>
        <time>2026-08-23T13:46:43.000Z</time>
      </trkpt>
      <trkpt lat="43.29426" lon="-1.49667">
        <ele>100</ele>
        <time>2026-08-23T13:46:44.000Z</time>
      </trkpt>
      <trkpt lat="43.29432" lon="-1.49656">
        <ele>100</ele>
        <time>2026-08-23T13:46:46.000Z</time>
      </trkpt>
      <trkpt lat="43.2944" lon="-1.49645">
        <ele>102</ele>
        <time>2026-08-23T13:46:48.000Z</time>
      </trkpt>
      <trkpt lat="43.29447" lon="-1.49636">
        <ele>102</ele>
        <time>2026-08-23T13:46:50.000Z</time>
      </trkpt>
      <trkpt lat="43.29455" lon="-1.49626">
        <ele>103</ele>
        <time>2026-08-23T13:46:52.000Z</time>
      </trkpt>
      <trkpt lat="43.29465" lon="-1.49617">
        <ele>105</ele>
        <time>2026-08-23T13:46:54.000Z</time>
      </trkpt>
      <trkpt lat="43.29476" lon="-1.49608">
        <ele>106</ele>
        <time>2026-08-23T13:46:56.000Z</time>
      </trkpt>
      <trkpt lat="43.29487" lon="-1.496">
        <ele>108</ele>
        <time>2026-08-23T13:46:58.000Z</time>
      </trkpt>
      <trkpt lat="43.29499" lon="-1.49594">
        <ele>109</ele>
        <time>2026-08-23T13:47:01.000Z</time>
      </trkpt>
      <trkpt lat="43.29513" lon="-1.49587">
        <ele>111</ele>
        <time>2026-08-23T13:47:03.000Z</time>
      </trkpt>
      <trkpt lat="43.29526" lon="-1.49582">
        <ele>112</ele>
        <time>2026-08-23T13:47:06.000Z</time>
      </trkpt>
      <trkpt lat="43.29539" lon="-1.49575">
        <ele>113</ele>
        <time>2026-08-23T13:47:08.000Z</time>
      </trkpt>
      <trkpt lat="43.29553" lon="-1.49566">
        <ele>113</ele>
        <time>2026-08-23T13:47:11.000Z</time>
      </trkpt>
      <trkpt lat="43.29562" lon="-1.49558">
        <ele>114</ele>
        <time>2026-08-23T13:47:13.000Z</time>
      </trkpt>
      <trkpt lat="43.29573" lon="-1.49545">
        <ele>114</ele>
        <time>2026-08-23T13:47:15.000Z</time>
      </trkpt>
      <trkpt lat="43.29581" lon="-1.49533">
        <ele>114</ele>
        <time>2026-08-23T13:47:17.000Z</time>
      </trkpt>
      <trkpt lat="43.2959" lon="-1.49513">
        <ele>114</ele>
        <time>2026-08-23T13:47:21.000Z</time>
      </trkpt>
      <trkpt lat="43.29601" lon="-1.49478">
        <ele>114</ele>
        <time>2026-08-23T13:47:25.000Z</time>
      </trkpt>
      <trkpt lat="43.29609" lon="-1.49456">
        <ele>113</ele>
        <time>2026-08-23T13:47:29.000Z</time>
      </trkpt>
      <trkpt lat="43.29616" lon="-1.49438">
        <ele>113</ele>
        <time>2026-08-23T13:47:31.000Z</time>
      </trkpt>
      <trkpt lat="43.29625" lon="-1.49421">
        <ele>113</ele>
        <time>2026-08-23T13:47:34.000Z</time>
      </trkpt>
      <trkpt lat="43.29641" lon="-1.49399">
        <ele>115</ele>
        <time>2026-08-23T13:47:38.000Z</time>
      </trkpt>
      <trkpt lat="43.2967" lon="-1.49365">
        <ele>117</ele>
        <time>2026-08-23T13:47:45.000Z</time>
      </trkpt>
      <trkpt lat="43.29691" lon="-1.49341">
        <ele>119</ele>
        <time>2026-08-23T13:47:50.000Z</time>
      </trkpt>
      <trkpt lat="43.29707" lon="-1.49327">
        <ele>121</ele>
        <time>2026-08-23T13:47:53.000Z</time>
      </trkpt>
      <trkpt lat="43.29721" lon="-1.49317">
        <ele>122</ele>
        <time>2026-08-23T13:47:56.000Z</time>
      </trkpt>
      <trkpt lat="43.29733" lon="-1.4931">
        <ele>123</ele>
        <time>2026-08-23T13:47:58.000Z</time>
      </trkpt>
      <trkpt lat="43.29746" lon="-1.49305">
        <ele>125</ele>
        <time>2026-08-23T13:48:01.000Z</time>
      </trkpt>
      <trkpt lat="43.29757" lon="-1.49301">
        <ele>125</ele>
        <time>2026-08-23T13:48:03.000Z</time>
      </trkpt>
      <trkpt lat="43.29766" lon="-1.493">
        <ele>126</ele>
        <time>2026-08-23T13:48:04.000Z</time>
      </trkpt>
      <trkpt lat="43.29766" lon="-1.493">
        <ele>126</ele>
        <time>2026-08-23T13:48:04.000Z</time>
      </trkpt>
      <trkpt lat="43.29776" lon="-1.49275">
        <ele>125</ele>
        <time>2026-08-23T13:48:08.000Z</time>
      </trkpt>
      <trkpt lat="43.29776" lon="-1.49275">
        <ele>125</ele>
        <time>2026-08-23T13:48:08.000Z</time>
      </trkpt>
      <trkpt lat="43.29769" lon="-1.49272">
        <ele>124</ele>
        <time>2026-08-23T13:48:09.000Z</time>
      </trkpt>
      <trkpt lat="43.29757" lon="-1.49264">
        <ele>123</ele>
        <time>2026-08-23T13:48:12.000Z</time>
      </trkpt>
      <trkpt lat="43.2974" lon="-1.49255">
        <ele>121</ele>
        <time>2026-08-23T13:48:15.000Z</time>
      </trkpt>
      <trkpt lat="43.29712" lon="-1.49241">
        <ele>118</ele>
        <time>2026-08-23T13:48:20.000Z</time>
      </trkpt>
      <trkpt lat="43.29692" lon="-1.49231">
        <ele>116</ele>
        <time>2026-08-23T13:48:24.000Z</time>
      </trkpt>
      <trkpt lat="43.2968" lon="-1.49224">
        <ele>115</ele>
        <time>2026-08-23T13:48:26.000Z</time>
      </trkpt>
      <trkpt lat="43.29676" lon="-1.49222">
        <ele>114</ele>
        <time>2026-08-23T13:48:27.000Z</time>
      </trkpt>
      <trkpt lat="43.29676" lon="-1.49222">
        <ele>114</ele>
        <time>2026-08-23T13:48:27.000Z</time>
      </trkpt>
      <trkpt lat="43.29665" lon="-1.49219">
        <ele>114</ele>
        <time>2026-08-23T13:48:29.000Z</time>
      </trkpt>
      <trkpt lat="43.29656" lon="-1.49219">
        <ele>115</ele>
        <time>2026-08-23T13:48:31.000Z</time>
      </trkpt>
      <trkpt lat="43.29647" lon="-1.4922">
        <ele>115</ele>
        <time>2026-08-23T13:48:32.000Z</time>
      </trkpt>
      <trkpt lat="43.29634" lon="-1.49221">
        <ele>116</ele>
        <time>2026-08-23T13:48:35.000Z</time>
      </trkpt>
      <trkpt lat="43.29624" lon="-1.4922">
        <ele>117</ele>
        <time>2026-08-23T13:48:36.000Z</time>
      </trkpt>
      <trkpt lat="43.29596" lon="-1.49218">
        <ele>120</ele>
        <time>2026-08-23T13:48:41.000Z</time>
      </trkpt>
      <trkpt lat="43.29596" lon="-1.49218">
        <ele>120</ele>
        <time>2026-08-23T13:48:41.000Z</time>
      </trkpt>
      <trkpt lat="43.29588" lon="-1.49244">
        <ele>116</ele>
        <time>2026-08-23T13:48:45.000Z</time>
      </trkpt>
      <trkpt lat="43.29577" lon="-1.49268">
        <ele>115</ele>
        <time>2026-08-23T13:48:49.000Z</time>
      </trkpt>
      <trkpt lat="43.29565" lon="-1.49285">
        <ele>116</ele>
        <time>2026-08-23T13:48:52.000Z</time>
      </trkpt>
      <trkpt lat="43.29556" lon="-1.49291">
        <ele>117</ele>
        <time>2026-08-23T13:48:53.000Z</time>
      </trkpt>
      <trkpt lat="43.29547" lon="-1.49296">
        <ele>119</ele>
        <time>2026-08-23T13:48:55.000Z</time>
      </trkpt>
      <trkpt lat="43.29538" lon="-1.49298">
        <ele>121</ele>
        <time>2026-08-23T13:48:57.000Z</time>
      </trkpt>
      <trkpt lat="43.2952" lon="-1.49302">
        <ele>124</ele>
        <time>2026-08-23T13:49:00.000Z</time>
      </trkpt>
      <trkpt lat="43.29509" lon="-1.4931">
        <ele>126</ele>
        <time>2026-08-23T13:49:02.000Z</time>
      </trkpt>
      <trkpt lat="43.29501" lon="-1.49319">
        <ele>126</ele>
        <time>2026-08-23T13:49:04.000Z</time>
      </trkpt>
      <trkpt lat="43.29493" lon="-1.49325">
        <ele>127</ele>
        <time>2026-08-23T13:49:06.000Z</time>
      </trkpt>
      <trkpt lat="43.2948" lon="-1.49331">
        <ele>128</ele>
        <time>2026-08-23T13:49:08.000Z</time>
      </trkpt>
      <trkpt lat="43.29466" lon="-1.49337">
        <ele>129</ele>
        <time>2026-08-23T13:49:11.000Z</time>
      </trkpt>
      <trkpt lat="43.29429" lon="-1.49342">
        <ele>134</ele>
        <time>2026-08-23T13:49:17.000Z</time>
      </trkpt>
      <trkpt lat="43.29423" lon="-1.49342">
        <ele>135</ele>
        <time>2026-08-23T13:49:18.000Z</time>
      </trkpt>
      <trkpt lat="43.29423" lon="-1.49342">
        <ele>135</ele>
        <time>2026-08-23T13:49:18.000Z</time>
      </trkpt>
      <trkpt lat="43.29423" lon="-1.49303">
        <ele>139</ele>
        <time>2026-08-23T13:49:24.000Z</time>
      </trkpt>
      <trkpt lat="43.29423" lon="-1.49292">
        <ele>140</ele>
        <time>2026-08-23T13:49:25.000Z</time>
      </trkpt>
      <trkpt lat="43.29421" lon="-1.49281">
        <ele>141</ele>
        <time>2026-08-23T13:49:26.000Z</time>
      </trkpt>
      <trkpt lat="43.29421" lon="-1.49281">
        <ele>141</ele>
        <time>2026-08-23T13:49:26.000Z</time>
      </trkpt>
      <trkpt lat="43.29449" lon="-1.49263">
        <ele>139</ele>
        <time>2026-08-23T13:49:32.000Z</time>
      </trkpt>
      <trkpt lat="43.29463" lon="-1.49251">
        <ele>139</ele>
        <time>2026-08-23T13:49:35.000Z</time>
      </trkpt>
      <trkpt lat="43.29474" lon="-1.49241">
        <ele>139</ele>
        <time>2026-08-23T13:49:37.000Z</time>
      </trkpt>
      <trkpt lat="43.29485" lon="-1.49228">
        <ele>140</ele>
        <time>2026-08-23T13:49:40.000Z</time>
      </trkpt>
      <trkpt lat="43.29492" lon="-1.49217">
        <ele>140</ele>
        <time>2026-08-23T13:49:42.000Z</time>
      </trkpt>
      <trkpt lat="43.29498" lon="-1.49209">
        <ele>141</ele>
        <time>2026-08-23T13:49:43.000Z</time>
      </trkpt>
      <trkpt lat="43.29502" lon="-1.49207">
        <ele>140</ele>
        <time>2026-08-23T13:49:44.000Z</time>
      </trkpt>
      <trkpt lat="43.29596" lon="-1.49218">
        <ele>120</ele>
        <time>2026-08-23T13:50:01.000Z</time>
      </trkpt>
      <trkpt lat="43.29624" lon="-1.4922">
        <ele>117</ele>
        <time>2026-08-23T13:50:06.000Z</time>
      </trkpt>
      <trkpt lat="43.29634" lon="-1.49221">
        <ele>116</ele>
        <time>2026-08-23T13:50:08.000Z</time>
      </trkpt>
      <trkpt lat="43.29647" lon="-1.4922">
        <ele>115</ele>
        <time>2026-08-23T13:50:10.000Z</time>
      </trkpt>
      <trkpt lat="43.29656" lon="-1.49219">
        <ele>115</ele>
        <time>2026-08-23T13:50:11.000Z</time>
      </trkpt>
      <trkpt lat="43.29665" lon="-1.49219">
        <ele>114</ele>
        <time>2026-08-23T13:50:13.000Z</time>
      </trkpt>
      <trkpt lat="43.29676" lon="-1.49222">
        <ele>114</ele>
        <time>2026-08-23T13:50:15.000Z</time>
      </trkpt>
      <trkpt lat="43.2968" lon="-1.49224">
        <ele>115</ele>
        <time>2026-08-23T13:50:16.000Z</time>
      </trkpt>
      <trkpt lat="43.29692" lon="-1.49231">
        <ele>116</ele>
        <time>2026-08-23T13:50:18.000Z</time>
      </trkpt>
      <trkpt lat="43.29712" lon="-1.49241">
        <ele>118</ele>
        <time>2026-08-23T13:50:22.000Z</time>
      </trkpt>
      <trkpt lat="43.2974" lon="-1.49255">
        <ele>121</ele>
        <time>2026-08-23T13:50:27.000Z</time>
      </trkpt>
      <trkpt lat="43.29757" lon="-1.49264">
        <ele>123</ele>
        <time>2026-08-23T13:50:30.000Z</time>
      </trkpt>
      <trkpt lat="43.29769" lon="-1.49272">
        <ele>124</ele>
        <time>2026-08-23T13:50:33.000Z</time>
      </trkpt>
      <trkpt lat="43.29776" lon="-1.49275">
        <ele>125</ele>
        <time>2026-08-23T13:50:34.000Z</time>
      </trkpt>
      <trkpt lat="43.2978" lon="-1.49276">
        <ele>125</ele>
        <time>2026-08-23T13:50:35.000Z</time>
      </trkpt>
      <trkpt lat="43.2979" lon="-1.49277">
        <ele>126</ele>
        <time>2026-08-23T13:50:37.000Z</time>
      </trkpt>
      <trkpt lat="43.29801" lon="-1.49278">
        <ele>127</ele>
        <time>2026-08-23T13:50:39.000Z</time>
      </trkpt>
      <trkpt lat="43.29814" lon="-1.49282">
        <ele>127</ele>
        <time>2026-08-23T13:50:41.000Z</time>
      </trkpt>
      <trkpt lat="43.29826" lon="-1.49287">
        <ele>128</ele>
        <time>2026-08-23T13:50:43.000Z</time>
      </trkpt>
      <trkpt lat="43.29836" lon="-1.49296">
        <ele>130</ele>
        <time>2026-08-23T13:50:45.000Z</time>
      </trkpt>
      <trkpt lat="43.29844" lon="-1.49307">
        <ele>131</ele>
        <time>2026-08-23T13:50:47.000Z</time>
      </trkpt>
      <trkpt lat="43.29846" lon="-1.49314">
        <ele>132</ele>
        <time>2026-08-23T13:50:48.000Z</time>
      </trkpt>
      <trkpt lat="43.29847" lon="-1.49318">
        <ele>132</ele>
        <time>2026-08-23T13:50:49.000Z</time>
      </trkpt>
      <trkpt lat="43.29845" lon="-1.49324">
        <ele>132</ele>
        <time>2026-08-23T13:50:50.000Z</time>
      </trkpt>
      <trkpt lat="43.29845" lon="-1.49324">
        <ele>132</ele>
        <time>2026-08-23T13:50:50.000Z</time>
      </trkpt>
      <trkpt lat="43.29852" lon="-1.49329">
        <ele>133</ele>
        <time>2026-08-23T13:50:51.000Z</time>
      </trkpt>
      <trkpt lat="43.29861" lon="-1.49337">
        <ele>134</ele>
        <time>2026-08-23T13:50:53.000Z</time>
      </trkpt>
      <trkpt lat="43.29885" lon="-1.49366">
        <ele>136</ele>
        <time>2026-08-23T13:50:59.000Z</time>
      </trkpt>
      <trkpt lat="43.29904" lon="-1.49384">
        <ele>136</ele>
        <time>2026-08-23T13:51:03.000Z</time>
      </trkpt>
      <trkpt lat="43.2992" lon="-1.49398">
        <ele>135</ele>
        <time>2026-08-23T13:51:06.000Z</time>
      </trkpt>
      <trkpt lat="43.29935" lon="-1.4941">
        <ele>135</ele>
        <time>2026-08-23T13:51:09.000Z</time>
      </trkpt>
      <trkpt lat="43.29955" lon="-1.49422">
        <ele>133</ele>
        <time>2026-08-23T13:51:13.000Z</time>
      </trkpt>
      <trkpt lat="43.29972" lon="-1.4943">
        <ele>132</ele>
        <time>2026-08-23T13:51:16.000Z</time>
      </trkpt>
      <trkpt lat="43.29987" lon="-1.49435">
        <ele>131</ele>
        <time>2026-08-23T13:51:19.000Z</time>
      </trkpt>
      <trkpt lat="43.30001" lon="-1.4944">
        <ele>130</ele>
        <time>2026-08-23T13:51:22.000Z</time>
      </trkpt>
      <trkpt lat="43.30021" lon="-1.49445">
        <ele>128</ele>
        <time>2026-08-23T13:51:25.000Z</time>
      </trkpt>
      <trkpt lat="43.30033" lon="-1.49446">
        <ele>127</ele>
        <time>2026-08-23T13:51:27.000Z</time>
      </trkpt>
      <trkpt lat="43.30049" lon="-1.49446">
        <ele>126</ele>
        <time>2026-08-23T13:51:30.000Z</time>
      </trkpt>
      <trkpt lat="43.30058" lon="-1.49445">
        <ele>126</ele>
        <time>2026-08-23T13:51:32.000Z</time>
      </trkpt>
      <trkpt lat="43.3007" lon="-1.49443">
        <ele>126</ele>
        <time>2026-08-23T13:51:34.000Z</time>
      </trkpt>
      <trkpt lat="43.30085" lon="-1.49439">
        <ele>126</ele>
        <time>2026-08-23T13:51:37.000Z</time>
      </trkpt>
      <trkpt lat="43.30094" lon="-1.49435">
        <ele>126</ele>
        <time>2026-08-23T13:51:38.000Z</time>
      </trkpt>
      <trkpt lat="43.30117" lon="-1.49421">
        <ele>127</ele>
        <time>2026-08-23T13:51:43.000Z</time>
      </trkpt>
      <trkpt lat="43.30149" lon="-1.49399">
        <ele>127</ele>
        <time>2026-08-23T13:51:49.000Z</time>
      </trkpt>
      <trkpt lat="43.30185" lon="-1.49377">
        <ele>129</ele>
        <time>2026-08-23T13:51:56.000Z</time>
      </trkpt>
      <trkpt lat="43.30216" lon="-1.49361">
        <ele>130</ele>
        <time>2026-08-23T13:52:02.000Z</time>
      </trkpt>
      <trkpt lat="43.30223" lon="-1.49357">
        <ele>130</ele>
        <time>2026-08-23T13:52:04.000Z</time>
      </trkpt>
      <trkpt lat="43.30229" lon="-1.49354">
        <ele>130</ele>
        <time>2026-08-23T13:52:05.000Z</time>
      </trkpt>
      <trkpt lat="43.30237" lon="-1.4935">
        <ele>131</ele>
        <time>2026-08-23T13:52:06.000Z</time>
      </trkpt>
      <trkpt lat="43.30245" lon="-1.49348">
        <ele>130</ele>
        <time>2026-08-23T13:52:08.000Z</time>
      </trkpt>
      <trkpt lat="43.30251" lon="-1.49348">
        <ele>130</ele>
        <time>2026-08-23T13:52:09.000Z</time>
      </trkpt>
      <trkpt lat="43.30256" lon="-1.49349">
        <ele>131</ele>
        <time>2026-08-23T13:52:10.000Z</time>
      </trkpt>
      <trkpt lat="43.30261" lon="-1.49351">
        <ele>131</ele>
        <time>2026-08-23T13:52:11.000Z</time>
      </trkpt>
      <trkpt lat="43.30266" lon="-1.49354">
        <ele>131</ele>
        <time>2026-08-23T13:52:11.000Z</time>
      </trkpt>
      <trkpt lat="43.30273" lon="-1.49361">
        <ele>131</ele>
        <time>2026-08-23T13:52:13.000Z</time>
      </trkpt>
      <trkpt lat="43.30278" lon="-1.4937">
        <ele>130</ele>
        <time>2026-08-23T13:52:14.000Z</time>
      </trkpt>
      <trkpt lat="43.30282" lon="-1.49379">
        <ele>129</ele>
        <time>2026-08-23T13:52:16.000Z</time>
      </trkpt>
      <trkpt lat="43.303" lon="-1.49443">
        <ele>124</ele>
        <time>2026-08-23T13:52:25.000Z</time>
      </trkpt>
      <trkpt lat="43.3032" lon="-1.49523">
        <ele>124</ele>
        <time>2026-08-23T13:52:36.000Z</time>
      </trkpt>
      <trkpt lat="43.30328" lon="-1.49551">
        <ele>124</ele>
        <time>2026-08-23T13:52:40.000Z</time>
      </trkpt>
      <trkpt lat="43.30334" lon="-1.49566">
        <ele>124</ele>
        <time>2026-08-23T13:52:42.000Z</time>
      </trkpt>
      <trkpt lat="43.30341" lon="-1.49577">
        <ele>124</ele>
        <time>2026-08-23T13:52:44.000Z</time>
      </trkpt>
      <trkpt lat="43.30342" lon="-1.49578">
        <ele>124</ele>
        <time>2026-08-23T13:52:44.000Z</time>
      </trkpt>
      <trkpt lat="43.30353" lon="-1.49588">
        <ele>124</ele>
        <time>2026-08-23T13:52:46.000Z</time>
      </trkpt>
      <trkpt lat="43.30371" lon="-1.49602">
        <ele>125</ele>
        <time>2026-08-23T13:52:50.000Z</time>
      </trkpt>
      <trkpt lat="43.30387" lon="-1.49613">
        <ele>125</ele>
        <time>2026-08-23T13:52:53.000Z</time>
      </trkpt>
      <trkpt lat="43.30398" lon="-1.49622">
        <ele>125</ele>
        <time>2026-08-23T13:52:55.000Z</time>
      </trkpt>
      <trkpt lat="43.30413" lon="-1.49637">
        <ele>124</ele>
        <time>2026-08-23T13:52:59.000Z</time>
      </trkpt>
      <trkpt lat="43.30421" lon="-1.49647">
        <ele>124</ele>
        <time>2026-08-23T13:53:01.000Z</time>
      </trkpt>
      <trkpt lat="43.30429" lon="-1.49662">
        <ele>123</ele>
        <time>2026-08-23T13:53:03.000Z</time>
      </trkpt>
      <trkpt lat="43.30437" lon="-1.49684">
        <ele>122</ele>
        <time>2026-08-23T13:53:06.000Z</time>
      </trkpt>
      <trkpt lat="43.30458" lon="-1.49744">
        <ele>120</ele>
        <time>2026-08-23T13:53:15.000Z</time>
      </trkpt>
      <trkpt lat="43.30461" lon="-1.49757">
        <ele>119</ele>
        <time>2026-08-23T13:53:17.000Z</time>
      </trkpt>
      <trkpt lat="43.30464" lon="-1.49769">
        <ele>119</ele>
        <time>2026-08-23T13:53:18.000Z</time>
      </trkpt>
      <trkpt lat="43.30469" lon="-1.49785">
        <ele>119</ele>
        <time>2026-08-23T13:53:21.000Z</time>
      </trkpt>
      <trkpt lat="43.3048" lon="-1.49809">
        <ele>119</ele>
        <time>2026-08-23T13:53:24.000Z</time>
      </trkpt>
      <trkpt lat="43.30489" lon="-1.49834">
        <ele>119</ele>
        <time>2026-08-23T13:53:28.000Z</time>
      </trkpt>
      <trkpt lat="43.30504" lon="-1.49879">
        <ele>120</ele>
        <time>2026-08-23T13:53:34.000Z</time>
      </trkpt>
      <trkpt lat="43.30509" lon="-1.49891">
        <ele>120</ele>
        <time>2026-08-23T13:53:36.000Z</time>
      </trkpt>
      <trkpt lat="43.30512" lon="-1.49896">
        <ele>121</ele>
        <time>2026-08-23T13:53:37.000Z</time>
      </trkpt>
      <trkpt lat="43.30517" lon="-1.49903">
        <ele>121</ele>
        <time>2026-08-23T13:53:38.000Z</time>
      </trkpt>
      <trkpt lat="43.30523" lon="-1.49908">
        <ele>121</ele>
        <time>2026-08-23T13:53:39.000Z</time>
      </trkpt>
      <trkpt lat="43.30526" lon="-1.4991">
        <ele>122</ele>
        <time>2026-08-23T13:53:40.000Z</time>
      </trkpt>
      <trkpt lat="43.30554" lon="-1.49905">
        <ele>124</ele>
        <time>2026-08-23T13:53:45.000Z</time>
      </trkpt>
      <trkpt lat="43.30576" lon="-1.49901">
        <ele>125</ele>
        <time>2026-08-23T13:53:49.000Z</time>
      </trkpt>
      <trkpt lat="43.3066" lon="-1.49881">
        <ele>125</ele>
        <time>2026-08-23T13:54:04.000Z</time>
      </trkpt>
      <trkpt lat="43.30664" lon="-1.4988">
        <ele>125</ele>
        <time>2026-08-23T13:54:05.000Z</time>
      </trkpt>
      <trkpt lat="43.30668" lon="-1.4988">
        <ele>125</ele>
        <time>2026-08-23T13:54:06.000Z</time>
      </trkpt>
      <trkpt lat="43.30671" lon="-1.4988">
        <ele>124</ele>
        <time>2026-08-23T13:54:06.000Z</time>
      </trkpt>
      <trkpt lat="43.30682" lon="-1.49882">
        <ele>123</ele>
        <time>2026-08-23T13:54:08.000Z</time>
      </trkpt>
      <trkpt lat="43.30705" lon="-1.49893">
        <ele>121</ele>
        <time>2026-08-23T13:54:12.000Z</time>
      </trkpt>
      <trkpt lat="43.30719" lon="-1.49898">
        <ele>119</ele>
        <time>2026-08-23T13:54:15.000Z</time>
      </trkpt>
      <trkpt lat="43.30749" lon="-1.49905">
        <ele>116</ele>
        <time>2026-08-23T13:54:20.000Z</time>
      </trkpt>
      <trkpt lat="43.30775" lon="-1.49909">
        <ele>116</ele>
        <time>2026-08-23T13:54:25.000Z</time>
      </trkpt>
      <trkpt lat="43.30807" lon="-1.49911">
        <ele>115</ele>
        <time>2026-08-23T13:54:31.000Z</time>
      </trkpt>
      <trkpt lat="43.30934" lon="-1.49904">
        <ele>112</ele>
        <time>2026-08-23T13:54:53.000Z</time>
      </trkpt>
      <trkpt lat="43.30981" lon="-1.499">
        <ele>110</ele>
        <time>2026-08-23T13:55:02.000Z</time>
      </trkpt>
      <trkpt lat="43.30999" lon="-1.49898">
        <ele>109</ele>
        <time>2026-08-23T13:55:05.000Z</time>
      </trkpt>
      <trkpt lat="43.30999" lon="-1.49898">
        <ele>109</ele>
        <time>2026-08-23T13:55:05.000Z</time>
      </trkpt>
      <trkpt lat="43.30999" lon="-1.49897">
        <ele>109</ele>
        <time>2026-08-23T13:55:05.000Z</time>
      </trkpt>
      <trkpt lat="43.30999" lon="-1.49896">
        <ele>109</ele>
        <time>2026-08-23T13:55:05.000Z</time>
      </trkpt>
      <trkpt lat="43.31" lon="-1.49896">
        <ele>109</ele>
        <time>2026-08-23T13:55:05.000Z</time>
      </trkpt>
      <trkpt lat="43.31" lon="-1.49895">
        <ele>109</ele>
        <time>2026-08-23T13:55:05.000Z</time>
      </trkpt>
      <trkpt lat="43.31" lon="-1.49894">
        <ele>109</ele>
        <time>2026-08-23T13:55:06.000Z</time>
      </trkpt>
      <trkpt lat="43.31001" lon="-1.49894">
        <ele>109</ele>
        <time>2026-08-23T13:55:06.000Z</time>
      </trkpt>
      <trkpt lat="43.31001" lon="-1.49893">
        <ele>109</ele>
        <time>2026-08-23T13:55:06.000Z</time>
      </trkpt>
      <trkpt lat="43.31002" lon="-1.49893">
        <ele>109</ele>
        <time>2026-08-23T13:55:06.000Z</time>
      </trkpt>
      <trkpt lat="43.31003" lon="-1.49893">
        <ele>109</ele>
        <time>2026-08-23T13:55:06.000Z</time>
      </trkpt>
      <trkpt lat="43.31003" lon="-1.49892">
        <ele>108</ele>
        <time>2026-08-23T13:55:06.000Z</time>
      </trkpt>
      <trkpt lat="43.31004" lon="-1.49892">
        <ele>108</ele>
        <time>2026-08-23T13:55:07.000Z</time>
      </trkpt>
      <trkpt lat="43.31005" lon="-1.49892">
        <ele>108</ele>
        <time>2026-08-23T13:55:07.000Z</time>
      </trkpt>
      <trkpt lat="43.31005" lon="-1.49893">
        <ele>108</ele>
        <time>2026-08-23T13:55:07.000Z</time>
      </trkpt>
      <trkpt lat="43.31006" lon="-1.49893">
        <ele>108</ele>
        <time>2026-08-23T13:55:07.000Z</time>
      </trkpt>
      <trkpt lat="43.31007" lon="-1.49893">
        <ele>108</ele>
        <time>2026-08-23T13:55:07.000Z</time>
      </trkpt>
      <trkpt lat="43.31007" lon="-1.49894">
        <ele>108</ele>
        <time>2026-08-23T13:55:07.000Z</time>
      </trkpt>
      <trkpt lat="43.31008" lon="-1.49894">
        <ele>108</ele>
        <time>2026-08-23T13:55:08.000Z</time>
      </trkpt>
      <trkpt lat="43.31008" lon="-1.49895">
        <ele>108</ele>
        <time>2026-08-23T13:55:08.000Z</time>
      </trkpt>
      <trkpt lat="43.31009" lon="-1.49895">
        <ele>108</ele>
        <time>2026-08-23T13:55:08.000Z</time>
      </trkpt>
      <trkpt lat="43.31009" lon="-1.49896">
        <ele>108</ele>
        <time>2026-08-23T13:55:08.000Z</time>
      </trkpt>
      <trkpt lat="43.31009" lon="-1.49897">
        <ele>108</ele>
        <time>2026-08-23T13:55:08.000Z</time>
      </trkpt>
      <trkpt lat="43.3101" lon="-1.49897">
        <ele>108</ele>
        <time>2026-08-23T13:55:08.000Z</time>
      </trkpt>
      <trkpt lat="43.3101" lon="-1.49898">
        <ele>108</ele>
        <time>2026-08-23T13:55:08.000Z</time>
      </trkpt>
      <trkpt lat="43.3101" lon="-1.49899">
        <ele>108</ele>
        <time>2026-08-23T13:55:09.000Z</time>
      </trkpt>
      <trkpt lat="43.3101" lon="-1.499">
        <ele>108</ele>
        <time>2026-08-23T13:55:09.000Z</time>
      </trkpt>
      <trkpt lat="43.3101" lon="-1.49901">
        <ele>108</ele>
        <time>2026-08-23T13:55:09.000Z</time>
      </trkpt>
      <trkpt lat="43.3101" lon="-1.49902">
        <ele>108</ele>
        <time>2026-08-23T13:55:09.000Z</time>
      </trkpt>
      <trkpt lat="43.3101" lon="-1.49903">
        <ele>108</ele>
        <time>2026-08-23T13:55:09.000Z</time>
      </trkpt>
      <trkpt lat="43.3101" lon="-1.49904">
        <ele>108</ele>
        <time>2026-08-23T13:55:09.000Z</time>
      </trkpt>
      <trkpt lat="43.31009" lon="-1.49904">
        <ele>108</ele>
        <time>2026-08-23T13:55:09.000Z</time>
      </trkpt>
      <trkpt lat="43.31009" lon="-1.49905">
        <ele>108</ele>
        <time>2026-08-23T13:55:10.000Z</time>
      </trkpt>
      <trkpt lat="43.31009" lon="-1.49906">
        <ele>108</ele>
        <time>2026-08-23T13:55:10.000Z</time>
      </trkpt>
      <trkpt lat="43.31008" lon="-1.49906">
        <ele>109</ele>
        <time>2026-08-23T13:55:10.000Z</time>
      </trkpt>
      <trkpt lat="43.31008" lon="-1.49907">
        <ele>109</ele>
        <time>2026-08-23T13:55:10.000Z</time>
      </trkpt>
      <trkpt lat="43.31007" lon="-1.49907">
        <ele>109</ele>
        <time>2026-08-23T13:55:10.000Z</time>
      </trkpt>
      <trkpt lat="43.31007" lon="-1.49908">
        <ele>109</ele>
        <time>2026-08-23T13:55:10.000Z</time>
      </trkpt>
      <trkpt lat="43.31006" lon="-1.49908">
        <ele>109</ele>
        <time>2026-08-23T13:55:10.000Z</time>
      </trkpt>
      <trkpt lat="43.31005" lon="-1.49908">
        <ele>109</ele>
        <time>2026-08-23T13:55:11.000Z</time>
      </trkpt>
      <trkpt lat="43.31015" lon="-1.49934">
        <ele>108</ele>
        <time>2026-08-23T13:55:14.000Z</time>
      </trkpt>
      <trkpt lat="43.31029" lon="-1.49973">
        <ele>105</ele>
        <time>2026-08-23T13:55:20.000Z</time>
      </trkpt>
      <trkpt lat="43.31047" lon="-1.50022">
        <ele>103</ele>
        <time>2026-08-23T13:55:27.000Z</time>
      </trkpt>
      <trkpt lat="43.31054" lon="-1.50037">
        <ele>103</ele>
        <time>2026-08-23T13:55:29.000Z</time>
      </trkpt>
      <trkpt lat="43.31061" lon="-1.50047">
        <ele>103</ele>
        <time>2026-08-23T13:55:31.000Z</time>
      </trkpt>
      <trkpt lat="43.31069" lon="-1.50053">
        <ele>102</ele>
        <time>2026-08-23T13:55:33.000Z</time>
      </trkpt>
      <trkpt lat="43.31078" lon="-1.50057">
        <ele>101</ele>
        <time>2026-08-23T13:55:35.000Z</time>
      </trkpt>
      <trkpt lat="43.31088" lon="-1.50059">
        <ele>101</ele>
        <time>2026-08-23T13:55:36.000Z</time>
      </trkpt>
      <trkpt lat="43.31096" lon="-1.50059">
        <ele>100</ele>
        <time>2026-08-23T13:55:38.000Z</time>
      </trkpt>
      <trkpt lat="43.31115" lon="-1.50053">
        <ele>98</ele>
        <time>2026-08-23T13:55:41.000Z</time>
      </trkpt>
      <trkpt lat="43.31117" lon="-1.50051">
        <ele>98</ele>
        <time>2026-08-23T13:55:42.000Z</time>
      </trkpt>
      <trkpt lat="43.31121" lon="-1.50047">
        <ele>98</ele>
        <time>2026-08-23T13:55:43.000Z</time>
      </trkpt>
      <trkpt lat="43.31126" lon="-1.50043">
        <ele>97</ele>
        <time>2026-08-23T13:55:44.000Z</time>
      </trkpt>
      <trkpt lat="43.31131" lon="-1.50039">
        <ele>97</ele>
        <time>2026-08-23T13:55:45.000Z</time>
      </trkpt>
      <trkpt lat="43.31129" lon="-1.50028">
        <ele>96</ele>
        <time>2026-08-23T13:55:46.000Z</time>
      </trkpt>
      <trkpt lat="43.31127" lon="-1.50019">
        <ele>96</ele>
        <time>2026-08-23T13:55:47.000Z</time>
      </trkpt>
      <trkpt lat="43.31126" lon="-1.50011">
        <ele>96</ele>
        <time>2026-08-23T13:55:48.000Z</time>
      </trkpt>
      <trkpt lat="43.31126" lon="-1.50004">
        <ele>96</ele>
        <time>2026-08-23T13:55:49.000Z</time>
      </trkpt>
      <trkpt lat="43.31125" lon="-1.49996">
        <ele>96</ele>
        <time>2026-08-23T13:55:50.000Z</time>
      </trkpt>
      <trkpt lat="43.31125" lon="-1.49978">
        <ele>96</ele>
        <time>2026-08-23T13:55:53.000Z</time>
      </trkpt>
      <trkpt lat="43.31125" lon="-1.49958">
        <ele>96</ele>
        <time>2026-08-23T13:55:55.000Z</time>
      </trkpt>
      <trkpt lat="43.31126" lon="-1.49932">
        <ele>96</ele>
        <time>2026-08-23T13:55:59.000Z</time>
      </trkpt>
      <trkpt lat="43.31127" lon="-1.49905">
        <ele>96</ele>
        <time>2026-08-23T13:56:02.000Z</time>
      </trkpt>
      <trkpt lat="43.31127" lon="-1.49894">
        <ele>96</ele>
        <time>2026-08-23T13:56:04.000Z</time>
      </trkpt>
      <trkpt lat="43.31127" lon="-1.49892">
        <ele>96</ele>
        <time>2026-08-23T13:56:04.000Z</time>
      </trkpt>
      <trkpt lat="43.31127" lon="-1.4989">
        <ele>96</ele>
        <time>2026-08-23T13:56:04.000Z</time>
      </trkpt>
      <trkpt lat="43.31128" lon="-1.49889">
        <ele>96</ele>
        <time>2026-08-23T13:56:04.000Z</time>
      </trkpt>
      <trkpt lat="43.31129" lon="-1.49888">
        <ele>95</ele>
        <time>2026-08-23T13:56:05.000Z</time>
      </trkpt>
      <trkpt lat="43.3113" lon="-1.49843">
        <ele>94</ele>
        <time>2026-08-23T13:56:10.000Z</time>
      </trkpt>
      <trkpt lat="43.31131" lon="-1.49836">
        <ele>94</ele>
        <time>2026-08-23T13:56:11.000Z</time>
      </trkpt>
      <trkpt lat="43.31132" lon="-1.49829">
        <ele>94</ele>
        <time>2026-08-23T13:56:12.000Z</time>
      </trkpt>
      <trkpt lat="43.31134" lon="-1.49821">
        <ele>94</ele>
        <time>2026-08-23T13:56:13.000Z</time>
      </trkpt>
      <trkpt lat="43.31139" lon="-1.49805">
        <ele>93</ele>
        <time>2026-08-23T13:56:16.000Z</time>
      </trkpt>
      <trkpt lat="43.31145" lon="-1.49793">
        <ele>93</ele>
        <time>2026-08-23T13:56:17.000Z</time>
      </trkpt>
      <trkpt lat="43.31146" lon="-1.4979">
        <ele>92</ele>
        <time>2026-08-23T13:56:18.000Z</time>
      </trkpt>
      <trkpt lat="43.31155" lon="-1.49772">
        <ele>91</ele>
        <time>2026-08-23T13:56:21.000Z</time>
      </trkpt>
      <trkpt lat="43.31164" lon="-1.49761">
        <ele>90</ele>
        <time>2026-08-23T13:56:23.000Z</time>
      </trkpt>
      <trkpt lat="43.3118" lon="-1.49745">
        <ele>89</ele>
        <time>2026-08-23T13:56:26.000Z</time>
      </trkpt>
      <trkpt lat="43.31198" lon="-1.49729">
        <ele>88</ele>
        <time>2026-08-23T13:56:30.000Z</time>
      </trkpt>
      <trkpt lat="43.31214" lon="-1.49714">
        <ele>87</ele>
        <time>2026-08-23T13:56:34.000Z</time>
      </trkpt>
      <trkpt lat="43.31227" lon="-1.497">
        <ele>87</ele>
        <time>2026-08-23T13:56:37.000Z</time>
      </trkpt>
      <trkpt lat="43.31259" lon="-1.49659">
        <ele>87</ele>
        <time>2026-08-23T13:56:44.000Z</time>
      </trkpt>
      <trkpt lat="43.31272" lon="-1.49643">
        <ele>88</ele>
        <time>2026-08-23T13:56:47.000Z</time>
      </trkpt>
      <trkpt lat="43.31302" lon="-1.49603">
        <ele>91</ele>
        <time>2026-08-23T13:56:55.000Z</time>
      </trkpt>
      <trkpt lat="43.31317" lon="-1.49588">
        <ele>93</ele>
        <time>2026-08-23T13:56:58.000Z</time>
      </trkpt>
      <trkpt lat="43.31328" lon="-1.49577">
        <ele>94</ele>
        <time>2026-08-23T13:57:01.000Z</time>
      </trkpt>
      <trkpt lat="43.31345" lon="-1.49563">
        <ele>94</ele>
        <time>2026-08-23T13:57:04.000Z</time>
      </trkpt>
      <trkpt lat="43.31356" lon="-1.49554">
        <ele>95</ele>
        <time>2026-08-23T13:57:06.000Z</time>
      </trkpt>
      <trkpt lat="43.31397" lon="-1.4951">
        <ele>95</ele>
        <time>2026-08-23T13:57:16.000Z</time>
      </trkpt>
      <trkpt lat="43.31433" lon="-1.49469">
        <ele>96</ele>
        <time>2026-08-23T13:57:24.000Z</time>
      </trkpt>
      <trkpt lat="43.31446" lon="-1.49451">
        <ele>97</ele>
        <time>2026-08-23T13:57:27.000Z</time>
      </trkpt>
      <trkpt lat="43.31459" lon="-1.49433">
        <ele>98</ele>
        <time>2026-08-23T13:57:31.000Z</time>
      </trkpt>
      <trkpt lat="43.31471" lon="-1.49414">
        <ele>99</ele>
        <time>2026-08-23T13:57:34.000Z</time>
      </trkpt>
      <trkpt lat="43.31504" lon="-1.4936">
        <ele>101</ele>
        <time>2026-08-23T13:57:43.000Z</time>
      </trkpt>
      <trkpt lat="43.31531" lon="-1.49316">
        <ele>102</ele>
        <time>2026-08-23T13:57:50.000Z</time>
      </trkpt>
      <trkpt lat="43.31542" lon="-1.49296">
        <ele>103</ele>
        <time>2026-08-23T13:57:54.000Z</time>
      </trkpt>
      <trkpt lat="43.31551" lon="-1.49278">
        <ele>103</ele>
        <time>2026-08-23T13:57:56.000Z</time>
      </trkpt>
      <trkpt lat="43.31608" lon="-1.49129">
        <ele>106</ele>
        <time>2026-08-23T13:58:18.000Z</time>
      </trkpt>
      <trkpt lat="43.31627" lon="-1.49081">
        <ele>105</ele>
        <time>2026-08-23T13:58:25.000Z</time>
      </trkpt>
      <trkpt lat="43.31633" lon="-1.49064">
        <ele>106</ele>
        <time>2026-08-23T13:58:28.000Z</time>
      </trkpt>
      <trkpt lat="43.31639" lon="-1.4905">
        <ele>107</ele>
        <time>2026-08-23T13:58:30.000Z</time>
      </trkpt>
      <trkpt lat="43.31649" lon="-1.49026">
        <ele>107</ele>
        <time>2026-08-23T13:58:33.000Z</time>
      </trkpt>
      <trkpt lat="43.31658" lon="-1.49007">
        <ele>108</ele>
        <time>2026-08-23T13:58:36.000Z</time>
      </trkpt>
      <trkpt lat="43.31666" lon="-1.48994">
        <ele>108</ele>
        <time>2026-08-23T13:58:39.000Z</time>
      </trkpt>
      <trkpt lat="43.31674" lon="-1.48984">
        <ele>109</ele>
        <time>2026-08-23T13:58:41.000Z</time>
      </trkpt>
      <trkpt lat="43.31687" lon="-1.48972">
        <ele>110</ele>
        <time>2026-08-23T13:58:43.000Z</time>
      </trkpt>
      <trkpt lat="43.31702" lon="-1.4896">
        <ele>111</ele>
        <time>2026-08-23T13:58:46.000Z</time>
      </trkpt>
      <trkpt lat="43.31718" lon="-1.48947">
        <ele>112</ele>
        <time>2026-08-23T13:58:50.000Z</time>
      </trkpt>
      <trkpt lat="43.31731" lon="-1.48936">
        <ele>112</ele>
        <time>2026-08-23T13:58:52.000Z</time>
      </trkpt>
      <trkpt lat="43.31743" lon="-1.48924">
        <ele>112</ele>
        <time>2026-08-23T13:58:55.000Z</time>
      </trkpt>
      <trkpt lat="43.31743" lon="-1.48923">
        <ele>112</ele>
        <time>2026-08-23T13:58:55.000Z</time>
      </trkpt>
      <trkpt lat="43.31762" lon="-1.48895">
        <ele>113</ele>
        <time>2026-08-23T13:59:00.000Z</time>
      </trkpt>
      <trkpt lat="43.31788" lon="-1.4886">
        <ele>115</ele>
        <time>2026-08-23T13:59:07.000Z</time>
      </trkpt>
      <trkpt lat="43.31802" lon="-1.4884">
        <ele>115</ele>
        <time>2026-08-23T13:59:10.000Z</time>
      </trkpt>
      <trkpt lat="43.31815" lon="-1.4882">
        <ele>115</ele>
        <time>2026-08-23T13:59:14.000Z</time>
      </trkpt>
      <trkpt lat="43.3183" lon="-1.48792">
        <ele>116</ele>
        <time>2026-08-23T13:59:18.000Z</time>
      </trkpt>
      <trkpt lat="43.31849" lon="-1.48759">
        <ele>117</ele>
        <time>2026-08-23T13:59:24.000Z</time>
      </trkpt>
      <trkpt lat="43.31867" lon="-1.48732">
        <ele>120</ele>
        <time>2026-08-23T13:59:28.000Z</time>
      </trkpt>
      <trkpt lat="43.31879" lon="-1.48719">
        <ele>121</ele>
        <time>2026-08-23T13:59:31.000Z</time>
      </trkpt>
      <trkpt lat="43.31885" lon="-1.48713">
        <ele>121</ele>
        <time>2026-08-23T13:59:32.000Z</time>
      </trkpt>
      <trkpt lat="43.31891" lon="-1.48708">
        <ele>122</ele>
        <time>2026-08-23T13:59:34.000Z</time>
      </trkpt>
      <trkpt lat="43.31925" lon="-1.48683">
        <ele>123</ele>
        <time>2026-08-23T13:59:41.000Z</time>
      </trkpt>
      <trkpt lat="43.31949" lon="-1.48669">
        <ele>125</ele>
        <time>2026-08-23T13:59:45.000Z</time>
      </trkpt>
      <trkpt lat="43.31965" lon="-1.48656">
        <ele>126</ele>
        <time>2026-08-23T13:59:48.000Z</time>
      </trkpt>
      <trkpt lat="43.31977" lon="-1.48645">
        <ele>128</ele>
        <time>2026-08-23T13:59:51.000Z</time>
      </trkpt>
      <trkpt lat="43.31987" lon="-1.48634">
        <ele>128</ele>
        <time>2026-08-23T13:59:53.000Z</time>
      </trkpt>
      <trkpt lat="43.32004" lon="-1.48617">
        <ele>129</ele>
        <time>2026-08-23T13:59:57.000Z</time>
      </trkpt>
      <trkpt lat="43.32016" lon="-1.48603">
        <ele>131</ele>
        <time>2026-08-23T14:00:00.000Z</time>
      </trkpt>
      <trkpt lat="43.32029" lon="-1.48589">
        <ele>132</ele>
        <time>2026-08-23T14:00:03.000Z</time>
      </trkpt>
      <trkpt lat="43.32035" lon="-1.48582">
        <ele>132</ele>
        <time>2026-08-23T14:00:04.000Z</time>
      </trkpt>
      <trkpt lat="43.32044" lon="-1.48568">
        <ele>134</ele>
        <time>2026-08-23T14:00:07.000Z</time>
      </trkpt>
      <trkpt lat="43.32059" lon="-1.48544">
        <ele>136</ele>
        <time>2026-08-23T14:00:11.000Z</time>
      </trkpt>
      <trkpt lat="43.32081" lon="-1.48509">
        <ele>136</ele>
        <time>2026-08-23T14:00:17.000Z</time>
      </trkpt>
      <trkpt lat="43.32105" lon="-1.48461">
        <ele>144</ele>
        <time>2026-08-23T14:00:24.000Z</time>
      </trkpt>
      <trkpt lat="43.32135" lon="-1.48401">
        <ele>146</ele>
        <time>2026-08-23T14:00:34.000Z</time>
      </trkpt>
      <trkpt lat="43.32165" lon="-1.48336">
        <ele>142</ele>
        <time>2026-08-23T14:00:44.000Z</time>
      </trkpt>
      <trkpt lat="43.32171" lon="-1.48323">
        <ele>144</ele>
        <time>2026-08-23T14:00:46.000Z</time>
      </trkpt>
      <trkpt lat="43.32177" lon="-1.48311">
        <ele>146</ele>
        <time>2026-08-23T14:00:47.000Z</time>
      </trkpt>
      <trkpt lat="43.32178" lon="-1.48308">
        <ele>146</ele>
        <time>2026-08-23T14:00:48.000Z</time>
      </trkpt>
      <trkpt lat="43.32182" lon="-1.48299">
        <ele>147</ele>
        <time>2026-08-23T14:00:49.000Z</time>
      </trkpt>
      <trkpt lat="43.32184" lon="-1.48293">
        <ele>148</ele>
        <time>2026-08-23T14:00:50.000Z</time>
      </trkpt>
      <trkpt lat="43.32189" lon="-1.4828">
        <ele>149</ele>
        <time>2026-08-23T14:00:52.000Z</time>
      </trkpt>
      <trkpt lat="43.32193" lon="-1.48263">
        <ele>150</ele>
        <time>2026-08-23T14:00:54.000Z</time>
      </trkpt>
      <trkpt lat="43.32198" lon="-1.48244">
        <ele>150</ele>
        <time>2026-08-23T14:00:57.000Z</time>
      </trkpt>
      <trkpt lat="43.32206" lon="-1.48223">
        <ele>149</ele>
        <time>2026-08-23T14:01:00.000Z</time>
      </trkpt>
      <trkpt lat="43.32211" lon="-1.48211">
        <ele>148</ele>
        <time>2026-08-23T14:01:02.000Z</time>
      </trkpt>
      <trkpt lat="43.32216" lon="-1.48203">
        <ele>147</ele>
        <time>2026-08-23T14:01:03.000Z</time>
      </trkpt>
      <trkpt lat="43.32224" lon="-1.4819">
        <ele>146</ele>
        <time>2026-08-23T14:01:05.000Z</time>
      </trkpt>
      <trkpt lat="43.32242" lon="-1.48166">
        <ele>143</ele>
        <time>2026-08-23T14:01:10.000Z</time>
      </trkpt>
      <trkpt lat="43.32257" lon="-1.48145">
        <ele>146</ele>
        <time>2026-08-23T14:01:14.000Z</time>
      </trkpt>
      <trkpt lat="43.32272" lon="-1.48126">
        <ele>149</ele>
        <time>2026-08-23T14:01:17.000Z</time>
      </trkpt>
      <trkpt lat="43.32286" lon="-1.4811">
        <ele>151</ele>
        <time>2026-08-23T14:01:21.000Z</time>
      </trkpt>
      <trkpt lat="43.32296" lon="-1.48099">
        <ele>152</ele>
        <time>2026-08-23T14:01:23.000Z</time>
      </trkpt>
      <trkpt lat="43.32306" lon="-1.48091">
        <ele>152</ele>
        <time>2026-08-23T14:01:25.000Z</time>
      </trkpt>
      <trkpt lat="43.32324" lon="-1.48077">
        <ele>152</ele>
        <time>2026-08-23T14:01:29.000Z</time>
      </trkpt>
      <trkpt lat="43.32332" lon="-1.4807">
        <ele>152</ele>
        <time>2026-08-23T14:01:30.000Z</time>
      </trkpt>
      <trkpt lat="43.32364" lon="-1.48046">
        <ele>155</ele>
        <time>2026-08-23T14:01:37.000Z</time>
      </trkpt>
      <trkpt lat="43.32372" lon="-1.48037">
        <ele>155</ele>
        <time>2026-08-23T14:01:39.000Z</time>
      </trkpt>
      <trkpt lat="43.32381" lon="-1.48029">
        <ele>155</ele>
        <time>2026-08-23T14:01:40.000Z</time>
      </trkpt>
      <trkpt lat="43.32387" lon="-1.48021">
        <ele>155</ele>
        <time>2026-08-23T14:01:42.000Z</time>
      </trkpt>
      <trkpt lat="43.32395" lon="-1.48006">
        <ele>155</ele>
        <time>2026-08-23T14:01:44.000Z</time>
      </trkpt>
      <trkpt lat="43.32407" lon="-1.47983">
        <ele>155</ele>
        <time>2026-08-23T14:01:48.000Z</time>
      </trkpt>
      <trkpt lat="43.32419" lon="-1.47958">
        <ele>155</ele>
        <time>2026-08-23T14:01:52.000Z</time>
      </trkpt>
      <trkpt lat="43.32439" lon="-1.47918">
        <ele>158</ele>
        <time>2026-08-23T14:01:58.000Z</time>
      </trkpt>
      <trkpt lat="43.32472" lon="-1.47849">
        <ele>161</ele>
        <time>2026-08-23T14:02:09.000Z</time>
      </trkpt>
      <trkpt lat="43.32494" lon="-1.47804">
        <ele>160</ele>
        <time>2026-08-23T14:02:16.000Z</time>
      </trkpt>
      <trkpt lat="43.32524" lon="-1.47742">
        <ele>161</ele>
        <time>2026-08-23T14:02:26.000Z</time>
      </trkpt>
      <trkpt lat="43.32533" lon="-1.47725">
        <ele>162</ele>
        <time>2026-08-23T14:02:28.000Z</time>
      </trkpt>
      <trkpt lat="43.3254" lon="-1.47714">
        <ele>162</ele>
        <time>2026-08-23T14:02:30.000Z</time>
      </trkpt>
      <trkpt lat="43.32545" lon="-1.47706">
        <ele>163</ele>
        <time>2026-08-23T14:02:32.000Z</time>
      </trkpt>
      <trkpt lat="43.3255" lon="-1.47699">
        <ele>163</ele>
        <time>2026-08-23T14:02:33.000Z</time>
      </trkpt>
      <trkpt lat="43.32557" lon="-1.47691">
        <ele>163</ele>
        <time>2026-08-23T14:02:34.000Z</time>
      </trkpt>
      <trkpt lat="43.32576" lon="-1.4767">
        <ele>163</ele>
        <time>2026-08-23T14:02:39.000Z</time>
      </trkpt>
      <trkpt lat="43.32592" lon="-1.4765">
        <ele>165</ele>
        <time>2026-08-23T14:02:43.000Z</time>
      </trkpt>
      <trkpt lat="43.32605" lon="-1.47632">
        <ele>166</ele>
        <time>2026-08-23T14:02:46.000Z</time>
      </trkpt>
      <trkpt lat="43.32635" lon="-1.47578">
        <ele>167</ele>
        <time>2026-08-23T14:02:55.000Z</time>
      </trkpt>
      <trkpt lat="43.32654" lon="-1.47544">
        <ele>168</ele>
        <time>2026-08-23T14:03:00.000Z</time>
      </trkpt>
      <trkpt lat="43.32674" lon="-1.47509">
        <ele>170</ele>
        <time>2026-08-23T14:03:06.000Z</time>
      </trkpt>
      <trkpt lat="43.32687" lon="-1.47486">
        <ele>171</ele>
        <time>2026-08-23T14:03:10.000Z</time>
      </trkpt>
      <trkpt lat="43.32699" lon="-1.47466">
        <ele>173</ele>
        <time>2026-08-23T14:03:13.000Z</time>
      </trkpt>
      <trkpt lat="43.32707" lon="-1.47455">
        <ele>174</ele>
        <time>2026-08-23T14:03:15.000Z</time>
      </trkpt>
      <trkpt lat="43.32714" lon="-1.47447">
        <ele>174</ele>
        <time>2026-08-23T14:03:17.000Z</time>
      </trkpt>
      <trkpt lat="43.32719" lon="-1.47443">
        <ele>175</ele>
        <time>2026-08-23T14:03:18.000Z</time>
      </trkpt>
      <trkpt lat="43.32725" lon="-1.4744">
        <ele>175</ele>
        <time>2026-08-23T14:03:19.000Z</time>
      </trkpt>
      <trkpt lat="43.32735" lon="-1.47435">
        <ele>176</ele>
        <time>2026-08-23T14:03:21.000Z</time>
      </trkpt>
      <trkpt lat="43.32743" lon="-1.47432">
        <ele>176</ele>
        <time>2026-08-23T14:03:22.000Z</time>
      </trkpt>
      <trkpt lat="43.32765" lon="-1.47425">
        <ele>175</ele>
        <time>2026-08-23T14:03:26.000Z</time>
      </trkpt>
      <trkpt lat="43.32765" lon="-1.47425">
        <ele>175</ele>
        <time>2026-08-23T14:03:26.000Z</time>
      </trkpt>
      <trkpt lat="43.32768" lon="-1.47424">
        <ele>175</ele>
        <time>2026-08-23T14:03:27.000Z</time>
      </trkpt>
      <trkpt lat="43.32771" lon="-1.47422">
        <ele>175</ele>
        <time>2026-08-23T14:03:27.000Z</time>
      </trkpt>
      <trkpt lat="43.32769" lon="-1.47416">
        <ele>175</ele>
        <time>2026-08-23T14:03:28.000Z</time>
      </trkpt>
      <trkpt lat="43.32769" lon="-1.47416">
        <ele>175</ele>
        <time>2026-08-23T14:03:28.000Z</time>
      </trkpt>
      <trkpt lat="43.32772" lon="-1.47411">
        <ele>175</ele>
        <time>2026-08-23T14:03:29.000Z</time>
      </trkpt>
      <trkpt lat="43.32778" lon="-1.47394">
        <ele>175</ele>
        <time>2026-08-23T14:03:32.000Z</time>
      </trkpt>
      <trkpt lat="43.32787" lon="-1.47368">
        <ele>175</ele>
        <time>2026-08-23T14:03:35.000Z</time>
      </trkpt>
      <trkpt lat="43.32796" lon="-1.4734">
        <ele>176</ele>
        <time>2026-08-23T14:03:39.000Z</time>
      </trkpt>
      <trkpt lat="43.32803" lon="-1.4732">
        <ele>176</ele>
        <time>2026-08-23T14:03:42.000Z</time>
      </trkpt>
      <trkpt lat="43.32807" lon="-1.47307">
        <ele>176</ele>
        <time>2026-08-23T14:03:44.000Z</time>
      </trkpt>
      <trkpt lat="43.32809" lon="-1.47295">
        <ele>176</ele>
        <time>2026-08-23T14:03:46.000Z</time>
      </trkpt>
      <trkpt lat="43.32809" lon="-1.47282">
        <ele>177</ele>
        <time>2026-08-23T14:03:47.000Z</time>
      </trkpt>
      <trkpt lat="43.32808" lon="-1.47265">
        <ele>178</ele>
        <time>2026-08-23T14:03:49.000Z</time>
      </trkpt>
      <trkpt lat="43.32806" lon="-1.47241">
        <ele>180</ele>
        <time>2026-08-23T14:03:53.000Z</time>
      </trkpt>
      <trkpt lat="43.32803" lon="-1.47217">
        <ele>182</ele>
        <time>2026-08-23T14:03:56.000Z</time>
      </trkpt>
      <trkpt lat="43.328" lon="-1.47189">
        <ele>184</ele>
        <time>2026-08-23T14:03:59.000Z</time>
      </trkpt>
      <trkpt lat="43.32798" lon="-1.47162">
        <ele>186</ele>
        <time>2026-08-23T14:04:03.000Z</time>
      </trkpt>
      <trkpt lat="43.32798" lon="-1.47143">
        <ele>186</ele>
        <time>2026-08-23T14:04:05.000Z</time>
      </trkpt>
      <trkpt lat="43.32798" lon="-1.47127">
        <ele>186</ele>
        <time>2026-08-23T14:04:07.000Z</time>
      </trkpt>
      <trkpt lat="43.32799" lon="-1.47106">
        <ele>186</ele>
        <time>2026-08-23T14:04:10.000Z</time>
      </trkpt>
      <trkpt lat="43.32801" lon="-1.47081">
        <ele>185</ele>
        <time>2026-08-23T14:04:13.000Z</time>
      </trkpt>
      <trkpt lat="43.32804" lon="-1.47059">
        <ele>185</ele>
        <time>2026-08-23T14:04:16.000Z</time>
      </trkpt>
      <trkpt lat="43.32808" lon="-1.47025">
        <ele>185</ele>
        <time>2026-08-23T14:04:21.000Z</time>
      </trkpt>
      <trkpt lat="43.32813" lon="-1.46994">
        <ele>186</ele>
        <time>2026-08-23T14:04:25.000Z</time>
      </trkpt>
      <trkpt lat="43.32815" lon="-1.46983">
        <ele>186</ele>
        <time>2026-08-23T14:04:26.000Z</time>
      </trkpt>
      <trkpt lat="43.32817" lon="-1.4697">
        <ele>186</ele>
        <time>2026-08-23T14:04:28.000Z</time>
      </trkpt>
      <trkpt lat="43.32819" lon="-1.46958">
        <ele>186</ele>
        <time>2026-08-23T14:04:30.000Z</time>
      </trkpt>
      <trkpt lat="43.3282" lon="-1.46952">
        <ele>186</ele>
        <time>2026-08-23T14:04:30.000Z</time>
      </trkpt>
      <trkpt lat="43.3282" lon="-1.46952">
        <ele>186</ele>
        <time>2026-08-23T14:04:30.000Z</time>
      </trkpt>
      <trkpt lat="43.3282" lon="-1.46951">
        <ele>186</ele>
        <time>2026-08-23T14:04:31.000Z</time>
      </trkpt>
      <trkpt lat="43.32821" lon="-1.46946">
        <ele>186</ele>
        <time>2026-08-23T14:04:31.000Z</time>
      </trkpt>
      <trkpt lat="43.32825" lon="-1.46928">
        <ele>187</ele>
        <time>2026-08-23T14:04:34.000Z</time>
      </trkpt>
      <trkpt lat="43.32829" lon="-1.46912">
        <ele>187</ele>
        <time>2026-08-23T14:04:36.000Z</time>
      </trkpt>
      <trkpt lat="43.32835" lon="-1.46896">
        <ele>186</ele>
        <time>2026-08-23T14:04:38.000Z</time>
      </trkpt>
      <trkpt lat="43.32841" lon="-1.46883">
        <ele>184</ele>
        <time>2026-08-23T14:04:40.000Z</time>
      </trkpt>
      <trkpt lat="43.32848" lon="-1.46871">
        <ele>183</ele>
        <time>2026-08-23T14:04:42.000Z</time>
      </trkpt>
      <trkpt lat="43.32857" lon="-1.46858">
        <ele>181</ele>
        <time>2026-08-23T14:04:45.000Z</time>
      </trkpt>
      <trkpt lat="43.32863" lon="-1.46849">
        <ele>181</ele>
        <time>2026-08-23T14:04:46.000Z</time>
      </trkpt>
      <trkpt lat="43.32869" lon="-1.46837">
        <ele>180</ele>
        <time>2026-08-23T14:04:48.000Z</time>
      </trkpt>
      <trkpt lat="43.32873" lon="-1.46821">
        <ele>178</ele>
        <time>2026-08-23T14:04:50.000Z</time>
      </trkpt>
      <trkpt lat="43.32876" lon="-1.46805">
        <ele>176</ele>
        <time>2026-08-23T14:04:52.000Z</time>
      </trkpt>
      <trkpt lat="43.32878" lon="-1.46795">
        <ele>175</ele>
        <time>2026-08-23T14:04:54.000Z</time>
      </trkpt>
      <trkpt lat="43.32878" lon="-1.46794">
        <ele>175</ele>
        <time>2026-08-23T14:04:54.000Z</time>
      </trkpt>
      <trkpt lat="43.32882" lon="-1.46779">
        <ele>173</ele>
        <time>2026-08-23T14:04:56.000Z</time>
      </trkpt>
      <trkpt lat="43.3289" lon="-1.46759">
        <ele>171</ele>
        <time>2026-08-23T14:04:59.000Z</time>
      </trkpt>
      <trkpt lat="43.32895" lon="-1.46745">
        <ele>171</ele>
        <time>2026-08-23T14:05:01.000Z</time>
      </trkpt>
      <trkpt lat="43.32902" lon="-1.46731">
        <ele>171</ele>
        <time>2026-08-23T14:05:03.000Z</time>
      </trkpt>
      <trkpt lat="43.32916" lon="-1.46699">
        <ele>174</ele>
        <time>2026-08-23T14:05:08.000Z</time>
      </trkpt>
      <trkpt lat="43.32927" lon="-1.46671">
        <ele>171</ele>
        <time>2026-08-23T14:05:12.000Z</time>
      </trkpt>
      <trkpt lat="43.32938" lon="-1.46648">
        <ele>170</ele>
        <time>2026-08-23T14:05:16.000Z</time>
      </trkpt>
      <trkpt lat="43.32946" lon="-1.46626">
        <ele>170</ele>
        <time>2026-08-23T14:05:19.000Z</time>
      </trkpt>
      <trkpt lat="43.32951" lon="-1.4661">
        <ele>170</ele>
        <time>2026-08-23T14:05:21.000Z</time>
      </trkpt>
      <trkpt lat="43.32952" lon="-1.46595">
        <ele>171</ele>
        <time>2026-08-23T14:05:23.000Z</time>
      </trkpt>
      <trkpt lat="43.32952" lon="-1.4659">
        <ele>171</ele>
        <time>2026-08-23T14:05:24.000Z</time>
      </trkpt>
      <trkpt lat="43.32952" lon="-1.46581">
        <ele>172</ele>
        <time>2026-08-23T14:05:25.000Z</time>
      </trkpt>
      <trkpt lat="43.32949" lon="-1.46566">
        <ele>173</ele>
        <time>2026-08-23T14:05:27.000Z</time>
      </trkpt>
      <trkpt lat="43.32945" lon="-1.46551">
        <ele>175</ele>
        <time>2026-08-23T14:05:29.000Z</time>
      </trkpt>
      <trkpt lat="43.3294" lon="-1.46535">
        <ele>177</ele>
        <time>2026-08-23T14:05:31.000Z</time>
      </trkpt>
      <trkpt lat="43.32935" lon="-1.46519">
        <ele>178</ele>
        <time>2026-08-23T14:05:33.000Z</time>
      </trkpt>
      <trkpt lat="43.32935" lon="-1.46504">
        <ele>179</ele>
        <time>2026-08-23T14:05:35.000Z</time>
      </trkpt>
      <trkpt lat="43.32935" lon="-1.46491">
        <ele>179</ele>
        <time>2026-08-23T14:05:37.000Z</time>
      </trkpt>
      <trkpt lat="43.3294" lon="-1.46477">
        <ele>177</ele>
        <time>2026-08-23T14:05:39.000Z</time>
      </trkpt>
      <trkpt lat="43.32947" lon="-1.46465">
        <ele>176</ele>
        <time>2026-08-23T14:05:41.000Z</time>
      </trkpt>
      <trkpt lat="43.3296" lon="-1.46452">
        <ele>175</ele>
        <time>2026-08-23T14:05:44.000Z</time>
      </trkpt>
      <trkpt lat="43.32982" lon="-1.4643">
        <ele>174</ele>
        <time>2026-08-23T14:05:49.000Z</time>
      </trkpt>
      <trkpt lat="43.33002" lon="-1.46412">
        <ele>175</ele>
        <time>2026-08-23T14:05:53.000Z</time>
      </trkpt>
      <trkpt lat="43.33018" lon="-1.46397">
        <ele>171</ele>
        <time>2026-08-23T14:05:56.000Z</time>
      </trkpt>
      <trkpt lat="43.33025" lon="-1.46388">
        <ele>169</ele>
        <time>2026-08-23T14:05:58.000Z</time>
      </trkpt>
      <trkpt lat="43.33029" lon="-1.46381">
        <ele>168</ele>
        <time>2026-08-23T14:05:59.000Z</time>
      </trkpt>
      <trkpt lat="43.33032" lon="-1.46377">
        <ele>168</ele>
        <time>2026-08-23T14:06:00.000Z</time>
      </trkpt>
      <trkpt lat="43.33036" lon="-1.46368">
        <ele>167</ele>
        <time>2026-08-23T14:06:01.000Z</time>
      </trkpt>
      <trkpt lat="43.33037" lon="-1.46363">
        <ele>167</ele>
        <time>2026-08-23T14:06:02.000Z</time>
      </trkpt>
      <trkpt lat="43.33045" lon="-1.4634">
        <ele>167</ele>
        <time>2026-08-23T14:06:05.000Z</time>
      </trkpt>
      <trkpt lat="43.33053" lon="-1.46311">
        <ele>165</ele>
        <time>2026-08-23T14:06:09.000Z</time>
      </trkpt>
      <trkpt lat="43.33066" lon="-1.46267">
        <ele>164</ele>
        <time>2026-08-23T14:06:15.000Z</time>
      </trkpt>
      <trkpt lat="43.33078" lon="-1.46223">
        <ele>163</ele>
        <time>2026-08-23T14:06:22.000Z</time>
      </trkpt>
      <trkpt lat="43.33089" lon="-1.4619">
        <ele>163</ele>
        <time>2026-08-23T14:06:26.000Z</time>
      </trkpt>
      <trkpt lat="43.331" lon="-1.4616">
        <ele>163</ele>
        <time>2026-08-23T14:06:31.000Z</time>
      </trkpt>
      <trkpt lat="43.33105" lon="-1.46141">
        <ele>162</ele>
        <time>2026-08-23T14:06:33.000Z</time>
      </trkpt>
      <trkpt lat="43.33105" lon="-1.46137">
        <ele>162</ele>
        <time>2026-08-23T14:06:34.000Z</time>
      </trkpt>
      <trkpt lat="43.33107" lon="-1.46126">
        <ele>161</ele>
        <time>2026-08-23T14:06:35.000Z</time>
      </trkpt>
      <trkpt lat="43.33109" lon="-1.46109">
        <ele>160</ele>
        <time>2026-08-23T14:06:37.000Z</time>
      </trkpt>
      <trkpt lat="43.33114" lon="-1.46092">
        <ele>159</ele>
        <time>2026-08-23T14:06:40.000Z</time>
      </trkpt>
      <trkpt lat="43.3312" lon="-1.46077">
        <ele>157</ele>
        <time>2026-08-23T14:06:42.000Z</time>
      </trkpt>
      <trkpt lat="43.33128" lon="-1.46065">
        <ele>155</ele>
        <time>2026-08-23T14:06:44.000Z</time>
      </trkpt>
      <trkpt lat="43.3314" lon="-1.46052">
        <ele>152</ele>
        <time>2026-08-23T14:06:47.000Z</time>
      </trkpt>
      <trkpt lat="43.33157" lon="-1.46037">
        <ele>150</ele>
        <time>2026-08-23T14:06:50.000Z</time>
      </trkpt>
      <trkpt lat="43.33179" lon="-1.46018">
        <ele>145</ele>
        <time>2026-08-23T14:06:55.000Z</time>
      </trkpt>
      <trkpt lat="43.3319" lon="-1.46007">
        <ele>143</ele>
        <time>2026-08-23T14:06:57.000Z</time>
      </trkpt>
      <trkpt lat="43.33198" lon="-1.45997">
        <ele>142</ele>
        <time>2026-08-23T14:06:59.000Z</time>
      </trkpt>
      <trkpt lat="43.33199" lon="-1.45996">
        <ele>141</ele>
        <time>2026-08-23T14:07:00.000Z</time>
      </trkpt>
      <trkpt lat="43.33204" lon="-1.45985">
        <ele>140</ele>
        <time>2026-08-23T14:07:01.000Z</time>
      </trkpt>
      <trkpt lat="43.33213" lon="-1.45967">
        <ele>139</ele>
        <time>2026-08-23T14:07:04.000Z</time>
      </trkpt>
      <trkpt lat="43.33229" lon="-1.45934">
        <ele>138</ele>
        <time>2026-08-23T14:07:09.000Z</time>
      </trkpt>
      <trkpt lat="43.33237" lon="-1.45911">
        <ele>138</ele>
        <time>2026-08-23T14:07:13.000Z</time>
      </trkpt>
      <trkpt lat="43.33241" lon="-1.45894">
        <ele>138</ele>
        <time>2026-08-23T14:07:15.000Z</time>
      </trkpt>
      <trkpt lat="43.33242" lon="-1.45877">
        <ele>137</ele>
        <time>2026-08-23T14:07:17.000Z</time>
      </trkpt>
      <trkpt lat="43.33242" lon="-1.45862">
        <ele>137</ele>
        <time>2026-08-23T14:07:19.000Z</time>
      </trkpt>
      <trkpt lat="43.33239" lon="-1.45845">
        <ele>136</ele>
        <time>2026-08-23T14:07:21.000Z</time>
      </trkpt>
      <trkpt lat="43.33236" lon="-1.45823">
        <ele>134</ele>
        <time>2026-08-23T14:07:24.000Z</time>
      </trkpt>
      <trkpt lat="43.33235" lon="-1.45801">
        <ele>133</ele>
        <time>2026-08-23T14:07:27.000Z</time>
      </trkpt>
      <trkpt lat="43.33234" lon="-1.45784">
        <ele>131</ele>
        <time>2026-08-23T14:07:29.000Z</time>
      </trkpt>
      <trkpt lat="43.33236" lon="-1.4577">
        <ele>131</ele>
        <time>2026-08-23T14:07:31.000Z</time>
      </trkpt>
      <trkpt lat="43.3324" lon="-1.45756">
        <ele>130</ele>
        <time>2026-08-23T14:07:33.000Z</time>
      </trkpt>
      <trkpt lat="43.33244" lon="-1.45742">
        <ele>130</ele>
        <time>2026-08-23T14:07:35.000Z</time>
      </trkpt>
      <trkpt lat="43.33244" lon="-1.4574">
        <ele>130</ele>
        <time>2026-08-23T14:07:35.000Z</time>
      </trkpt>
      <trkpt lat="43.3325" lon="-1.4572">
        <ele>129</ele>
        <time>2026-08-23T14:07:38.000Z</time>
      </trkpt>
      <trkpt lat="43.33258" lon="-1.45694">
        <ele>128</ele>
        <time>2026-08-23T14:07:42.000Z</time>
      </trkpt>
      <trkpt lat="43.33264" lon="-1.45664">
        <ele>126</ele>
        <time>2026-08-23T14:07:46.000Z</time>
      </trkpt>
      <trkpt lat="43.33266" lon="-1.45649">
        <ele>125</ele>
        <time>2026-08-23T14:07:48.000Z</time>
      </trkpt>
      <trkpt lat="43.33266" lon="-1.45638">
        <ele>125</ele>
        <time>2026-08-23T14:07:49.000Z</time>
      </trkpt>
      <trkpt lat="43.33266" lon="-1.45622">
        <ele>124</ele>
        <time>2026-08-23T14:07:51.000Z</time>
      </trkpt>
      <trkpt lat="43.33263" lon="-1.45605">
        <ele>122</ele>
        <time>2026-08-23T14:07:53.000Z</time>
      </trkpt>
      <trkpt lat="43.33261" lon="-1.45584">
        <ele>121</ele>
        <time>2026-08-23T14:07:56.000Z</time>
      </trkpt>
      <trkpt lat="43.3326" lon="-1.45569">
        <ele>120</ele>
        <time>2026-08-23T14:07:58.000Z</time>
      </trkpt>
      <trkpt lat="43.33261" lon="-1.45557">
        <ele>119</ele>
        <time>2026-08-23T14:08:00.000Z</time>
      </trkpt>
      <trkpt lat="43.33265" lon="-1.45541">
        <ele>117</ele>
        <time>2026-08-23T14:08:02.000Z</time>
      </trkpt>
      <trkpt lat="43.33271" lon="-1.4552">
        <ele>116</ele>
        <time>2026-08-23T14:08:05.000Z</time>
      </trkpt>
      <trkpt lat="43.33278" lon="-1.45498">
        <ele>114</ele>
        <time>2026-08-23T14:08:08.000Z</time>
      </trkpt>
      <trkpt lat="43.33283" lon="-1.45475">
        <ele>112</ele>
        <time>2026-08-23T14:08:11.000Z</time>
      </trkpt>
      <trkpt lat="43.33288" lon="-1.45453">
        <ele>110</ele>
        <time>2026-08-23T14:08:14.000Z</time>
      </trkpt>
      <trkpt lat="43.33288" lon="-1.45449">
        <ele>110</ele>
        <time>2026-08-23T14:08:15.000Z</time>
      </trkpt>
      <trkpt lat="43.33294" lon="-1.45411">
        <ele>108</ele>
        <time>2026-08-23T14:08:20.000Z</time>
      </trkpt>
      <trkpt lat="43.33305" lon="-1.45358">
        <ele>108</ele>
        <time>2026-08-23T14:08:27.000Z</time>
      </trkpt>
      <trkpt lat="43.33306" lon="-1.45353">
        <ele>108</ele>
        <time>2026-08-23T14:08:27.000Z</time>
      </trkpt>
      <trkpt lat="43.3331" lon="-1.45336">
        <ele>108</ele>
        <time>2026-08-23T14:08:30.000Z</time>
      </trkpt>
      <trkpt lat="43.33313" lon="-1.45328">
        <ele>108</ele>
        <time>2026-08-23T14:08:31.000Z</time>
      </trkpt>
      <trkpt lat="43.33314" lon="-1.45326">
        <ele>108</ele>
        <time>2026-08-23T14:08:31.000Z</time>
      </trkpt>
      <trkpt lat="43.33319" lon="-1.45319">
        <ele>109</ele>
        <time>2026-08-23T14:08:32.000Z</time>
      </trkpt>
      <trkpt lat="43.3333" lon="-1.45311">
        <ele>109</ele>
        <time>2026-08-23T14:08:35.000Z</time>
      </trkpt>
      <trkpt lat="43.33358" lon="-1.45296">
        <ele>108</ele>
        <time>2026-08-23T14:08:40.000Z</time>
      </trkpt>
      <trkpt lat="43.33387" lon="-1.45278">
        <ele>106</ele>
        <time>2026-08-23T14:08:46.000Z</time>
      </trkpt>
      <trkpt lat="43.3342" lon="-1.45257">
        <ele>104</ele>
        <time>2026-08-23T14:08:52.000Z</time>
      </trkpt>
      <trkpt lat="43.33429" lon="-1.45253">
        <ele>103</ele>
        <time>2026-08-23T14:08:54.000Z</time>
      </trkpt>
      <trkpt lat="43.33439" lon="-1.45248">
        <ele>102</ele>
        <time>2026-08-23T14:08:56.000Z</time>
      </trkpt>
      <trkpt lat="43.3345" lon="-1.45243">
        <ele>102</ele>
        <time>2026-08-23T14:08:58.000Z</time>
      </trkpt>
      <trkpt lat="43.33462" lon="-1.45238">
        <ele>102</ele>
        <time>2026-08-23T14:09:00.000Z</time>
      </trkpt>
      <trkpt lat="43.33477" lon="-1.45234">
        <ele>101</ele>
        <time>2026-08-23T14:09:03.000Z</time>
      </trkpt>
      <trkpt lat="43.33491" lon="-1.45232">
        <ele>100</ele>
        <time>2026-08-23T14:09:05.000Z</time>
      </trkpt>
      <trkpt lat="43.33508" lon="-1.45233">
        <ele>99</ele>
        <time>2026-08-23T14:09:08.000Z</time>
      </trkpt>
      <trkpt lat="43.33522" lon="-1.45235">
        <ele>98</ele>
        <time>2026-08-23T14:09:11.000Z</time>
      </trkpt>
      <trkpt lat="43.33536" lon="-1.45236">
        <ele>97</ele>
        <time>2026-08-23T14:09:13.000Z</time>
      </trkpt>
      <trkpt lat="43.33551" lon="-1.45234">
        <ele>97</ele>
        <time>2026-08-23T14:09:16.000Z</time>
      </trkpt>
      <trkpt lat="43.33566" lon="-1.45229">
        <ele>97</ele>
        <time>2026-08-23T14:09:19.000Z</time>
      </trkpt>
      <trkpt lat="43.33583" lon="-1.4522">
        <ele>98</ele>
        <time>2026-08-23T14:09:22.000Z</time>
      </trkpt>
      <trkpt lat="43.33607" lon="-1.4521">
        <ele>96</ele>
        <time>2026-08-23T14:09:26.000Z</time>
      </trkpt>
      <trkpt lat="43.3363" lon="-1.45198">
        <ele>95</ele>
        <time>2026-08-23T14:09:31.000Z</time>
      </trkpt>
      <trkpt lat="43.33659" lon="-1.45183">
        <ele>93</ele>
        <time>2026-08-23T14:09:36.000Z</time>
      </trkpt>
      <trkpt lat="43.33674" lon="-1.45177">
        <ele>92</ele>
        <time>2026-08-23T14:09:39.000Z</time>
      </trkpt>
      <trkpt lat="43.33679" lon="-1.45175">
        <ele>91</ele>
        <time>2026-08-23T14:09:40.000Z</time>
      </trkpt>
      <trkpt lat="43.33688" lon="-1.45174">
        <ele>90</ele>
        <time>2026-08-23T14:09:42.000Z</time>
      </trkpt>
      <trkpt lat="43.33701" lon="-1.45174">
        <ele>89</ele>
        <time>2026-08-23T14:09:44.000Z</time>
      </trkpt>
      <trkpt lat="43.33707" lon="-1.45174">
        <ele>88</ele>
        <time>2026-08-23T14:09:45.000Z</time>
      </trkpt>
      <trkpt lat="43.33714" lon="-1.45175">
        <ele>87</ele>
        <time>2026-08-23T14:09:46.000Z</time>
      </trkpt>
      <trkpt lat="43.33735" lon="-1.45174">
        <ele>84</ele>
        <time>2026-08-23T14:09:50.000Z</time>
      </trkpt>
      <trkpt lat="43.33764" lon="-1.45171">
        <ele>81</ele>
        <time>2026-08-23T14:09:55.000Z</time>
      </trkpt>
      <trkpt lat="43.33785" lon="-1.45168">
        <ele>78</ele>
        <time>2026-08-23T14:09:59.000Z</time>
      </trkpt>
      <trkpt lat="43.33785" lon="-1.45168">
        <ele>78</ele>
        <time>2026-08-23T14:09:59.000Z</time>
      </trkpt>
      <trkpt lat="43.33792" lon="-1.45167">
        <ele>77</ele>
        <time>2026-08-23T14:10:00.000Z</time>
      </trkpt>
      <trkpt lat="43.33811" lon="-1.45167">
        <ele>75</ele>
        <time>2026-08-23T14:10:03.000Z</time>
      </trkpt>
      <trkpt lat="43.33822" lon="-1.45169">
        <ele>73</ele>
        <time>2026-08-23T14:10:05.000Z</time>
      </trkpt>
      <trkpt lat="43.33832" lon="-1.45172">
        <ele>72</ele>
        <time>2026-08-23T14:10:07.000Z</time>
      </trkpt>
      <trkpt lat="43.33845" lon="-1.45176">
        <ele>71</ele>
        <time>2026-08-23T14:10:10.000Z</time>
      </trkpt>
      <trkpt lat="43.33845" lon="-1.45176">
        <ele>71</ele>
        <time>2026-08-23T14:10:10.000Z</time>
      </trkpt>
      <trkpt lat="43.33831" lon="-1.45161">
        <ele>73</ele>
        <time>2026-08-23T14:10:13.000Z</time>
      </trkpt>
      <trkpt lat="43.33817" lon="-1.4514">
        <ele>76</ele>
        <time>2026-08-23T14:10:17.000Z</time>
      </trkpt>
      <trkpt lat="43.33802" lon="-1.45115">
        <ele>79</ele>
        <time>2026-08-23T14:10:21.000Z</time>
      </trkpt>
      <trkpt lat="43.33786" lon="-1.45089">
        <ele>83</ele>
        <time>2026-08-23T14:10:25.000Z</time>
      </trkpt>
      <trkpt lat="43.33772" lon="-1.45063">
        <ele>84</ele>
        <time>2026-08-23T14:10:29.000Z</time>
      </trkpt>
      <trkpt lat="43.33764" lon="-1.45044">
        <ele>85</ele>
        <time>2026-08-23T14:10:32.000Z</time>
      </trkpt>
      <trkpt lat="43.33751" lon="-1.45016">
        <ele>85</ele>
        <time>2026-08-23T14:10:36.000Z</time>
      </trkpt>
      <trkpt lat="43.33748" lon="-1.45009">
        <ele>85</ele>
        <time>2026-08-23T14:10:37.000Z</time>
      </trkpt>
      <trkpt lat="43.33738" lon="-1.44984">
        <ele>85</ele>
        <time>2026-08-23T14:10:41.000Z</time>
      </trkpt>
      <trkpt lat="43.33734" lon="-1.4497">
        <ele>85</ele>
        <time>2026-08-23T14:10:43.000Z</time>
      </trkpt>
      <trkpt lat="43.33733" lon="-1.44965">
        <ele>85</ele>
        <time>2026-08-23T14:10:44.000Z</time>
      </trkpt>
      <trkpt lat="43.33724" lon="-1.4494">
        <ele>85</ele>
        <time>2026-08-23T14:10:47.000Z</time>
      </trkpt>
      <trkpt lat="43.33716" lon="-1.4491">
        <ele>84</ele>
        <time>2026-08-23T14:10:52.000Z</time>
      </trkpt>
      <trkpt lat="43.33711" lon="-1.44886">
        <ele>83</ele>
        <time>2026-08-23T14:10:55.000Z</time>
      </trkpt>
      <trkpt lat="43.33705" lon="-1.44854">
        <ele>83</ele>
        <time>2026-08-23T14:10:59.000Z</time>
      </trkpt>
      <trkpt lat="43.337" lon="-1.4482">
        <ele>82</ele>
        <time>2026-08-23T14:11:04.000Z</time>
      </trkpt>
      <trkpt lat="43.33697" lon="-1.4479">
        <ele>81</ele>
        <time>2026-08-23T14:11:07.000Z</time>
      </trkpt>
      <trkpt lat="43.33697" lon="-1.44788">
        <ele>81</ele>
        <time>2026-08-23T14:11:08.000Z</time>
      </trkpt>
      <trkpt lat="43.33697" lon="-1.44783">
        <ele>81</ele>
        <time>2026-08-23T14:11:08.000Z</time>
      </trkpt>
      <trkpt lat="43.33697" lon="-1.44779">
        <ele>81</ele>
        <time>2026-08-23T14:11:09.000Z</time>
      </trkpt>
      <trkpt lat="43.33695" lon="-1.44755">
        <ele>80</ele>
        <time>2026-08-23T14:11:12.000Z</time>
      </trkpt>
      <trkpt lat="43.33694" lon="-1.44727">
        <ele>80</ele>
        <time>2026-08-23T14:11:16.000Z</time>
      </trkpt>
      <trkpt lat="43.33694" lon="-1.44701">
        <ele>81</ele>
        <time>2026-08-23T14:11:19.000Z</time>
      </trkpt>
      <trkpt lat="43.33694" lon="-1.44666">
        <ele>81</ele>
        <time>2026-08-23T14:11:24.000Z</time>
      </trkpt>
      <trkpt lat="43.33695" lon="-1.44645">
        <ele>80</ele>
        <time>2026-08-23T14:11:26.000Z</time>
      </trkpt>
      <trkpt lat="43.33697" lon="-1.44625">
        <ele>79</ele>
        <time>2026-08-23T14:11:29.000Z</time>
      </trkpt>
      <trkpt lat="43.33698" lon="-1.44614">
        <ele>78</ele>
        <time>2026-08-23T14:11:30.000Z</time>
      </trkpt>
      <trkpt lat="43.33698" lon="-1.44614">
        <ele>78</ele>
        <time>2026-08-23T14:11:30.000Z</time>
      </trkpt>
      <trkpt lat="43.33684" lon="-1.44614">
        <ele>78</ele>
        <time>2026-08-23T14:11:33.000Z</time>
      </trkpt>
      <trkpt lat="43.33665" lon="-1.44615">
        <ele>79</ele>
        <time>2026-08-23T14:11:36.000Z</time>
      </trkpt>
      <trkpt lat="43.33647" lon="-1.44617">
        <ele>79</ele>
        <time>2026-08-23T14:11:39.000Z</time>
      </trkpt>
      <trkpt lat="43.33633" lon="-1.4462">
        <ele>80</ele>
        <time>2026-08-23T14:11:42.000Z</time>
      </trkpt>
      <trkpt lat="43.33629" lon="-1.44621">
        <ele>81</ele>
        <time>2026-08-23T14:11:43.000Z</time>
      </trkpt>
      <trkpt lat="43.33619" lon="-1.44622">
        <ele>81</ele>
        <time>2026-08-23T14:11:44.000Z</time>
      </trkpt>
      <trkpt lat="43.33615" lon="-1.44623">
        <ele>81</ele>
        <time>2026-08-23T14:11:45.000Z</time>
      </trkpt>
      <trkpt lat="43.33605" lon="-1.44622">
        <ele>82</ele>
        <time>2026-08-23T14:11:47.000Z</time>
      </trkpt>
      <trkpt lat="43.33593" lon="-1.44617">
        <ele>81</ele>
        <time>2026-08-23T14:11:49.000Z</time>
      </trkpt>
      <trkpt lat="43.3358" lon="-1.44611">
        <ele>81</ele>
        <time>2026-08-23T14:11:52.000Z</time>
      </trkpt>
      <trkpt lat="43.33555" lon="-1.44595">
        <ele>81</ele>
        <time>2026-08-23T14:11:57.000Z</time>
      </trkpt>
      <trkpt lat="43.33536" lon="-1.44578">
        <ele>80</ele>
        <time>2026-08-23T14:12:01.000Z</time>
      </trkpt>
      <trkpt lat="43.3351" lon="-1.44559">
        <ele>80</ele>
        <time>2026-08-23T14:12:06.000Z</time>
      </trkpt>
      <trkpt lat="43.33485" lon="-1.44544">
        <ele>78</ele>
        <time>2026-08-23T14:12:11.000Z</time>
      </trkpt>
      <trkpt lat="43.33463" lon="-1.44535">
        <ele>77</ele>
        <time>2026-08-23T14:12:15.000Z</time>
      </trkpt>
      <trkpt lat="43.33447" lon="-1.44533">
        <ele>78</ele>
        <time>2026-08-23T14:12:18.000Z</time>
      </trkpt>
      <trkpt lat="43.33434" lon="-1.44534">
        <ele>78</ele>
        <time>2026-08-23T14:12:20.000Z</time>
      </trkpt>
      <trkpt lat="43.33422" lon="-1.44538">
        <ele>78</ele>
        <time>2026-08-23T14:12:22.000Z</time>
      </trkpt>
      <trkpt lat="43.33418" lon="-1.44541">
        <ele>78</ele>
        <time>2026-08-23T14:12:23.000Z</time>
      </trkpt>
      <trkpt lat="43.33413" lon="-1.44544">
        <ele>79</ele>
        <time>2026-08-23T14:12:24.000Z</time>
      </trkpt>
      <trkpt lat="43.33406" lon="-1.44551">
        <ele>80</ele>
        <time>2026-08-23T14:12:25.000Z</time>
      </trkpt>
      <trkpt lat="43.334" lon="-1.44559">
        <ele>80</ele>
        <time>2026-08-23T14:12:27.000Z</time>
      </trkpt>
      <trkpt lat="43.33397" lon="-1.44566">
        <ele>80</ele>
        <time>2026-08-23T14:12:28.000Z</time>
      </trkpt>
      <trkpt lat="43.33394" lon="-1.44574">
        <ele>80</ele>
        <time>2026-08-23T14:12:29.000Z</time>
      </trkpt>
      <trkpt lat="43.33382" lon="-1.4461">
        <ele>83</ele>
        <time>2026-08-23T14:12:34.000Z</time>
      </trkpt>
      <trkpt lat="43.33368" lon="-1.44649">
        <ele>84</ele>
        <time>2026-08-23T14:12:40.000Z</time>
      </trkpt>
      <trkpt lat="43.33361" lon="-1.4467">
        <ele>83</ele>
        <time>2026-08-23T14:12:43.000Z</time>
      </trkpt>
      <trkpt lat="43.33355" lon="-1.44681">
        <ele>82</ele>
        <time>2026-08-23T14:12:45.000Z</time>
      </trkpt>
      <trkpt lat="43.33349" lon="-1.4469">
        <ele>81</ele>
        <time>2026-08-23T14:12:46.000Z</time>
      </trkpt>
      <trkpt lat="43.3334" lon="-1.44698">
        <ele>80</ele>
        <time>2026-08-23T14:12:48.000Z</time>
      </trkpt>
      <trkpt lat="43.33331" lon="-1.44705">
        <ele>79</ele>
        <time>2026-08-23T14:12:50.000Z</time>
      </trkpt>
      <trkpt lat="43.33318" lon="-1.44711">
        <ele>79</ele>
        <time>2026-08-23T14:12:52.000Z</time>
      </trkpt>
      <trkpt lat="43.33304" lon="-1.44715">
        <ele>80</ele>
        <time>2026-08-23T14:12:55.000Z</time>
      </trkpt>
      <trkpt lat="43.33288" lon="-1.44718">
        <ele>81</ele>
        <time>2026-08-23T14:12:58.000Z</time>
      </trkpt>
      <trkpt lat="43.33265" lon="-1.44722">
        <ele>81</ele>
        <time>2026-08-23T14:13:02.000Z</time>
      </trkpt>
      <trkpt lat="43.33227" lon="-1.44727">
        <ele>86</ele>
        <time>2026-08-23T14:13:09.000Z</time>
      </trkpt>
      <trkpt lat="43.33215" lon="-1.4473">
        <ele>87</ele>
        <time>2026-08-23T14:13:11.000Z</time>
      </trkpt>
      <trkpt lat="43.33205" lon="-1.44732">
        <ele>88</ele>
        <time>2026-08-23T14:13:13.000Z</time>
      </trkpt>
      <trkpt lat="43.33196" lon="-1.44737">
        <ele>89</ele>
        <time>2026-08-23T14:13:14.000Z</time>
      </trkpt>
      <trkpt lat="43.33186" lon="-1.44746">
        <ele>88</ele>
        <time>2026-08-23T14:13:17.000Z</time>
      </trkpt>
      <trkpt lat="43.33177" lon="-1.44757">
        <ele>88</ele>
        <time>2026-08-23T14:13:19.000Z</time>
      </trkpt>
      <trkpt lat="43.33169" lon="-1.44769">
        <ele>89</ele>
        <time>2026-08-23T14:13:21.000Z</time>
      </trkpt>
      <trkpt lat="43.33161" lon="-1.44783">
        <ele>89</ele>
        <time>2026-08-23T14:13:23.000Z</time>
      </trkpt>
      <trkpt lat="43.33155" lon="-1.44797">
        <ele>88</ele>
        <time>2026-08-23T14:13:25.000Z</time>
      </trkpt>
      <trkpt lat="43.33151" lon="-1.44812">
        <ele>87</ele>
        <time>2026-08-23T14:13:27.000Z</time>
      </trkpt>
      <trkpt lat="43.33146" lon="-1.4483">
        <ele>86</ele>
        <time>2026-08-23T14:13:30.000Z</time>
      </trkpt>
      <trkpt lat="43.33144" lon="-1.44848">
        <ele>88</ele>
        <time>2026-08-23T14:13:32.000Z</time>
      </trkpt>
      <trkpt lat="43.33143" lon="-1.44865">
        <ele>90</ele>
        <time>2026-08-23T14:13:34.000Z</time>
      </trkpt>
      <trkpt lat="43.33139" lon="-1.44884">
        <ele>92</ele>
        <time>2026-08-23T14:13:37.000Z</time>
      </trkpt>
      <trkpt lat="43.33132" lon="-1.4491">
        <ele>94</ele>
        <time>2026-08-23T14:13:40.000Z</time>
      </trkpt>
      <trkpt lat="43.33126" lon="-1.44932">
        <ele>95</ele>
        <time>2026-08-23T14:13:44.000Z</time>
      </trkpt>
      <trkpt lat="43.33116" lon="-1.44948">
        <ele>94</ele>
        <time>2026-08-23T14:13:46.000Z</time>
      </trkpt>
      <trkpt lat="43.33104" lon="-1.44965">
        <ele>93</ele>
        <time>2026-08-23T14:13:49.000Z</time>
      </trkpt>
      <trkpt lat="43.33097" lon="-1.44973">
        <ele>91</ele>
        <time>2026-08-23T14:13:51.000Z</time>
      </trkpt>
      <trkpt lat="43.33095" lon="-1.44976">
        <ele>91</ele>
        <time>2026-08-23T14:13:51.000Z</time>
      </trkpt>
      <trkpt lat="43.33086" lon="-1.44981">
        <ele>89</ele>
        <time>2026-08-23T14:13:53.000Z</time>
      </trkpt>
      <trkpt lat="43.33078" lon="-1.44981">
        <ele>88</ele>
        <time>2026-08-23T14:13:55.000Z</time>
      </trkpt>
      <trkpt lat="43.33067" lon="-1.44981">
        <ele>89</ele>
        <time>2026-08-23T14:13:57.000Z</time>
      </trkpt>
      <trkpt lat="43.33064" lon="-1.4498">
        <ele>89</ele>
        <time>2026-08-23T14:13:57.000Z</time>
      </trkpt>
      <trkpt lat="43.3306" lon="-1.44978">
        <ele>89</ele>
        <time>2026-08-23T14:13:58.000Z</time>
      </trkpt>
      <trkpt lat="43.33057" lon="-1.44977">
        <ele>89</ele>
        <time>2026-08-23T14:13:58.000Z</time>
      </trkpt>
      <trkpt lat="43.33056" lon="-1.44977">
        <ele>89</ele>
        <time>2026-08-23T14:13:59.000Z</time>
      </trkpt>
      <trkpt lat="43.33053" lon="-1.44975">
        <ele>89</ele>
        <time>2026-08-23T14:13:59.000Z</time>
      </trkpt>
      <trkpt lat="43.33044" lon="-1.4497">
        <ele>89</ele>
        <time>2026-08-23T14:14:01.000Z</time>
      </trkpt>
      <trkpt lat="43.33027" lon="-1.4496">
        <ele>88</ele>
        <time>2026-08-23T14:14:04.000Z</time>
      </trkpt>
      <trkpt lat="43.3301" lon="-1.44949">
        <ele>87</ele>
        <time>2026-08-23T14:14:08.000Z</time>
      </trkpt>
      <trkpt lat="43.32995" lon="-1.44941">
        <ele>86</ele>
        <time>2026-08-23T14:14:10.000Z</time>
      </trkpt>
      <trkpt lat="43.32973" lon="-1.44932">
        <ele>86</ele>
        <time>2026-08-23T14:14:15.000Z</time>
      </trkpt>
      <trkpt lat="43.32951" lon="-1.44926">
        <ele>87</ele>
        <time>2026-08-23T14:14:18.000Z</time>
      </trkpt>
      <trkpt lat="43.32934" lon="-1.44923">
        <ele>88</ele>
        <time>2026-08-23T14:14:22.000Z</time>
      </trkpt>
      <trkpt lat="43.32923" lon="-1.44924">
        <ele>89</ele>
        <time>2026-08-23T14:14:24.000Z</time>
      </trkpt>
      <trkpt lat="43.32914" lon="-1.44926">
        <ele>90</ele>
        <time>2026-08-23T14:14:25.000Z</time>
      </trkpt>
      <trkpt lat="43.32903" lon="-1.44928">
        <ele>92</ele>
        <time>2026-08-23T14:14:27.000Z</time>
      </trkpt>
      <trkpt lat="43.32898" lon="-1.44927">
        <ele>91</ele>
        <time>2026-08-23T14:14:28.000Z</time>
      </trkpt>
      <trkpt lat="43.32894" lon="-1.44927">
        <ele>92</ele>
        <time>2026-08-23T14:14:29.000Z</time>
      </trkpt>
      <trkpt lat="43.32892" lon="-1.44926">
        <ele>92</ele>
        <time>2026-08-23T14:14:29.000Z</time>
      </trkpt>
      <trkpt lat="43.32882" lon="-1.44926">
        <ele>92</ele>
        <time>2026-08-23T14:14:31.000Z</time>
      </trkpt>
      <trkpt lat="43.32872" lon="-1.44928">
        <ele>93</ele>
        <time>2026-08-23T14:14:33.000Z</time>
      </trkpt>
      <trkpt lat="43.32858" lon="-1.44934">
        <ele>96</ele>
        <time>2026-08-23T14:14:35.000Z</time>
      </trkpt>
      <trkpt lat="43.32852" lon="-1.44936">
        <ele>97</ele>
        <time>2026-08-23T14:14:36.000Z</time>
      </trkpt>
      <trkpt lat="43.32837" lon="-1.4494">
        <ele>99</ele>
        <time>2026-08-23T14:14:39.000Z</time>
      </trkpt>
      <trkpt lat="43.32817" lon="-1.44942">
        <ele>101</ele>
        <time>2026-08-23T14:14:43.000Z</time>
      </trkpt>
      <trkpt lat="43.32802" lon="-1.44941">
        <ele>102</ele>
        <time>2026-08-23T14:14:45.000Z</time>
      </trkpt>
      <trkpt lat="43.32791" lon="-1.44938">
        <ele>102</ele>
        <time>2026-08-23T14:14:47.000Z</time>
      </trkpt>
      <trkpt lat="43.32781" lon="-1.44933">
        <ele>102</ele>
        <time>2026-08-23T14:14:49.000Z</time>
      </trkpt>
      <trkpt lat="43.32774" lon="-1.44928">
        <ele>101</ele>
        <time>2026-08-23T14:14:51.000Z</time>
      </trkpt>
      <trkpt lat="43.3277" lon="-1.44925">
        <ele>100</ele>
        <time>2026-08-23T14:14:51.000Z</time>
      </trkpt>
      <trkpt lat="43.32766" lon="-1.44922">
        <ele>99</ele>
        <time>2026-08-23T14:14:52.000Z</time>
      </trkpt>
      <trkpt lat="43.32754" lon="-1.44909">
        <ele>99</ele>
        <time>2026-08-23T14:14:55.000Z</time>
      </trkpt>
      <trkpt lat="43.3274" lon="-1.44897">
        <ele>102</ele>
        <time>2026-08-23T14:14:58.000Z</time>
      </trkpt>
      <trkpt lat="43.32732" lon="-1.44893">
        <ele>105</ele>
        <time>2026-08-23T14:14:59.000Z</time>
      </trkpt>
      <trkpt lat="43.3272" lon="-1.44881">
        <ele>107</ele>
        <time>2026-08-23T14:15:02.000Z</time>
      </trkpt>
      <trkpt lat="43.32706" lon="-1.44862">
        <ele>107</ele>
        <time>2026-08-23T14:15:06.000Z</time>
      </trkpt>
      <trkpt lat="43.32692" lon="-1.44842">
        <ele>104</ele>
        <time>2026-08-23T14:15:09.000Z</time>
      </trkpt>
      <trkpt lat="43.3269" lon="-1.4484">
        <ele>104</ele>
        <time>2026-08-23T14:15:10.000Z</time>
      </trkpt>
      <trkpt lat="43.32677" lon="-1.4482">
        <ele>102</ele>
        <time>2026-08-23T14:15:13.000Z</time>
      </trkpt>
      <trkpt lat="43.32667" lon="-1.44809">
        <ele>101</ele>
        <time>2026-08-23T14:15:15.000Z</time>
      </trkpt>
      <trkpt lat="43.32658" lon="-1.44803">
        <ele>101</ele>
        <time>2026-08-23T14:15:17.000Z</time>
      </trkpt>
      <trkpt lat="43.32647" lon="-1.44798">
        <ele>100</ele>
        <time>2026-08-23T14:15:19.000Z</time>
      </trkpt>
      <trkpt lat="43.3263" lon="-1.44791">
        <ele>100</ele>
        <time>2026-08-23T14:15:22.000Z</time>
      </trkpt>
      <trkpt lat="43.32612" lon="-1.44781">
        <ele>98</ele>
        <time>2026-08-23T14:15:26.000Z</time>
      </trkpt>
      <trkpt lat="43.32601" lon="-1.44772">
        <ele>96</ele>
        <time>2026-08-23T14:15:28.000Z</time>
      </trkpt>
      <trkpt lat="43.32597" lon="-1.44764">
        <ele>95</ele>
        <time>2026-08-23T14:15:29.000Z</time>
      </trkpt>
      <trkpt lat="43.32594" lon="-1.44754">
        <ele>92</ele>
        <time>2026-08-23T14:15:31.000Z</time>
      </trkpt>
      <trkpt lat="43.32587" lon="-1.44726">
        <ele>92</ele>
        <time>2026-08-23T14:15:35.000Z</time>
      </trkpt>
      <trkpt lat="43.32585" lon="-1.44714">
        <ele>92</ele>
        <time>2026-08-23T14:15:36.000Z</time>
      </trkpt>
      <trkpt lat="43.32581" lon="-1.44695">
        <ele>92</ele>
        <time>2026-08-23T14:15:39.000Z</time>
      </trkpt>
      <trkpt lat="43.3258" lon="-1.44691">
        <ele>92</ele>
        <time>2026-08-23T14:15:39.000Z</time>
      </trkpt>
      <trkpt lat="43.32572" lon="-1.44658">
        <ele>94</ele>
        <time>2026-08-23T14:15:44.000Z</time>
      </trkpt>
      <trkpt lat="43.3257" lon="-1.44648">
        <ele>95</ele>
        <time>2026-08-23T14:15:45.000Z</time>
      </trkpt>
      <trkpt lat="43.32568" lon="-1.44642">
        <ele>96</ele>
        <time>2026-08-23T14:15:46.000Z</time>
      </trkpt>
      <trkpt lat="43.32567" lon="-1.44635">
        <ele>97</ele>
        <time>2026-08-23T14:15:47.000Z</time>
      </trkpt>
      <trkpt lat="43.32563" lon="-1.44617">
        <ele>99</ele>
        <time>2026-08-23T14:15:49.000Z</time>
      </trkpt>
      <trkpt lat="43.32556" lon="-1.44587">
        <ele>103</ele>
        <time>2026-08-23T14:15:53.000Z</time>
      </trkpt>
      <trkpt lat="43.32553" lon="-1.44567">
        <ele>104</ele>
        <time>2026-08-23T14:15:56.000Z</time>
      </trkpt>
      <trkpt lat="43.32551" lon="-1.44551">
        <ele>105</ele>
        <time>2026-08-23T14:15:58.000Z</time>
      </trkpt>
      <trkpt lat="43.32549" lon="-1.44529">
        <ele>107</ele>
        <time>2026-08-23T14:16:01.000Z</time>
      </trkpt>
      <trkpt lat="43.32548" lon="-1.4452">
        <ele>107</ele>
        <time>2026-08-23T14:16:02.000Z</time>
      </trkpt>
      <trkpt lat="43.32545" lon="-1.44502">
        <ele>109</ele>
        <time>2026-08-23T14:16:05.000Z</time>
      </trkpt>
      <trkpt lat="43.32539" lon="-1.44475">
        <ele>109</ele>
        <time>2026-08-23T14:16:08.000Z</time>
      </trkpt>
      <trkpt lat="43.32533" lon="-1.44442">
        <ele>109</ele>
        <time>2026-08-23T14:16:13.000Z</time>
      </trkpt>
      <trkpt lat="43.32526" lon="-1.4442">
        <ele>109</ele>
        <time>2026-08-23T14:16:16.000Z</time>
      </trkpt>
      <trkpt lat="43.32522" lon="-1.44406">
        <ele>109</ele>
        <time>2026-08-23T14:16:18.000Z</time>
      </trkpt>
      <trkpt lat="43.32512" lon="-1.44374">
        <ele>108</ele>
        <time>2026-08-23T14:16:22.000Z</time>
      </trkpt>
      <trkpt lat="43.32508" lon="-1.44362">
        <ele>107</ele>
        <time>2026-08-23T14:16:24.000Z</time>
      </trkpt>
      <trkpt lat="43.32505" lon="-1.44352">
        <ele>107</ele>
        <time>2026-08-23T14:16:25.000Z</time>
      </trkpt>
      <trkpt lat="43.32501" lon="-1.44342">
        <ele>106</ele>
        <time>2026-08-23T14:16:27.000Z</time>
      </trkpt>
      <trkpt lat="43.32501" lon="-1.44338">
        <ele>106</ele>
        <time>2026-08-23T14:16:27.000Z</time>
      </trkpt>
      <trkpt lat="43.325" lon="-1.44334">
        <ele>106</ele>
        <time>2026-08-23T14:16:28.000Z</time>
      </trkpt>
      <trkpt lat="43.32501" lon="-1.44328">
        <ele>106</ele>
        <time>2026-08-23T14:16:29.000Z</time>
      </trkpt>
      <trkpt lat="43.32502" lon="-1.44322">
        <ele>106</ele>
        <time>2026-08-23T14:16:29.000Z</time>
      </trkpt>
      <trkpt lat="43.32504" lon="-1.44317">
        <ele>106</ele>
        <time>2026-08-23T14:16:30.000Z</time>
      </trkpt>
      <trkpt lat="43.32511" lon="-1.44302">
        <ele>106</ele>
        <time>2026-08-23T14:16:32.000Z</time>
      </trkpt>
      <trkpt lat="43.32513" lon="-1.44298">
        <ele>107</ele>
        <time>2026-08-23T14:16:33.000Z</time>
      </trkpt>
      <trkpt lat="43.32514" lon="-1.44293">
        <ele>107</ele>
        <time>2026-08-23T14:16:34.000Z</time>
      </trkpt>
      <trkpt lat="43.32515" lon="-1.44286">
        <ele>107</ele>
        <time>2026-08-23T14:16:35.000Z</time>
      </trkpt>
      <trkpt lat="43.32517" lon="-1.44279">
        <ele>107</ele>
        <time>2026-08-23T14:16:36.000Z</time>
      </trkpt>
      <trkpt lat="43.32518" lon="-1.44271">
        <ele>107</ele>
        <time>2026-08-23T14:16:37.000Z</time>
      </trkpt>
      <trkpt lat="43.32519" lon="-1.44256">
        <ele>107</ele>
        <time>2026-08-23T14:16:39.000Z</time>
      </trkpt>
      <trkpt lat="43.32518" lon="-1.44237">
        <ele>108</ele>
        <time>2026-08-23T14:16:41.000Z</time>
      </trkpt>
      <trkpt lat="43.32518" lon="-1.44227">
        <ele>109</ele>
        <time>2026-08-23T14:16:42.000Z</time>
      </trkpt>
      <trkpt lat="43.32518" lon="-1.44215">
        <ele>110</ele>
        <time>2026-08-23T14:16:44.000Z</time>
      </trkpt>
      <trkpt lat="43.32519" lon="-1.44202">
        <ele>111</ele>
        <time>2026-08-23T14:16:46.000Z</time>
      </trkpt>
      <trkpt lat="43.3252" lon="-1.44192">
        <ele>111</ele>
        <time>2026-08-23T14:16:47.000Z</time>
      </trkpt>
      <trkpt lat="43.32522" lon="-1.44178">
        <ele>112</ele>
        <time>2026-08-23T14:16:49.000Z</time>
      </trkpt>
      <trkpt lat="43.32526" lon="-1.44157">
        <ele>114</ele>
        <time>2026-08-23T14:16:52.000Z</time>
      </trkpt>
      <trkpt lat="43.32532" lon="-1.44134">
        <ele>116</ele>
        <time>2026-08-23T14:16:55.000Z</time>
      </trkpt>
      <trkpt lat="43.3254" lon="-1.44107">
        <ele>118</ele>
        <time>2026-08-23T14:16:59.000Z</time>
      </trkpt>
      <trkpt lat="43.32542" lon="-1.44097">
        <ele>118</ele>
        <time>2026-08-23T14:17:00.000Z</time>
      </trkpt>
      <trkpt lat="43.32546" lon="-1.44082">
        <ele>119</ele>
        <time>2026-08-23T14:17:02.000Z</time>
      </trkpt>
      <trkpt lat="43.32548" lon="-1.44068">
        <ele>120</ele>
        <time>2026-08-23T14:17:04.000Z</time>
      </trkpt>
      <trkpt lat="43.3255" lon="-1.44053">
        <ele>121</ele>
        <time>2026-08-23T14:17:06.000Z</time>
      </trkpt>
      <trkpt lat="43.32553" lon="-1.44033">
        <ele>122</ele>
        <time>2026-08-23T14:17:08.000Z</time>
      </trkpt>
      <trkpt lat="43.32555" lon="-1.44014">
        <ele>123</ele>
        <time>2026-08-23T14:17:11.000Z</time>
      </trkpt>
      <trkpt lat="43.32557" lon="-1.43994">
        <ele>123</ele>
        <time>2026-08-23T14:17:14.000Z</time>
      </trkpt>
      <trkpt lat="43.32559" lon="-1.43984">
        <ele>123</ele>
        <time>2026-08-23T14:17:15.000Z</time>
      </trkpt>
      <trkpt lat="43.32561" lon="-1.43969">
        <ele>122</ele>
        <time>2026-08-23T14:17:17.000Z</time>
      </trkpt>
      <trkpt lat="43.32563" lon="-1.43962">
        <ele>122</ele>
        <time>2026-08-23T14:17:18.000Z</time>
      </trkpt>
      <trkpt lat="43.32571" lon="-1.43929">
        <ele>120</ele>
        <time>2026-08-23T14:17:22.000Z</time>
      </trkpt>
      <trkpt lat="43.32576" lon="-1.43916">
        <ele>119</ele>
        <time>2026-08-23T14:17:24.000Z</time>
      </trkpt>
      <trkpt lat="43.32581" lon="-1.43903">
        <ele>119</ele>
        <time>2026-08-23T14:17:26.000Z</time>
      </trkpt>
      <trkpt lat="43.32586" lon="-1.43894">
        <ele>119</ele>
        <time>2026-08-23T14:17:28.000Z</time>
      </trkpt>
      <trkpt lat="43.32591" lon="-1.43888">
        <ele>120</ele>
        <time>2026-08-23T14:17:29.000Z</time>
      </trkpt>
      <trkpt lat="43.32603" lon="-1.43874">
        <ele>122</ele>
        <time>2026-08-23T14:17:32.000Z</time>
      </trkpt>
      <trkpt lat="43.32615" lon="-1.43862">
        <ele>123</ele>
        <time>2026-08-23T14:17:34.000Z</time>
      </trkpt>
      <trkpt lat="43.32635" lon="-1.43844">
        <ele>125</ele>
        <time>2026-08-23T14:17:39.000Z</time>
      </trkpt>
      <trkpt lat="43.32657" lon="-1.43827">
        <ele>126</ele>
        <time>2026-08-23T14:17:43.000Z</time>
      </trkpt>
      <trkpt lat="43.32668" lon="-1.43817">
        <ele>127</ele>
        <time>2026-08-23T14:17:45.000Z</time>
      </trkpt>
      <trkpt lat="43.32677" lon="-1.43807">
        <ele>129</ele>
        <time>2026-08-23T14:17:47.000Z</time>
      </trkpt>
      <trkpt lat="43.32685" lon="-1.43796">
        <ele>130</ele>
        <time>2026-08-23T14:17:49.000Z</time>
      </trkpt>
      <trkpt lat="43.32691" lon="-1.43787">
        <ele>131</ele>
        <time>2026-08-23T14:17:51.000Z</time>
      </trkpt>
      <trkpt lat="43.32697" lon="-1.43775">
        <ele>132</ele>
        <time>2026-08-23T14:17:53.000Z</time>
      </trkpt>
      <trkpt lat="43.32701" lon="-1.43762">
        <ele>133</ele>
        <time>2026-08-23T14:17:55.000Z</time>
      </trkpt>
      <trkpt lat="43.32705" lon="-1.43745">
        <ele>134</ele>
        <time>2026-08-23T14:17:57.000Z</time>
      </trkpt>
      <trkpt lat="43.32707" lon="-1.43738">
        <ele>134</ele>
        <time>2026-08-23T14:17:58.000Z</time>
      </trkpt>
      <trkpt lat="43.32712" lon="-1.43722">
        <ele>134</ele>
        <time>2026-08-23T14:18:00.000Z</time>
      </trkpt>
      <trkpt lat="43.32716" lon="-1.43712">
        <ele>134</ele>
        <time>2026-08-23T14:18:02.000Z</time>
      </trkpt>
      <trkpt lat="43.32721" lon="-1.43704">
        <ele>134</ele>
        <time>2026-08-23T14:18:03.000Z</time>
      </trkpt>
      <trkpt lat="43.32737" lon="-1.43683">
        <ele>135</ele>
        <time>2026-08-23T14:18:07.000Z</time>
      </trkpt>
      <trkpt lat="43.32745" lon="-1.43676">
        <ele>135</ele>
        <time>2026-08-23T14:18:09.000Z</time>
      </trkpt>
      <trkpt lat="43.32765" lon="-1.43655">
        <ele>135</ele>
        <time>2026-08-23T14:18:13.000Z</time>
      </trkpt>
      <trkpt lat="43.3279" lon="-1.43633">
        <ele>134</ele>
        <time>2026-08-23T14:18:18.000Z</time>
      </trkpt>
      <trkpt lat="43.32811" lon="-1.43615">
        <ele>133</ele>
        <time>2026-08-23T14:18:23.000Z</time>
      </trkpt>
      <trkpt lat="43.32822" lon="-1.43606">
        <ele>132</ele>
        <time>2026-08-23T14:18:25.000Z</time>
      </trkpt>
      <trkpt lat="43.32825" lon="-1.43598">
        <ele>131</ele>
        <time>2026-08-23T14:18:26.000Z</time>
      </trkpt>
      <trkpt lat="43.32828" lon="-1.43587">
        <ele>130</ele>
        <time>2026-08-23T14:18:28.000Z</time>
      </trkpt>
      <trkpt lat="43.3283" lon="-1.43572">
        <ele>129</ele>
        <time>2026-08-23T14:18:30.000Z</time>
      </trkpt>
      <trkpt lat="43.3283" lon="-1.43556">
        <ele>128</ele>
        <time>2026-08-23T14:18:32.000Z</time>
      </trkpt>
      <trkpt lat="43.32828" lon="-1.43539">
        <ele>127</ele>
        <time>2026-08-23T14:18:34.000Z</time>
      </trkpt>
      <trkpt lat="43.32825" lon="-1.43521">
        <ele>125</ele>
        <time>2026-08-23T14:18:37.000Z</time>
      </trkpt>
      <trkpt lat="43.3282" lon="-1.43503">
        <ele>124</ele>
        <time>2026-08-23T14:18:39.000Z</time>
      </trkpt>
      <trkpt lat="43.32814" lon="-1.43482">
        <ele>123</ele>
        <time>2026-08-23T14:18:42.000Z</time>
      </trkpt>
      <trkpt lat="43.3281" lon="-1.43464">
        <ele>122</ele>
        <time>2026-08-23T14:18:44.000Z</time>
      </trkpt>
      <trkpt lat="43.32809" lon="-1.43452">
        <ele>122</ele>
        <time>2026-08-23T14:18:46.000Z</time>
      </trkpt>
      <trkpt lat="43.32808" lon="-1.4344">
        <ele>122</ele>
        <time>2026-08-23T14:18:47.000Z</time>
      </trkpt>
      <trkpt lat="43.32808" lon="-1.43426">
        <ele>121</ele>
        <time>2026-08-23T14:18:49.000Z</time>
      </trkpt>
      <trkpt lat="43.32809" lon="-1.43412">
        <ele>121</ele>
        <time>2026-08-23T14:18:51.000Z</time>
      </trkpt>
      <trkpt lat="43.32814" lon="-1.43388">
        <ele>120</ele>
        <time>2026-08-23T14:18:54.000Z</time>
      </trkpt>
      <trkpt lat="43.32819" lon="-1.43356">
        <ele>118</ele>
        <time>2026-08-23T14:18:59.000Z</time>
      </trkpt>
      <trkpt lat="43.32824" lon="-1.43329">
        <ele>117</ele>
        <time>2026-08-23T14:19:02.000Z</time>
      </trkpt>
      <trkpt lat="43.32828" lon="-1.43303">
        <ele>117</ele>
        <time>2026-08-23T14:19:06.000Z</time>
      </trkpt>
      <trkpt lat="43.3283" lon="-1.43278">
        <ele>117</ele>
        <time>2026-08-23T14:19:09.000Z</time>
      </trkpt>
      <trkpt lat="43.32834" lon="-1.43251">
        <ele>117</ele>
        <time>2026-08-23T14:19:12.000Z</time>
      </trkpt>
      <trkpt lat="43.32838" lon="-1.43214">
        <ele>115</ele>
        <time>2026-08-23T14:19:17.000Z</time>
      </trkpt>
      <trkpt lat="43.32841" lon="-1.43198">
        <ele>115</ele>
        <time>2026-08-23T14:19:19.000Z</time>
      </trkpt>
      <trkpt lat="43.32844" lon="-1.43186">
        <ele>114</ele>
        <time>2026-08-23T14:19:21.000Z</time>
      </trkpt>
      <trkpt lat="43.32853" lon="-1.43162">
        <ele>114</ele>
        <time>2026-08-23T14:19:25.000Z</time>
      </trkpt>
      <trkpt lat="43.32864" lon="-1.43137">
        <ele>114</ele>
        <time>2026-08-23T14:19:28.000Z</time>
      </trkpt>
      <trkpt lat="43.32871" lon="-1.43123">
        <ele>114</ele>
        <time>2026-08-23T14:19:31.000Z</time>
      </trkpt>
      <trkpt lat="43.32878" lon="-1.4311">
        <ele>114</ele>
        <time>2026-08-23T14:19:33.000Z</time>
      </trkpt>
      <trkpt lat="43.3289" lon="-1.43093">
        <ele>114</ele>
        <time>2026-08-23T14:19:36.000Z</time>
      </trkpt>
      <trkpt lat="43.32898" lon="-1.43082">
        <ele>114</ele>
        <time>2026-08-23T14:19:38.000Z</time>
      </trkpt>
      <trkpt lat="43.32901" lon="-1.43075">
        <ele>114</ele>
        <time>2026-08-23T14:19:39.000Z</time>
      </trkpt>
      <trkpt lat="43.32902" lon="-1.43066">
        <ele>113</ele>
        <time>2026-08-23T14:19:40.000Z</time>
      </trkpt>
      <trkpt lat="43.32902" lon="-1.43057">
        <ele>113</ele>
        <time>2026-08-23T14:19:41.000Z</time>
      </trkpt>
      <trkpt lat="43.329" lon="-1.43042">
        <ele>113</ele>
        <time>2026-08-23T14:19:43.000Z</time>
      </trkpt>
      <trkpt lat="43.32897" lon="-1.43026">
        <ele>112</ele>
        <time>2026-08-23T14:19:45.000Z</time>
      </trkpt>
      <trkpt lat="43.32895" lon="-1.43015">
        <ele>111</ele>
        <time>2026-08-23T14:19:47.000Z</time>
      </trkpt>
      <trkpt lat="43.32895" lon="-1.42998">
        <ele>111</ele>
        <time>2026-08-23T14:19:49.000Z</time>
      </trkpt>
      <trkpt lat="43.32894" lon="-1.4296">
        <ele>109</ele>
        <time>2026-08-23T14:19:54.000Z</time>
      </trkpt>
      <trkpt lat="43.32893" lon="-1.42946">
        <ele>109</ele>
        <time>2026-08-23T14:19:56.000Z</time>
      </trkpt>
      <trkpt lat="43.32894" lon="-1.42935">
        <ele>109</ele>
        <time>2026-08-23T14:19:57.000Z</time>
      </trkpt>
      <trkpt lat="43.32896" lon="-1.42923">
        <ele>108</ele>
        <time>2026-08-23T14:19:59.000Z</time>
      </trkpt>
      <trkpt lat="43.32902" lon="-1.42909">
        <ele>108</ele>
        <time>2026-08-23T14:20:01.000Z</time>
      </trkpt>
      <trkpt lat="43.32909" lon="-1.42898">
        <ele>107</ele>
        <time>2026-08-23T14:20:03.000Z</time>
      </trkpt>
      <trkpt lat="43.32919" lon="-1.42887">
        <ele>107</ele>
        <time>2026-08-23T14:20:05.000Z</time>
      </trkpt>
      <trkpt lat="43.32931" lon="-1.42869">
        <ele>107</ele>
        <time>2026-08-23T14:20:08.000Z</time>
      </trkpt>
      <trkpt lat="43.32935" lon="-1.42861">
        <ele>107</ele>
        <time>2026-08-23T14:20:09.000Z</time>
      </trkpt>
      <trkpt lat="43.32961" lon="-1.42813">
        <ele>106</ele>
        <time>2026-08-23T14:20:17.000Z</time>
      </trkpt>
      <trkpt lat="43.32983" lon="-1.42762">
        <ele>103</ele>
        <time>2026-08-23T14:20:25.000Z</time>
      </trkpt>
      <trkpt lat="43.32988" lon="-1.42751">
        <ele>102</ele>
        <time>2026-08-23T14:20:26.000Z</time>
      </trkpt>
      <trkpt lat="43.32993" lon="-1.42745">
        <ele>102</ele>
        <time>2026-08-23T14:20:28.000Z</time>
      </trkpt>
      <trkpt lat="43.32996" lon="-1.42741">
        <ele>102</ele>
        <time>2026-08-23T14:20:28.000Z</time>
      </trkpt>
      <trkpt lat="43.33" lon="-1.42739">
        <ele>101</ele>
        <time>2026-08-23T14:20:29.000Z</time>
      </trkpt>
      <trkpt lat="43.33011" lon="-1.42731">
        <ele>103</ele>
        <time>2026-08-23T14:20:31.000Z</time>
      </trkpt>
      <trkpt lat="43.33025" lon="-1.42725">
        <ele>105</ele>
        <time>2026-08-23T14:20:34.000Z</time>
      </trkpt>
      <trkpt lat="43.33036" lon="-1.42719">
        <ele>106</ele>
        <time>2026-08-23T14:20:36.000Z</time>
      </trkpt>
      <trkpt lat="43.33052" lon="-1.42708">
        <ele>107</ele>
        <time>2026-08-23T14:20:39.000Z</time>
      </trkpt>
      <trkpt lat="43.33053" lon="-1.42707">
        <ele>108</ele>
        <time>2026-08-23T14:20:39.000Z</time>
      </trkpt>
      <trkpt lat="43.33059" lon="-1.42701">
        <ele>108</ele>
        <time>2026-08-23T14:20:41.000Z</time>
      </trkpt>
      <trkpt lat="43.33064" lon="-1.42693">
        <ele>108</ele>
        <time>2026-08-23T14:20:42.000Z</time>
      </trkpt>
      <trkpt lat="43.33068" lon="-1.42683">
        <ele>108</ele>
        <time>2026-08-23T14:20:44.000Z</time>
      </trkpt>
      <trkpt lat="43.33074" lon="-1.42668">
        <ele>107</ele>
        <time>2026-08-23T14:20:46.000Z</time>
      </trkpt>
      <trkpt lat="43.33083" lon="-1.42641">
        <ele>105</ele>
        <time>2026-08-23T14:20:50.000Z</time>
      </trkpt>
      <trkpt lat="43.3309" lon="-1.42617">
        <ele>103</ele>
        <time>2026-08-23T14:20:53.000Z</time>
      </trkpt>
      <trkpt lat="43.33097" lon="-1.42592">
        <ele>102</ele>
        <time>2026-08-23T14:20:57.000Z</time>
      </trkpt>
      <trkpt lat="43.33102" lon="-1.42566">
        <ele>101</ele>
        <time>2026-08-23T14:21:00.000Z</time>
      </trkpt>
      <trkpt lat="43.33105" lon="-1.42554">
        <ele>101</ele>
        <time>2026-08-23T14:21:02.000Z</time>
      </trkpt>
      <trkpt lat="43.33108" lon="-1.42547">
        <ele>101</ele>
        <time>2026-08-23T14:21:03.000Z</time>
      </trkpt>
      <trkpt lat="43.33116" lon="-1.42529">
        <ele>101</ele>
        <time>2026-08-23T14:21:05.000Z</time>
      </trkpt>
      <trkpt lat="43.33129" lon="-1.42506">
        <ele>102</ele>
        <time>2026-08-23T14:21:09.000Z</time>
      </trkpt>
      <trkpt lat="43.33133" lon="-1.42496">
        <ele>102</ele>
        <time>2026-08-23T14:21:11.000Z</time>
      </trkpt>
      <trkpt lat="43.33138" lon="-1.42484">
        <ele>103</ele>
        <time>2026-08-23T14:21:12.000Z</time>
      </trkpt>
      <trkpt lat="43.33139" lon="-1.42478">
        <ele>103</ele>
        <time>2026-08-23T14:21:13.000Z</time>
      </trkpt>
      <trkpt lat="43.3314" lon="-1.42468">
        <ele>103</ele>
        <time>2026-08-23T14:21:15.000Z</time>
      </trkpt>
      <trkpt lat="43.3314" lon="-1.42455">
        <ele>103</ele>
        <time>2026-08-23T14:21:16.000Z</time>
      </trkpt>
      <trkpt lat="43.3314" lon="-1.42421">
        <ele>103</ele>
        <time>2026-08-23T14:21:21.000Z</time>
      </trkpt>
      <trkpt lat="43.3314" lon="-1.42385">
        <ele>103</ele>
        <time>2026-08-23T14:21:25.000Z</time>
      </trkpt>
      <trkpt lat="43.3314" lon="-1.42356">
        <ele>103</ele>
        <time>2026-08-23T14:21:29.000Z</time>
      </trkpt>
      <trkpt lat="43.3314" lon="-1.42337">
        <ele>104</ele>
        <time>2026-08-23T14:21:32.000Z</time>
      </trkpt>
      <trkpt lat="43.3314" lon="-1.4232">
        <ele>103</ele>
        <time>2026-08-23T14:21:34.000Z</time>
      </trkpt>
      <trkpt lat="43.33141" lon="-1.42306">
        <ele>102</ele>
        <time>2026-08-23T14:21:36.000Z</time>
      </trkpt>
      <trkpt lat="43.33144" lon="-1.42281">
        <ele>102</ele>
        <time>2026-08-23T14:21:39.000Z</time>
      </trkpt>
      <trkpt lat="43.33148" lon="-1.4226">
        <ele>101</ele>
        <time>2026-08-23T14:21:42.000Z</time>
      </trkpt>
      <trkpt lat="43.33148" lon="-1.42246">
        <ele>101</ele>
        <time>2026-08-23T14:21:43.000Z</time>
      </trkpt>
      <trkpt lat="43.33148" lon="-1.42229">
        <ele>100</ele>
        <time>2026-08-23T14:21:46.000Z</time>
      </trkpt>
      <trkpt lat="43.33147" lon="-1.42197">
        <ele>98</ele>
        <time>2026-08-23T14:21:50.000Z</time>
      </trkpt>
      <trkpt lat="43.33148" lon="-1.42177">
        <ele>97</ele>
        <time>2026-08-23T14:21:52.000Z</time>
      </trkpt>
      <trkpt lat="43.33149" lon="-1.42171">
        <ele>96</ele>
        <time>2026-08-23T14:21:53.000Z</time>
      </trkpt>
      <trkpt lat="43.33151" lon="-1.42154">
        <ele>96</ele>
        <time>2026-08-23T14:21:55.000Z</time>
      </trkpt>
      <trkpt lat="43.33155" lon="-1.42135">
        <ele>95</ele>
        <time>2026-08-23T14:21:58.000Z</time>
      </trkpt>
      <trkpt lat="43.33158" lon="-1.4212">
        <ele>95</ele>
        <time>2026-08-23T14:22:00.000Z</time>
      </trkpt>
      <trkpt lat="43.33162" lon="-1.42107">
        <ele>95</ele>
        <time>2026-08-23T14:22:02.000Z</time>
      </trkpt>
      <trkpt lat="43.33168" lon="-1.42093">
        <ele>95</ele>
        <time>2026-08-23T14:22:04.000Z</time>
      </trkpt>
      <trkpt lat="43.33175" lon="-1.42081">
        <ele>95</ele>
        <time>2026-08-23T14:22:06.000Z</time>
      </trkpt>
      <trkpt lat="43.33189" lon="-1.4206">
        <ele>96</ele>
        <time>2026-08-23T14:22:10.000Z</time>
      </trkpt>
      <trkpt lat="43.33205" lon="-1.42034">
        <ele>98</ele>
        <time>2026-08-23T14:22:14.000Z</time>
      </trkpt>
      <trkpt lat="43.33232" lon="-1.4199">
        <ele>101</ele>
        <time>2026-08-23T14:22:21.000Z</time>
      </trkpt>
      <trkpt lat="43.3325" lon="-1.41958">
        <ele>102</ele>
        <time>2026-08-23T14:22:27.000Z</time>
      </trkpt>
      <trkpt lat="43.33258" lon="-1.41943">
        <ele>103</ele>
        <time>2026-08-23T14:22:29.000Z</time>
      </trkpt>
      <trkpt lat="43.33262" lon="-1.41932">
        <ele>104</ele>
        <time>2026-08-23T14:22:31.000Z</time>
      </trkpt>
      <trkpt lat="43.33266" lon="-1.41915">
        <ele>104</ele>
        <time>2026-08-23T14:22:33.000Z</time>
      </trkpt>
      <trkpt lat="43.3327" lon="-1.41888">
        <ele>103</ele>
        <time>2026-08-23T14:22:37.000Z</time>
      </trkpt>
      <trkpt lat="43.33273" lon="-1.41845">
        <ele>100</ele>
        <time>2026-08-23T14:22:42.000Z</time>
      </trkpt>
      <trkpt lat="43.33273" lon="-1.4181">
        <ele>99</ele>
        <time>2026-08-23T14:22:47.000Z</time>
      </trkpt>
      <trkpt lat="43.33272" lon="-1.41794">
        <ele>99</ele>
        <time>2026-08-23T14:22:49.000Z</time>
      </trkpt>
      <trkpt lat="43.33269" lon="-1.41783">
        <ele>98</ele>
        <time>2026-08-23T14:22:50.000Z</time>
      </trkpt>
      <trkpt lat="43.33259" lon="-1.41768">
        <ele>98</ele>
        <time>2026-08-23T14:22:53.000Z</time>
      </trkpt>
      <trkpt lat="43.33248" lon="-1.41758">
        <ele>97</ele>
        <time>2026-08-23T14:22:55.000Z</time>
      </trkpt>
      <trkpt lat="43.3323" lon="-1.41743">
        <ele>97</ele>
        <time>2026-08-23T14:22:59.000Z</time>
      </trkpt>
      <trkpt lat="43.33215" lon="-1.41731">
        <ele>96</ele>
        <time>2026-08-23T14:23:02.000Z</time>
      </trkpt>
      <trkpt lat="43.33211" lon="-1.41726">
        <ele>96</ele>
        <time>2026-08-23T14:23:03.000Z</time>
      </trkpt>
      <trkpt lat="43.33207" lon="-1.41713">
        <ele>95</ele>
        <time>2026-08-23T14:23:05.000Z</time>
      </trkpt>
      <trkpt lat="43.33205" lon="-1.41706">
        <ele>95</ele>
        <time>2026-08-23T14:23:06.000Z</time>
      </trkpt>
      <trkpt lat="43.33203" lon="-1.417">
        <ele>95</ele>
        <time>2026-08-23T14:23:07.000Z</time>
      </trkpt>
      <trkpt lat="43.332" lon="-1.41683">
        <ele>94</ele>
        <time>2026-08-23T14:23:09.000Z</time>
      </trkpt>
      <trkpt lat="43.332" lon="-1.41666">
        <ele>94</ele>
        <time>2026-08-23T14:23:11.000Z</time>
      </trkpt>
      <trkpt lat="43.332" lon="-1.41652">
        <ele>93</ele>
        <time>2026-08-23T14:23:13.000Z</time>
      </trkpt>
      <trkpt lat="43.33201" lon="-1.41636">
        <ele>93</ele>
        <time>2026-08-23T14:23:15.000Z</time>
      </trkpt>
      <trkpt lat="43.33203" lon="-1.4162">
        <ele>92</ele>
        <time>2026-08-23T14:23:17.000Z</time>
      </trkpt>
      <trkpt lat="43.33205" lon="-1.41602">
        <ele>92</ele>
        <time>2026-08-23T14:23:20.000Z</time>
      </trkpt>
      <trkpt lat="43.33209" lon="-1.41575">
        <ele>91</ele>
        <time>2026-08-23T14:23:23.000Z</time>
      </trkpt>
      <trkpt lat="43.33213" lon="-1.41555">
        <ele>90</ele>
        <time>2026-08-23T14:23:26.000Z</time>
      </trkpt>
      <trkpt lat="43.33217" lon="-1.41529">
        <ele>88</ele>
        <time>2026-08-23T14:23:29.000Z</time>
      </trkpt>
      <trkpt lat="43.3322" lon="-1.4151">
        <ele>87</ele>
        <time>2026-08-23T14:23:32.000Z</time>
      </trkpt>
      <trkpt lat="43.33221" lon="-1.41492">
        <ele>87</ele>
        <time>2026-08-23T14:23:34.000Z</time>
      </trkpt>
      <trkpt lat="43.33222" lon="-1.4147">
        <ele>86</ele>
        <time>2026-08-23T14:23:37.000Z</time>
      </trkpt>
      <trkpt lat="43.33224" lon="-1.4144">
        <ele>85</ele>
        <time>2026-08-23T14:23:41.000Z</time>
      </trkpt>
      <trkpt lat="43.33225" lon="-1.41412">
        <ele>84</ele>
        <time>2026-08-23T14:23:44.000Z</time>
      </trkpt>
      <trkpt lat="43.33225" lon="-1.4139">
        <ele>85</ele>
        <time>2026-08-23T14:23:47.000Z</time>
      </trkpt>
      <trkpt lat="43.33227" lon="-1.41372">
        <ele>86</ele>
        <time>2026-08-23T14:23:50.000Z</time>
      </trkpt>
      <trkpt lat="43.33227" lon="-1.41367">
        <ele>86</ele>
        <time>2026-08-23T14:23:50.000Z</time>
      </trkpt>
      <trkpt lat="43.33229" lon="-1.41356">
        <ele>87</ele>
        <time>2026-08-23T14:23:52.000Z</time>
      </trkpt>
      <trkpt lat="43.33232" lon="-1.41347">
        <ele>87</ele>
        <time>2026-08-23T14:23:53.000Z</time>
      </trkpt>
      <trkpt lat="43.33237" lon="-1.41335">
        <ele>89</ele>
        <time>2026-08-23T14:23:55.000Z</time>
      </trkpt>
      <trkpt lat="43.33241" lon="-1.41327">
        <ele>89</ele>
        <time>2026-08-23T14:23:56.000Z</time>
      </trkpt>
      <trkpt lat="43.33248" lon="-1.41315">
        <ele>91</ele>
        <time>2026-08-23T14:23:58.000Z</time>
      </trkpt>
      <trkpt lat="43.3326" lon="-1.41299">
        <ele>92</ele>
        <time>2026-08-23T14:24:01.000Z</time>
      </trkpt>
      <trkpt lat="43.33268" lon="-1.41289">
        <ele>92</ele>
        <time>2026-08-23T14:24:03.000Z</time>
      </trkpt>
      <trkpt lat="43.3327" lon="-1.41286">
        <ele>92</ele>
        <time>2026-08-23T14:24:03.000Z</time>
      </trkpt>
      <trkpt lat="43.33274" lon="-1.4128">
        <ele>93</ele>
        <time>2026-08-23T14:24:05.000Z</time>
      </trkpt>
      <trkpt lat="43.33276" lon="-1.41275">
        <ele>93</ele>
        <time>2026-08-23T14:24:05.000Z</time>
      </trkpt>
      <trkpt lat="43.33278" lon="-1.41268">
        <ele>93</ele>
        <time>2026-08-23T14:24:06.000Z</time>
      </trkpt>
      <trkpt lat="43.33281" lon="-1.41258">
        <ele>93</ele>
        <time>2026-08-23T14:24:08.000Z</time>
      </trkpt>
      <trkpt lat="43.33281" lon="-1.41245">
        <ele>94</ele>
        <time>2026-08-23T14:24:09.000Z</time>
      </trkpt>
      <trkpt lat="43.33281" lon="-1.41233">
        <ele>93</ele>
        <time>2026-08-23T14:24:11.000Z</time>
      </trkpt>
      <trkpt lat="43.3328" lon="-1.4122">
        <ele>93</ele>
        <time>2026-08-23T14:24:13.000Z</time>
      </trkpt>
      <trkpt lat="43.33277" lon="-1.41205">
        <ele>93</ele>
        <time>2026-08-23T14:24:15.000Z</time>
      </trkpt>
      <trkpt lat="43.33277" lon="-1.41199">
        <ele>93</ele>
        <time>2026-08-23T14:24:15.000Z</time>
      </trkpt>
      <trkpt lat="43.33274" lon="-1.41178">
        <ele>92</ele>
        <time>2026-08-23T14:24:18.000Z</time>
      </trkpt>
      <trkpt lat="43.33271" lon="-1.41143">
        <ele>92</ele>
        <time>2026-08-23T14:24:23.000Z</time>
      </trkpt>
      <trkpt lat="43.33268" lon="-1.41108">
        <ele>91</ele>
        <time>2026-08-23T14:24:27.000Z</time>
      </trkpt>
      <trkpt lat="43.33267" lon="-1.411">
        <ele>91</ele>
        <time>2026-08-23T14:24:28.000Z</time>
      </trkpt>
      <trkpt lat="43.33267" lon="-1.41093">
        <ele>90</ele>
        <time>2026-08-23T14:24:29.000Z</time>
      </trkpt>
      <trkpt lat="43.33267" lon="-1.41078">
        <ele>90</ele>
        <time>2026-08-23T14:24:31.000Z</time>
      </trkpt>
      <trkpt lat="43.33267" lon="-1.41076">
        <ele>90</ele>
        <time>2026-08-23T14:24:31.000Z</time>
      </trkpt>
      <trkpt lat="43.33267" lon="-1.41057">
        <ele>89</ele>
        <time>2026-08-23T14:24:34.000Z</time>
      </trkpt>
      <trkpt lat="43.33267" lon="-1.41038">
        <ele>89</ele>
        <time>2026-08-23T14:24:36.000Z</time>
      </trkpt>
      <trkpt lat="43.33266" lon="-1.41022">
        <ele>88</ele>
        <time>2026-08-23T14:24:38.000Z</time>
      </trkpt>
      <trkpt lat="43.33264" lon="-1.41008">
        <ele>88</ele>
        <time>2026-08-23T14:24:40.000Z</time>
      </trkpt>
      <trkpt lat="43.33264" lon="-1.41002">
        <ele>87</ele>
        <time>2026-08-23T14:24:41.000Z</time>
      </trkpt>
      <trkpt lat="43.33263" lon="-1.40991">
        <ele>87</ele>
        <time>2026-08-23T14:24:42.000Z</time>
      </trkpt>
      <trkpt lat="43.33262" lon="-1.40959">
        <ele>87</ele>
        <time>2026-08-23T14:24:47.000Z</time>
      </trkpt>
      <trkpt lat="43.33262" lon="-1.40947">
        <ele>87</ele>
        <time>2026-08-23T14:24:48.000Z</time>
      </trkpt>
      <trkpt lat="43.33264" lon="-1.40935">
        <ele>87</ele>
        <time>2026-08-23T14:24:50.000Z</time>
      </trkpt>
      <trkpt lat="43.3327" lon="-1.40907">
        <ele>86</ele>
        <time>2026-08-23T14:24:54.000Z</time>
      </trkpt>
      <trkpt lat="43.33274" lon="-1.40889">
        <ele>85</ele>
        <time>2026-08-23T14:24:56.000Z</time>
      </trkpt>
      <trkpt lat="43.33277" lon="-1.40879">
        <ele>84</ele>
        <time>2026-08-23T14:24:57.000Z</time>
      </trkpt>
      <trkpt lat="43.33278" lon="-1.40874">
        <ele>84</ele>
        <time>2026-08-23T14:24:58.000Z</time>
      </trkpt>
      <trkpt lat="43.33278" lon="-1.40874">
        <ele>84</ele>
        <time>2026-08-23T14:24:58.000Z</time>
      </trkpt>
      <trkpt lat="43.33289" lon="-1.40864">
        <ele>83</ele>
        <time>2026-08-23T14:25:00.000Z</time>
      </trkpt>
      <trkpt lat="43.33295" lon="-1.40858">
        <ele>82</ele>
        <time>2026-08-23T14:25:02.000Z</time>
      </trkpt>
      <trkpt lat="43.33301" lon="-1.40849">
        <ele>82</ele>
        <time>2026-08-23T14:25:03.000Z</time>
      </trkpt>
      <trkpt lat="43.33308" lon="-1.40839">
        <ele>81</ele>
        <time>2026-08-23T14:25:05.000Z</time>
      </trkpt>
      <trkpt lat="43.33317" lon="-1.40818">
        <ele>80</ele>
        <time>2026-08-23T14:25:08.000Z</time>
      </trkpt>
      <trkpt lat="43.33324" lon="-1.40805">
        <ele>80</ele>
        <time>2026-08-23T14:25:10.000Z</time>
      </trkpt>
      <trkpt lat="43.3333" lon="-1.40792">
        <ele>80</ele>
        <time>2026-08-23T14:25:12.000Z</time>
      </trkpt>
      <trkpt lat="43.33336" lon="-1.40782">
        <ele>80</ele>
        <time>2026-08-23T14:25:14.000Z</time>
      </trkpt>
      <trkpt lat="43.33344" lon="-1.4077">
        <ele>80</ele>
        <time>2026-08-23T14:25:16.000Z</time>
      </trkpt>
      <trkpt lat="43.33353" lon="-1.40756">
        <ele>80</ele>
        <time>2026-08-23T14:25:19.000Z</time>
      </trkpt>
      <trkpt lat="43.33365" lon="-1.40741">
        <ele>80</ele>
        <time>2026-08-23T14:25:21.000Z</time>
      </trkpt>
      <trkpt lat="43.33377" lon="-1.40726">
        <ele>80</ele>
        <time>2026-08-23T14:25:24.000Z</time>
      </trkpt>
      <trkpt lat="43.33383" lon="-1.40719">
        <ele>80</ele>
        <time>2026-08-23T14:25:26.000Z</time>
      </trkpt>
      <trkpt lat="43.33391" lon="-1.4071">
        <ele>80</ele>
        <time>2026-08-23T14:25:28.000Z</time>
      </trkpt>
      <trkpt lat="43.33403" lon="-1.40699">
        <ele>80</ele>
        <time>2026-08-23T14:25:30.000Z</time>
      </trkpt>
      <trkpt lat="43.33412" lon="-1.40693">
        <ele>80</ele>
        <time>2026-08-23T14:25:32.000Z</time>
      </trkpt>
      <trkpt lat="43.33426" lon="-1.40686">
        <ele>80</ele>
        <time>2026-08-23T14:25:35.000Z</time>
      </trkpt>
      <trkpt lat="43.33437" lon="-1.40681">
        <ele>80</ele>
        <time>2026-08-23T14:25:37.000Z</time>
      </trkpt>
      <trkpt lat="43.33441" lon="-1.40679">
        <ele>80</ele>
        <time>2026-08-23T14:25:37.000Z</time>
      </trkpt>
      <trkpt lat="43.33452" lon="-1.40677">
        <ele>80</ele>
        <time>2026-08-23T14:25:39.000Z</time>
      </trkpt>
      <trkpt lat="43.33459" lon="-1.40675">
        <ele>80</ele>
        <time>2026-08-23T14:25:41.000Z</time>
      </trkpt>
      <trkpt lat="43.33468" lon="-1.40675">
        <ele>80</ele>
        <time>2026-08-23T14:25:42.000Z</time>
      </trkpt>
      <trkpt lat="43.33473" lon="-1.40674">
        <ele>80</ele>
        <time>2026-08-23T14:25:43.000Z</time>
      </trkpt>
      <trkpt lat="43.33473" lon="-1.40674">
        <ele>80</ele>
        <time>2026-08-23T14:25:43.000Z</time>
      </trkpt>
      <trkpt lat="43.33474" lon="-1.4067">
        <ele>80</ele>
        <time>2026-08-23T14:25:44.000Z</time>
      </trkpt>
      <trkpt lat="43.33476" lon="-1.40666">
        <ele>80</ele>
        <time>2026-08-23T14:25:44.000Z</time>
      </trkpt>
      <trkpt lat="43.33479" lon="-1.40665">
        <ele>80</ele>
        <time>2026-08-23T14:25:45.000Z</time>
      </trkpt>
      <trkpt lat="43.33482" lon="-1.40665">
        <ele>80</ele>
        <time>2026-08-23T14:25:45.000Z</time>
      </trkpt>
      <trkpt lat="43.33484" lon="-1.40666">
        <ele>80</ele>
        <time>2026-08-23T14:25:46.000Z</time>
      </trkpt>
      <trkpt lat="43.33486" lon="-1.40669">
        <ele>80</ele>
        <time>2026-08-23T14:25:46.000Z</time>
      </trkpt>
      <trkpt lat="43.33487" lon="-1.40673">
        <ele>80</ele>
        <time>2026-08-23T14:25:47.000Z</time>
      </trkpt>
      <trkpt lat="43.33487" lon="-1.40676">
        <ele>80</ele>
        <time>2026-08-23T14:25:47.000Z</time>
      </trkpt>
      <trkpt lat="43.33487" lon="-1.40679">
        <ele>80</ele>
        <time>2026-08-23T14:25:48.000Z</time>
      </trkpt>
      <trkpt lat="43.33486" lon="-1.40682">
        <ele>80</ele>
        <time>2026-08-23T14:25:48.000Z</time>
      </trkpt>
      <trkpt lat="43.33482" lon="-1.40685">
        <ele>80</ele>
        <time>2026-08-23T14:25:49.000Z</time>
      </trkpt>
      <trkpt lat="43.33483" lon="-1.40691">
        <ele>80</ele>
        <time>2026-08-23T14:25:50.000Z</time>
      </trkpt>
      <trkpt lat="43.33485" lon="-1.40698">
        <ele>80</ele>
        <time>2026-08-23T14:25:51.000Z</time>
      </trkpt>
      <trkpt lat="43.33489" lon="-1.40704">
        <ele>80</ele>
        <time>2026-08-23T14:25:52.000Z</time>
      </trkpt>
      <trkpt lat="43.33495" lon="-1.40712">
        <ele>81</ele>
        <time>2026-08-23T14:25:53.000Z</time>
      </trkpt>
      <trkpt lat="43.33505" lon="-1.40725">
        <ele>81</ele>
        <time>2026-08-23T14:25:56.000Z</time>
      </trkpt>
      <trkpt lat="43.33523" lon="-1.40741">
        <ele>81</ele>
        <time>2026-08-23T14:25:59.000Z</time>
      </trkpt>
      <trkpt lat="43.3356" lon="-1.40777">
        <ele>82</ele>
        <time>2026-08-23T14:26:07.000Z</time>
      </trkpt>
      <trkpt lat="43.33573" lon="-1.40789">
        <ele>83</ele>
        <time>2026-08-23T14:26:10.000Z</time>
      </trkpt>
      <trkpt lat="43.33576" lon="-1.40791">
        <ele>83</ele>
        <time>2026-08-23T14:26:11.000Z</time>
      </trkpt>
      <trkpt lat="43.336" lon="-1.40806">
        <ele>84</ele>
        <time>2026-08-23T14:26:16.000Z</time>
      </trkpt>
      <trkpt lat="43.33602" lon="-1.40807">
        <ele>84</ele>
        <time>2026-08-23T14:26:16.000Z</time>
      </trkpt>
      <trkpt lat="43.33614" lon="-1.40814">
        <ele>85</ele>
        <time>2026-08-23T14:26:18.000Z</time>
      </trkpt>
      <trkpt lat="43.33621" lon="-1.40817">
        <ele>86</ele>
        <time>2026-08-23T14:26:20.000Z</time>
      </trkpt>
      <trkpt lat="43.33628" lon="-1.40818">
        <ele>86</ele>
        <time>2026-08-23T14:26:21.000Z</time>
      </trkpt>
      <trkpt lat="43.33641" lon="-1.40815">
        <ele>87</ele>
        <time>2026-08-23T14:26:23.000Z</time>
      </trkpt>
      <trkpt lat="43.3365" lon="-1.40812">
        <ele>87</ele>
        <time>2026-08-23T14:26:25.000Z</time>
      </trkpt>
      <trkpt lat="43.33656" lon="-1.40812">
        <ele>87</ele>
        <time>2026-08-23T14:26:26.000Z</time>
      </trkpt>
      <trkpt lat="43.3366" lon="-1.40813">
        <ele>88</ele>
        <time>2026-08-23T14:26:27.000Z</time>
      </trkpt>
      <trkpt lat="43.33671" lon="-1.40817">
        <ele>88</ele>
        <time>2026-08-23T14:26:29.000Z</time>
      </trkpt>
      <trkpt lat="43.33682" lon="-1.40822">
        <ele>89</ele>
        <time>2026-08-23T14:26:31.000Z</time>
      </trkpt>
      <trkpt lat="43.33704" lon="-1.40833">
        <ele>91</ele>
        <time>2026-08-23T14:26:35.000Z</time>
      </trkpt>
      <trkpt lat="43.33718" lon="-1.40838">
        <ele>92</ele>
        <time>2026-08-23T14:26:37.000Z</time>
      </trkpt>
      <trkpt lat="43.33718" lon="-1.40838">
        <ele>92</ele>
        <time>2026-08-23T14:26:37.000Z</time>
      </trkpt>
      <trkpt lat="43.33732" lon="-1.40842">
        <ele>93</ele>
        <time>2026-08-23T14:26:40.000Z</time>
      </trkpt>
      <trkpt lat="43.33752" lon="-1.40847">
        <ele>95</ele>
        <time>2026-08-23T14:26:44.000Z</time>
      </trkpt>
      <trkpt lat="43.33765" lon="-1.40849">
        <ele>96</ele>
        <time>2026-08-23T14:26:46.000Z</time>
      </trkpt>
      <trkpt lat="43.33777" lon="-1.4085">
        <ele>96</ele>
        <time>2026-08-23T14:26:48.000Z</time>
      </trkpt>
      <trkpt lat="43.33794" lon="-1.40845">
        <ele>97</ele>
        <time>2026-08-23T14:26:51.000Z</time>
      </trkpt>
      <trkpt lat="43.33803" lon="-1.40844">
        <ele>97</ele>
        <time>2026-08-23T14:26:53.000Z</time>
      </trkpt>
      <trkpt lat="43.33819" lon="-1.40842">
        <ele>98</ele>
        <time>2026-08-23T14:26:56.000Z</time>
      </trkpt>
      <trkpt lat="43.33837" lon="-1.40841">
        <ele>99</ele>
        <time>2026-08-23T14:26:59.000Z</time>
      </trkpt>
      <trkpt lat="43.33851" lon="-1.40841">
        <ele>99</ele>
        <time>2026-08-23T14:27:01.000Z</time>
      </trkpt>
      <trkpt lat="43.33859" lon="-1.40843">
        <ele>100</ele>
        <time>2026-08-23T14:27:03.000Z</time>
      </trkpt>
      <trkpt lat="43.33868" lon="-1.40846">
        <ele>101</ele>
        <time>2026-08-23T14:27:04.000Z</time>
      </trkpt>
      <trkpt lat="43.33876" lon="-1.40851">
        <ele>101</ele>
        <time>2026-08-23T14:27:06.000Z</time>
      </trkpt>
      <trkpt lat="43.33899" lon="-1.40868">
        <ele>105</ele>
        <time>2026-08-23T14:27:11.000Z</time>
      </trkpt>
      <trkpt lat="43.33912" lon="-1.40876">
        <ele>107</ele>
        <time>2026-08-23T14:27:13.000Z</time>
      </trkpt>
      <trkpt lat="43.33922" lon="-1.4088">
        <ele>108</ele>
        <time>2026-08-23T14:27:15.000Z</time>
      </trkpt>
      <trkpt lat="43.3393" lon="-1.40884">
        <ele>108</ele>
        <time>2026-08-23T14:27:16.000Z</time>
      </trkpt>
      <trkpt lat="43.33942" lon="-1.40886">
        <ele>108</ele>
        <time>2026-08-23T14:27:19.000Z</time>
      </trkpt>
      <trkpt lat="43.33958" lon="-1.40894">
        <ele>109</ele>
        <time>2026-08-23T14:27:22.000Z</time>
      </trkpt>
      <trkpt lat="43.33964" lon="-1.40897">
        <ele>109</ele>
        <time>2026-08-23T14:27:23.000Z</time>
      </trkpt>
      <trkpt lat="43.33964" lon="-1.40898">
        <ele>109</ele>
        <time>2026-08-23T14:27:23.000Z</time>
      </trkpt>
      <trkpt lat="43.3397" lon="-1.40902">
        <ele>109</ele>
        <time>2026-08-23T14:27:24.000Z</time>
      </trkpt>
      <trkpt lat="43.33974" lon="-1.40907">
        <ele>110</ele>
        <time>2026-08-23T14:27:25.000Z</time>
      </trkpt>
      <trkpt lat="43.33979" lon="-1.40917">
        <ele>110</ele>
        <time>2026-08-23T14:27:27.000Z</time>
      </trkpt>
      <trkpt lat="43.33987" lon="-1.40933">
        <ele>111</ele>
        <time>2026-08-23T14:27:29.000Z</time>
      </trkpt>
      <trkpt lat="43.33998" lon="-1.40954">
        <ele>111</ele>
        <time>2026-08-23T14:27:33.000Z</time>
      </trkpt>
      <trkpt lat="43.34008" lon="-1.40971">
        <ele>111</ele>
        <time>2026-08-23T14:27:35.000Z</time>
      </trkpt>
      <trkpt lat="43.34022" lon="-1.40991">
        <ele>110</ele>
        <time>2026-08-23T14:27:39.000Z</time>
      </trkpt>
      <trkpt lat="43.34035" lon="-1.41007">
        <ele>109</ele>
        <time>2026-08-23T14:27:42.000Z</time>
      </trkpt>
      <trkpt lat="43.34067" lon="-1.41043">
        <ele>106</ele>
        <time>2026-08-23T14:27:49.000Z</time>
      </trkpt>
      <trkpt lat="43.34093" lon="-1.41071">
        <ele>106</ele>
        <time>2026-08-23T14:27:55.000Z</time>
      </trkpt>
      <trkpt lat="43.34116" lon="-1.41095">
        <ele>106</ele>
        <time>2026-08-23T14:28:00.000Z</time>
      </trkpt>
      <trkpt lat="43.34123" lon="-1.41101">
        <ele>106</ele>
        <time>2026-08-23T14:28:02.000Z</time>
      </trkpt>
      <trkpt lat="43.34128" lon="-1.41105">
        <ele>105</ele>
        <time>2026-08-23T14:28:03.000Z</time>
      </trkpt>
      <trkpt lat="43.34134" lon="-1.41109">
        <ele>105</ele>
        <time>2026-08-23T14:28:04.000Z</time>
      </trkpt>
      <trkpt lat="43.34144" lon="-1.41114">
        <ele>105</ele>
        <time>2026-08-23T14:28:06.000Z</time>
      </trkpt>
      <trkpt lat="43.34161" lon="-1.41125">
        <ele>104</ele>
        <time>2026-08-23T14:28:09.000Z</time>
      </trkpt>
      <trkpt lat="43.34174" lon="-1.41133">
        <ele>103</ele>
        <time>2026-08-23T14:28:12.000Z</time>
      </trkpt>
      <trkpt lat="43.34181" lon="-1.41138">
        <ele>103</ele>
        <time>2026-08-23T14:28:13.000Z</time>
      </trkpt>
      <trkpt lat="43.342" lon="-1.41152">
        <ele>101</ele>
        <time>2026-08-23T14:28:17.000Z</time>
      </trkpt>
      <trkpt lat="43.3422" lon="-1.41168">
        <ele>100</ele>
        <time>2026-08-23T14:28:21.000Z</time>
      </trkpt>
      <trkpt lat="43.34238" lon="-1.41183">
        <ele>98</ele>
        <time>2026-08-23T14:28:25.000Z</time>
      </trkpt>
      <trkpt lat="43.34255" lon="-1.41198">
        <ele>97</ele>
        <time>2026-08-23T14:28:29.000Z</time>
      </trkpt>
      <trkpt lat="43.3427" lon="-1.41214">
        <ele>96</ele>
        <time>2026-08-23T14:28:32.000Z</time>
      </trkpt>
      <trkpt lat="43.34292" lon="-1.4124">
        <ele>94</ele>
        <time>2026-08-23T14:28:37.000Z</time>
      </trkpt>
      <trkpt lat="43.34304" lon="-1.41258">
        <ele>93</ele>
        <time>2026-08-23T14:28:40.000Z</time>
      </trkpt>
      <trkpt lat="43.34314" lon="-1.41273">
        <ele>93</ele>
        <time>2026-08-23T14:28:43.000Z</time>
      </trkpt>
      <trkpt lat="43.34321" lon="-1.41285">
        <ele>92</ele>
        <time>2026-08-23T14:28:45.000Z</time>
      </trkpt>
      <trkpt lat="43.34333" lon="-1.41309">
        <ele>91</ele>
        <time>2026-08-23T14:28:49.000Z</time>
      </trkpt>
      <trkpt lat="43.34344" lon="-1.41332">
        <ele>90</ele>
        <time>2026-08-23T14:28:52.000Z</time>
      </trkpt>
      <trkpt lat="43.34353" lon="-1.41358">
        <ele>87</ele>
        <time>2026-08-23T14:28:56.000Z</time>
      </trkpt>
      <trkpt lat="43.34362" lon="-1.41385">
        <ele>86</ele>
        <time>2026-08-23T14:29:00.000Z</time>
      </trkpt>
      <trkpt lat="43.34369" lon="-1.41422">
        <ele>83</ele>
        <time>2026-08-23T14:29:05.000Z</time>
      </trkpt>
      <trkpt lat="43.34374" lon="-1.41458">
        <ele>82</ele>
        <time>2026-08-23T14:29:09.000Z</time>
      </trkpt>
      <trkpt lat="43.3438" lon="-1.41483">
        <ele>82</ele>
        <time>2026-08-23T14:29:13.000Z</time>
      </trkpt>
      <trkpt lat="43.34387" lon="-1.41511">
        <ele>81</ele>
        <time>2026-08-23T14:29:17.000Z</time>
      </trkpt>
      <trkpt lat="43.34401" lon="-1.41554">
        <ele>80</ele>
        <time>2026-08-23T14:29:23.000Z</time>
      </trkpt>
      <trkpt lat="43.34416" lon="-1.41601">
        <ele>79</ele>
        <time>2026-08-23T14:29:29.000Z</time>
      </trkpt>
      <trkpt lat="43.34431" lon="-1.4165">
        <ele>78</ele>
        <time>2026-08-23T14:29:36.000Z</time>
      </trkpt>
      <trkpt lat="43.34441" lon="-1.41682">
        <ele>77</ele>
        <time>2026-08-23T14:29:41.000Z</time>
      </trkpt>
      <trkpt lat="43.34441" lon="-1.41682">
        <ele>77</ele>
        <time>2026-08-23T14:29:41.000Z</time>
      </trkpt>
      <trkpt lat="43.34456" lon="-1.41725">
        <ele>77</ele>
        <time>2026-08-23T14:29:47.000Z</time>
      </trkpt>
      <trkpt lat="43.3446" lon="-1.41733">
        <ele>76</ele>
        <time>2026-08-23T14:29:48.000Z</time>
      </trkpt>
      <trkpt lat="43.34463" lon="-1.4174">
        <ele>76</ele>
        <time>2026-08-23T14:29:49.000Z</time>
      </trkpt>
      <trkpt lat="43.34471" lon="-1.41751">
        <ele>76</ele>
        <time>2026-08-23T14:29:51.000Z</time>
      </trkpt>
      <trkpt lat="43.34499" lon="-1.41786">
        <ele>74</ele>
        <time>2026-08-23T14:29:58.000Z</time>
      </trkpt>
      <trkpt lat="43.34524" lon="-1.41816">
        <ele>73</ele>
        <time>2026-08-23T14:30:04.000Z</time>
      </trkpt>
      <trkpt lat="43.34529" lon="-1.41822">
        <ele>72</ele>
        <time>2026-08-23T14:30:05.000Z</time>
      </trkpt>
      <trkpt lat="43.34541" lon="-1.41834">
        <ele>72</ele>
        <time>2026-08-23T14:30:08.000Z</time>
      </trkpt>
      <trkpt lat="43.34544" lon="-1.41838">
        <ele>72</ele>
        <time>2026-08-23T14:30:09.000Z</time>
      </trkpt>
      <trkpt lat="43.34553" lon="-1.41849">
        <ele>72</ele>
        <time>2026-08-23T14:30:11.000Z</time>
      </trkpt>
      <trkpt lat="43.34575" lon="-1.4188">
        <ele>71</ele>
        <time>2026-08-23T14:30:16.000Z</time>
      </trkpt>
      <trkpt lat="43.34584" lon="-1.41895">
        <ele>71</ele>
        <time>2026-08-23T14:30:19.000Z</time>
      </trkpt>
      <trkpt lat="43.34589" lon="-1.41907">
        <ele>71</ele>
        <time>2026-08-23T14:30:21.000Z</time>
      </trkpt>
      <trkpt lat="43.34592" lon="-1.41919">
        <ele>70</ele>
        <time>2026-08-23T14:30:22.000Z</time>
      </trkpt>
      <trkpt lat="43.34599" lon="-1.41948">
        <ele>68</ele>
        <time>2026-08-23T14:30:26.000Z</time>
      </trkpt>
      <trkpt lat="43.34603" lon="-1.41967">
        <ele>66</ele>
        <time>2026-08-23T14:30:29.000Z</time>
      </trkpt>
      <trkpt lat="43.34604" lon="-1.41978">
        <ele>66</ele>
        <time>2026-08-23T14:30:30.000Z</time>
      </trkpt>
      <trkpt lat="43.34604" lon="-1.41988">
        <ele>65</ele>
        <time>2026-08-23T14:30:31.000Z</time>
      </trkpt>
      <trkpt lat="43.34602" lon="-1.41999">
        <ele>64</ele>
        <time>2026-08-23T14:30:33.000Z</time>
      </trkpt>
      <trkpt lat="43.346" lon="-1.42013">
        <ele>64</ele>
        <time>2026-08-23T14:30:35.000Z</time>
      </trkpt>
      <trkpt lat="43.34599" lon="-1.42027">
        <ele>64</ele>
        <time>2026-08-23T14:30:37.000Z</time>
      </trkpt>
      <trkpt lat="43.346" lon="-1.42038">
        <ele>64</ele>
        <time>2026-08-23T14:30:38.000Z</time>
      </trkpt>
      <trkpt lat="43.34604" lon="-1.42052">
        <ele>63</ele>
        <time>2026-08-23T14:30:40.000Z</time>
      </trkpt>
      <trkpt lat="43.34609" lon="-1.42062">
        <ele>63</ele>
        <time>2026-08-23T14:30:42.000Z</time>
      </trkpt>
      <trkpt lat="43.34623" lon="-1.42091">
        <ele>62</ele>
        <time>2026-08-23T14:30:46.000Z</time>
      </trkpt>
      <trkpt lat="43.34631" lon="-1.42107">
        <ele>62</ele>
        <time>2026-08-23T14:30:49.000Z</time>
      </trkpt>
      <trkpt lat="43.34635" lon="-1.42124">
        <ele>62</ele>
        <time>2026-08-23T14:30:51.000Z</time>
      </trkpt>
      <trkpt lat="43.34639" lon="-1.4215">
        <ele>63</ele>
        <time>2026-08-23T14:30:54.000Z</time>
      </trkpt>
      <trkpt lat="43.34641" lon="-1.42192">
        <ele>65</ele>
        <time>2026-08-23T14:31:00.000Z</time>
      </trkpt>
      <trkpt lat="43.34644" lon="-1.42232">
        <ele>68</ele>
        <time>2026-08-23T14:31:05.000Z</time>
      </trkpt>
      <trkpt lat="43.34648" lon="-1.42262">
        <ele>69</ele>
        <time>2026-08-23T14:31:09.000Z</time>
      </trkpt>
      <trkpt lat="43.3465" lon="-1.42278">
        <ele>70</ele>
        <time>2026-08-23T14:31:11.000Z</time>
      </trkpt>
      <trkpt lat="43.3465" lon="-1.42278">
        <ele>70</ele>
        <time>2026-08-23T14:31:11.000Z</time>
      </trkpt>
      <trkpt lat="43.34657" lon="-1.42289">
        <ele>71</ele>
        <time>2026-08-23T14:31:13.000Z</time>
      </trkpt>
      <trkpt lat="43.34665" lon="-1.42306">
        <ele>72</ele>
        <time>2026-08-23T14:31:16.000Z</time>
      </trkpt>
      <trkpt lat="43.34672" lon="-1.42323">
        <ele>72</ele>
        <time>2026-08-23T14:31:18.000Z</time>
      </trkpt>
      <trkpt lat="43.34676" lon="-1.42336">
        <ele>73</ele>
        <time>2026-08-23T14:31:20.000Z</time>
      </trkpt>
      <trkpt lat="43.3468" lon="-1.42348">
        <ele>73</ele>
        <time>2026-08-23T14:31:22.000Z</time>
      </trkpt>
      <trkpt lat="43.34684" lon="-1.42367">
        <ele>73</ele>
        <time>2026-08-23T14:31:24.000Z</time>
      </trkpt>
      <trkpt lat="43.3469" lon="-1.424">
        <ele>74</ele>
        <time>2026-08-23T14:31:29.000Z</time>
      </trkpt>
      <trkpt lat="43.34695" lon="-1.42428">
        <ele>74</ele>
        <time>2026-08-23T14:31:32.000Z</time>
      </trkpt>
      <trkpt lat="43.34697" lon="-1.42456">
        <ele>75</ele>
        <time>2026-08-23T14:31:36.000Z</time>
      </trkpt>
      <trkpt lat="43.34698" lon="-1.42475">
        <ele>75</ele>
        <time>2026-08-23T14:31:38.000Z</time>
      </trkpt>
      <trkpt lat="43.347" lon="-1.42506">
        <ele>75</ele>
        <time>2026-08-23T14:31:42.000Z</time>
      </trkpt>
      <trkpt lat="43.347" lon="-1.42512">
        <ele>75</ele>
        <time>2026-08-23T14:31:43.000Z</time>
      </trkpt>
      <trkpt lat="43.347" lon="-1.42519">
        <ele>75</ele>
        <time>2026-08-23T14:31:44.000Z</time>
      </trkpt>
      <trkpt lat="43.347" lon="-1.42531">
        <ele>75</ele>
        <time>2026-08-23T14:31:46.000Z</time>
      </trkpt>
      <trkpt lat="43.347" lon="-1.42531">
        <ele>75</ele>
        <time>2026-08-23T14:31:46.000Z</time>
      </trkpt>
      <trkpt lat="43.34702" lon="-1.42541">
        <ele>75</ele>
        <time>2026-08-23T14:31:47.000Z</time>
      </trkpt>
      <trkpt lat="43.34704" lon="-1.42549">
        <ele>74</ele>
        <time>2026-08-23T14:31:48.000Z</time>
      </trkpt>
      <trkpt lat="43.34707" lon="-1.42557">
        <ele>74</ele>
        <time>2026-08-23T14:31:49.000Z</time>
      </trkpt>
      <trkpt lat="43.34715" lon="-1.42577">
        <ele>73</ele>
        <time>2026-08-23T14:31:52.000Z</time>
      </trkpt>
      <trkpt lat="43.34716" lon="-1.42589">
        <ele>73</ele>
        <time>2026-08-23T14:31:54.000Z</time>
      </trkpt>
      <trkpt lat="43.34716" lon="-1.42597">
        <ele>73</ele>
        <time>2026-08-23T14:31:55.000Z</time>
      </trkpt>
      <trkpt lat="43.34715" lon="-1.42606">
        <ele>73</ele>
        <time>2026-08-23T14:31:56.000Z</time>
      </trkpt>
      <trkpt lat="43.34712" lon="-1.42619">
        <ele>73</ele>
        <time>2026-08-23T14:31:58.000Z</time>
      </trkpt>
      <trkpt lat="43.34706" lon="-1.42647">
        <ele>74</ele>
        <time>2026-08-23T14:32:02.000Z</time>
      </trkpt>
      <trkpt lat="43.34703" lon="-1.42664">
        <ele>74</ele>
        <time>2026-08-23T14:32:04.000Z</time>
      </trkpt>
      <trkpt lat="43.34704" lon="-1.42684">
        <ele>74</ele>
        <time>2026-08-23T14:32:06.000Z</time>
      </trkpt>
      <trkpt lat="43.34706" lon="-1.4272">
        <ele>75</ele>
        <time>2026-08-23T14:32:11.000Z</time>
      </trkpt>
      <trkpt lat="43.34708" lon="-1.42756">
        <ele>76</ele>
        <time>2026-08-23T14:32:16.000Z</time>
      </trkpt>
      <trkpt lat="43.34708" lon="-1.42775">
        <ele>77</ele>
        <time>2026-08-23T14:32:18.000Z</time>
      </trkpt>
      <trkpt lat="43.34707" lon="-1.42785">
        <ele>77</ele>
        <time>2026-08-23T14:32:19.000Z</time>
      </trkpt>
      <trkpt lat="43.34702" lon="-1.42798">
        <ele>77</ele>
        <time>2026-08-23T14:32:21.000Z</time>
      </trkpt>
      <trkpt lat="43.34697" lon="-1.42808">
        <ele>77</ele>
        <time>2026-08-23T14:32:23.000Z</time>
      </trkpt>
      <trkpt lat="43.3469" lon="-1.42818">
        <ele>77</ele>
        <time>2026-08-23T14:32:25.000Z</time>
      </trkpt>
      <trkpt lat="43.3468" lon="-1.42828">
        <ele>77</ele>
        <time>2026-08-23T14:32:27.000Z</time>
      </trkpt>
      <trkpt lat="43.34664" lon="-1.42844">
        <ele>78</ele>
        <time>2026-08-23T14:32:30.000Z</time>
      </trkpt>
      <trkpt lat="43.34643" lon="-1.42867">
        <ele>79</ele>
        <time>2026-08-23T14:32:35.000Z</time>
      </trkpt>
      <trkpt lat="43.34627" lon="-1.42885">
        <ele>80</ele>
        <time>2026-08-23T14:32:39.000Z</time>
      </trkpt>
      <trkpt lat="43.34609" lon="-1.42906">
        <ele>81</ele>
        <time>2026-08-23T14:32:43.000Z</time>
      </trkpt>
      <trkpt lat="43.34597" lon="-1.42922">
        <ele>82</ele>
        <time>2026-08-23T14:32:46.000Z</time>
      </trkpt>
      <trkpt lat="43.34586" lon="-1.42939">
        <ele>83</ele>
        <time>2026-08-23T14:32:49.000Z</time>
      </trkpt>
      <trkpt lat="43.34571" lon="-1.42969">
        <ele>85</ele>
        <time>2026-08-23T14:32:54.000Z</time>
      </trkpt>
      <trkpt lat="43.34562" lon="-1.42989">
        <ele>86</ele>
        <time>2026-08-23T14:32:57.000Z</time>
      </trkpt>
      <trkpt lat="43.34556" lon="-1.43004">
        <ele>87</ele>
        <time>2026-08-23T14:32:59.000Z</time>
      </trkpt>
      <trkpt lat="43.34548" lon="-1.43028">
        <ele>88</ele>
        <time>2026-08-23T14:33:02.000Z</time>
      </trkpt>
      <trkpt lat="43.34543" lon="-1.43043">
        <ele>89</ele>
        <time>2026-08-23T14:33:05.000Z</time>
      </trkpt>
      <trkpt lat="43.34536" lon="-1.43058">
        <ele>89</ele>
        <time>2026-08-23T14:33:07.000Z</time>
      </trkpt>
      <trkpt lat="43.34516" lon="-1.431">
        <ele>91</ele>
        <time>2026-08-23T14:33:13.000Z</time>
      </trkpt>
      <trkpt lat="43.34501" lon="-1.43135">
        <ele>91</ele>
        <time>2026-08-23T14:33:19.000Z</time>
      </trkpt>
      <trkpt lat="43.34496" lon="-1.43148">
        <ele>91</ele>
        <time>2026-08-23T14:33:21.000Z</time>
      </trkpt>
      <trkpt lat="43.34485" lon="-1.43176">
        <ele>92</ele>
        <time>2026-08-23T14:33:25.000Z</time>
      </trkpt>
      <trkpt lat="43.34485" lon="-1.43179">
        <ele>92</ele>
        <time>2026-08-23T14:33:25.000Z</time>
      </trkpt>
      <trkpt lat="43.34481" lon="-1.43195">
        <ele>92</ele>
        <time>2026-08-23T14:33:27.000Z</time>
      </trkpt>
      <trkpt lat="43.34478" lon="-1.43211">
        <ele>92</ele>
        <time>2026-08-23T14:33:29.000Z</time>
      </trkpt>
      <trkpt lat="43.34476" lon="-1.43222">
        <ele>92</ele>
        <time>2026-08-23T14:33:31.000Z</time>
      </trkpt>
      <trkpt lat="43.34473" lon="-1.43233">
        <ele>92</ele>
        <time>2026-08-23T14:33:32.000Z</time>
      </trkpt>
      <trkpt lat="43.3447" lon="-1.43244">
        <ele>92</ele>
        <time>2026-08-23T14:33:34.000Z</time>
      </trkpt>
      <trkpt lat="43.34463" lon="-1.43259">
        <ele>92</ele>
        <time>2026-08-23T14:33:36.000Z</time>
      </trkpt>
      <trkpt lat="43.34456" lon="-1.43273">
        <ele>92</ele>
        <time>2026-08-23T14:33:38.000Z</time>
      </trkpt>
      <trkpt lat="43.34447" lon="-1.43289">
        <ele>93</ele>
        <time>2026-08-23T14:33:41.000Z</time>
      </trkpt>
      <trkpt lat="43.34437" lon="-1.43303">
        <ele>93</ele>
        <time>2026-08-23T14:33:44.000Z</time>
      </trkpt>
      <trkpt lat="43.34423" lon="-1.43323">
        <ele>94</ele>
        <time>2026-08-23T14:33:47.000Z</time>
      </trkpt>
      <trkpt lat="43.34397" lon="-1.4336">
        <ele>96</ele>
        <time>2026-08-23T14:33:54.000Z</time>
      </trkpt>
      <trkpt lat="43.34379" lon="-1.43385">
        <ele>98</ele>
        <time>2026-08-23T14:33:58.000Z</time>
      </trkpt>
      <trkpt lat="43.34371" lon="-1.43397">
        <ele>99</ele>
        <time>2026-08-23T14:34:00.000Z</time>
      </trkpt>
      <trkpt lat="43.34364" lon="-1.43408">
        <ele>100</ele>
        <time>2026-08-23T14:34:02.000Z</time>
      </trkpt>
      <trkpt lat="43.34359" lon="-1.4342">
        <ele>100</ele>
        <time>2026-08-23T14:34:04.000Z</time>
      </trkpt>
      <trkpt lat="43.34354" lon="-1.43433">
        <ele>100</ele>
        <time>2026-08-23T14:34:06.000Z</time>
      </trkpt>
      <trkpt lat="43.34362" lon="-1.43497">
        <ele>99</ele>
        <time>2026-08-23T14:34:14.000Z</time>
      </trkpt>
      <trkpt lat="43.34367" lon="-1.4354">
        <ele>97</ele>
        <time>2026-08-23T14:34:20.000Z</time>
      </trkpt>
      <trkpt lat="43.34369" lon="-1.43562">
        <ele>97</ele>
        <time>2026-08-23T14:34:23.000Z</time>
      </trkpt>
      <trkpt lat="43.3437" lon="-1.43585">
        <ele>96</ele>
        <time>2026-08-23T14:34:26.000Z</time>
      </trkpt>
      <trkpt lat="43.34372" lon="-1.43611">
        <ele>96</ele>
        <time>2026-08-23T14:34:29.000Z</time>
      </trkpt>
      <trkpt lat="43.34375" lon="-1.43634">
        <ele>96</ele>
        <time>2026-08-23T14:34:32.000Z</time>
      </trkpt>
      <trkpt lat="43.34379" lon="-1.43644">
        <ele>95</ele>
        <time>2026-08-23T14:34:34.000Z</time>
      </trkpt>
      <trkpt lat="43.34382" lon="-1.43653">
        <ele>95</ele>
        <time>2026-08-23T14:34:35.000Z</time>
      </trkpt>
      <trkpt lat="43.34391" lon="-1.43669">
        <ele>95</ele>
        <time>2026-08-23T14:34:38.000Z</time>
      </trkpt>
      <trkpt lat="43.344" lon="-1.43683">
        <ele>95</ele>
        <time>2026-08-23T14:34:40.000Z</time>
      </trkpt>
      <trkpt lat="43.34406" lon="-1.43693">
        <ele>94</ele>
        <time>2026-08-23T14:34:42.000Z</time>
      </trkpt>
      <trkpt lat="43.34406" lon="-1.43693">
        <ele>94</ele>
        <time>2026-08-23T14:34:42.000Z</time>
      </trkpt>
      <trkpt lat="43.34413" lon="-1.437">
        <ele>94</ele>
        <time>2026-08-23T14:34:43.000Z</time>
      </trkpt>
      <trkpt lat="43.3443" lon="-1.43718">
        <ele>94</ele>
        <time>2026-08-23T14:34:47.000Z</time>
      </trkpt>
      <trkpt lat="43.34444" lon="-1.43734">
        <ele>95</ele>
        <time>2026-08-23T14:34:50.000Z</time>
      </trkpt>
      <trkpt lat="43.34451" lon="-1.43745">
        <ele>95</ele>
        <time>2026-08-23T14:34:52.000Z</time>
      </trkpt>
      <trkpt lat="43.34451" lon="-1.43745">
        <ele>95</ele>
        <time>2026-08-23T14:34:52.000Z</time>
      </trkpt>
      <trkpt lat="43.34445" lon="-1.43749">
        <ele>95</ele>
        <time>2026-08-23T14:34:53.000Z</time>
      </trkpt>
      <trkpt lat="43.34434" lon="-1.43757">
        <ele>94</ele>
        <time>2026-08-23T14:34:56.000Z</time>
      </trkpt>
      <trkpt lat="43.34426" lon="-1.43764">
        <ele>93</ele>
        <time>2026-08-23T14:34:57.000Z</time>
      </trkpt>
      <trkpt lat="43.34419" lon="-1.43772">
        <ele>93</ele>
        <time>2026-08-23T14:34:59.000Z</time>
      </trkpt>
      <trkpt lat="43.34411" lon="-1.43782">
        <ele>92</ele>
        <time>2026-08-23T14:35:01.000Z</time>
      </trkpt>
      <trkpt lat="43.34405" lon="-1.4379">
        <ele>92</ele>
        <time>2026-08-23T14:35:02.000Z</time>
      </trkpt>
      <trkpt lat="43.34396" lon="-1.43804">
        <ele>91</ele>
        <time>2026-08-23T14:35:05.000Z</time>
      </trkpt>
      <trkpt lat="43.34386" lon="-1.43824">
        <ele>90</ele>
        <time>2026-08-23T14:35:08.000Z</time>
      </trkpt>
      <trkpt lat="43.34374" lon="-1.43853">
        <ele>89</ele>
        <time>2026-08-23T14:35:12.000Z</time>
      </trkpt>
      <trkpt lat="43.34371" lon="-1.43863">
        <ele>89</ele>
        <time>2026-08-23T14:35:14.000Z</time>
      </trkpt>
      <trkpt lat="43.34364" lon="-1.43887">
        <ele>88</ele>
        <time>2026-08-23T14:35:17.000Z</time>
      </trkpt>
      <trkpt lat="43.34358" lon="-1.43908">
        <ele>87</ele>
        <time>2026-08-23T14:35:20.000Z</time>
      </trkpt>
      <trkpt lat="43.34352" lon="-1.43929">
        <ele>86</ele>
        <time>2026-08-23T14:35:23.000Z</time>
      </trkpt>
      <trkpt lat="43.34346" lon="-1.43944">
        <ele>85</ele>
        <time>2026-08-23T14:35:25.000Z</time>
      </trkpt>
      <trkpt lat="43.3434" lon="-1.43957">
        <ele>83</ele>
        <time>2026-08-23T14:35:27.000Z</time>
      </trkpt>
      <trkpt lat="43.34334" lon="-1.4397">
        <ele>82</ele>
        <time>2026-08-23T14:35:29.000Z</time>
      </trkpt>
      <trkpt lat="43.34328" lon="-1.43979">
        <ele>81</ele>
        <time>2026-08-23T14:35:31.000Z</time>
      </trkpt>
      <trkpt lat="43.34317" lon="-1.43995">
        <ele>81</ele>
        <time>2026-08-23T14:35:34.000Z</time>
      </trkpt>
      <trkpt lat="43.34306" lon="-1.44009">
        <ele>80</ele>
        <time>2026-08-23T14:35:36.000Z</time>
      </trkpt>
      <trkpt lat="43.34288" lon="-1.44031">
        <ele>79</ele>
        <time>2026-08-23T14:35:40.000Z</time>
      </trkpt>
      <trkpt lat="43.34267" lon="-1.44058">
        <ele>78</ele>
        <time>2026-08-23T14:35:46.000Z</time>
      </trkpt>
      <trkpt lat="43.34256" lon="-1.44071">
        <ele>77</ele>
        <time>2026-08-23T14:35:48.000Z</time>
      </trkpt>
      <trkpt lat="43.34247" lon="-1.44084">
        <ele>76</ele>
        <time>2026-08-23T14:35:50.000Z</time>
      </trkpt>
      <trkpt lat="43.34239" lon="-1.44098">
        <ele>76</ele>
        <time>2026-08-23T14:35:53.000Z</time>
      </trkpt>
      <trkpt lat="43.34231" lon="-1.4411">
        <ele>75</ele>
        <time>2026-08-23T14:35:55.000Z</time>
      </trkpt>
      <trkpt lat="43.34223" lon="-1.44124">
        <ele>75</ele>
        <time>2026-08-23T14:35:57.000Z</time>
      </trkpt>
      <trkpt lat="43.34215" lon="-1.44139">
        <ele>74</ele>
        <time>2026-08-23T14:36:00.000Z</time>
      </trkpt>
      <trkpt lat="43.34209" lon="-1.44151">
        <ele>73</ele>
        <time>2026-08-23T14:36:01.000Z</time>
      </trkpt>
      <trkpt lat="43.34203" lon="-1.44167">
        <ele>73</ele>
        <time>2026-08-23T14:36:04.000Z</time>
      </trkpt>
      <trkpt lat="43.34197" lon="-1.44182">
        <ele>72</ele>
        <time>2026-08-23T14:36:06.000Z</time>
      </trkpt>
      <trkpt lat="43.34192" lon="-1.442">
        <ele>71</ele>
        <time>2026-08-23T14:36:09.000Z</time>
      </trkpt>
      <trkpt lat="43.34185" lon="-1.44219">
        <ele>70</ele>
        <time>2026-08-23T14:36:11.000Z</time>
      </trkpt>
      <trkpt lat="43.34181" lon="-1.44229">
        <ele>70</ele>
        <time>2026-08-23T14:36:13.000Z</time>
      </trkpt>
      <trkpt lat="43.34178" lon="-1.44237">
        <ele>70</ele>
        <time>2026-08-23T14:36:14.000Z</time>
      </trkpt>
      <trkpt lat="43.34168" lon="-1.44251">
        <ele>69</ele>
        <time>2026-08-23T14:36:16.000Z</time>
      </trkpt>
      <trkpt lat="43.34156" lon="-1.44269">
        <ele>68</ele>
        <time>2026-08-23T14:36:20.000Z</time>
      </trkpt>
      <trkpt lat="43.34143" lon="-1.44286">
        <ele>66</ele>
        <time>2026-08-23T14:36:23.000Z</time>
      </trkpt>
      <trkpt lat="43.3413" lon="-1.44301">
        <ele>65</ele>
        <time>2026-08-23T14:36:26.000Z</time>
      </trkpt>
      <trkpt lat="43.34122" lon="-1.44307">
        <ele>65</ele>
        <time>2026-08-23T14:36:27.000Z</time>
      </trkpt>
      <trkpt lat="43.34113" lon="-1.44314">
        <ele>64</ele>
        <time>2026-08-23T14:36:29.000Z</time>
      </trkpt>
      <trkpt lat="43.34104" lon="-1.4432">
        <ele>64</ele>
        <time>2026-08-23T14:36:31.000Z</time>
      </trkpt>
      <trkpt lat="43.34101" lon="-1.44323">
        <ele>64</ele>
        <time>2026-08-23T14:36:32.000Z</time>
      </trkpt>
      <trkpt lat="43.34089" lon="-1.44329">
        <ele>63</ele>
        <time>2026-08-23T14:36:34.000Z</time>
      </trkpt>
      <trkpt lat="43.34079" lon="-1.44333">
        <ele>63</ele>
        <time>2026-08-23T14:36:36.000Z</time>
      </trkpt>
      <trkpt lat="43.3407" lon="-1.44337">
        <ele>63</ele>
        <time>2026-08-23T14:36:38.000Z</time>
      </trkpt>
      <trkpt lat="43.34057" lon="-1.4434">
        <ele>63</ele>
        <time>2026-08-23T14:36:40.000Z</time>
      </trkpt>
      <trkpt lat="43.34044" lon="-1.44345">
        <ele>62</ele>
        <time>2026-08-23T14:36:42.000Z</time>
      </trkpt>
      <trkpt lat="43.34028" lon="-1.44353">
        <ele>62</ele>
        <time>2026-08-23T14:36:45.000Z</time>
      </trkpt>
      <trkpt lat="43.34019" lon="-1.44358">
        <ele>62</ele>
        <time>2026-08-23T14:36:47.000Z</time>
      </trkpt>
      <trkpt lat="43.3401" lon="-1.44365">
        <ele>62</ele>
        <time>2026-08-23T14:36:49.000Z</time>
      </trkpt>
      <trkpt lat="43.34" lon="-1.44374">
        <ele>62</ele>
        <time>2026-08-23T14:36:51.000Z</time>
      </trkpt>
      <trkpt lat="43.33993" lon="-1.44381">
        <ele>62</ele>
        <time>2026-08-23T14:36:53.000Z</time>
      </trkpt>
      <trkpt lat="43.33984" lon="-1.44394">
        <ele>62</ele>
        <time>2026-08-23T14:36:55.000Z</time>
      </trkpt>
      <trkpt lat="43.33973" lon="-1.44411">
        <ele>61</ele>
        <time>2026-08-23T14:36:58.000Z</time>
      </trkpt>
      <trkpt lat="43.33972" lon="-1.44417">
        <ele>61</ele>
        <time>2026-08-23T14:36:59.000Z</time>
      </trkpt>
      <trkpt lat="43.33966" lon="-1.44434">
        <ele>62</ele>
        <time>2026-08-23T14:37:01.000Z</time>
      </trkpt>
      <trkpt lat="43.33962" lon="-1.44448">
        <ele>63</ele>
        <time>2026-08-23T14:37:03.000Z</time>
      </trkpt>
      <trkpt lat="43.33951" lon="-1.44484">
        <ele>65</ele>
        <time>2026-08-23T14:37:08.000Z</time>
      </trkpt>
      <trkpt lat="43.33949" lon="-1.44491">
        <ele>65</ele>
        <time>2026-08-23T14:37:09.000Z</time>
      </trkpt>
      <trkpt lat="43.33947" lon="-1.44496">
        <ele>66</ele>
        <time>2026-08-23T14:37:10.000Z</time>
      </trkpt>
      <trkpt lat="43.33944" lon="-1.44501">
        <ele>66</ele>
        <time>2026-08-23T14:37:11.000Z</time>
      </trkpt>
      <trkpt lat="43.33941" lon="-1.44506">
        <ele>67</ele>
        <time>2026-08-23T14:37:11.000Z</time>
      </trkpt>
      <trkpt lat="43.33939" lon="-1.44508">
        <ele>67</ele>
        <time>2026-08-23T14:37:12.000Z</time>
      </trkpt>
      <trkpt lat="43.33937" lon="-1.44511">
        <ele>67</ele>
        <time>2026-08-23T14:37:12.000Z</time>
      </trkpt>
      <trkpt lat="43.33934" lon="-1.44513">
        <ele>67</ele>
        <time>2026-08-23T14:37:13.000Z</time>
      </trkpt>
      <trkpt lat="43.3393" lon="-1.44517">
        <ele>68</ele>
        <time>2026-08-23T14:37:14.000Z</time>
      </trkpt>
      <trkpt lat="43.33918" lon="-1.44525">
        <ele>68</ele>
        <time>2026-08-23T14:37:16.000Z</time>
      </trkpt>
      <trkpt lat="43.33911" lon="-1.4453">
        <ele>69</ele>
        <time>2026-08-23T14:37:18.000Z</time>
      </trkpt>
      <trkpt lat="43.33899" lon="-1.44535">
        <ele>71</ele>
        <time>2026-08-23T14:37:20.000Z</time>
      </trkpt>
      <trkpt lat="43.33891" lon="-1.44539">
        <ele>71</ele>
        <time>2026-08-23T14:37:21.000Z</time>
      </trkpt>
      <trkpt lat="43.33881" lon="-1.44546">
        <ele>73</ele>
        <time>2026-08-23T14:37:23.000Z</time>
      </trkpt>
      <trkpt lat="43.33874" lon="-1.44552">
        <ele>74</ele>
        <time>2026-08-23T14:37:25.000Z</time>
      </trkpt>
      <trkpt lat="43.33867" lon="-1.44559">
        <ele>75</ele>
        <time>2026-08-23T14:37:26.000Z</time>
      </trkpt>
      <trkpt lat="43.33861" lon="-1.44567">
        <ele>76</ele>
        <time>2026-08-23T14:37:28.000Z</time>
      </trkpt>
      <trkpt lat="43.33856" lon="-1.44576">
        <ele>77</ele>
        <time>2026-08-23T14:37:29.000Z</time>
      </trkpt>
      <trkpt lat="43.33851" lon="-1.44588">
        <ele>78</ele>
        <time>2026-08-23T14:37:31.000Z</time>
      </trkpt>
      <trkpt lat="43.33849" lon="-1.44595">
        <ele>78</ele>
        <time>2026-08-23T14:37:32.000Z</time>
      </trkpt>
      <trkpt lat="43.33847" lon="-1.44604">
        <ele>78</ele>
        <time>2026-08-23T14:37:33.000Z</time>
      </trkpt>
      <trkpt lat="43.33846" lon="-1.44613">
        <ele>78</ele>
        <time>2026-08-23T14:37:35.000Z</time>
      </trkpt>
      <trkpt lat="43.33845" lon="-1.44622">
        <ele>78</ele>
        <time>2026-08-23T14:37:36.000Z</time>
      </trkpt>
      <trkpt lat="43.33844" lon="-1.44639">
        <ele>79</ele>
        <time>2026-08-23T14:37:38.000Z</time>
      </trkpt>
      <trkpt lat="43.33844" lon="-1.4465">
        <ele>79</ele>
        <time>2026-08-23T14:37:39.000Z</time>
      </trkpt>
      <trkpt lat="43.33845" lon="-1.44651">
        <ele>79</ele>
        <time>2026-08-23T14:37:40.000Z</time>
      </trkpt>
      <trkpt lat="43.33845" lon="-1.44652">
        <ele>79</ele>
        <time>2026-08-23T14:37:40.000Z</time>
      </trkpt>
      <trkpt lat="43.33846" lon="-1.44653">
        <ele>79</ele>
        <time>2026-08-23T14:37:40.000Z</time>
      </trkpt>
      <trkpt lat="43.33846" lon="-1.44654">
        <ele>79</ele>
        <time>2026-08-23T14:37:40.000Z</time>
      </trkpt>
      <trkpt lat="43.33846" lon="-1.44655">
        <ele>79</ele>
        <time>2026-08-23T14:37:40.000Z</time>
      </trkpt>
      <trkpt lat="43.33847" lon="-1.44655">
        <ele>79</ele>
        <time>2026-08-23T14:37:40.000Z</time>
      </trkpt>
      <trkpt lat="43.33847" lon="-1.44656">
        <ele>79</ele>
        <time>2026-08-23T14:37:40.000Z</time>
      </trkpt>
      <trkpt lat="43.33847" lon="-1.44657">
        <ele>79</ele>
        <time>2026-08-23T14:37:41.000Z</time>
      </trkpt>
      <trkpt lat="43.33847" lon="-1.44658">
        <ele>79</ele>
        <time>2026-08-23T14:37:41.000Z</time>
      </trkpt>
      <trkpt lat="43.33847" lon="-1.44659">
        <ele>79</ele>
        <time>2026-08-23T14:37:41.000Z</time>
      </trkpt>
      <trkpt lat="43.33847" lon="-1.4466">
        <ele>79</ele>
        <time>2026-08-23T14:37:41.000Z</time>
      </trkpt>
      <trkpt lat="43.33847" lon="-1.44661">
        <ele>79</ele>
        <time>2026-08-23T14:37:41.000Z</time>
      </trkpt>
      <trkpt lat="43.33847" lon="-1.44662">
        <ele>79</ele>
        <time>2026-08-23T14:37:41.000Z</time>
      </trkpt>
      <trkpt lat="43.33847" lon="-1.44663">
        <ele>79</ele>
        <time>2026-08-23T14:37:41.000Z</time>
      </trkpt>
      <trkpt lat="43.33846" lon="-1.44664">
        <ele>79</ele>
        <time>2026-08-23T14:37:42.000Z</time>
      </trkpt>
      <trkpt lat="43.33846" lon="-1.44665">
        <ele>79</ele>
        <time>2026-08-23T14:37:42.000Z</time>
      </trkpt>
      <trkpt lat="43.33846" lon="-1.44666">
        <ele>79</ele>
        <time>2026-08-23T14:37:42.000Z</time>
      </trkpt>
      <trkpt lat="43.33845" lon="-1.44667">
        <ele>79</ele>
        <time>2026-08-23T14:37:42.000Z</time>
      </trkpt>
      <trkpt lat="43.33845" lon="-1.44668">
        <ele>79</ele>
        <time>2026-08-23T14:37:42.000Z</time>
      </trkpt>
      <trkpt lat="43.33844" lon="-1.44669">
        <ele>79</ele>
        <time>2026-08-23T14:37:42.000Z</time>
      </trkpt>
      <trkpt lat="43.33843" lon="-1.4467">
        <ele>79</ele>
        <time>2026-08-23T14:37:43.000Z</time>
      </trkpt>
      <trkpt lat="43.33843" lon="-1.44671">
        <ele>79</ele>
        <time>2026-08-23T14:37:43.000Z</time>
      </trkpt>
      <trkpt lat="43.33842" lon="-1.44671">
        <ele>79</ele>
        <time>2026-08-23T14:37:43.000Z</time>
      </trkpt>
      <trkpt lat="43.33843" lon="-1.4469">
        <ele>78</ele>
        <time>2026-08-23T14:37:45.000Z</time>
      </trkpt>
      <trkpt lat="43.33843" lon="-1.44697">
        <ele>78</ele>
        <time>2026-08-23T14:37:46.000Z</time>
      </trkpt>
      <trkpt lat="43.33842" lon="-1.44699">
        <ele>78</ele>
        <time>2026-08-23T14:37:47.000Z</time>
      </trkpt>
      <trkpt lat="43.3384" lon="-1.44707">
        <ele>78</ele>
        <time>2026-08-23T14:37:48.000Z</time>
      </trkpt>
      <trkpt lat="43.33841" lon="-1.4474">
        <ele>77</ele>
        <time>2026-08-23T14:37:52.000Z</time>
      </trkpt>
      <trkpt lat="43.33842" lon="-1.44774">
        <ele>76</ele>
        <time>2026-08-23T14:37:56.000Z</time>
      </trkpt>
      <trkpt lat="43.33841" lon="-1.44801">
        <ele>75</ele>
        <time>2026-08-23T14:38:00.000Z</time>
      </trkpt>
      <trkpt lat="43.33842" lon="-1.44818">
        <ele>74</ele>
        <time>2026-08-23T14:38:02.000Z</time>
      </trkpt>
      <trkpt lat="43.33842" lon="-1.44832">
        <ele>73</ele>
        <time>2026-08-23T14:38:04.000Z</time>
      </trkpt>
      <trkpt lat="43.33843" lon="-1.44843">
        <ele>73</ele>
        <time>2026-08-23T14:38:05.000Z</time>
      </trkpt>
      <trkpt lat="43.33845" lon="-1.44855">
        <ele>73</ele>
        <time>2026-08-23T14:38:07.000Z</time>
      </trkpt>
      <trkpt lat="43.33849" lon="-1.44868">
        <ele>73</ele>
        <time>2026-08-23T14:38:09.000Z</time>
      </trkpt>
      <trkpt lat="43.33854" lon="-1.44883">
        <ele>73</ele>
        <time>2026-08-23T14:38:11.000Z</time>
      </trkpt>
      <trkpt lat="43.33859" lon="-1.44894">
        <ele>73</ele>
        <time>2026-08-23T14:38:13.000Z</time>
      </trkpt>
      <trkpt lat="43.33866" lon="-1.4491">
        <ele>72</ele>
        <time>2026-08-23T14:38:15.000Z</time>
      </trkpt>
      <trkpt lat="43.33879" lon="-1.44932">
        <ele>71</ele>
        <time>2026-08-23T14:38:19.000Z</time>
      </trkpt>
      <trkpt lat="43.33896" lon="-1.44961">
        <ele>70</ele>
        <time>2026-08-23T14:38:23.000Z</time>
      </trkpt>
      <trkpt lat="43.33953" lon="-1.45059">
        <ele>67</ele>
        <time>2026-08-23T14:38:40.000Z</time>
      </trkpt>
      <trkpt lat="43.33986" lon="-1.45117">
        <ele>63</ele>
        <time>2026-08-23T14:38:49.000Z</time>
      </trkpt>
      <trkpt lat="43.33995" lon="-1.45125">
        <ele>62</ele>
        <time>2026-08-23T14:38:51.000Z</time>
      </trkpt>
      <trkpt lat="43.33998" lon="-1.45128">
        <ele>62</ele>
        <time>2026-08-23T14:38:52.000Z</time>
      </trkpt>
      <trkpt lat="43.34007" lon="-1.45132">
        <ele>62</ele>
        <time>2026-08-23T14:38:54.000Z</time>
      </trkpt>
      <trkpt lat="43.34007" lon="-1.45132">
        <ele>62</ele>
        <time>2026-08-23T14:38:54.000Z</time>
      </trkpt>
      <trkpt lat="43.34008" lon="-1.45132">
        <ele>62</ele>
        <time>2026-08-23T14:38:54.000Z</time>
      </trkpt>
      <trkpt lat="43.34009" lon="-1.45133">
        <ele>62</ele>
        <time>2026-08-23T14:38:54.000Z</time>
      </trkpt>
      <trkpt lat="43.3401" lon="-1.45133">
        <ele>62</ele>
        <time>2026-08-23T14:38:54.000Z</time>
      </trkpt>
      <trkpt lat="43.34011" lon="-1.45134">
        <ele>62</ele>
        <time>2026-08-23T14:38:54.000Z</time>
      </trkpt>
      <trkpt lat="43.34012" lon="-1.45135">
        <ele>62</ele>
        <time>2026-08-23T14:38:55.000Z</time>
      </trkpt>
      <trkpt lat="43.34013" lon="-1.45135">
        <ele>62</ele>
        <time>2026-08-23T14:38:55.000Z</time>
      </trkpt>
      <trkpt lat="43.34013" lon="-1.45136">
        <ele>62</ele>
        <time>2026-08-23T14:38:55.000Z</time>
      </trkpt>
      <trkpt lat="43.34014" lon="-1.45136">
        <ele>62</ele>
        <time>2026-08-23T14:38:55.000Z</time>
      </trkpt>
      <trkpt lat="43.34015" lon="-1.45137">
        <ele>62</ele>
        <time>2026-08-23T14:38:55.000Z</time>
      </trkpt>
      <trkpt lat="43.34015" lon="-1.45138">
        <ele>62</ele>
        <time>2026-08-23T14:38:55.000Z</time>
      </trkpt>
      <trkpt lat="43.34016" lon="-1.45139">
        <ele>62</ele>
        <time>2026-08-23T14:38:56.000Z</time>
      </trkpt>
      <trkpt lat="43.34016" lon="-1.4514">
        <ele>62</ele>
        <time>2026-08-23T14:38:56.000Z</time>
      </trkpt>
      <trkpt lat="43.34017" lon="-1.45141">
        <ele>62</ele>
        <time>2026-08-23T14:38:56.000Z</time>
      </trkpt>
      <trkpt lat="43.34017" lon="-1.45142">
        <ele>62</ele>
        <time>2026-08-23T14:38:56.000Z</time>
      </trkpt>
      <trkpt lat="43.34018" lon="-1.45143">
        <ele>62</ele>
        <time>2026-08-23T14:38:56.000Z</time>
      </trkpt>
      <trkpt lat="43.34018" lon="-1.45144">
        <ele>62</ele>
        <time>2026-08-23T14:38:56.000Z</time>
      </trkpt>
      <trkpt lat="43.34018" lon="-1.45145">
        <ele>62</ele>
        <time>2026-08-23T14:38:57.000Z</time>
      </trkpt>
      <trkpt lat="43.34018" lon="-1.45146">
        <ele>62</ele>
        <time>2026-08-23T14:38:57.000Z</time>
      </trkpt>
      <trkpt lat="43.34019" lon="-1.45147">
        <ele>62</ele>
        <time>2026-08-23T14:38:57.000Z</time>
      </trkpt>
      <trkpt lat="43.34019" lon="-1.45148">
        <ele>62</ele>
        <time>2026-08-23T14:38:57.000Z</time>
      </trkpt>
      <trkpt lat="43.34019" lon="-1.45149">
        <ele>62</ele>
        <time>2026-08-23T14:38:57.000Z</time>
      </trkpt>
      <trkpt lat="43.34019" lon="-1.4515">
        <ele>62</ele>
        <time>2026-08-23T14:38:57.000Z</time>
      </trkpt>
      <trkpt lat="43.34019" lon="-1.45151">
        <ele>62</ele>
        <time>2026-08-23T14:38:57.000Z</time>
      </trkpt>
      <trkpt lat="43.34019" lon="-1.45152">
        <ele>62</ele>
        <time>2026-08-23T14:38:58.000Z</time>
      </trkpt>
      <trkpt lat="43.34019" lon="-1.45154">
        <ele>61</ele>
        <time>2026-08-23T14:38:58.000Z</time>
      </trkpt>
      <trkpt lat="43.34018" lon="-1.45155">
        <ele>61</ele>
        <time>2026-08-23T14:38:58.000Z</time>
      </trkpt>
      <trkpt lat="43.34018" lon="-1.45156">
        <ele>61</ele>
        <time>2026-08-23T14:38:58.000Z</time>
      </trkpt>
      <trkpt lat="43.34018" lon="-1.45157">
        <ele>61</ele>
        <time>2026-08-23T14:38:58.000Z</time>
      </trkpt>
      <trkpt lat="43.34018" lon="-1.45158">
        <ele>61</ele>
        <time>2026-08-23T14:38:58.000Z</time>
      </trkpt>
      <trkpt lat="43.34017" lon="-1.45159">
        <ele>61</ele>
        <time>2026-08-23T14:38:59.000Z</time>
      </trkpt>
      <trkpt lat="43.34017" lon="-1.4516">
        <ele>61</ele>
        <time>2026-08-23T14:38:59.000Z</time>
      </trkpt>
      <trkpt lat="43.34017" lon="-1.45161">
        <ele>61</ele>
        <time>2026-08-23T14:38:59.000Z</time>
      </trkpt>
      <trkpt lat="43.34016" lon="-1.45162">
        <ele>61</ele>
        <time>2026-08-23T14:38:59.000Z</time>
      </trkpt>
      <trkpt lat="43.34016" lon="-1.45163">
        <ele>61</ele>
        <time>2026-08-23T14:38:59.000Z</time>
      </trkpt>
      <trkpt lat="43.34015" lon="-1.45163">
        <ele>61</ele>
        <time>2026-08-23T14:38:59.000Z</time>
      </trkpt>
      <trkpt lat="43.34015" lon="-1.45164">
        <ele>61</ele>
        <time>2026-08-23T14:39:00.000Z</time>
      </trkpt>
      <trkpt lat="43.34014" lon="-1.45165">
        <ele>61</ele>
        <time>2026-08-23T14:39:00.000Z</time>
      </trkpt>
      <trkpt lat="43.34013" lon="-1.45166">
        <ele>61</ele>
        <time>2026-08-23T14:39:00.000Z</time>
      </trkpt>
      <trkpt lat="43.34012" lon="-1.45167">
        <ele>60</ele>
        <time>2026-08-23T14:39:00.000Z</time>
      </trkpt>
      <trkpt lat="43.34011" lon="-1.45167">
        <ele>60</ele>
        <time>2026-08-23T14:39:00.000Z</time>
      </trkpt>
      <trkpt lat="43.3401" lon="-1.45168">
        <ele>60</ele>
        <time>2026-08-23T14:39:01.000Z</time>
      </trkpt>
      <trkpt lat="43.34009" lon="-1.45169">
        <ele>60</ele>
        <time>2026-08-23T14:39:01.000Z</time>
      </trkpt>
      <trkpt lat="43.34008" lon="-1.45169">
        <ele>60</ele>
        <time>2026-08-23T14:39:01.000Z</time>
      </trkpt>
      <trkpt lat="43.34007" lon="-1.45169">
        <ele>60</ele>
        <time>2026-08-23T14:39:01.000Z</time>
      </trkpt>
      <trkpt lat="43.34006" lon="-1.45169">
        <ele>60</ele>
        <time>2026-08-23T14:39:01.000Z</time>
      </trkpt>
      <trkpt lat="43.34005" lon="-1.45169">
        <ele>60</ele>
        <time>2026-08-23T14:39:02.000Z</time>
      </trkpt>
      <trkpt lat="43.34004" lon="-1.45169">
        <ele>60</ele>
        <time>2026-08-23T14:39:02.000Z</time>
      </trkpt>
      <trkpt lat="43.34003" lon="-1.45169">
        <ele>60</ele>
        <time>2026-08-23T14:39:02.000Z</time>
      </trkpt>
      <trkpt lat="43.34002" lon="-1.45169">
        <ele>60</ele>
        <time>2026-08-23T14:39:02.000Z</time>
      </trkpt>
      <trkpt lat="43.34001" lon="-1.45168">
        <ele>60</ele>
        <time>2026-08-23T14:39:02.000Z</time>
      </trkpt>
      <trkpt lat="43.33999" lon="-1.45168">
        <ele>60</ele>
        <time>2026-08-23T14:39:03.000Z</time>
      </trkpt>
      <trkpt lat="43.33998" lon="-1.45174">
        <ele>60</ele>
        <time>2026-08-23T14:39:03.000Z</time>
      </trkpt>
      <trkpt lat="43.33995" lon="-1.45185">
        <ele>60</ele>
        <time>2026-08-23T14:39:05.000Z</time>
      </trkpt>
      <trkpt lat="43.33991" lon="-1.45199">
        <ele>60</ele>
        <time>2026-08-23T14:39:07.000Z</time>
      </trkpt>
      <trkpt lat="43.33989" lon="-1.45208">
        <ele>60</ele>
        <time>2026-08-23T14:39:08.000Z</time>
      </trkpt>
      <trkpt lat="43.33988" lon="-1.45218">
        <ele>60</ele>
        <time>2026-08-23T14:39:09.000Z</time>
      </trkpt>
      <trkpt lat="43.33986" lon="-1.45227">
        <ele>60</ele>
        <time>2026-08-23T14:39:11.000Z</time>
      </trkpt>
      <trkpt lat="43.33983" lon="-1.45236">
        <ele>60</ele>
        <time>2026-08-23T14:39:12.000Z</time>
      </trkpt>
      <trkpt lat="43.33979" lon="-1.45245">
        <ele>60</ele>
        <time>2026-08-23T14:39:13.000Z</time>
      </trkpt>
      <trkpt lat="43.33977" lon="-1.4525">
        <ele>60</ele>
        <time>2026-08-23T14:39:14.000Z</time>
      </trkpt>
      <trkpt lat="43.33975" lon="-1.45255">
        <ele>60</ele>
        <time>2026-08-23T14:39:15.000Z</time>
      </trkpt>
      <trkpt lat="43.3397" lon="-1.45263">
        <ele>60</ele>
        <time>2026-08-23T14:39:16.000Z</time>
      </trkpt>
      <trkpt lat="43.33967" lon="-1.45268">
        <ele>60</ele>
        <time>2026-08-23T14:39:17.000Z</time>
      </trkpt>
      <trkpt lat="43.33964" lon="-1.45272">
        <ele>60</ele>
        <time>2026-08-23T14:39:18.000Z</time>
      </trkpt>
      <trkpt lat="43.33958" lon="-1.45279">
        <ele>60</ele>
        <time>2026-08-23T14:39:19.000Z</time>
      </trkpt>
      <trkpt lat="43.33942" lon="-1.45295">
        <ele>60</ele>
        <time>2026-08-23T14:39:23.000Z</time>
      </trkpt>
      <trkpt lat="43.3393" lon="-1.45306">
        <ele>60</ele>
        <time>2026-08-23T14:39:25.000Z</time>
      </trkpt>
      <trkpt lat="43.33908" lon="-1.45326">
        <ele>61</ele>
        <time>2026-08-23T14:39:30.000Z</time>
      </trkpt>
      <trkpt lat="43.33893" lon="-1.45341">
        <ele>60</ele>
        <time>2026-08-23T14:39:33.000Z</time>
      </trkpt>
      <trkpt lat="43.3388" lon="-1.45355">
        <ele>60</ele>
        <time>2026-08-23T14:39:36.000Z</time>
      </trkpt>
      <trkpt lat="43.33872" lon="-1.45363">
        <ele>60</ele>
        <time>2026-08-23T14:39:38.000Z</time>
      </trkpt>
      <trkpt lat="43.33868" lon="-1.45367">
        <ele>60</ele>
        <time>2026-08-23T14:39:39.000Z</time>
      </trkpt>
      <trkpt lat="43.33862" lon="-1.45374">
        <ele>60</ele>
        <time>2026-08-23T14:39:40.000Z</time>
      </trkpt>
      <trkpt lat="43.33855" lon="-1.45383">
        <ele>59</ele>
        <time>2026-08-23T14:39:42.000Z</time>
      </trkpt>
      <trkpt lat="43.33849" lon="-1.45391">
        <ele>59</ele>
        <time>2026-08-23T14:39:43.000Z</time>
      </trkpt>
      <trkpt lat="43.3384" lon="-1.45405">
        <ele>59</ele>
        <time>2026-08-23T14:39:46.000Z</time>
      </trkpt>
      <trkpt lat="43.33832" lon="-1.45421">
        <ele>59</ele>
        <time>2026-08-23T14:39:48.000Z</time>
      </trkpt>
      <trkpt lat="43.33828" lon="-1.4543">
        <ele>59</ele>
        <time>2026-08-23T14:39:50.000Z</time>
      </trkpt>
      <trkpt lat="43.33825" lon="-1.45438">
        <ele>60</ele>
        <time>2026-08-23T14:39:51.000Z</time>
      </trkpt>
      <trkpt lat="43.33821" lon="-1.45451">
        <ele>60</ele>
        <time>2026-08-23T14:39:53.000Z</time>
      </trkpt>
      <trkpt lat="43.33816" lon="-1.45463">
        <ele>61</ele>
        <time>2026-08-23T14:39:54.000Z</time>
      </trkpt>
      <trkpt lat="43.33812" lon="-1.45474">
        <ele>61</ele>
        <time>2026-08-23T14:39:56.000Z</time>
      </trkpt>
      <trkpt lat="43.33804" lon="-1.45498">
        <ele>62</ele>
        <time>2026-08-23T14:39:59.000Z</time>
      </trkpt>
      <trkpt lat="43.33794" lon="-1.4552">
        <ele>62</ele>
        <time>2026-08-23T14:40:03.000Z</time>
      </trkpt>
      <trkpt lat="43.33785" lon="-1.4554">
        <ele>63</ele>
        <time>2026-08-23T14:40:06.000Z</time>
      </trkpt>
      <trkpt lat="43.33773" lon="-1.45563">
        <ele>62</ele>
        <time>2026-08-23T14:40:10.000Z</time>
      </trkpt>
      <trkpt lat="43.33763" lon="-1.45583">
        <ele>62</ele>
        <time>2026-08-23T14:40:13.000Z</time>
      </trkpt>
      <trkpt lat="43.33748" lon="-1.45605">
        <ele>61</ele>
        <time>2026-08-23T14:40:17.000Z</time>
      </trkpt>
      <trkpt lat="43.33735" lon="-1.45625">
        <ele>62</ele>
        <time>2026-08-23T14:40:20.000Z</time>
      </trkpt>
      <trkpt lat="43.33707" lon="-1.45666">
        <ele>64</ele>
        <time>2026-08-23T14:40:27.000Z</time>
      </trkpt>
      <trkpt lat="43.33678" lon="-1.45709">
        <ele>64</ele>
        <time>2026-08-23T14:40:35.000Z</time>
      </trkpt>
      <trkpt lat="43.33655" lon="-1.45743">
        <ele>62</ele>
        <time>2026-08-23T14:40:41.000Z</time>
      </trkpt>
      <trkpt lat="43.3363" lon="-1.45779">
        <ele>65</ele>
        <time>2026-08-23T14:40:47.000Z</time>
      </trkpt>
      <trkpt lat="43.33616" lon="-1.458">
        <ele>67</ele>
        <time>2026-08-23T14:40:51.000Z</time>
      </trkpt>
      <trkpt lat="43.33596" lon="-1.45829">
        <ele>67</ele>
        <time>2026-08-23T14:40:56.000Z</time>
      </trkpt>
      <trkpt lat="43.33584" lon="-1.45847">
        <ele>66</ele>
        <time>2026-08-23T14:40:59.000Z</time>
      </trkpt>
      <trkpt lat="43.33578" lon="-1.45856">
        <ele>67</ele>
        <time>2026-08-23T14:41:01.000Z</time>
      </trkpt>
      <trkpt lat="43.33571" lon="-1.45872">
        <ele>67</ele>
        <time>2026-08-23T14:41:03.000Z</time>
      </trkpt>
      <trkpt lat="43.33565" lon="-1.45884">
        <ele>67</ele>
        <time>2026-08-23T14:41:05.000Z</time>
      </trkpt>
      <trkpt lat="43.33562" lon="-1.45892">
        <ele>66</ele>
        <time>2026-08-23T14:41:06.000Z</time>
      </trkpt>
      <trkpt lat="43.33559" lon="-1.459">
        <ele>66</ele>
        <time>2026-08-23T14:41:08.000Z</time>
      </trkpt>
      <trkpt lat="43.33556" lon="-1.45911">
        <ele>65</ele>
        <time>2026-08-23T14:41:09.000Z</time>
      </trkpt>
      <trkpt lat="43.33554" lon="-1.45925">
        <ele>64</ele>
        <time>2026-08-23T14:41:11.000Z</time>
      </trkpt>
      <trkpt lat="43.33553" lon="-1.45933">
        <ele>63</ele>
        <time>2026-08-23T14:41:12.000Z</time>
      </trkpt>
      <trkpt lat="43.33552" lon="-1.45954">
        <ele>62</ele>
        <time>2026-08-23T14:41:15.000Z</time>
      </trkpt>
      <trkpt lat="43.33552" lon="-1.45963">
        <ele>61</ele>
        <time>2026-08-23T14:41:16.000Z</time>
      </trkpt>
      <trkpt lat="43.33553" lon="-1.45975">
        <ele>60</ele>
        <time>2026-08-23T14:41:17.000Z</time>
      </trkpt>
      <trkpt lat="43.33554" lon="-1.45987">
        <ele>59</ele>
        <time>2026-08-23T14:41:19.000Z</time>
      </trkpt>
      <trkpt lat="43.33556" lon="-1.45997">
        <ele>58</ele>
        <time>2026-08-23T14:41:20.000Z</time>
      </trkpt>
      <trkpt lat="43.33558" lon="-1.4601">
        <ele>58</ele>
        <time>2026-08-23T14:41:22.000Z</time>
      </trkpt>
      <trkpt lat="43.33564" lon="-1.4603">
        <ele>57</ele>
        <time>2026-08-23T14:41:25.000Z</time>
      </trkpt>
      <trkpt lat="43.33572" lon="-1.46058">
        <ele>57</ele>
        <time>2026-08-23T14:41:29.000Z</time>
      </trkpt>
      <trkpt lat="43.33579" lon="-1.46082">
        <ele>57</ele>
        <time>2026-08-23T14:41:32.000Z</time>
      </trkpt>
      <trkpt lat="43.3358" lon="-1.46092">
        <ele>57</ele>
        <time>2026-08-23T14:41:33.000Z</time>
      </trkpt>
      <trkpt lat="43.33585" lon="-1.46104">
        <ele>57</ele>
        <time>2026-08-23T14:41:35.000Z</time>
      </trkpt>
      <trkpt lat="43.33599" lon="-1.46129">
        <ele>57</ele>
        <time>2026-08-23T14:41:39.000Z</time>
      </trkpt>
      <trkpt lat="43.33609" lon="-1.46147">
        <ele>57</ele>
        <time>2026-08-23T14:41:42.000Z</time>
      </trkpt>
      <trkpt lat="43.33619" lon="-1.46164">
        <ele>56</ele>
        <time>2026-08-23T14:41:45.000Z</time>
      </trkpt>
      <trkpt lat="43.33626" lon="-1.46179">
        <ele>56</ele>
        <time>2026-08-23T14:41:47.000Z</time>
      </trkpt>
      <trkpt lat="43.33632" lon="-1.46191">
        <ele>56</ele>
        <time>2026-08-23T14:41:49.000Z</time>
      </trkpt>
      <trkpt lat="43.33633" lon="-1.46196">
        <ele>56</ele>
        <time>2026-08-23T14:41:50.000Z</time>
      </trkpt>
      <trkpt lat="43.33634" lon="-1.46198">
        <ele>56</ele>
        <time>2026-08-23T14:41:50.000Z</time>
      </trkpt>
      <trkpt lat="43.33639" lon="-1.46209">
        <ele>56</ele>
        <time>2026-08-23T14:41:52.000Z</time>
      </trkpt>
      <trkpt lat="43.33645" lon="-1.46232">
        <ele>56</ele>
        <time>2026-08-23T14:41:55.000Z</time>
      </trkpt>
      <trkpt lat="43.33646" lon="-1.46232">
        <ele>56</ele>
        <time>2026-08-23T14:41:55.000Z</time>
      </trkpt>
      <trkpt lat="43.33647" lon="-1.4624">
        <ele>56</ele>
        <time>2026-08-23T14:41:56.000Z</time>
      </trkpt>
      <trkpt lat="43.33651" lon="-1.46257">
        <ele>56</ele>
        <time>2026-08-23T14:41:59.000Z</time>
      </trkpt>
      <trkpt lat="43.33657" lon="-1.46288">
        <ele>56</ele>
        <time>2026-08-23T14:42:03.000Z</time>
      </trkpt>
      <trkpt lat="43.33665" lon="-1.46337">
        <ele>56</ele>
        <time>2026-08-23T14:42:09.000Z</time>
      </trkpt>
      <trkpt lat="43.33679" lon="-1.46424">
        <ele>59</ele>
        <time>2026-08-23T14:42:21.000Z</time>
      </trkpt>
      <trkpt lat="43.3369" lon="-1.46491">
        <ele>62</ele>
        <time>2026-08-23T14:42:30.000Z</time>
      </trkpt>
      <trkpt lat="43.33695" lon="-1.4652">
        <ele>63</ele>
        <time>2026-08-23T14:42:34.000Z</time>
      </trkpt>
      <trkpt lat="43.33697" lon="-1.46538">
        <ele>63</ele>
        <time>2026-08-23T14:42:36.000Z</time>
      </trkpt>
      <trkpt lat="43.33698" lon="-1.46546">
        <ele>64</ele>
        <time>2026-08-23T14:42:37.000Z</time>
      </trkpt>
      <trkpt lat="43.337" lon="-1.46557">
        <ele>64</ele>
        <time>2026-08-23T14:42:38.000Z</time>
      </trkpt>
      <trkpt lat="43.33701" lon="-1.46589">
        <ele>64</ele>
        <time>2026-08-23T14:42:43.000Z</time>
      </trkpt>
      <trkpt lat="43.337" lon="-1.46618">
        <ele>64</ele>
        <time>2026-08-23T14:42:46.000Z</time>
      </trkpt>
      <trkpt lat="43.337" lon="-1.46623">
        <ele>64</ele>
        <time>2026-08-23T14:42:47.000Z</time>
      </trkpt>
      <trkpt lat="43.33699" lon="-1.46652">
        <ele>65</ele>
        <time>2026-08-23T14:42:51.000Z</time>
      </trkpt>
      <trkpt lat="43.33698" lon="-1.46688">
        <ele>65</ele>
        <time>2026-08-23T14:42:55.000Z</time>
      </trkpt>
      <trkpt lat="43.33698" lon="-1.46705">
        <ele>66</ele>
        <time>2026-08-23T14:42:58.000Z</time>
      </trkpt>
      <trkpt lat="43.337" lon="-1.46715">
        <ele>66</ele>
        <time>2026-08-23T14:42:59.000Z</time>
      </trkpt>
      <trkpt lat="43.33702" lon="-1.46726">
        <ele>66</ele>
        <time>2026-08-23T14:43:00.000Z</time>
      </trkpt>
      <trkpt lat="43.33704" lon="-1.46742">
        <ele>66</ele>
        <time>2026-08-23T14:43:02.000Z</time>
      </trkpt>
      <trkpt lat="43.3371" lon="-1.46763">
        <ele>66</ele>
        <time>2026-08-23T14:43:05.000Z</time>
      </trkpt>
      <trkpt lat="43.33714" lon="-1.46776">
        <ele>66</ele>
        <time>2026-08-23T14:43:07.000Z</time>
      </trkpt>
      <trkpt lat="43.33719" lon="-1.46792">
        <ele>67</ele>
        <time>2026-08-23T14:43:09.000Z</time>
      </trkpt>
      <trkpt lat="43.33725" lon="-1.46803">
        <ele>67</ele>
        <time>2026-08-23T14:43:11.000Z</time>
      </trkpt>
      <trkpt lat="43.33731" lon="-1.46817">
        <ele>67</ele>
        <time>2026-08-23T14:43:13.000Z</time>
      </trkpt>
      <trkpt lat="43.33738" lon="-1.46829">
        <ele>67</ele>
        <time>2026-08-23T14:43:15.000Z</time>
      </trkpt>
      <trkpt lat="43.33744" lon="-1.4684">
        <ele>67</ele>
        <time>2026-08-23T14:43:17.000Z</time>
      </trkpt>
      <trkpt lat="43.33755" lon="-1.46855">
        <ele>67</ele>
        <time>2026-08-23T14:43:20.000Z</time>
      </trkpt>
      <trkpt lat="43.33761" lon="-1.46863">
        <ele>67</ele>
        <time>2026-08-23T14:43:21.000Z</time>
      </trkpt>
      <trkpt lat="43.33771" lon="-1.46875">
        <ele>67</ele>
        <time>2026-08-23T14:43:24.000Z</time>
      </trkpt>
      <trkpt lat="43.3379" lon="-1.4689">
        <ele>67</ele>
        <time>2026-08-23T14:43:28.000Z</time>
      </trkpt>
      <trkpt lat="43.33798" lon="-1.46896">
        <ele>67</ele>
        <time>2026-08-23T14:43:29.000Z</time>
      </trkpt>
      <trkpt lat="43.3382" lon="-1.46912">
        <ele>67</ele>
        <time>2026-08-23T14:43:34.000Z</time>
      </trkpt>
      <trkpt lat="43.3383" lon="-1.46921">
        <ele>67</ele>
        <time>2026-08-23T14:43:36.000Z</time>
      </trkpt>
      <trkpt lat="43.33853" lon="-1.46936">
        <ele>66</ele>
        <time>2026-08-23T14:43:40.000Z</time>
      </trkpt>
      <trkpt lat="43.33873" lon="-1.4695">
        <ele>65</ele>
        <time>2026-08-23T14:43:44.000Z</time>
      </trkpt>
      <trkpt lat="43.33886" lon="-1.46959">
        <ele>65</ele>
        <time>2026-08-23T14:43:47.000Z</time>
      </trkpt>
      <trkpt lat="43.33892" lon="-1.46965">
        <ele>64</ele>
        <time>2026-08-23T14:43:48.000Z</time>
      </trkpt>
      <trkpt lat="43.33905" lon="-1.46977">
        <ele>64</ele>
        <time>2026-08-23T14:43:51.000Z</time>
      </trkpt>
      <trkpt lat="43.33914" lon="-1.46986">
        <ele>63</ele>
        <time>2026-08-23T14:43:53.000Z</time>
      </trkpt>
      <trkpt lat="43.33928" lon="-1.47001">
        <ele>63</ele>
        <time>2026-08-23T14:43:56.000Z</time>
      </trkpt>
      <trkpt lat="43.33942" lon="-1.47018">
        <ele>63</ele>
        <time>2026-08-23T14:43:59.000Z</time>
      </trkpt>
      <trkpt lat="43.3395" lon="-1.47026">
        <ele>63</ele>
        <time>2026-08-23T14:44:01.000Z</time>
      </trkpt>
      <trkpt lat="43.33956" lon="-1.47034">
        <ele>63</ele>
        <time>2026-08-23T14:44:03.000Z</time>
      </trkpt>
      <trkpt lat="43.33961" lon="-1.47041">
        <ele>63</ele>
        <time>2026-08-23T14:44:04.000Z</time>
      </trkpt>
      <trkpt lat="43.33966" lon="-1.47046">
        <ele>63</ele>
        <time>2026-08-23T14:44:05.000Z</time>
      </trkpt>
      <trkpt lat="43.33971" lon="-1.47056">
        <ele>64</ele>
        <time>2026-08-23T14:44:07.000Z</time>
      </trkpt>
      <trkpt lat="43.33978" lon="-1.47067">
        <ele>64</ele>
        <time>2026-08-23T14:44:09.000Z</time>
      </trkpt>
      <trkpt lat="43.33988" lon="-1.47084">
        <ele>64</ele>
        <time>2026-08-23T14:44:11.000Z</time>
      </trkpt>
      <trkpt lat="43.33996" lon="-1.471">
        <ele>65</ele>
        <time>2026-08-23T14:44:14.000Z</time>
      </trkpt>
      <trkpt lat="43.34034" lon="-1.47178">
        <ele>64</ele>
        <time>2026-08-23T14:44:26.000Z</time>
      </trkpt>
      <trkpt lat="43.34046" lon="-1.47204">
        <ele>65</ele>
        <time>2026-08-23T14:44:30.000Z</time>
      </trkpt>
      <trkpt lat="43.34054" lon="-1.47223">
        <ele>65</ele>
        <time>2026-08-23T14:44:33.000Z</time>
      </trkpt>
      <trkpt lat="43.34059" lon="-1.47233">
        <ele>64</ele>
        <time>2026-08-23T14:44:34.000Z</time>
      </trkpt>
      <trkpt lat="43.34071" lon="-1.47265">
        <ele>64</ele>
        <time>2026-08-23T14:44:39.000Z</time>
      </trkpt>
      <trkpt lat="43.34071" lon="-1.47265">
        <ele>64</ele>
        <time>2026-08-23T14:44:39.000Z</time>
      </trkpt>
      <trkpt lat="43.34072" lon="-1.47264">
        <ele>64</ele>
        <time>2026-08-23T14:44:39.000Z</time>
      </trkpt>
      <trkpt lat="43.34073" lon="-1.47264">
        <ele>63</ele>
        <time>2026-08-23T14:44:40.000Z</time>
      </trkpt>
      <trkpt lat="43.34073" lon="-1.47263">
        <ele>63</ele>
        <time>2026-08-23T14:44:40.000Z</time>
      </trkpt>
      <trkpt lat="43.34074" lon="-1.47263">
        <ele>63</ele>
        <time>2026-08-23T14:44:40.000Z</time>
      </trkpt>
      <trkpt lat="43.34075" lon="-1.47263">
        <ele>63</ele>
        <time>2026-08-23T14:44:40.000Z</time>
      </trkpt>
      <trkpt lat="43.34076" lon="-1.47263">
        <ele>63</ele>
        <time>2026-08-23T14:44:40.000Z</time>
      </trkpt>
      <trkpt lat="43.34077" lon="-1.47262">
        <ele>63</ele>
        <time>2026-08-23T14:44:40.000Z</time>
      </trkpt>
      <trkpt lat="43.34078" lon="-1.47262">
        <ele>63</ele>
        <time>2026-08-23T14:44:41.000Z</time>
      </trkpt>
      <trkpt lat="43.34079" lon="-1.47262">
        <ele>62</ele>
        <time>2026-08-23T14:44:41.000Z</time>
      </trkpt>
      <trkpt lat="43.3408" lon="-1.47263">
        <ele>62</ele>
        <time>2026-08-23T14:44:41.000Z</time>
      </trkpt>
      <trkpt lat="43.34081" lon="-1.47263">
        <ele>62</ele>
        <time>2026-08-23T14:44:41.000Z</time>
      </trkpt>
      <trkpt lat="43.34082" lon="-1.47263">
        <ele>62</ele>
        <time>2026-08-23T14:44:41.000Z</time>
      </trkpt>
      <trkpt lat="43.34083" lon="-1.47264">
        <ele>62</ele>
        <time>2026-08-23T14:44:42.000Z</time>
      </trkpt>
      <trkpt lat="43.34084" lon="-1.47265">
        <ele>62</ele>
        <time>2026-08-23T14:44:42.000Z</time>
      </trkpt>
      <trkpt lat="43.34085" lon="-1.47266">
        <ele>62</ele>
        <time>2026-08-23T14:44:42.000Z</time>
      </trkpt>
      <trkpt lat="43.34086" lon="-1.47266">
        <ele>62</ele>
        <time>2026-08-23T14:44:42.000Z</time>
      </trkpt>
      <trkpt lat="43.34086" lon="-1.47267">
        <ele>62</ele>
        <time>2026-08-23T14:44:42.000Z</time>
      </trkpt>
      <trkpt lat="43.34087" lon="-1.47267">
        <ele>62</ele>
        <time>2026-08-23T14:44:42.000Z</time>
      </trkpt>
      <trkpt lat="43.34087" lon="-1.47268">
        <ele>62</ele>
        <time>2026-08-23T14:44:43.000Z</time>
      </trkpt>
      <trkpt lat="43.34088" lon="-1.47269">
        <ele>62</ele>
        <time>2026-08-23T14:44:43.000Z</time>
      </trkpt>
      <trkpt lat="43.34088" lon="-1.4727">
        <ele>62</ele>
        <time>2026-08-23T14:44:43.000Z</time>
      </trkpt>
      <trkpt lat="43.34089" lon="-1.47271">
        <ele>62</ele>
        <time>2026-08-23T14:44:43.000Z</time>
      </trkpt>
      <trkpt lat="43.34089" lon="-1.47272">
        <ele>62</ele>
        <time>2026-08-23T14:44:43.000Z</time>
      </trkpt>
      <trkpt lat="43.3409" lon="-1.47273">
        <ele>62</ele>
        <time>2026-08-23T14:44:44.000Z</time>
      </trkpt>
      <trkpt lat="43.3409" lon="-1.47274">
        <ele>62</ele>
        <time>2026-08-23T14:44:44.000Z</time>
      </trkpt>
      <trkpt lat="43.3409" lon="-1.47275">
        <ele>62</ele>
        <time>2026-08-23T14:44:44.000Z</time>
      </trkpt>
      <trkpt lat="43.3409" lon="-1.47276">
        <ele>62</ele>
        <time>2026-08-23T14:44:44.000Z</time>
      </trkpt>
      <trkpt lat="43.3409" lon="-1.47277">
        <ele>62</ele>
        <time>2026-08-23T14:44:44.000Z</time>
      </trkpt>
      <trkpt lat="43.34091" lon="-1.47278">
        <ele>62</ele>
        <time>2026-08-23T14:44:44.000Z</time>
      </trkpt>
      <trkpt lat="43.34091" lon="-1.47279">
        <ele>62</ele>
        <time>2026-08-23T14:44:44.000Z</time>
      </trkpt>
      <trkpt lat="43.34091" lon="-1.4728">
        <ele>63</ele>
        <time>2026-08-23T14:44:45.000Z</time>
      </trkpt>
      <trkpt lat="43.34091" lon="-1.47281">
        <ele>63</ele>
        <time>2026-08-23T14:44:45.000Z</time>
      </trkpt>
      <trkpt lat="43.34091" lon="-1.47282">
        <ele>63</ele>
        <time>2026-08-23T14:44:45.000Z</time>
      </trkpt>
      <trkpt lat="43.3409" lon="-1.47283">
        <ele>63</ele>
        <time>2026-08-23T14:44:45.000Z</time>
      </trkpt>
      <trkpt lat="43.3409" lon="-1.47284">
        <ele>63</ele>
        <time>2026-08-23T14:44:45.000Z</time>
      </trkpt>
      <trkpt lat="43.3409" lon="-1.47285">
        <ele>63</ele>
        <time>2026-08-23T14:44:45.000Z</time>
      </trkpt>
      <trkpt lat="43.3409" lon="-1.47286">
        <ele>63</ele>
        <time>2026-08-23T14:44:45.000Z</time>
      </trkpt>
      <trkpt lat="43.3409" lon="-1.47287">
        <ele>63</ele>
        <time>2026-08-23T14:44:46.000Z</time>
      </trkpt>
      <trkpt lat="43.34089" lon="-1.47288">
        <ele>63</ele>
        <time>2026-08-23T14:44:46.000Z</time>
      </trkpt>
      <trkpt lat="43.34089" lon="-1.47289">
        <ele>63</ele>
        <time>2026-08-23T14:44:46.000Z</time>
      </trkpt>
      <trkpt lat="43.34089" lon="-1.4729">
        <ele>63</ele>
        <time>2026-08-23T14:44:46.000Z</time>
      </trkpt>
      <trkpt lat="43.34088" lon="-1.47291">
        <ele>63</ele>
        <time>2026-08-23T14:44:46.000Z</time>
      </trkpt>
      <trkpt lat="43.34087" lon="-1.47292">
        <ele>63</ele>
        <time>2026-08-23T14:44:46.000Z</time>
      </trkpt>
      <trkpt lat="43.34087" lon="-1.47293">
        <ele>63</ele>
        <time>2026-08-23T14:44:47.000Z</time>
      </trkpt>
      <trkpt lat="43.34086" lon="-1.47294">
        <ele>63</ele>
        <time>2026-08-23T14:44:47.000Z</time>
      </trkpt>
      <trkpt lat="43.34085" lon="-1.47294">
        <ele>63</ele>
        <time>2026-08-23T14:44:47.000Z</time>
      </trkpt>
      <trkpt lat="43.34085" lon="-1.47295">
        <ele>63</ele>
        <time>2026-08-23T14:44:47.000Z</time>
      </trkpt>
      <trkpt lat="43.34084" lon="-1.47295">
        <ele>63</ele>
        <time>2026-08-23T14:44:47.000Z</time>
      </trkpt>
      <trkpt lat="43.34084" lon="-1.47296">
        <ele>63</ele>
        <time>2026-08-23T14:44:47.000Z</time>
      </trkpt>
      <trkpt lat="43.34083" lon="-1.47296">
        <ele>63</ele>
        <time>2026-08-23T14:44:48.000Z</time>
      </trkpt>
      <trkpt lat="43.34082" lon="-1.47297">
        <ele>63</ele>
        <time>2026-08-23T14:44:48.000Z</time>
      </trkpt>
      <trkpt lat="43.34081" lon="-1.47297">
        <ele>64</ele>
        <time>2026-08-23T14:44:48.000Z</time>
      </trkpt>
      <trkpt lat="43.3408" lon="-1.47297">
        <ele>64</ele>
        <time>2026-08-23T14:44:48.000Z</time>
      </trkpt>
      <trkpt lat="43.34079" lon="-1.47298">
        <ele>64</ele>
        <time>2026-08-23T14:44:48.000Z</time>
      </trkpt>
      <trkpt lat="43.34078" lon="-1.47298">
        <ele>64</ele>
        <time>2026-08-23T14:44:49.000Z</time>
      </trkpt>
      <trkpt lat="43.34077" lon="-1.47298">
        <ele>64</ele>
        <time>2026-08-23T14:44:49.000Z</time>
      </trkpt>
      <trkpt lat="43.34076" lon="-1.47298">
        <ele>65</ele>
        <time>2026-08-23T14:44:49.000Z</time>
      </trkpt>
      <trkpt lat="43.34075" lon="-1.47297">
        <ele>65</ele>
        <time>2026-08-23T14:44:49.000Z</time>
      </trkpt>
      <trkpt lat="43.34074" lon="-1.47297">
        <ele>65</ele>
        <time>2026-08-23T14:44:49.000Z</time>
      </trkpt>
      <trkpt lat="43.34073" lon="-1.47309">
        <ele>66</ele>
        <time>2026-08-23T14:44:51.000Z</time>
      </trkpt>
      <trkpt lat="43.34073" lon="-1.47321">
        <ele>66</ele>
        <time>2026-08-23T14:44:52.000Z</time>
      </trkpt>
      <trkpt lat="43.34073" lon="-1.47332">
        <ele>67</ele>
        <time>2026-08-23T14:44:54.000Z</time>
      </trkpt>
      <trkpt lat="43.34074" lon="-1.47343">
        <ele>66</ele>
        <time>2026-08-23T14:44:55.000Z</time>
      </trkpt>
      <trkpt lat="43.34075" lon="-1.47354">
        <ele>66</ele>
        <time>2026-08-23T14:44:57.000Z</time>
      </trkpt>
      <trkpt lat="43.34078" lon="-1.47373">
        <ele>66</ele>
        <time>2026-08-23T14:44:59.000Z</time>
      </trkpt>
      <trkpt lat="43.34082" lon="-1.47404">
        <ele>65</ele>
        <time>2026-08-23T14:45:03.000Z</time>
      </trkpt>
      <trkpt lat="43.34084" lon="-1.47417">
        <ele>65</ele>
        <time>2026-08-23T14:45:05.000Z</time>
      </trkpt>
      <trkpt lat="43.34087" lon="-1.47429">
        <ele>65</ele>
        <time>2026-08-23T14:45:07.000Z</time>
      </trkpt>
      <trkpt lat="43.34089" lon="-1.47448">
        <ele>65</ele>
        <time>2026-08-23T14:45:09.000Z</time>
      </trkpt>
      <trkpt lat="43.34091" lon="-1.47467">
        <ele>64</ele>
        <time>2026-08-23T14:45:12.000Z</time>
      </trkpt>
      <trkpt lat="43.3409" lon="-1.47479">
        <ele>64</ele>
        <time>2026-08-23T14:45:13.000Z</time>
      </trkpt>
      <trkpt lat="43.34089" lon="-1.47494">
        <ele>64</ele>
        <time>2026-08-23T14:45:15.000Z</time>
      </trkpt>
      <trkpt lat="43.34088" lon="-1.47505">
        <ele>64</ele>
        <time>2026-08-23T14:45:17.000Z</time>
      </trkpt>
      <trkpt lat="43.34087" lon="-1.4751">
        <ele>64</ele>
        <time>2026-08-23T14:45:17.000Z</time>
      </trkpt>
      <trkpt lat="43.34087" lon="-1.4752">
        <ele>64</ele>
        <time>2026-08-23T14:45:19.000Z</time>
      </trkpt>
      <trkpt lat="43.34087" lon="-1.4752">
        <ele>64</ele>
        <time>2026-08-23T14:45:19.000Z</time>
      </trkpt>
      <trkpt lat="43.34088" lon="-1.4752">
        <ele>64</ele>
        <time>2026-08-23T14:45:19.000Z</time>
      </trkpt>
      <trkpt lat="43.34088" lon="-1.47521">
        <ele>65</ele>
        <time>2026-08-23T14:45:19.000Z</time>
      </trkpt>
      <trkpt lat="43.34089" lon="-1.47522">
        <ele>65</ele>
        <time>2026-08-23T14:45:19.000Z</time>
      </trkpt>
      <trkpt lat="43.34089" lon="-1.47523">
        <ele>65</ele>
        <time>2026-08-23T14:45:19.000Z</time>
      </trkpt>
      <trkpt lat="43.3409" lon="-1.47524">
        <ele>65</ele>
        <time>2026-08-23T14:45:19.000Z</time>
      </trkpt>
      <trkpt lat="43.3409" lon="-1.47525">
        <ele>65</ele>
        <time>2026-08-23T14:45:20.000Z</time>
      </trkpt>
      <trkpt lat="43.3409" lon="-1.47526">
        <ele>65</ele>
        <time>2026-08-23T14:45:20.000Z</time>
      </trkpt>
      <trkpt lat="43.34091" lon="-1.47527">
        <ele>65</ele>
        <time>2026-08-23T14:45:20.000Z</time>
      </trkpt>
      <trkpt lat="43.34091" lon="-1.47528">
        <ele>65</ele>
        <time>2026-08-23T14:45:20.000Z</time>
      </trkpt>
      <trkpt lat="43.34091" lon="-1.47529">
        <ele>65</ele>
        <time>2026-08-23T14:45:20.000Z</time>
      </trkpt>
      <trkpt lat="43.34091" lon="-1.4753">
        <ele>65</ele>
        <time>2026-08-23T14:45:20.000Z</time>
      </trkpt>
      <trkpt lat="43.34091" lon="-1.47531">
        <ele>65</ele>
        <time>2026-08-23T14:45:20.000Z</time>
      </trkpt>
      <trkpt lat="43.34091" lon="-1.47532">
        <ele>65</ele>
        <time>2026-08-23T14:45:21.000Z</time>
      </trkpt>
      <trkpt lat="43.34091" lon="-1.47533">
        <ele>65</ele>
        <time>2026-08-23T14:45:21.000Z</time>
      </trkpt>
      <trkpt lat="43.34091" lon="-1.47534">
        <ele>65</ele>
        <time>2026-08-23T14:45:21.000Z</time>
      </trkpt>
      <trkpt lat="43.3409" lon="-1.47535">
        <ele>65</ele>
        <time>2026-08-23T14:45:21.000Z</time>
      </trkpt>
      <trkpt lat="43.3409" lon="-1.47536">
        <ele>66</ele>
        <time>2026-08-23T14:45:21.000Z</time>
      </trkpt>
      <trkpt lat="43.3409" lon="-1.47537">
        <ele>66</ele>
        <time>2026-08-23T14:45:21.000Z</time>
      </trkpt>
      <trkpt lat="43.34089" lon="-1.47538">
        <ele>66</ele>
        <time>2026-08-23T14:45:22.000Z</time>
      </trkpt>
      <trkpt lat="43.34089" lon="-1.47539">
        <ele>66</ele>
        <time>2026-08-23T14:45:22.000Z</time>
      </trkpt>
      <trkpt lat="43.34088" lon="-1.4754">
        <ele>66</ele>
        <time>2026-08-23T14:45:22.000Z</time>
      </trkpt>
      <trkpt lat="43.34087" lon="-1.47541">
        <ele>66</ele>
        <time>2026-08-23T14:45:22.000Z</time>
      </trkpt>
      <trkpt lat="43.34087" lon="-1.47542">
        <ele>66</ele>
        <time>2026-08-23T14:45:22.000Z</time>
      </trkpt>
      <trkpt lat="43.34086" lon="-1.47542">
        <ele>66</ele>
        <time>2026-08-23T14:45:22.000Z</time>
      </trkpt>
      <trkpt lat="43.34086" lon="-1.47543">
        <ele>66</ele>
        <time>2026-08-23T14:45:23.000Z</time>
      </trkpt>
      <trkpt lat="43.34085" lon="-1.47543">
        <ele>66</ele>
        <time>2026-08-23T14:45:23.000Z</time>
      </trkpt>
      <trkpt lat="43.34084" lon="-1.47543">
        <ele>66</ele>
        <time>2026-08-23T14:45:23.000Z</time>
      </trkpt>
      <trkpt lat="43.34084" lon="-1.47544">
        <ele>66</ele>
        <time>2026-08-23T14:45:23.000Z</time>
      </trkpt>
      <trkpt lat="43.34083" lon="-1.47544">
        <ele>66</ele>
        <time>2026-08-23T14:45:23.000Z</time>
      </trkpt>
      <trkpt lat="43.34082" lon="-1.47544">
        <ele>66</ele>
        <time>2026-08-23T14:45:23.000Z</time>
      </trkpt>
      <trkpt lat="43.34081" lon="-1.47544">
        <ele>66</ele>
        <time>2026-08-23T14:45:24.000Z</time>
      </trkpt>
      <trkpt lat="43.34075" lon="-1.47556">
        <ele>67</ele>
        <time>2026-08-23T14:45:25.000Z</time>
      </trkpt>
      <trkpt lat="43.34066" lon="-1.4757">
        <ele>68</ele>
        <time>2026-08-23T14:45:28.000Z</time>
      </trkpt>
      <trkpt lat="43.34047" lon="-1.47602">
        <ele>68</ele>
        <time>2026-08-23T14:45:33.000Z</time>
      </trkpt>
      <trkpt lat="43.34042" lon="-1.4761">
        <ele>68</ele>
        <time>2026-08-23T14:45:35.000Z</time>
      </trkpt>
      <trkpt lat="43.34034" lon="-1.47623">
        <ele>68</ele>
        <time>2026-08-23T14:45:37.000Z</time>
      </trkpt>
      <trkpt lat="43.34026" lon="-1.47635">
        <ele>68</ele>
        <time>2026-08-23T14:45:39.000Z</time>
      </trkpt>
      <trkpt lat="43.34012" lon="-1.47654">
        <ele>68</ele>
        <time>2026-08-23T14:45:42.000Z</time>
      </trkpt>
      <trkpt lat="43.34004" lon="-1.47659">
        <ele>67</ele>
        <time>2026-08-23T14:45:44.000Z</time>
      </trkpt>
      <trkpt lat="43.33992" lon="-1.47675">
        <ele>67</ele>
        <time>2026-08-23T14:45:47.000Z</time>
      </trkpt>
      <trkpt lat="43.33979" lon="-1.4769">
        <ele>68</ele>
        <time>2026-08-23T14:45:50.000Z</time>
      </trkpt>
      <trkpt lat="43.33967" lon="-1.47703">
        <ele>68</ele>
        <time>2026-08-23T14:45:53.000Z</time>
      </trkpt>
      <trkpt lat="43.33955" lon="-1.47715">
        <ele>67</ele>
        <time>2026-08-23T14:45:55.000Z</time>
      </trkpt>
      <trkpt lat="43.33942" lon="-1.47726">
        <ele>67</ele>
        <time>2026-08-23T14:45:58.000Z</time>
      </trkpt>
      <trkpt lat="43.33928" lon="-1.47735">
        <ele>66</ele>
        <time>2026-08-23T14:46:01.000Z</time>
      </trkpt>
      <trkpt lat="43.3392" lon="-1.4774">
        <ele>65</ele>
        <time>2026-08-23T14:46:02.000Z</time>
      </trkpt>
      <trkpt lat="43.33912" lon="-1.47744">
        <ele>65</ele>
        <time>2026-08-23T14:46:04.000Z</time>
      </trkpt>
      <trkpt lat="43.33899" lon="-1.4775">
        <ele>65</ele>
        <time>2026-08-23T14:46:06.000Z</time>
      </trkpt>
      <trkpt lat="43.33889" lon="-1.47752">
        <ele>65</ele>
        <time>2026-08-23T14:46:08.000Z</time>
      </trkpt>
      <trkpt lat="43.33882" lon="-1.47753">
        <ele>65</ele>
        <time>2026-08-23T14:46:09.000Z</time>
      </trkpt>
      <trkpt lat="43.33875" lon="-1.47754">
        <ele>65</ele>
        <time>2026-08-23T14:46:11.000Z</time>
      </trkpt>
      <trkpt lat="43.33869" lon="-1.47754">
        <ele>65</ele>
        <time>2026-08-23T14:46:12.000Z</time>
      </trkpt>
      <trkpt lat="43.33857" lon="-1.47754">
        <ele>65</ele>
        <time>2026-08-23T14:46:14.000Z</time>
      </trkpt>
      <trkpt lat="43.33846" lon="-1.47754">
        <ele>65</ele>
        <time>2026-08-23T14:46:16.000Z</time>
      </trkpt>
      <trkpt lat="43.33835" lon="-1.47753">
        <ele>65</ele>
        <time>2026-08-23T14:46:18.000Z</time>
      </trkpt>
      <trkpt lat="43.33826" lon="-1.47751">
        <ele>65</ele>
        <time>2026-08-23T14:46:19.000Z</time>
      </trkpt>
      <trkpt lat="43.33819" lon="-1.47749">
        <ele>65</ele>
        <time>2026-08-23T14:46:21.000Z</time>
      </trkpt>
      <trkpt lat="43.33797" lon="-1.47743">
        <ele>66</ele>
        <time>2026-08-23T14:46:25.000Z</time>
      </trkpt>
      <trkpt lat="43.33765" lon="-1.47734">
        <ele>67</ele>
        <time>2026-08-23T14:46:30.000Z</time>
      </trkpt>
      <trkpt lat="43.33745" lon="-1.47729">
        <ele>67</ele>
        <time>2026-08-23T14:46:34.000Z</time>
      </trkpt>
      <trkpt lat="43.33736" lon="-1.47727">
        <ele>68</ele>
        <time>2026-08-23T14:46:36.000Z</time>
      </trkpt>
      <trkpt lat="43.33726" lon="-1.47726">
        <ele>68</ele>
        <time>2026-08-23T14:46:37.000Z</time>
      </trkpt>
      <trkpt lat="43.33716" lon="-1.47726">
        <ele>69</ele>
        <time>2026-08-23T14:46:39.000Z</time>
      </trkpt>
      <trkpt lat="43.33708" lon="-1.47728">
        <ele>69</ele>
        <time>2026-08-23T14:46:41.000Z</time>
      </trkpt>
      <trkpt lat="43.33701" lon="-1.47729">
        <ele>69</ele>
        <time>2026-08-23T14:46:42.000Z</time>
      </trkpt>
      <trkpt lat="43.33693" lon="-1.47732">
        <ele>70</ele>
        <time>2026-08-23T14:46:43.000Z</time>
      </trkpt>
      <trkpt lat="43.33685" lon="-1.47736">
        <ele>70</ele>
        <time>2026-08-23T14:46:45.000Z</time>
      </trkpt>
      <trkpt lat="43.33678" lon="-1.47739">
        <ele>70</ele>
        <time>2026-08-23T14:46:46.000Z</time>
      </trkpt>
      <trkpt lat="43.33671" lon="-1.47745">
        <ele>71</ele>
        <time>2026-08-23T14:46:48.000Z</time>
      </trkpt>
      <trkpt lat="43.33663" lon="-1.47753">
        <ele>71</ele>
        <time>2026-08-23T14:46:49.000Z</time>
      </trkpt>
      <trkpt lat="43.33655" lon="-1.4776">
        <ele>72</ele>
        <time>2026-08-23T14:46:51.000Z</time>
      </trkpt>
      <trkpt lat="43.33649" lon="-1.47768">
        <ele>72</ele>
        <time>2026-08-23T14:46:53.000Z</time>
      </trkpt>
      <trkpt lat="43.33644" lon="-1.47776">
        <ele>72</ele>
        <time>2026-08-23T14:46:54.000Z</time>
      </trkpt>
      <trkpt lat="43.33639" lon="-1.47786">
        <ele>73</ele>
        <time>2026-08-23T14:46:56.000Z</time>
      </trkpt>
      <trkpt lat="43.33633" lon="-1.47797">
        <ele>73</ele>
        <time>2026-08-23T14:46:57.000Z</time>
      </trkpt>
      <trkpt lat="43.3363" lon="-1.47805">
        <ele>74</ele>
        <time>2026-08-23T14:46:58.000Z</time>
      </trkpt>
      <trkpt lat="43.33627" lon="-1.47815">
        <ele>74</ele>
        <time>2026-08-23T14:47:00.000Z</time>
      </trkpt>
      <trkpt lat="43.33623" lon="-1.47834">
        <ele>75</ele>
        <time>2026-08-23T14:47:02.000Z</time>
      </trkpt>
      <trkpt lat="43.3362" lon="-1.47851">
        <ele>76</ele>
        <time>2026-08-23T14:47:05.000Z</time>
      </trkpt>
      <trkpt lat="43.33612" lon="-1.47909">
        <ele>79</ele>
        <time>2026-08-23T14:47:12.000Z</time>
      </trkpt>
      <trkpt lat="43.33601" lon="-1.47995">
        <ele>84</ele>
        <time>2026-08-23T14:47:24.000Z</time>
      </trkpt>
      <trkpt lat="43.33593" lon="-1.48064">
        <ele>87</ele>
        <time>2026-08-23T14:47:33.000Z</time>
      </trkpt>
      <trkpt lat="43.33583" lon="-1.48136">
        <ele>91</ele>
        <time>2026-08-23T14:47:42.000Z</time>
      </trkpt>
      <trkpt lat="43.33581" lon="-1.48154">
        <ele>92</ele>
        <time>2026-08-23T14:47:44.000Z</time>
      </trkpt>
      <trkpt lat="43.33577" lon="-1.4818">
        <ele>93</ele>
        <time>2026-08-23T14:47:48.000Z</time>
      </trkpt>
      <trkpt lat="43.33574" lon="-1.48197">
        <ele>94</ele>
        <time>2026-08-23T14:47:50.000Z</time>
      </trkpt>
      <trkpt lat="43.33571" lon="-1.48215">
        <ele>95</ele>
        <time>2026-08-23T14:47:53.000Z</time>
      </trkpt>
      <trkpt lat="43.33568" lon="-1.48235">
        <ele>96</ele>
        <time>2026-08-23T14:47:55.000Z</time>
      </trkpt>
      <trkpt lat="43.33564" lon="-1.4825">
        <ele>97</ele>
        <time>2026-08-23T14:47:57.000Z</time>
      </trkpt>
      <trkpt lat="43.33561" lon="-1.48261">
        <ele>97</ele>
        <time>2026-08-23T14:47:59.000Z</time>
      </trkpt>
      <trkpt lat="43.33557" lon="-1.48272">
        <ele>98</ele>
        <time>2026-08-23T14:48:00.000Z</time>
      </trkpt>
      <trkpt lat="43.33554" lon="-1.48281">
        <ele>98</ele>
        <time>2026-08-23T14:48:02.000Z</time>
      </trkpt>
      <trkpt lat="43.33544" lon="-1.48305">
        <ele>99</ele>
        <time>2026-08-23T14:48:05.000Z</time>
      </trkpt>
      <trkpt lat="43.33537" lon="-1.48321">
        <ele>99</ele>
        <time>2026-08-23T14:48:08.000Z</time>
      </trkpt>
      <trkpt lat="43.33529" lon="-1.48335">
        <ele>99</ele>
        <time>2026-08-23T14:48:10.000Z</time>
      </trkpt>
      <trkpt lat="43.33516" lon="-1.48356">
        <ele>99</ele>
        <time>2026-08-23T14:48:14.000Z</time>
      </trkpt>
      <trkpt lat="43.33505" lon="-1.48376">
        <ele>100</ele>
        <time>2026-08-23T14:48:17.000Z</time>
      </trkpt>
      <trkpt lat="43.33497" lon="-1.48391">
        <ele>101</ele>
        <time>2026-08-23T14:48:19.000Z</time>
      </trkpt>
      <trkpt lat="43.33488" lon="-1.48406">
        <ele>102</ele>
        <time>2026-08-23T14:48:22.000Z</time>
      </trkpt>
      <trkpt lat="43.33482" lon="-1.4842">
        <ele>103</ele>
        <time>2026-08-23T14:48:24.000Z</time>
      </trkpt>
      <trkpt lat="43.33475" lon="-1.48432">
        <ele>103</ele>
        <time>2026-08-23T14:48:26.000Z</time>
      </trkpt>
      <trkpt lat="43.3347" lon="-1.48444">
        <ele>104</ele>
        <time>2026-08-23T14:48:28.000Z</time>
      </trkpt>
      <trkpt lat="43.33466" lon="-1.48456">
        <ele>105</ele>
        <time>2026-08-23T14:48:29.000Z</time>
      </trkpt>
      <trkpt lat="43.33461" lon="-1.48469">
        <ele>105</ele>
        <time>2026-08-23T14:48:31.000Z</time>
      </trkpt>
      <trkpt lat="43.33457" lon="-1.48481">
        <ele>106</ele>
        <time>2026-08-23T14:48:33.000Z</time>
      </trkpt>
      <trkpt lat="43.33454" lon="-1.48494">
        <ele>107</ele>
        <time>2026-08-23T14:48:35.000Z</time>
      </trkpt>
      <trkpt lat="43.3345" lon="-1.48513">
        <ele>108</ele>
        <time>2026-08-23T14:48:37.000Z</time>
      </trkpt>
      <trkpt lat="43.33446" lon="-1.48533">
        <ele>108</ele>
        <time>2026-08-23T14:48:40.000Z</time>
      </trkpt>
      <trkpt lat="43.33442" lon="-1.48569">
        <ele>110</ele>
        <time>2026-08-23T14:48:45.000Z</time>
      </trkpt>
      <trkpt lat="43.3344" lon="-1.48583">
        <ele>111</ele>
        <time>2026-08-23T14:48:47.000Z</time>
      </trkpt>
      <trkpt lat="43.33437" lon="-1.48596">
        <ele>111</ele>
        <time>2026-08-23T14:48:48.000Z</time>
      </trkpt>
      <trkpt lat="43.33432" lon="-1.48611">
        <ele>111</ele>
        <time>2026-08-23T14:48:50.000Z</time>
      </trkpt>
      <trkpt lat="43.33428" lon="-1.48623">
        <ele>111</ele>
        <time>2026-08-23T14:48:52.000Z</time>
      </trkpt>
      <trkpt lat="43.33423" lon="-1.48636">
        <ele>110</ele>
        <time>2026-08-23T14:48:54.000Z</time>
      </trkpt>
      <trkpt lat="43.33417" lon="-1.48648">
        <ele>110</ele>
        <time>2026-08-23T14:48:56.000Z</time>
      </trkpt>
      <trkpt lat="43.33411" lon="-1.48658">
        <ele>110</ele>
        <time>2026-08-23T14:48:58.000Z</time>
      </trkpt>
      <trkpt lat="43.33402" lon="-1.4867">
        <ele>111</ele>
        <time>2026-08-23T14:49:00.000Z</time>
      </trkpt>
      <trkpt lat="43.33395" lon="-1.4868">
        <ele>111</ele>
        <time>2026-08-23T14:49:02.000Z</time>
      </trkpt>
      <trkpt lat="43.33385" lon="-1.48689">
        <ele>112</ele>
        <time>2026-08-23T14:49:04.000Z</time>
      </trkpt>
      <trkpt lat="43.33376" lon="-1.48698">
        <ele>113</ele>
        <time>2026-08-23T14:49:06.000Z</time>
      </trkpt>
      <trkpt lat="43.33362" lon="-1.48714">
        <ele>114</ele>
        <time>2026-08-23T14:49:09.000Z</time>
      </trkpt>
      <trkpt lat="43.33356" lon="-1.48721">
        <ele>115</ele>
        <time>2026-08-23T14:49:10.000Z</time>
      </trkpt>
      <trkpt lat="43.3335" lon="-1.48728">
        <ele>116</ele>
        <time>2026-08-23T14:49:12.000Z</time>
      </trkpt>
      <trkpt lat="43.33343" lon="-1.48738">
        <ele>117</ele>
        <time>2026-08-23T14:49:14.000Z</time>
      </trkpt>
      <trkpt lat="43.33337" lon="-1.48747">
        <ele>118</ele>
        <time>2026-08-23T14:49:15.000Z</time>
      </trkpt>
      <trkpt lat="43.3333" lon="-1.48757">
        <ele>118</ele>
        <time>2026-08-23T14:49:17.000Z</time>
      </trkpt>
      <trkpt lat="43.33322" lon="-1.48773">
        <ele>119</ele>
        <time>2026-08-23T14:49:19.000Z</time>
      </trkpt>
      <trkpt lat="43.33315" lon="-1.48785">
        <ele>120</ele>
        <time>2026-08-23T14:49:21.000Z</time>
      </trkpt>
      <trkpt lat="43.33307" lon="-1.488">
        <ele>120</ele>
        <time>2026-08-23T14:49:24.000Z</time>
      </trkpt>
      <trkpt lat="43.33302" lon="-1.48811">
        <ele>121</ele>
        <time>2026-08-23T14:49:26.000Z</time>
      </trkpt>
      <trkpt lat="43.33296" lon="-1.48827">
        <ele>121</ele>
        <time>2026-08-23T14:49:28.000Z</time>
      </trkpt>
      <trkpt lat="43.33291" lon="-1.4884">
        <ele>122</ele>
        <time>2026-08-23T14:49:30.000Z</time>
      </trkpt>
      <trkpt lat="43.3329" lon="-1.48846">
        <ele>122</ele>
        <time>2026-08-23T14:49:31.000Z</time>
      </trkpt>
      <trkpt lat="43.33287" lon="-1.48855">
        <ele>122</ele>
        <time>2026-08-23T14:49:32.000Z</time>
      </trkpt>
      <trkpt lat="43.33286" lon="-1.48865">
        <ele>122</ele>
        <time>2026-08-23T14:49:33.000Z</time>
      </trkpt>
      <trkpt lat="43.33284" lon="-1.48874">
        <ele>122</ele>
        <time>2026-08-23T14:49:34.000Z</time>
      </trkpt>
      <trkpt lat="43.33283" lon="-1.48903">
        <ele>123</ele>
        <time>2026-08-23T14:49:38.000Z</time>
      </trkpt>
      <trkpt lat="43.33283" lon="-1.48914">
        <ele>123</ele>
        <time>2026-08-23T14:49:40.000Z</time>
      </trkpt>
      <trkpt lat="43.33283" lon="-1.48922">
        <ele>123</ele>
        <time>2026-08-23T14:49:41.000Z</time>
      </trkpt>
      <trkpt lat="43.33283" lon="-1.48922">
        <ele>123</ele>
        <time>2026-08-23T14:49:41.000Z</time>
      </trkpt>
      <trkpt lat="43.33284" lon="-1.48922">
        <ele>123</ele>
        <time>2026-08-23T14:49:41.000Z</time>
      </trkpt>
      <trkpt lat="43.33285" lon="-1.48922">
        <ele>123</ele>
        <time>2026-08-23T14:49:41.000Z</time>
      </trkpt>
      <trkpt lat="43.33285" lon="-1.48923">
        <ele>123</ele>
        <time>2026-08-23T14:49:41.000Z</time>
      </trkpt>
      <trkpt lat="43.33286" lon="-1.48923">
        <ele>123</ele>
        <time>2026-08-23T14:49:41.000Z</time>
      </trkpt>
      <trkpt lat="43.33287" lon="-1.48924">
        <ele>123</ele>
        <time>2026-08-23T14:49:41.000Z</time>
      </trkpt>
      <trkpt lat="43.33288" lon="-1.48924">
        <ele>123</ele>
        <time>2026-08-23T14:49:42.000Z</time>
      </trkpt>
      <trkpt lat="43.33288" lon="-1.48925">
        <ele>123</ele>
        <time>2026-08-23T14:49:42.000Z</time>
      </trkpt>
      <trkpt lat="43.33289" lon="-1.48925">
        <ele>123</ele>
        <time>2026-08-23T14:49:42.000Z</time>
      </trkpt>
      <trkpt lat="43.33289" lon="-1.48926">
        <ele>123</ele>
        <time>2026-08-23T14:49:42.000Z</time>
      </trkpt>
      <trkpt lat="43.3329" lon="-1.48926">
        <ele>123</ele>
        <time>2026-08-23T14:49:42.000Z</time>
      </trkpt>
      <trkpt lat="43.3329" lon="-1.48927">
        <ele>123</ele>
        <time>2026-08-23T14:49:42.000Z</time>
      </trkpt>
      <trkpt lat="43.33291" lon="-1.48928">
        <ele>123</ele>
        <time>2026-08-23T14:49:43.000Z</time>
      </trkpt>
      <trkpt lat="43.33291" lon="-1.48929">
        <ele>123</ele>
        <time>2026-08-23T14:49:43.000Z</time>
      </trkpt>
      <trkpt lat="43.33291" lon="-1.4893">
        <ele>123</ele>
        <time>2026-08-23T14:49:43.000Z</time>
      </trkpt>
      <trkpt lat="43.33292" lon="-1.4893">
        <ele>123</ele>
        <time>2026-08-23T14:49:43.000Z</time>
      </trkpt>
      <trkpt lat="43.33292" lon="-1.48931">
        <ele>123</ele>
        <time>2026-08-23T14:49:43.000Z</time>
      </trkpt>
      <trkpt lat="43.33292" lon="-1.48932">
        <ele>123</ele>
        <time>2026-08-23T14:49:43.000Z</time>
      </trkpt>
      <trkpt lat="43.33292" lon="-1.48933">
        <ele>123</ele>
        <time>2026-08-23T14:49:43.000Z</time>
      </trkpt>
      <trkpt lat="43.33293" lon="-1.48934">
        <ele>123</ele>
        <time>2026-08-23T14:49:44.000Z</time>
      </trkpt>
      <trkpt lat="43.33293" lon="-1.48935">
        <ele>124</ele>
        <time>2026-08-23T14:49:44.000Z</time>
      </trkpt>
      <trkpt lat="43.33293" lon="-1.48936">
        <ele>124</ele>
        <time>2026-08-23T14:49:44.000Z</time>
      </trkpt>
      <trkpt lat="43.33293" lon="-1.48937">
        <ele>124</ele>
        <time>2026-08-23T14:49:44.000Z</time>
      </trkpt>
      <trkpt lat="43.33293" lon="-1.48938">
        <ele>124</ele>
        <time>2026-08-23T14:49:44.000Z</time>
      </trkpt>
      <trkpt lat="43.33293" lon="-1.48939">
        <ele>124</ele>
        <time>2026-08-23T14:49:44.000Z</time>
      </trkpt>
      <trkpt lat="43.33293" lon="-1.4894">
        <ele>124</ele>
        <time>2026-08-23T14:49:44.000Z</time>
      </trkpt>
      <trkpt lat="43.33292" lon="-1.4894">
        <ele>124</ele>
        <time>2026-08-23T14:49:45.000Z</time>
      </trkpt>
      <trkpt lat="43.33292" lon="-1.48941">
        <ele>124</ele>
        <time>2026-08-23T14:49:45.000Z</time>
      </trkpt>
      <trkpt lat="43.33292" lon="-1.48942">
        <ele>124</ele>
        <time>2026-08-23T14:49:45.000Z</time>
      </trkpt>
      <trkpt lat="43.33292" lon="-1.48943">
        <ele>124</ele>
        <time>2026-08-23T14:49:45.000Z</time>
      </trkpt>
      <trkpt lat="43.33291" lon="-1.48944">
        <ele>124</ele>
        <time>2026-08-23T14:49:45.000Z</time>
      </trkpt>
      <trkpt lat="43.33291" lon="-1.48945">
        <ele>124</ele>
        <time>2026-08-23T14:49:45.000Z</time>
      </trkpt>
      <trkpt lat="43.3329" lon="-1.48946">
        <ele>124</ele>
        <time>2026-08-23T14:49:46.000Z</time>
      </trkpt>
      <trkpt lat="43.3329" lon="-1.48947">
        <ele>124</ele>
        <time>2026-08-23T14:49:46.000Z</time>
      </trkpt>
      <trkpt lat="43.33289" lon="-1.48947">
        <ele>124</ele>
        <time>2026-08-23T14:49:46.000Z</time>
      </trkpt>
      <trkpt lat="43.33289" lon="-1.48948">
        <ele>124</ele>
        <time>2026-08-23T14:49:46.000Z</time>
      </trkpt>
      <trkpt lat="43.33288" lon="-1.48949">
        <ele>124</ele>
        <time>2026-08-23T14:49:46.000Z</time>
      </trkpt>
      <trkpt lat="43.33287" lon="-1.48949">
        <ele>124</ele>
        <time>2026-08-23T14:49:46.000Z</time>
      </trkpt>
      <trkpt lat="43.33295" lon="-1.48967">
        <ele>124</ele>
        <time>2026-08-23T14:49:49.000Z</time>
      </trkpt>
      <trkpt lat="43.333" lon="-1.48979">
        <ele>124</ele>
        <time>2026-08-23T14:49:51.000Z</time>
      </trkpt>
      <trkpt lat="43.33303" lon="-1.48988">
        <ele>124</ele>
        <time>2026-08-23T14:49:52.000Z</time>
      </trkpt>
      <trkpt lat="43.33306" lon="-1.49001">
        <ele>123</ele>
        <time>2026-08-23T14:49:54.000Z</time>
      </trkpt>
      <trkpt lat="43.33308" lon="-1.49013">
        <ele>122</ele>
        <time>2026-08-23T14:49:56.000Z</time>
      </trkpt>
      <trkpt lat="43.33309" lon="-1.49019">
        <ele>122</ele>
        <time>2026-08-23T14:49:56.000Z</time>
      </trkpt>
      <trkpt lat="43.33311" lon="-1.49031">
        <ele>121</ele>
        <time>2026-08-23T14:49:58.000Z</time>
      </trkpt>
      <trkpt lat="43.33312" lon="-1.49042">
        <ele>121</ele>
        <time>2026-08-23T14:49:59.000Z</time>
      </trkpt>
      <trkpt lat="43.33314" lon="-1.4907">
        <ele>119</ele>
        <time>2026-08-23T14:50:03.000Z</time>
      </trkpt>
      <trkpt lat="43.33317" lon="-1.49105">
        <ele>117</ele>
        <time>2026-08-23T14:50:08.000Z</time>
      </trkpt>
      <trkpt lat="43.33318" lon="-1.49134">
        <ele>115</ele>
        <time>2026-08-23T14:50:11.000Z</time>
      </trkpt>
      <trkpt lat="43.33321" lon="-1.49175">
        <ele>112</ele>
        <time>2026-08-23T14:50:17.000Z</time>
      </trkpt>
      <trkpt lat="43.33325" lon="-1.49228">
        <ele>111</ele>
        <time>2026-08-23T14:50:24.000Z</time>
      </trkpt>
      <trkpt lat="43.3333" lon="-1.49304">
        <ele>108</ele>
        <time>2026-08-23T14:50:33.000Z</time>
      </trkpt>
      <trkpt lat="43.33333" lon="-1.49346">
        <ele>106</ele>
        <time>2026-08-23T14:50:39.000Z</time>
      </trkpt>
      <trkpt lat="43.33336" lon="-1.49382">
        <ele>105</ele>
        <time>2026-08-23T14:50:44.000Z</time>
      </trkpt>
      <trkpt lat="43.33337" lon="-1.49405">
        <ele>104</ele>
        <time>2026-08-23T14:50:47.000Z</time>
      </trkpt>
      <trkpt lat="43.33337" lon="-1.49418">
        <ele>104</ele>
        <time>2026-08-23T14:50:48.000Z</time>
      </trkpt>
      <trkpt lat="43.33337" lon="-1.49424">
        <ele>104</ele>
        <time>2026-08-23T14:50:49.000Z</time>
      </trkpt>
      <trkpt lat="43.33337" lon="-1.49432">
        <ele>104</ele>
        <time>2026-08-23T14:50:50.000Z</time>
      </trkpt>
      <trkpt lat="43.33337" lon="-1.49439">
        <ele>104</ele>
        <time>2026-08-23T14:50:51.000Z</time>
      </trkpt>
      <trkpt lat="43.33337" lon="-1.49453">
        <ele>105</ele>
        <time>2026-08-23T14:50:53.000Z</time>
      </trkpt>
      <trkpt lat="43.33337" lon="-1.49469">
        <ele>105</ele>
        <time>2026-08-23T14:50:55.000Z</time>
      </trkpt>
      <trkpt lat="43.33336" lon="-1.49486">
        <ele>105</ele>
        <time>2026-08-23T14:50:57.000Z</time>
      </trkpt>
      <trkpt lat="43.33336" lon="-1.49499">
        <ele>106</ele>
        <time>2026-08-23T14:50:59.000Z</time>
      </trkpt>
      <trkpt lat="43.33334" lon="-1.49515">
        <ele>105</ele>
        <time>2026-08-23T14:51:01.000Z</time>
      </trkpt>
      <trkpt lat="43.33332" lon="-1.49533">
        <ele>104</ele>
        <time>2026-08-23T14:51:03.000Z</time>
      </trkpt>
      <trkpt lat="43.33327" lon="-1.49571">
        <ele>103</ele>
        <time>2026-08-23T14:51:08.000Z</time>
      </trkpt>
      <trkpt lat="43.33321" lon="-1.49618">
        <ele>101</ele>
        <time>2026-08-23T14:51:14.000Z</time>
      </trkpt>
      <trkpt lat="43.33315" lon="-1.49664">
        <ele>98</ele>
        <time>2026-08-23T14:51:20.000Z</time>
      </trkpt>
      <trkpt lat="43.33312" lon="-1.49701">
        <ele>96</ele>
        <time>2026-08-23T14:51:25.000Z</time>
      </trkpt>
      <trkpt lat="43.3331" lon="-1.49732">
        <ele>95</ele>
        <time>2026-08-23T14:51:29.000Z</time>
      </trkpt>
      <trkpt lat="43.3331" lon="-1.49773">
        <ele>94</ele>
        <time>2026-08-23T14:51:35.000Z</time>
      </trkpt>
      <trkpt lat="43.33311" lon="-1.49794">
        <ele>94</ele>
        <time>2026-08-23T14:51:37.000Z</time>
      </trkpt>
      <trkpt lat="43.33313" lon="-1.49812">
        <ele>93</ele>
        <time>2026-08-23T14:51:40.000Z</time>
      </trkpt>
      <trkpt lat="43.33316" lon="-1.49827">
        <ele>93</ele>
        <time>2026-08-23T14:51:42.000Z</time>
      </trkpt>
      <trkpt lat="43.33318" lon="-1.49838">
        <ele>92</ele>
        <time>2026-08-23T14:51:43.000Z</time>
      </trkpt>
      <trkpt lat="43.33325" lon="-1.49864">
        <ele>90</ele>
        <time>2026-08-23T14:51:47.000Z</time>
      </trkpt>
      <trkpt lat="43.33333" lon="-1.49884">
        <ele>88</ele>
        <time>2026-08-23T14:51:50.000Z</time>
      </trkpt>
      <trkpt lat="43.33346" lon="-1.49921">
        <ele>86</ele>
        <time>2026-08-23T14:51:55.000Z</time>
      </trkpt>
      <trkpt lat="43.33372" lon="-1.49994">
        <ele>82</ele>
        <time>2026-08-23T14:52:06.000Z</time>
      </trkpt>
      <trkpt lat="43.3339" lon="-1.50049">
        <ele>81</ele>
        <time>2026-08-23T14:52:13.000Z</time>
      </trkpt>
      <trkpt lat="43.33409" lon="-1.501">
        <ele>78</ele>
        <time>2026-08-23T14:52:21.000Z</time>
      </trkpt>
      <trkpt lat="43.33425" lon="-1.50147">
        <ele>77</ele>
        <time>2026-08-23T14:52:27.000Z</time>
      </trkpt>
      <trkpt lat="43.33437" lon="-1.50182">
        <ele>77</ele>
        <time>2026-08-23T14:52:32.000Z</time>
      </trkpt>
      <trkpt lat="43.33447" lon="-1.50212">
        <ele>77</ele>
        <time>2026-08-23T14:52:37.000Z</time>
      </trkpt>
      <trkpt lat="43.33454" lon="-1.50232">
        <ele>77</ele>
        <time>2026-08-23T14:52:40.000Z</time>
      </trkpt>
      <trkpt lat="43.33464" lon="-1.50255">
        <ele>77</ele>
        <time>2026-08-23T14:52:43.000Z</time>
      </trkpt>
      <trkpt lat="43.33468" lon="-1.50265">
        <ele>76</ele>
        <time>2026-08-23T14:52:45.000Z</time>
      </trkpt>
      <trkpt lat="43.33474" lon="-1.50275">
        <ele>76</ele>
        <time>2026-08-23T14:52:46.000Z</time>
      </trkpt>
      <trkpt lat="43.33482" lon="-1.50289">
        <ele>76</ele>
        <time>2026-08-23T14:52:49.000Z</time>
      </trkpt>
      <trkpt lat="43.33493" lon="-1.50305">
        <ele>75</ele>
        <time>2026-08-23T14:52:51.000Z</time>
      </trkpt>
      <trkpt lat="43.33504" lon="-1.5032">
        <ele>75</ele>
        <time>2026-08-23T14:52:54.000Z</time>
      </trkpt>
      <trkpt lat="43.33514" lon="-1.50333">
        <ele>75</ele>
        <time>2026-08-23T14:52:57.000Z</time>
      </trkpt>
      <trkpt lat="43.33545" lon="-1.50372">
        <ele>77</ele>
        <time>2026-08-23T14:53:04.000Z</time>
      </trkpt>
      <trkpt lat="43.33556" lon="-1.50386">
        <ele>76</ele>
        <time>2026-08-23T14:53:07.000Z</time>
      </trkpt>
      <trkpt lat="43.33563" lon="-1.50397">
        <ele>76</ele>
        <time>2026-08-23T14:53:09.000Z</time>
      </trkpt>
      <trkpt lat="43.3357" lon="-1.5041">
        <ele>75</ele>
        <time>2026-08-23T14:53:11.000Z</time>
      </trkpt>
      <trkpt lat="43.33576" lon="-1.50424">
        <ele>75</ele>
        <time>2026-08-23T14:53:13.000Z</time>
      </trkpt>
      <trkpt lat="43.33584" lon="-1.50442">
        <ele>75</ele>
        <time>2026-08-23T14:53:16.000Z</time>
      </trkpt>
      <trkpt lat="43.3359" lon="-1.50462">
        <ele>76</ele>
        <time>2026-08-23T14:53:18.000Z</time>
      </trkpt>
      <trkpt lat="43.33595" lon="-1.5048">
        <ele>77</ele>
        <time>2026-08-23T14:53:21.000Z</time>
      </trkpt>
      <trkpt lat="43.33601" lon="-1.50501">
        <ele>77</ele>
        <time>2026-08-23T14:53:24.000Z</time>
      </trkpt>
      <trkpt lat="43.33603" lon="-1.50513">
        <ele>77</ele>
        <time>2026-08-23T14:53:25.000Z</time>
      </trkpt>
      <trkpt lat="43.33607" lon="-1.50535">
        <ele>76</ele>
        <time>2026-08-23T14:53:28.000Z</time>
      </trkpt>
      <trkpt lat="43.33609" lon="-1.5055">
        <ele>76</ele>
        <time>2026-08-23T14:53:30.000Z</time>
      </trkpt>
      <trkpt lat="43.33609" lon="-1.50563">
        <ele>76</ele>
        <time>2026-08-23T14:53:32.000Z</time>
      </trkpt>
      <trkpt lat="43.33608" lon="-1.50575">
        <ele>76</ele>
        <time>2026-08-23T14:53:33.000Z</time>
      </trkpt>
      <trkpt lat="43.33607" lon="-1.50588">
        <ele>76</ele>
        <time>2026-08-23T14:53:35.000Z</time>
      </trkpt>
      <trkpt lat="43.33605" lon="-1.506">
        <ele>75</ele>
        <time>2026-08-23T14:53:37.000Z</time>
      </trkpt>
      <trkpt lat="43.336" lon="-1.50627">
        <ele>73</ele>
        <time>2026-08-23T14:53:40.000Z</time>
      </trkpt>
      <trkpt lat="43.33592" lon="-1.50664">
        <ele>69</ele>
        <time>2026-08-23T14:53:45.000Z</time>
      </trkpt>
      <trkpt lat="43.33592" lon="-1.50673">
        <ele>69</ele>
        <time>2026-08-23T14:53:47.000Z</time>
      </trkpt>
      <trkpt lat="43.3359" lon="-1.50691">
        <ele>67</ele>
        <time>2026-08-23T14:53:49.000Z</time>
      </trkpt>
      <trkpt lat="43.33589" lon="-1.50702">
        <ele>66</ele>
        <time>2026-08-23T14:53:50.000Z</time>
      </trkpt>
      <trkpt lat="43.33588" lon="-1.50731">
        <ele>62</ele>
        <time>2026-08-23T14:53:54.000Z</time>
      </trkpt>
      <trkpt lat="43.33589" lon="-1.50746">
        <ele>61</ele>
        <time>2026-08-23T14:53:56.000Z</time>
      </trkpt>
      <trkpt lat="43.33589" lon="-1.50757">
        <ele>60</ele>
        <time>2026-08-23T14:53:57.000Z</time>
      </trkpt>
      <trkpt lat="43.33591" lon="-1.50775">
        <ele>60</ele>
        <time>2026-08-23T14:54:00.000Z</time>
      </trkpt>
      <trkpt lat="43.336" lon="-1.50844">
        <ele>59</ele>
        <time>2026-08-23T14:54:09.000Z</time>
      </trkpt>
      <trkpt lat="43.336" lon="-1.50856">
        <ele>59</ele>
        <time>2026-08-23T14:54:10.000Z</time>
      </trkpt>
      <trkpt lat="43.33608" lon="-1.50926">
        <ele>57</ele>
        <time>2026-08-23T14:54:20.000Z</time>
      </trkpt>
      <trkpt lat="43.33615" lon="-1.50974">
        <ele>55</ele>
        <time>2026-08-23T14:54:26.000Z</time>
      </trkpt>
      <trkpt lat="43.33621" lon="-1.51021">
        <ele>54</ele>
        <time>2026-08-23T14:54:32.000Z</time>
      </trkpt>
      <trkpt lat="43.33628" lon="-1.51078">
        <ele>53</ele>
        <time>2026-08-23T14:54:40.000Z</time>
      </trkpt>
      <trkpt lat="43.33632" lon="-1.51108">
        <ele>53</ele>
        <time>2026-08-23T14:54:44.000Z</time>
      </trkpt>
      <trkpt lat="43.33638" lon="-1.51135">
        <ele>52</ele>
        <time>2026-08-23T14:54:47.000Z</time>
      </trkpt>
      <trkpt lat="43.33645" lon="-1.51166">
        <ele>52</ele>
        <time>2026-08-23T14:54:51.000Z</time>
      </trkpt>
      <trkpt lat="43.33657" lon="-1.51204">
        <ele>51</ele>
        <time>2026-08-23T14:54:57.000Z</time>
      </trkpt>
      <trkpt lat="43.33662" lon="-1.51222">
        <ele>50</ele>
        <time>2026-08-23T14:54:59.000Z</time>
      </trkpt>
      <trkpt lat="43.33678" lon="-1.51274">
        <ele>50</ele>
        <time>2026-08-23T14:55:07.000Z</time>
      </trkpt>
      <trkpt lat="43.33695" lon="-1.51327">
        <ele>49</ele>
        <time>2026-08-23T14:55:14.000Z</time>
      </trkpt>
      <trkpt lat="43.33715" lon="-1.51392">
        <ele>48</ele>
        <time>2026-08-23T14:55:23.000Z</time>
      </trkpt>
      <trkpt lat="43.33735" lon="-1.51459">
        <ele>48</ele>
        <time>2026-08-23T14:55:33.000Z</time>
      </trkpt>
      <trkpt lat="43.33748" lon="-1.51501">
        <ele>47</ele>
        <time>2026-08-23T14:55:38.000Z</time>
      </trkpt>
      <trkpt lat="43.33749" lon="-1.51502">
        <ele>47</ele>
        <time>2026-08-23T14:55:39.000Z</time>
      </trkpt>
      <trkpt lat="43.33756" lon="-1.51521">
        <ele>47</ele>
        <time>2026-08-23T14:55:41.000Z</time>
      </trkpt>
      <trkpt lat="43.33761" lon="-1.51533">
        <ele>47</ele>
        <time>2026-08-23T14:55:43.000Z</time>
      </trkpt>
      <trkpt lat="43.33772" lon="-1.51561">
        <ele>47</ele>
        <time>2026-08-23T14:55:47.000Z</time>
      </trkpt>
      <trkpt lat="43.3382" lon="-1.51674">
        <ele>45</ele>
        <time>2026-08-23T14:56:04.000Z</time>
      </trkpt>
      <trkpt lat="43.33835" lon="-1.5171">
        <ele>44</ele>
        <time>2026-08-23T14:56:10.000Z</time>
      </trkpt>
      <trkpt lat="43.33908" lon="-1.51887">
        <ele>44</ele>
        <time>2026-08-23T14:56:36.000Z</time>
      </trkpt>
      <trkpt lat="43.33969" lon="-1.52031">
        <ele>41</ele>
        <time>2026-08-23T14:56:58.000Z</time>
      </trkpt>
      <trkpt lat="43.33981" lon="-1.52058">
        <ele>41</ele>
        <time>2026-08-23T14:57:02.000Z</time>
      </trkpt>
      <trkpt lat="43.33993" lon="-1.52089">
        <ele>41</ele>
        <time>2026-08-23T14:57:06.000Z</time>
      </trkpt>
      <trkpt lat="43.34076" lon="-1.52288">
        <ele>42</ele>
        <time>2026-08-23T14:57:36.000Z</time>
      </trkpt>
      <trkpt lat="43.34133" lon="-1.52424">
        <ele>42</ele>
        <time>2026-08-23T14:57:56.000Z</time>
      </trkpt>
      <trkpt lat="43.3414" lon="-1.52441">
        <ele>42</ele>
        <time>2026-08-23T14:57:59.000Z</time>
      </trkpt>
      <trkpt lat="43.34147" lon="-1.52454">
        <ele>42</ele>
        <time>2026-08-23T14:58:01.000Z</time>
      </trkpt>
      <trkpt lat="43.34159" lon="-1.52479">
        <ele>41</ele>
        <time>2026-08-23T14:58:05.000Z</time>
      </trkpt>
      <trkpt lat="43.34182" lon="-1.52518">
        <ele>42</ele>
        <time>2026-08-23T14:58:11.000Z</time>
      </trkpt>
      <trkpt lat="43.34264" lon="-1.52653">
        <ele>40</ele>
        <time>2026-08-23T14:58:34.000Z</time>
      </trkpt>
      <trkpt lat="43.34276" lon="-1.52671">
        <ele>40</ele>
        <time>2026-08-23T14:58:37.000Z</time>
      </trkpt>
      <trkpt lat="43.34301" lon="-1.52712">
        <ele>39</ele>
        <time>2026-08-23T14:58:44.000Z</time>
      </trkpt>
      <trkpt lat="43.34319" lon="-1.52744">
        <ele>36</ele>
        <time>2026-08-23T14:58:49.000Z</time>
      </trkpt>
      <trkpt lat="43.34327" lon="-1.52761">
        <ele>35</ele>
        <time>2026-08-23T14:58:52.000Z</time>
      </trkpt>
      <trkpt lat="43.34327" lon="-1.52761">
        <ele>35</ele>
        <time>2026-08-23T14:58:52.000Z</time>
      </trkpt>
      <trkpt lat="43.34329" lon="-1.5276">
        <ele>35</ele>
        <time>2026-08-23T14:58:52.000Z</time>
      </trkpt>
      <trkpt lat="43.3433" lon="-1.52759">
        <ele>35</ele>
        <time>2026-08-23T14:58:52.000Z</time>
      </trkpt>
      <trkpt lat="43.34331" lon="-1.52758">
        <ele>35</ele>
        <time>2026-08-23T14:58:53.000Z</time>
      </trkpt>
      <trkpt lat="43.34333" lon="-1.52758">
        <ele>35</ele>
        <time>2026-08-23T14:58:53.000Z</time>
      </trkpt>
      <trkpt lat="43.34334" lon="-1.52758">
        <ele>35</ele>
        <time>2026-08-23T14:58:53.000Z</time>
      </trkpt>
      <trkpt lat="43.34335" lon="-1.52758">
        <ele>35</ele>
        <time>2026-08-23T14:58:53.000Z</time>
      </trkpt>
      <trkpt lat="43.34337" lon="-1.52758">
        <ele>35</ele>
        <time>2026-08-23T14:58:54.000Z</time>
      </trkpt>
      <trkpt lat="43.34338" lon="-1.52758">
        <ele>35</ele>
        <time>2026-08-23T14:58:54.000Z</time>
      </trkpt>
      <trkpt lat="43.3434" lon="-1.52758">
        <ele>35</ele>
        <time>2026-08-23T14:58:54.000Z</time>
      </trkpt>
      <trkpt lat="43.34341" lon="-1.52758">
        <ele>35</ele>
        <time>2026-08-23T14:58:54.000Z</time>
      </trkpt>
      <trkpt lat="43.34342" lon="-1.52759">
        <ele>35</ele>
        <time>2026-08-23T14:58:55.000Z</time>
      </trkpt>
      <trkpt lat="43.34344" lon="-1.5276">
        <ele>35</ele>
        <time>2026-08-23T14:58:55.000Z</time>
      </trkpt>
      <trkpt lat="43.34345" lon="-1.52761">
        <ele>35</ele>
        <time>2026-08-23T14:58:55.000Z</time>
      </trkpt>
      <trkpt lat="43.34346" lon="-1.52762">
        <ele>35</ele>
        <time>2026-08-23T14:58:56.000Z</time>
      </trkpt>
      <trkpt lat="43.34347" lon="-1.52763">
        <ele>35</ele>
        <time>2026-08-23T14:58:56.000Z</time>
      </trkpt>
      <trkpt lat="43.34348" lon="-1.52764">
        <ele>35</ele>
        <time>2026-08-23T14:58:56.000Z</time>
      </trkpt>
      <trkpt lat="43.34349" lon="-1.52765">
        <ele>35</ele>
        <time>2026-08-23T14:58:56.000Z</time>
      </trkpt>
      <trkpt lat="43.3435" lon="-1.52767">
        <ele>35</ele>
        <time>2026-08-23T14:58:57.000Z</time>
      </trkpt>
      <trkpt lat="43.34351" lon="-1.52768">
        <ele>35</ele>
        <time>2026-08-23T14:58:57.000Z</time>
      </trkpt>
      <trkpt lat="43.34352" lon="-1.5277">
        <ele>35</ele>
        <time>2026-08-23T14:58:57.000Z</time>
      </trkpt>
      <trkpt lat="43.34352" lon="-1.52772">
        <ele>35</ele>
        <time>2026-08-23T14:58:57.000Z</time>
      </trkpt>
      <trkpt lat="43.34353" lon="-1.52774">
        <ele>35</ele>
        <time>2026-08-23T14:58:58.000Z</time>
      </trkpt>
      <trkpt lat="43.34353" lon="-1.52777">
        <ele>35</ele>
        <time>2026-08-23T14:58:58.000Z</time>
      </trkpt>
      <trkpt lat="43.34354" lon="-1.52779">
        <ele>35</ele>
        <time>2026-08-23T14:58:58.000Z</time>
      </trkpt>
      <trkpt lat="43.34354" lon="-1.52781">
        <ele>35</ele>
        <time>2026-08-23T14:58:59.000Z</time>
      </trkpt>
      <trkpt lat="43.34354" lon="-1.52783">
        <ele>35</ele>
        <time>2026-08-23T14:58:59.000Z</time>
      </trkpt>
      <trkpt lat="43.34354" lon="-1.52785">
        <ele>35</ele>
        <time>2026-08-23T14:58:59.000Z</time>
      </trkpt>
      <trkpt lat="43.34353" lon="-1.52787">
        <ele>35</ele>
        <time>2026-08-23T14:58:59.000Z</time>
      </trkpt>
      <trkpt lat="43.34353" lon="-1.52788">
        <ele>35</ele>
        <time>2026-08-23T14:59:00.000Z</time>
      </trkpt>
      <trkpt lat="43.34353" lon="-1.5279">
        <ele>35</ele>
        <time>2026-08-23T14:59:00.000Z</time>
      </trkpt>
      <trkpt lat="43.34352" lon="-1.52792">
        <ele>35</ele>
        <time>2026-08-23T14:59:00.000Z</time>
      </trkpt>
      <trkpt lat="43.34352" lon="-1.52794">
        <ele>35</ele>
        <time>2026-08-23T14:59:00.000Z</time>
      </trkpt>
      <trkpt lat="43.34351" lon="-1.52795">
        <ele>35</ele>
        <time>2026-08-23T14:59:01.000Z</time>
      </trkpt>
      <trkpt lat="43.3435" lon="-1.52797">
        <ele>35</ele>
        <time>2026-08-23T14:59:01.000Z</time>
      </trkpt>
      <trkpt lat="43.34349" lon="-1.52798">
        <ele>35</ele>
        <time>2026-08-23T14:59:01.000Z</time>
      </trkpt>
      <trkpt lat="43.34375" lon="-1.5284">
        <ele>36</ele>
        <time>2026-08-23T14:59:08.000Z</time>
      </trkpt>
      <trkpt lat="43.34412" lon="-1.52901">
        <ele>35</ele>
        <time>2026-08-23T14:59:19.000Z</time>
      </trkpt>
      <trkpt lat="43.34425" lon="-1.52926">
        <ele>36</ele>
        <time>2026-08-23T14:59:23.000Z</time>
      </trkpt>
      <trkpt lat="43.34429" lon="-1.52936">
        <ele>36</ele>
        <time>2026-08-23T14:59:24.000Z</time>
      </trkpt>
      <trkpt lat="43.34432" lon="-1.52945">
        <ele>36</ele>
        <time>2026-08-23T14:59:25.000Z</time>
      </trkpt>
      <trkpt lat="43.34439" lon="-1.52963">
        <ele>36</ele>
        <time>2026-08-23T14:59:28.000Z</time>
      </trkpt>
      <trkpt lat="43.34443" lon="-1.52977">
        <ele>37</ele>
        <time>2026-08-23T14:59:30.000Z</time>
      </trkpt>
      <trkpt lat="43.34447" lon="-1.52994">
        <ele>37</ele>
        <time>2026-08-23T14:59:32.000Z</time>
      </trkpt>
      <trkpt lat="43.3445" lon="-1.53016">
        <ele>37</ele>
        <time>2026-08-23T14:59:35.000Z</time>
      </trkpt>
      <trkpt lat="43.34453" lon="-1.53048">
        <ele>39</ele>
        <time>2026-08-23T14:59:39.000Z</time>
      </trkpt>
      <trkpt lat="43.34462" lon="-1.53135">
        <ele>40</ele>
        <time>2026-08-23T14:59:51.000Z</time>
      </trkpt>
      <trkpt lat="43.34467" lon="-1.53193">
        <ele>39</ele>
        <time>2026-08-23T14:59:58.000Z</time>
      </trkpt>
      <trkpt lat="43.34472" lon="-1.53244">
        <ele>38</ele>
        <time>2026-08-23T15:00:05.000Z</time>
      </trkpt>
      <trkpt lat="43.34477" lon="-1.533">
        <ele>39</ele>
        <time>2026-08-23T15:00:12.000Z</time>
      </trkpt>
      <trkpt lat="43.34489" lon="-1.53447">
        <ele>42</ele>
        <time>2026-08-23T15:00:31.000Z</time>
      </trkpt>
      <trkpt lat="43.34498" lon="-1.53511">
        <ele>41</ele>
        <time>2026-08-23T15:00:40.000Z</time>
      </trkpt>
      <trkpt lat="43.34523" lon="-1.53669">
        <ele>39</ele>
        <time>2026-08-23T15:01:01.000Z</time>
      </trkpt>
      <trkpt lat="43.34531" lon="-1.53715">
        <ele>39</ele>
        <time>2026-08-23T15:01:07.000Z</time>
      </trkpt>
      <trkpt lat="43.34536" lon="-1.53744">
        <ele>38</ele>
        <time>2026-08-23T15:01:11.000Z</time>
      </trkpt>
      <trkpt lat="43.34547" lon="-1.53787">
        <ele>38</ele>
        <time>2026-08-23T15:01:16.000Z</time>
      </trkpt>
      <trkpt lat="43.34548" lon="-1.53789">
        <ele>38</ele>
        <time>2026-08-23T15:01:17.000Z</time>
      </trkpt>
      <trkpt lat="43.34548" lon="-1.53789">
        <ele>38</ele>
        <time>2026-08-23T15:01:17.000Z</time>
      </trkpt>
      <trkpt lat="43.34553" lon="-1.5381">
        <ele>38</ele>
        <time>2026-08-23T15:01:20.000Z</time>
      </trkpt>
      <trkpt lat="43.34558" lon="-1.53829">
        <ele>38</ele>
        <time>2026-08-23T15:01:22.000Z</time>
      </trkpt>
      <trkpt lat="43.3456" lon="-1.53848">
        <ele>37</ele>
        <time>2026-08-23T15:01:25.000Z</time>
      </trkpt>
      <trkpt lat="43.34564" lon="-1.53872">
        <ele>36</ele>
        <time>2026-08-23T15:01:28.000Z</time>
      </trkpt>
      <trkpt lat="43.34567" lon="-1.53901">
        <ele>35</ele>
        <time>2026-08-23T15:01:32.000Z</time>
      </trkpt>
      <trkpt lat="43.34567" lon="-1.53925">
        <ele>34</ele>
        <time>2026-08-23T15:01:35.000Z</time>
      </trkpt>
      <trkpt lat="43.34568" lon="-1.53951">
        <ele>34</ele>
        <time>2026-08-23T15:01:38.000Z</time>
      </trkpt>
      <trkpt lat="43.34568" lon="-1.5397">
        <ele>34</ele>
        <time>2026-08-23T15:01:41.000Z</time>
      </trkpt>
      <trkpt lat="43.34571" lon="-1.53987">
        <ele>34</ele>
        <time>2026-08-23T15:01:43.000Z</time>
      </trkpt>
      <trkpt lat="43.34573" lon="-1.54001">
        <ele>34</ele>
        <time>2026-08-23T15:01:45.000Z</time>
      </trkpt>
      <trkpt lat="43.34579" lon="-1.54027">
        <ele>34</ele>
        <time>2026-08-23T15:01:48.000Z</time>
      </trkpt>
      <trkpt lat="43.34586" lon="-1.54048">
        <ele>34</ele>
        <time>2026-08-23T15:01:51.000Z</time>
      </trkpt>
      <trkpt lat="43.34592" lon="-1.54064">
        <ele>34</ele>
        <time>2026-08-23T15:01:54.000Z</time>
      </trkpt>
      <trkpt lat="43.34605" lon="-1.5409">
        <ele>35</ele>
        <time>2026-08-23T15:01:58.000Z</time>
      </trkpt>
      <trkpt lat="43.34621" lon="-1.54121">
        <ele>36</ele>
        <time>2026-08-23T15:02:03.000Z</time>
      </trkpt>
      <trkpt lat="43.34641" lon="-1.5416">
        <ele>37</ele>
        <time>2026-08-23T15:02:09.000Z</time>
      </trkpt>
      <trkpt lat="43.34648" lon="-1.54177">
        <ele>37</ele>
        <time>2026-08-23T15:02:11.000Z</time>
      </trkpt>
      <trkpt lat="43.34655" lon="-1.54195">
        <ele>37</ele>
        <time>2026-08-23T15:02:14.000Z</time>
      </trkpt>
      <trkpt lat="43.34659" lon="-1.54213">
        <ele>37</ele>
        <time>2026-08-23T15:02:16.000Z</time>
      </trkpt>
      <trkpt lat="43.34664" lon="-1.54233">
        <ele>36</ele>
        <time>2026-08-23T15:02:19.000Z</time>
      </trkpt>
      <trkpt lat="43.34667" lon="-1.54253">
        <ele>35</ele>
        <time>2026-08-23T15:02:22.000Z</time>
      </trkpt>
      <trkpt lat="43.34668" lon="-1.54262">
        <ele>35</ele>
        <time>2026-08-23T15:02:23.000Z</time>
      </trkpt>
      <trkpt lat="43.3467" lon="-1.54296">
        <ele>33</ele>
        <time>2026-08-23T15:02:27.000Z</time>
      </trkpt>
      <trkpt lat="43.34673" lon="-1.54386">
        <ele>31</ele>
        <time>2026-08-23T15:02:39.000Z</time>
      </trkpt>
      <trkpt lat="43.34674" lon="-1.54407">
        <ele>30</ele>
        <time>2026-08-23T15:02:42.000Z</time>
      </trkpt>
      <trkpt lat="43.34675" lon="-1.5442">
        <ele>30</ele>
        <time>2026-08-23T15:02:43.000Z</time>
      </trkpt>
      <trkpt lat="43.34677" lon="-1.54436">
        <ele>30</ele>
        <time>2026-08-23T15:02:46.000Z</time>
      </trkpt>
      <trkpt lat="43.34679" lon="-1.54448">
        <ele>29</ele>
        <time>2026-08-23T15:02:47.000Z</time>
      </trkpt>
      <trkpt lat="43.34682" lon="-1.54462">
        <ele>29</ele>
        <time>2026-08-23T15:02:49.000Z</time>
      </trkpt>
      <trkpt lat="43.34688" lon="-1.54481">
        <ele>28</ele>
        <time>2026-08-23T15:02:52.000Z</time>
      </trkpt>
      <trkpt lat="43.34695" lon="-1.54498">
        <ele>28</ele>
        <time>2026-08-23T15:02:54.000Z</time>
      </trkpt>
      <trkpt lat="43.34699" lon="-1.54508">
        <ele>28</ele>
        <time>2026-08-23T15:02:56.000Z</time>
      </trkpt>
      <trkpt lat="43.34706" lon="-1.5452">
        <ele>28</ele>
        <time>2026-08-23T15:02:58.000Z</time>
      </trkpt>
      <trkpt lat="43.34734" lon="-1.54566">
        <ele>27</ele>
        <time>2026-08-23T15:03:05.000Z</time>
      </trkpt>
      <trkpt lat="43.34786" lon="-1.54648">
        <ele>27</ele>
        <time>2026-08-23T15:03:20.000Z</time>
      </trkpt>
      <trkpt lat="43.34824" lon="-1.54708">
        <ele>26</ele>
        <time>2026-08-23T15:03:30.000Z</time>
      </trkpt>
      <trkpt lat="43.34848" lon="-1.54746">
        <ele>25</ele>
        <time>2026-08-23T15:03:36.000Z</time>
      </trkpt>
      <trkpt lat="43.34864" lon="-1.54768">
        <ele>25</ele>
        <time>2026-08-23T15:03:40.000Z</time>
      </trkpt>
      <trkpt lat="43.34879" lon="-1.54789">
        <ele>25</ele>
        <time>2026-08-23T15:03:44.000Z</time>
      </trkpt>
      <trkpt lat="43.34893" lon="-1.54805">
        <ele>24</ele>
        <time>2026-08-23T15:03:47.000Z</time>
      </trkpt>
      <trkpt lat="43.34908" lon="-1.54818">
        <ele>24</ele>
        <time>2026-08-23T15:03:51.000Z</time>
      </trkpt>
      <trkpt lat="43.34918" lon="-1.54826">
        <ele>23</ele>
        <time>2026-08-23T15:03:53.000Z</time>
      </trkpt>
      <trkpt lat="43.34937" lon="-1.54838">
        <ele>23</ele>
        <time>2026-08-23T15:03:56.000Z</time>
      </trkpt>
      <trkpt lat="43.34978" lon="-1.54861">
        <ele>23</ele>
        <time>2026-08-23T15:04:04.000Z</time>
      </trkpt>
      <trkpt lat="43.35052" lon="-1.549">
        <ele>21</ele>
        <time>2026-08-23T15:04:18.000Z</time>
      </trkpt>
      <trkpt lat="43.35079" lon="-1.54914">
        <ele>20</ele>
        <time>2026-08-23T15:04:23.000Z</time>
      </trkpt>
      <trkpt lat="43.35083" lon="-1.54915">
        <ele>20</ele>
        <time>2026-08-23T15:04:24.000Z</time>
      </trkpt>
      <trkpt lat="43.35093" lon="-1.54925">
        <ele>20</ele>
        <time>2026-08-23T15:04:26.000Z</time>
      </trkpt>
      <trkpt lat="43.35099" lon="-1.54929">
        <ele>19</ele>
        <time>2026-08-23T15:04:28.000Z</time>
      </trkpt>
      <trkpt lat="43.35103" lon="-1.54931">
        <ele>19</ele>
        <time>2026-08-23T15:04:28.000Z</time>
      </trkpt>
      <trkpt lat="43.35108" lon="-1.54935">
        <ele>19</ele>
        <time>2026-08-23T15:04:29.000Z</time>
      </trkpt>
      <trkpt lat="43.35108" lon="-1.54935">
        <ele>19</ele>
        <time>2026-08-23T15:04:29.000Z</time>
      </trkpt>
      <trkpt lat="43.3511" lon="-1.54935">
        <ele>19</ele>
        <time>2026-08-23T15:04:30.000Z</time>
      </trkpt>
      <trkpt lat="43.35111" lon="-1.54935">
        <ele>19</ele>
        <time>2026-08-23T15:04:30.000Z</time>
      </trkpt>
      <trkpt lat="43.35113" lon="-1.54935">
        <ele>19</ele>
        <time>2026-08-23T15:04:30.000Z</time>
      </trkpt>
      <trkpt lat="43.35115" lon="-1.54935">
        <ele>19</ele>
        <time>2026-08-23T15:04:31.000Z</time>
      </trkpt>
      <trkpt lat="43.35117" lon="-1.54936">
        <ele>19</ele>
        <time>2026-08-23T15:04:31.000Z</time>
      </trkpt>
      <trkpt lat="43.35119" lon="-1.54937">
        <ele>19</ele>
        <time>2026-08-23T15:04:31.000Z</time>
      </trkpt>
      <trkpt lat="43.35121" lon="-1.54938">
        <ele>19</ele>
        <time>2026-08-23T15:04:32.000Z</time>
      </trkpt>
      <trkpt lat="43.35124" lon="-1.5494">
        <ele>19</ele>
        <time>2026-08-23T15:04:32.000Z</time>
      </trkpt>
      <trkpt lat="43.35126" lon="-1.54944">
        <ele>18</ele>
        <time>2026-08-23T15:04:33.000Z</time>
      </trkpt>
      <trkpt lat="43.35128" lon="-1.54946">
        <ele>18</ele>
        <time>2026-08-23T15:04:33.000Z</time>
      </trkpt>
      <trkpt lat="43.35129" lon="-1.54948">
        <ele>18</ele>
        <time>2026-08-23T15:04:34.000Z</time>
      </trkpt>
      <trkpt lat="43.3513" lon="-1.5495">
        <ele>18</ele>
        <time>2026-08-23T15:04:34.000Z</time>
      </trkpt>
      <trkpt lat="43.35131" lon="-1.54953">
        <ele>18</ele>
        <time>2026-08-23T15:04:34.000Z</time>
      </trkpt>
      <trkpt lat="43.35131" lon="-1.54955">
        <ele>18</ele>
        <time>2026-08-23T15:04:35.000Z</time>
      </trkpt>
      <trkpt lat="43.35132" lon="-1.54958">
        <ele>18</ele>
        <time>2026-08-23T15:04:35.000Z</time>
      </trkpt>
      <trkpt lat="43.35132" lon="-1.54961">
        <ele>18</ele>
        <time>2026-08-23T15:04:36.000Z</time>
      </trkpt>
      <trkpt lat="43.35132" lon="-1.54963">
        <ele>18</ele>
        <time>2026-08-23T15:04:36.000Z</time>
      </trkpt>
      <trkpt lat="43.35132" lon="-1.54966">
        <ele>18</ele>
        <time>2026-08-23T15:04:36.000Z</time>
      </trkpt>
      <trkpt lat="43.35131" lon="-1.54969">
        <ele>18</ele>
        <time>2026-08-23T15:04:37.000Z</time>
      </trkpt>
      <trkpt lat="43.35131" lon="-1.54972">
        <ele>18</ele>
        <time>2026-08-23T15:04:37.000Z</time>
      </trkpt>
      <trkpt lat="43.3513" lon="-1.54975">
        <ele>18</ele>
        <time>2026-08-23T15:04:37.000Z</time>
      </trkpt>
      <trkpt lat="43.35129" lon="-1.54977">
        <ele>18</ele>
        <time>2026-08-23T15:04:38.000Z</time>
      </trkpt>
      <trkpt lat="43.35128" lon="-1.5498">
        <ele>18</ele>
        <time>2026-08-23T15:04:38.000Z</time>
      </trkpt>
      <trkpt lat="43.35127" lon="-1.54982">
        <ele>18</ele>
        <time>2026-08-23T15:04:39.000Z</time>
      </trkpt>
      <trkpt lat="43.3513" lon="-1.54986">
        <ele>18</ele>
        <time>2026-08-23T15:04:39.000Z</time>
      </trkpt>
      <trkpt lat="43.35132" lon="-1.54996">
        <ele>17</ele>
        <time>2026-08-23T15:04:41.000Z</time>
      </trkpt>
      <trkpt lat="43.35137" lon="-1.55008">
        <ele>17</ele>
        <time>2026-08-23T15:04:42.000Z</time>
      </trkpt>
      <trkpt lat="43.35145" lon="-1.55029">
        <ele>17</ele>
        <time>2026-08-23T15:04:45.000Z</time>
      </trkpt>
      <trkpt lat="43.35162" lon="-1.55068">
        <ele>16</ele>
        <time>2026-08-23T15:04:51.000Z</time>
      </trkpt>
      <trkpt lat="43.35236" lon="-1.55235">
        <ele>17</ele>
        <time>2026-08-23T15:05:17.000Z</time>
      </trkpt>
      <trkpt lat="43.35262" lon="-1.55293">
        <ele>17</ele>
        <time>2026-08-23T15:05:25.000Z</time>
      </trkpt>
      <trkpt lat="43.35272" lon="-1.55313">
        <ele>17</ele>
        <time>2026-08-23T15:05:29.000Z</time>
      </trkpt>
      <trkpt lat="43.3528" lon="-1.55325">
        <ele>18</ele>
        <time>2026-08-23T15:05:31.000Z</time>
      </trkpt>
      <trkpt lat="43.3529" lon="-1.55338">
        <ele>18</ele>
        <time>2026-08-23T15:05:33.000Z</time>
      </trkpt>
      <trkpt lat="43.35302" lon="-1.55351">
        <ele>17</ele>
        <time>2026-08-23T15:05:36.000Z</time>
      </trkpt>
      <trkpt lat="43.3532" lon="-1.55364">
        <ele>17</ele>
        <time>2026-08-23T15:05:39.000Z</time>
      </trkpt>
      <trkpt lat="43.35338" lon="-1.55372">
        <ele>16</ele>
        <time>2026-08-23T15:05:43.000Z</time>
      </trkpt>
      <trkpt lat="43.35346" lon="-1.55375">
        <ele>16</ele>
        <time>2026-08-23T15:05:44.000Z</time>
      </trkpt>
      <trkpt lat="43.35368" lon="-1.55378">
        <ele>16</ele>
        <time>2026-08-23T15:05:48.000Z</time>
      </trkpt>
      <trkpt lat="43.35378" lon="-1.55378">
        <ele>16</ele>
        <time>2026-08-23T15:05:50.000Z</time>
      </trkpt>
      <trkpt lat="43.35392" lon="-1.55377">
        <ele>16</ele>
        <time>2026-08-23T15:05:53.000Z</time>
      </trkpt>
      <trkpt lat="43.3543" lon="-1.55371">
        <ele>16</ele>
        <time>2026-08-23T15:05:59.000Z</time>
      </trkpt>
      <trkpt lat="43.35446" lon="-1.55368">
        <ele>16</ele>
        <time>2026-08-23T15:06:02.000Z</time>
      </trkpt>
      <trkpt lat="43.35469" lon="-1.55366">
        <ele>16</ele>
        <time>2026-08-23T15:06:06.000Z</time>
      </trkpt>
      <trkpt lat="43.35483" lon="-1.55366">
        <ele>16</ele>
        <time>2026-08-23T15:06:09.000Z</time>
      </trkpt>
      <trkpt lat="43.35497" lon="-1.5537">
        <ele>16</ele>
        <time>2026-08-23T15:06:11.000Z</time>
      </trkpt>
      <trkpt lat="43.35515" lon="-1.55376">
        <ele>16</ele>
        <time>2026-08-23T15:06:15.000Z</time>
      </trkpt>
      <trkpt lat="43.35529" lon="-1.55387">
        <ele>16</ele>
        <time>2026-08-23T15:06:18.000Z</time>
      </trkpt>
      <trkpt lat="43.35542" lon="-1.55396">
        <ele>16</ele>
        <time>2026-08-23T15:06:20.000Z</time>
      </trkpt>
      <trkpt lat="43.35542" lon="-1.55396">
        <ele>16</ele>
        <time>2026-08-23T15:06:20.000Z</time>
      </trkpt>
      <trkpt lat="43.35544" lon="-1.55394">
        <ele>16</ele>
        <time>2026-08-23T15:06:21.000Z</time>
      </trkpt>
      <trkpt lat="43.35545" lon="-1.55394">
        <ele>16</ele>
        <time>2026-08-23T15:06:21.000Z</time>
      </trkpt>
      <trkpt lat="43.35546" lon="-1.55393">
        <ele>16</ele>
        <time>2026-08-23T15:06:21.000Z</time>
      </trkpt>
      <trkpt lat="43.35547" lon="-1.55392">
        <ele>16</ele>
        <time>2026-08-23T15:06:21.000Z</time>
      </trkpt>
      <trkpt lat="43.35548" lon="-1.55392">
        <ele>16</ele>
        <time>2026-08-23T15:06:21.000Z</time>
      </trkpt>
      <trkpt lat="43.35549" lon="-1.55392">
        <ele>16</ele>
        <time>2026-08-23T15:06:22.000Z</time>
      </trkpt>
      <trkpt lat="43.3555" lon="-1.55391">
        <ele>16</ele>
        <time>2026-08-23T15:06:22.000Z</time>
      </trkpt>
      <trkpt lat="43.35551" lon="-1.55391">
        <ele>16</ele>
        <time>2026-08-23T15:06:22.000Z</time>
      </trkpt>
      <trkpt lat="43.35552" lon="-1.55391">
        <ele>16</ele>
        <time>2026-08-23T15:06:22.000Z</time>
      </trkpt>
      <trkpt lat="43.35554" lon="-1.55391">
        <ele>16</ele>
        <time>2026-08-23T15:06:22.000Z</time>
      </trkpt>
      <trkpt lat="43.35555" lon="-1.55391">
        <ele>16</ele>
        <time>2026-08-23T15:06:23.000Z</time>
      </trkpt>
      <trkpt lat="43.35556" lon="-1.55392">
        <ele>16</ele>
        <time>2026-08-23T15:06:23.000Z</time>
      </trkpt>
      <trkpt lat="43.35557" lon="-1.55392">
        <ele>16</ele>
        <time>2026-08-23T15:06:23.000Z</time>
      </trkpt>
      <trkpt lat="43.35558" lon="-1.55393">
        <ele>16</ele>
        <time>2026-08-23T15:06:23.000Z</time>
      </trkpt>
      <trkpt lat="43.35559" lon="-1.55393">
        <ele>16</ele>
        <time>2026-08-23T15:06:23.000Z</time>
      </trkpt>
      <trkpt lat="43.3556" lon="-1.55394">
        <ele>16</ele>
        <time>2026-08-23T15:06:24.000Z</time>
      </trkpt>
      <trkpt lat="43.35561" lon="-1.55395">
        <ele>16</ele>
        <time>2026-08-23T15:06:24.000Z</time>
      </trkpt>
      <trkpt lat="43.35562" lon="-1.55396">
        <ele>16</ele>
        <time>2026-08-23T15:06:24.000Z</time>
      </trkpt>
      <trkpt lat="43.35563" lon="-1.55397">
        <ele>16</ele>
        <time>2026-08-23T15:06:24.000Z</time>
      </trkpt>
      <trkpt lat="43.35564" lon="-1.55398">
        <ele>16</ele>
        <time>2026-08-23T15:06:25.000Z</time>
      </trkpt>
      <trkpt lat="43.35564" lon="-1.55399">
        <ele>16</ele>
        <time>2026-08-23T15:06:25.000Z</time>
      </trkpt>
      <trkpt lat="43.35565" lon="-1.554">
        <ele>16</ele>
        <time>2026-08-23T15:06:25.000Z</time>
      </trkpt>
      <trkpt lat="43.35566" lon="-1.55402">
        <ele>16</ele>
        <time>2026-08-23T15:06:25.000Z</time>
      </trkpt>
      <trkpt lat="43.35566" lon="-1.55403">
        <ele>16</ele>
        <time>2026-08-23T15:06:25.000Z</time>
      </trkpt>
      <trkpt lat="43.35567" lon="-1.55404">
        <ele>16</ele>
        <time>2026-08-23T15:06:26.000Z</time>
      </trkpt>
      <trkpt lat="43.35567" lon="-1.55406">
        <ele>16</ele>
        <time>2026-08-23T15:06:26.000Z</time>
      </trkpt>
      <trkpt lat="43.35568" lon="-1.55407">
        <ele>16</ele>
        <time>2026-08-23T15:06:26.000Z</time>
      </trkpt>
      <trkpt lat="43.35568" lon="-1.55409">
        <ele>16</ele>
        <time>2026-08-23T15:06:26.000Z</time>
      </trkpt>
      <trkpt lat="43.35568" lon="-1.5541">
        <ele>16</ele>
        <time>2026-08-23T15:06:26.000Z</time>
      </trkpt>
      <trkpt lat="43.35568" lon="-1.55412">
        <ele>16</ele>
        <time>2026-08-23T15:06:27.000Z</time>
      </trkpt>
      <trkpt lat="43.35568" lon="-1.55413">
        <ele>16</ele>
        <time>2026-08-23T15:06:27.000Z</time>
      </trkpt>
      <trkpt lat="43.35568" lon="-1.55415">
        <ele>16</ele>
        <time>2026-08-23T15:06:27.000Z</time>
      </trkpt>
      <trkpt lat="43.35568" lon="-1.55416">
        <ele>16</ele>
        <time>2026-08-23T15:06:27.000Z</time>
      </trkpt>
      <trkpt lat="43.35568" lon="-1.55418">
        <ele>16</ele>
        <time>2026-08-23T15:06:27.000Z</time>
      </trkpt>
      <trkpt lat="43.35567" lon="-1.55419">
        <ele>16</ele>
        <time>2026-08-23T15:06:28.000Z</time>
      </trkpt>
      <trkpt lat="43.35567" lon="-1.55421">
        <ele>16</ele>
        <time>2026-08-23T15:06:28.000Z</time>
      </trkpt>
      <trkpt lat="43.35567" lon="-1.55422">
        <ele>16</ele>
        <time>2026-08-23T15:06:28.000Z</time>
      </trkpt>
      <trkpt lat="43.35566" lon="-1.55424">
        <ele>16</ele>
        <time>2026-08-23T15:06:28.000Z</time>
      </trkpt>
      <trkpt lat="43.35565" lon="-1.55425">
        <ele>16</ele>
        <time>2026-08-23T15:06:29.000Z</time>
      </trkpt>
      <trkpt lat="43.35565" lon="-1.55426">
        <ele>16</ele>
        <time>2026-08-23T15:06:29.000Z</time>
      </trkpt>
      <trkpt lat="43.35564" lon="-1.55427">
        <ele>15</ele>
        <time>2026-08-23T15:06:29.000Z</time>
      </trkpt>
      <trkpt lat="43.35571" lon="-1.55441">
        <ele>15</ele>
        <time>2026-08-23T15:06:31.000Z</time>
      </trkpt>
      <trkpt lat="43.35577" lon="-1.55459">
        <ele>15</ele>
        <time>2026-08-23T15:06:34.000Z</time>
      </trkpt>
      <trkpt lat="43.35581" lon="-1.5548">
        <ele>14</ele>
        <time>2026-08-23T15:06:36.000Z</time>
      </trkpt>
      <trkpt lat="43.35583" lon="-1.55499">
        <ele>13</ele>
        <time>2026-08-23T15:06:39.000Z</time>
      </trkpt>
      <trkpt lat="43.35585" lon="-1.55533">
        <ele>14</ele>
        <time>2026-08-23T15:06:43.000Z</time>
      </trkpt>
      <trkpt lat="43.35586" lon="-1.55613">
        <ele>16</ele>
        <time>2026-08-23T15:06:54.000Z</time>
      </trkpt>
      <trkpt lat="43.35588" lon="-1.55764">
        <ele>16</ele>
        <time>2026-08-23T15:07:13.000Z</time>
      </trkpt>
      <trkpt lat="43.35591" lon="-1.55791">
        <ele>16</ele>
        <time>2026-08-23T15:07:17.000Z</time>
      </trkpt>
      <trkpt lat="43.35596" lon="-1.55815">
        <ele>15</ele>
        <time>2026-08-23T15:07:20.000Z</time>
      </trkpt>
      <trkpt lat="43.35605" lon="-1.55843">
        <ele>15</ele>
        <time>2026-08-23T15:07:24.000Z</time>
      </trkpt>
      <trkpt lat="43.35615" lon="-1.55866">
        <ele>15</ele>
        <time>2026-08-23T15:07:27.000Z</time>
      </trkpt>
      <trkpt lat="43.3563" lon="-1.55888">
        <ele>15</ele>
        <time>2026-08-23T15:07:31.000Z</time>
      </trkpt>
      <trkpt lat="43.35637" lon="-1.55897">
        <ele>16</ele>
        <time>2026-08-23T15:07:33.000Z</time>
      </trkpt>
      <trkpt lat="43.35649" lon="-1.55909">
        <ele>16</ele>
        <time>2026-08-23T15:07:36.000Z</time>
      </trkpt>
      <trkpt lat="43.35735" lon="-1.55977">
        <ele>17</ele>
        <time>2026-08-23T15:07:53.000Z</time>
      </trkpt>
      <trkpt lat="43.35742" lon="-1.55981">
        <ele>17</ele>
        <time>2026-08-23T15:07:55.000Z</time>
      </trkpt>
      <trkpt lat="43.35742" lon="-1.55981">
        <ele>17</ele>
        <time>2026-08-23T15:07:55.000Z</time>
      </trkpt>
      <trkpt lat="43.35743" lon="-1.5598">
        <ele>17</ele>
        <time>2026-08-23T15:07:55.000Z</time>
      </trkpt>
      <trkpt lat="43.35744" lon="-1.55979">
        <ele>17</ele>
        <time>2026-08-23T15:07:55.000Z</time>
      </trkpt>
      <trkpt lat="43.35745" lon="-1.55979">
        <ele>17</ele>
        <time>2026-08-23T15:07:55.000Z</time>
      </trkpt>
      <trkpt lat="43.35746" lon="-1.55978">
        <ele>17</ele>
        <time>2026-08-23T15:07:56.000Z</time>
      </trkpt>
      <trkpt lat="43.35747" lon="-1.55977">
        <ele>17</ele>
        <time>2026-08-23T15:07:56.000Z</time>
      </trkpt>
      <trkpt lat="43.35748" lon="-1.55977">
        <ele>17</ele>
        <time>2026-08-23T15:07:56.000Z</time>
      </trkpt>
      <trkpt lat="43.35749" lon="-1.55977">
        <ele>17</ele>
        <time>2026-08-23T15:07:56.000Z</time>
      </trkpt>
      <trkpt lat="43.3575" lon="-1.55976">
        <ele>17</ele>
        <time>2026-08-23T15:07:56.000Z</time>
      </trkpt>
      <trkpt lat="43.35752" lon="-1.55976">
        <ele>17</ele>
        <time>2026-08-23T15:07:57.000Z</time>
      </trkpt>
      <trkpt lat="43.35753" lon="-1.55976">
        <ele>17</ele>
        <time>2026-08-23T15:07:57.000Z</time>
      </trkpt>
      <trkpt lat="43.35754" lon="-1.55976">
        <ele>17</ele>
        <time>2026-08-23T15:07:57.000Z</time>
      </trkpt>
      <trkpt lat="43.35756" lon="-1.55976">
        <ele>17</ele>
        <time>2026-08-23T15:07:57.000Z</time>
      </trkpt>
      <trkpt lat="43.35757" lon="-1.55977">
        <ele>17</ele>
        <time>2026-08-23T15:07:58.000Z</time>
      </trkpt>
      <trkpt lat="43.35758" lon="-1.55978">
        <ele>17</ele>
        <time>2026-08-23T15:07:58.000Z</time>
      </trkpt>
      <trkpt lat="43.35759" lon="-1.55978">
        <ele>18</ele>
        <time>2026-08-23T15:07:58.000Z</time>
      </trkpt>
      <trkpt lat="43.3576" lon="-1.55979">
        <ele>18</ele>
        <time>2026-08-23T15:07:58.000Z</time>
      </trkpt>
      <trkpt lat="43.3576" lon="-1.5598">
        <ele>18</ele>
        <time>2026-08-23T15:07:58.000Z</time>
      </trkpt>
      <trkpt lat="43.35761" lon="-1.5598">
        <ele>18</ele>
        <time>2026-08-23T15:07:59.000Z</time>
      </trkpt>
      <trkpt lat="43.35762" lon="-1.55981">
        <ele>18</ele>
        <time>2026-08-23T15:07:59.000Z</time>
      </trkpt>
      <trkpt lat="43.35763" lon="-1.55982">
        <ele>18</ele>
        <time>2026-08-23T15:07:59.000Z</time>
      </trkpt>
      <trkpt lat="43.35763" lon="-1.55983">
        <ele>18</ele>
        <time>2026-08-23T15:07:59.000Z</time>
      </trkpt>
      <trkpt lat="43.35764" lon="-1.55984">
        <ele>18</ele>
        <time>2026-08-23T15:07:59.000Z</time>
      </trkpt>
      <trkpt lat="43.35765" lon="-1.55985">
        <ele>18</ele>
        <time>2026-08-23T15:08:00.000Z</time>
      </trkpt>
      <trkpt lat="43.35765" lon="-1.55987">
        <ele>18</ele>
        <time>2026-08-23T15:08:00.000Z</time>
      </trkpt>
      <trkpt lat="43.35766" lon="-1.55988">
        <ele>18</ele>
        <time>2026-08-23T15:08:00.000Z</time>
      </trkpt>
      <trkpt lat="43.35766" lon="-1.55989">
        <ele>18</ele>
        <time>2026-08-23T15:08:00.000Z</time>
      </trkpt>
      <trkpt lat="43.35766" lon="-1.5599">
        <ele>18</ele>
        <time>2026-08-23T15:08:00.000Z</time>
      </trkpt>
      <trkpt lat="43.35766" lon="-1.55991">
        <ele>18</ele>
        <time>2026-08-23T15:08:00.000Z</time>
      </trkpt>
      <trkpt lat="43.35767" lon="-1.55992">
        <ele>18</ele>
        <time>2026-08-23T15:08:01.000Z</time>
      </trkpt>
      <trkpt lat="43.35767" lon="-1.55993">
        <ele>18</ele>
        <time>2026-08-23T15:08:01.000Z</time>
      </trkpt>
      <trkpt lat="43.35767" lon="-1.55994">
        <ele>18</ele>
        <time>2026-08-23T15:08:01.000Z</time>
      </trkpt>
      <trkpt lat="43.35767" lon="-1.55995">
        <ele>18</ele>
        <time>2026-08-23T15:08:01.000Z</time>
      </trkpt>
      <trkpt lat="43.35767" lon="-1.55996">
        <ele>18</ele>
        <time>2026-08-23T15:08:01.000Z</time>
      </trkpt>
      <trkpt lat="43.35767" lon="-1.55997">
        <ele>18</ele>
        <time>2026-08-23T15:08:01.000Z</time>
      </trkpt>
      <trkpt lat="43.35767" lon="-1.56">
        <ele>18</ele>
        <time>2026-08-23T15:08:02.000Z</time>
      </trkpt>
      <trkpt lat="43.35767" lon="-1.56001">
        <ele>18</ele>
        <time>2026-08-23T15:08:02.000Z</time>
      </trkpt>
      <trkpt lat="43.35766" lon="-1.56003">
        <ele>18</ele>
        <time>2026-08-23T15:08:02.000Z</time>
      </trkpt>
      <trkpt lat="43.35766" lon="-1.56004">
        <ele>18</ele>
        <time>2026-08-23T15:08:02.000Z</time>
      </trkpt>
      <trkpt lat="43.35766" lon="-1.56005">
        <ele>18</ele>
        <time>2026-08-23T15:08:02.000Z</time>
      </trkpt>
      <trkpt lat="43.35765" lon="-1.56006">
        <ele>19</ele>
        <time>2026-08-23T15:08:03.000Z</time>
      </trkpt>
      <trkpt lat="43.35765" lon="-1.56008">
        <ele>19</ele>
        <time>2026-08-23T15:08:03.000Z</time>
      </trkpt>
      <trkpt lat="43.35764" lon="-1.56009">
        <ele>19</ele>
        <time>2026-08-23T15:08:03.000Z</time>
      </trkpt>
      <trkpt lat="43.35764" lon="-1.5601">
        <ele>19</ele>
        <time>2026-08-23T15:08:03.000Z</time>
      </trkpt>
      <trkpt lat="43.35763" lon="-1.56011">
        <ele>19</ele>
        <time>2026-08-23T15:08:03.000Z</time>
      </trkpt>
      <trkpt lat="43.35762" lon="-1.56012">
        <ele>19</ele>
        <time>2026-08-23T15:08:04.000Z</time>
      </trkpt>
      <trkpt lat="43.35762" lon="-1.56013">
        <ele>19</ele>
        <time>2026-08-23T15:08:04.000Z</time>
      </trkpt>
      <trkpt lat="43.35761" lon="-1.56014">
        <ele>19</ele>
        <time>2026-08-23T15:08:04.000Z</time>
      </trkpt>
      <trkpt lat="43.3576" lon="-1.56014">
        <ele>19</ele>
        <time>2026-08-23T15:08:04.000Z</time>
      </trkpt>
      <trkpt lat="43.35759" lon="-1.56015">
        <ele>19</ele>
        <time>2026-08-23T15:08:04.000Z</time>
      </trkpt>
      <trkpt lat="43.35758" lon="-1.56016">
        <ele>19</ele>
        <time>2026-08-23T15:08:05.000Z</time>
      </trkpt>
      <trkpt lat="43.35757" lon="-1.56016">
        <ele>19</ele>
        <time>2026-08-23T15:08:05.000Z</time>
      </trkpt>
      <trkpt lat="43.35756" lon="-1.56017">
        <ele>19</ele>
        <time>2026-08-23T15:08:05.000Z</time>
      </trkpt>
      <trkpt lat="43.35755" lon="-1.56017">
        <ele>19</ele>
        <time>2026-08-23T15:08:05.000Z</time>
      </trkpt>
      <trkpt lat="43.35754" lon="-1.56017">
        <ele>19</ele>
        <time>2026-08-23T15:08:05.000Z</time>
      </trkpt>
      <trkpt lat="43.35753" lon="-1.56017">
        <ele>19</ele>
        <time>2026-08-23T15:08:06.000Z</time>
      </trkpt>
      <trkpt lat="43.35752" lon="-1.56017">
        <ele>19</ele>
        <time>2026-08-23T15:08:06.000Z</time>
      </trkpt>
      <trkpt lat="43.35751" lon="-1.56017">
        <ele>19</ele>
        <time>2026-08-23T15:08:06.000Z</time>
      </trkpt>
      <trkpt lat="43.3575" lon="-1.56017">
        <ele>19</ele>
        <time>2026-08-23T15:08:06.000Z</time>
      </trkpt>
      <trkpt lat="43.35749" lon="-1.56017">
        <ele>19</ele>
        <time>2026-08-23T15:08:06.000Z</time>
      </trkpt>
      <trkpt lat="43.35728" lon="-1.56038">
        <ele>19</ele>
        <time>2026-08-23T15:08:11.000Z</time>
      </trkpt>
      <trkpt lat="43.35727" lon="-1.56038">
        <ele>19</ele>
        <time>2026-08-23T15:08:11.000Z</time>
      </trkpt>
      <trkpt lat="43.35724" lon="-1.56038">
        <ele>19</ele>
        <time>2026-08-23T15:08:12.000Z</time>
      </trkpt>
      <trkpt lat="43.35714" lon="-1.56046">
        <ele>19</ele>
        <time>2026-08-23T15:08:14.000Z</time>
      </trkpt>
      <trkpt lat="43.35697" lon="-1.56056">
        <ele>18</ele>
        <time>2026-08-23T15:08:17.000Z</time>
      </trkpt>
      <trkpt lat="43.35674" lon="-1.5607">
        <ele>18</ele>
        <time>2026-08-23T15:08:21.000Z</time>
      </trkpt>
      <trkpt lat="43.35652" lon="-1.56087">
        <ele>18</ele>
        <time>2026-08-23T15:08:26.000Z</time>
      </trkpt>
      <trkpt lat="43.35644" lon="-1.56093">
        <ele>18</ele>
        <time>2026-08-23T15:08:28.000Z</time>
      </trkpt>
      <trkpt lat="43.35641" lon="-1.56097">
        <ele>18</ele>
        <time>2026-08-23T15:08:28.000Z</time>
      </trkpt>
      <trkpt lat="43.35637" lon="-1.56102">
        <ele>18</ele>
        <time>2026-08-23T15:08:29.000Z</time>
      </trkpt>
      <trkpt lat="43.35632" lon="-1.56109">
        <ele>18</ele>
        <time>2026-08-23T15:08:30.000Z</time>
      </trkpt>
      <trkpt lat="43.35628" lon="-1.56117">
        <ele>18</ele>
        <time>2026-08-23T15:08:32.000Z</time>
      </trkpt>
      <trkpt lat="43.35622" lon="-1.56134">
        <ele>18</ele>
        <time>2026-08-23T15:08:34.000Z</time>
      </trkpt>
      <trkpt lat="43.3562" lon="-1.56143">
        <ele>19</ele>
        <time>2026-08-23T15:08:35.000Z</time>
      </trkpt>
      <trkpt lat="43.35619" lon="-1.56151">
        <ele>19</ele>
        <time>2026-08-23T15:08:36.000Z</time>
      </trkpt>
      <trkpt lat="43.35618" lon="-1.56158">
        <ele>19</ele>
        <time>2026-08-23T15:08:37.000Z</time>
      </trkpt>
      <trkpt lat="43.35615" lon="-1.5618">
        <ele>19</ele>
        <time>2026-08-23T15:08:40.000Z</time>
      </trkpt>
      <trkpt lat="43.35615" lon="-1.56214">
        <ele>19</ele>
        <time>2026-08-23T15:08:45.000Z</time>
      </trkpt>
      <trkpt lat="43.35615" lon="-1.56229">
        <ele>18</ele>
        <time>2026-08-23T15:08:47.000Z</time>
      </trkpt>
      <trkpt lat="43.35615" lon="-1.56269">
        <ele>18</ele>
        <time>2026-08-23T15:08:52.000Z</time>
      </trkpt>
      <trkpt lat="43.35616" lon="-1.56297">
        <ele>18</ele>
        <time>2026-08-23T15:08:55.000Z</time>
      </trkpt>
      <trkpt lat="43.35617" lon="-1.56314">
        <ele>18</ele>
        <time>2026-08-23T15:08:58.000Z</time>
      </trkpt>
      <trkpt lat="43.35619" lon="-1.56369">
        <ele>18</ele>
        <time>2026-08-23T15:09:05.000Z</time>
      </trkpt>
      <trkpt lat="43.35619" lon="-1.56377">
        <ele>18</ele>
        <time>2026-08-23T15:09:06.000Z</time>
      </trkpt>
      <trkpt lat="43.35621" lon="-1.56507">
        <ele>19</ele>
        <time>2026-08-23T15:09:23.000Z</time>
      </trkpt>
      <trkpt lat="43.35621" lon="-1.56516">
        <ele>19</ele>
        <time>2026-08-23T15:09:24.000Z</time>
      </trkpt>
      <trkpt lat="43.35622" lon="-1.56561">
        <ele>19</ele>
        <time>2026-08-23T15:09:30.000Z</time>
      </trkpt>
      <trkpt lat="43.35623" lon="-1.5661">
        <ele>19</ele>
        <time>2026-08-23T15:09:36.000Z</time>
      </trkpt>
      <trkpt lat="43.35623" lon="-1.56643">
        <ele>19</ele>
        <time>2026-08-23T15:09:40.000Z</time>
      </trkpt>
      <trkpt lat="43.35622" lon="-1.56656">
        <ele>19</ele>
        <time>2026-08-23T15:09:42.000Z</time>
      </trkpt>
      <trkpt lat="43.35621" lon="-1.56668">
        <ele>19</ele>
        <time>2026-08-23T15:09:43.000Z</time>
      </trkpt>
      <trkpt lat="43.3562" lon="-1.56677">
        <ele>19</ele>
        <time>2026-08-23T15:09:45.000Z</time>
      </trkpt>
      <trkpt lat="43.35618" lon="-1.56687">
        <ele>19</ele>
        <time>2026-08-23T15:09:46.000Z</time>
      </trkpt>
      <trkpt lat="43.35615" lon="-1.56701">
        <ele>19</ele>
        <time>2026-08-23T15:09:48.000Z</time>
      </trkpt>
      <trkpt lat="43.3561" lon="-1.56721">
        <ele>18</ele>
        <time>2026-08-23T15:09:51.000Z</time>
      </trkpt>
      <trkpt lat="43.3559" lon="-1.56786">
        <ele>17</ele>
        <time>2026-08-23T15:10:00.000Z</time>
      </trkpt>
      <trkpt lat="43.35588" lon="-1.56797">
        <ele>17</ele>
        <time>2026-08-23T15:10:01.000Z</time>
      </trkpt>
      <trkpt lat="43.35586" lon="-1.56805">
        <ele>17</ele>
        <time>2026-08-23T15:10:02.000Z</time>
      </trkpt>
      <trkpt lat="43.35586" lon="-1.56809">
        <ele>17</ele>
        <time>2026-08-23T15:10:03.000Z</time>
      </trkpt>
      <trkpt lat="43.35586" lon="-1.56819">
        <ele>17</ele>
        <time>2026-08-23T15:10:04.000Z</time>
      </trkpt>
      <trkpt lat="43.35586" lon="-1.56829">
        <ele>17</ele>
        <time>2026-08-23T15:10:05.000Z</time>
      </trkpt>
      <trkpt lat="43.35587" lon="-1.56837">
        <ele>17</ele>
        <time>2026-08-23T15:10:06.000Z</time>
      </trkpt>
      <trkpt lat="43.35588" lon="-1.56846">
        <ele>17</ele>
        <time>2026-08-23T15:10:08.000Z</time>
      </trkpt>
      <trkpt lat="43.35591" lon="-1.56856">
        <ele>17</ele>
        <time>2026-08-23T15:10:09.000Z</time>
      </trkpt>
      <trkpt lat="43.35595" lon="-1.56868">
        <ele>17</ele>
        <time>2026-08-23T15:10:11.000Z</time>
      </trkpt>
      <trkpt lat="43.35598" lon="-1.56877">
        <ele>17</ele>
        <time>2026-08-23T15:10:12.000Z</time>
      </trkpt>
      <trkpt lat="43.35603" lon="-1.56887">
        <ele>17</ele>
        <time>2026-08-23T15:10:14.000Z</time>
      </trkpt>
      <trkpt lat="43.35608" lon="-1.56894">
        <ele>17</ele>
        <time>2026-08-23T15:10:15.000Z</time>
      </trkpt>
      <trkpt lat="43.35612" lon="-1.56902">
        <ele>17</ele>
        <time>2026-08-23T15:10:16.000Z</time>
      </trkpt>
      <trkpt lat="43.35616" lon="-1.56908">
        <ele>17</ele>
        <time>2026-08-23T15:10:17.000Z</time>
      </trkpt>
      <trkpt lat="43.35623" lon="-1.56921">
        <ele>17</ele>
        <time>2026-08-23T15:10:19.000Z</time>
      </trkpt>
      <trkpt lat="43.35632" lon="-1.56938">
        <ele>17</ele>
        <time>2026-08-23T15:10:22.000Z</time>
      </trkpt>
      <trkpt lat="43.35641" lon="-1.56954">
        <ele>16</ele>
        <time>2026-08-23T15:10:25.000Z</time>
      </trkpt>
      <trkpt lat="43.35648" lon="-1.56969">
        <ele>16</ele>
        <time>2026-08-23T15:10:27.000Z</time>
      </trkpt>
      <trkpt lat="43.35663" lon="-1.57005">
        <ele>15</ele>
        <time>2026-08-23T15:10:32.000Z</time>
      </trkpt>
      <trkpt lat="43.35681" lon="-1.57041">
        <ele>15</ele>
        <time>2026-08-23T15:10:38.000Z</time>
      </trkpt>
      <trkpt lat="43.35712" lon="-1.57106">
        <ele>15</ele>
        <time>2026-08-23T15:10:48.000Z</time>
      </trkpt>
      <trkpt lat="43.35723" lon="-1.57133">
        <ele>15</ele>
        <time>2026-08-23T15:10:52.000Z</time>
      </trkpt>
      <trkpt lat="43.35727" lon="-1.57142">
        <ele>15</ele>
        <time>2026-08-23T15:10:53.000Z</time>
      </trkpt>
      <trkpt lat="43.35731" lon="-1.57153">
        <ele>15</ele>
        <time>2026-08-23T15:10:55.000Z</time>
      </trkpt>
      <trkpt lat="43.35734" lon="-1.57164">
        <ele>15</ele>
        <time>2026-08-23T15:10:56.000Z</time>
      </trkpt>
      <trkpt lat="43.35737" lon="-1.57174">
        <ele>15</ele>
        <time>2026-08-23T15:10:58.000Z</time>
      </trkpt>
      <trkpt lat="43.3574" lon="-1.57186">
        <ele>15</ele>
        <time>2026-08-23T15:11:00.000Z</time>
      </trkpt>
      <trkpt lat="43.35741" lon="-1.57197">
        <ele>15</ele>
        <time>2026-08-23T15:11:01.000Z</time>
      </trkpt>
      <trkpt lat="43.35743" lon="-1.57209">
        <ele>14</ele>
        <time>2026-08-23T15:11:03.000Z</time>
      </trkpt>
      <trkpt lat="43.35745" lon="-1.57225">
        <ele>14</ele>
        <time>2026-08-23T15:11:05.000Z</time>
      </trkpt>
      <trkpt lat="43.35748" lon="-1.57256">
        <ele>14</ele>
        <time>2026-08-23T15:11:09.000Z</time>
      </trkpt>
      <trkpt lat="43.35754" lon="-1.57324">
        <ele>13</ele>
        <time>2026-08-23T15:11:18.000Z</time>
      </trkpt>
      <trkpt lat="43.35756" lon="-1.57342">
        <ele>13</ele>
        <time>2026-08-23T15:11:20.000Z</time>
      </trkpt>
      <trkpt lat="43.35758" lon="-1.57369">
        <ele>13</ele>
        <time>2026-08-23T15:11:23.000Z</time>
      </trkpt>
      <trkpt lat="43.35764" lon="-1.57416">
        <ele>13</ele>
        <time>2026-08-23T15:11:30.000Z</time>
      </trkpt>
      <trkpt lat="43.35766" lon="-1.57422">
        <ele>13</ele>
        <time>2026-08-23T15:11:30.000Z</time>
      </trkpt>
      <trkpt lat="43.35769" lon="-1.57429">
        <ele>13</ele>
        <time>2026-08-23T15:11:31.000Z</time>
      </trkpt>
      <trkpt lat="43.35772" lon="-1.57437">
        <ele>13</ele>
        <time>2026-08-23T15:11:33.000Z</time>
      </trkpt>
      <trkpt lat="43.35776" lon="-1.57444">
        <ele>13</ele>
        <time>2026-08-23T15:11:34.000Z</time>
      </trkpt>
      <trkpt lat="43.35781" lon="-1.57453">
        <ele>13</ele>
        <time>2026-08-23T15:11:35.000Z</time>
      </trkpt>
      <trkpt lat="43.35781" lon="-1.57453">
        <ele>13</ele>
        <time>2026-08-23T15:11:35.000Z</time>
      </trkpt>
      <trkpt lat="43.35782" lon="-1.57454">
        <ele>13</ele>
        <time>2026-08-23T15:11:35.000Z</time>
      </trkpt>
      <trkpt lat="43.35783" lon="-1.57454">
        <ele>13</ele>
        <time>2026-08-23T15:11:36.000Z</time>
      </trkpt>
      <trkpt lat="43.35783" lon="-1.57455">
        <ele>13</ele>
        <time>2026-08-23T15:11:36.000Z</time>
      </trkpt>
      <trkpt lat="43.35784" lon="-1.57455">
        <ele>13</ele>
        <time>2026-08-23T15:11:36.000Z</time>
      </trkpt>
      <trkpt lat="43.35785" lon="-1.57456">
        <ele>13</ele>
        <time>2026-08-23T15:11:36.000Z</time>
      </trkpt>
      <trkpt lat="43.35786" lon="-1.57457">
        <ele>13</ele>
        <time>2026-08-23T15:11:36.000Z</time>
      </trkpt>
      <trkpt lat="43.35787" lon="-1.57458">
        <ele>13</ele>
        <time>2026-08-23T15:11:37.000Z</time>
      </trkpt>
      <trkpt lat="43.35787" lon="-1.57459">
        <ele>13</ele>
        <time>2026-08-23T15:11:37.000Z</time>
      </trkpt>
      <trkpt lat="43.35787" lon="-1.5746">
        <ele>13</ele>
        <time>2026-08-23T15:11:37.000Z</time>
      </trkpt>
      <trkpt lat="43.35788" lon="-1.5746">
        <ele>13</ele>
        <time>2026-08-23T15:11:37.000Z</time>
      </trkpt>
      <trkpt lat="43.35788" lon="-1.57461">
        <ele>13</ele>
        <time>2026-08-23T15:11:37.000Z</time>
      </trkpt>
      <trkpt lat="43.35788" lon="-1.57462">
        <ele>13</ele>
        <time>2026-08-23T15:11:37.000Z</time>
      </trkpt>
      <trkpt lat="43.35789" lon="-1.57463">
        <ele>13</ele>
        <time>2026-08-23T15:11:38.000Z</time>
      </trkpt>
      <trkpt lat="43.35789" lon="-1.57464">
        <ele>13</ele>
        <time>2026-08-23T15:11:38.000Z</time>
      </trkpt>
      <trkpt lat="43.35789" lon="-1.57465">
        <ele>13</ele>
        <time>2026-08-23T15:11:38.000Z</time>
      </trkpt>
      <trkpt lat="43.35789" lon="-1.57466">
        <ele>13</ele>
        <time>2026-08-23T15:11:38.000Z</time>
      </trkpt>
      <trkpt lat="43.35789" lon="-1.57467">
        <ele>13</ele>
        <time>2026-08-23T15:11:38.000Z</time>
      </trkpt>
      <trkpt lat="43.35789" lon="-1.57468">
        <ele>13</ele>
        <time>2026-08-23T15:11:38.000Z</time>
      </trkpt>
      <trkpt lat="43.35789" lon="-1.57469">
        <ele>13</ele>
        <time>2026-08-23T15:11:38.000Z</time>
      </trkpt>
      <trkpt lat="43.35789" lon="-1.5747">
        <ele>13</ele>
        <time>2026-08-23T15:11:38.000Z</time>
      </trkpt>
      <trkpt lat="43.35789" lon="-1.57471">
        <ele>13</ele>
        <time>2026-08-23T15:11:39.000Z</time>
      </trkpt>
      <trkpt lat="43.35789" lon="-1.57472">
        <ele>13</ele>
        <time>2026-08-23T15:11:39.000Z</time>
      </trkpt>
      <trkpt lat="43.35788" lon="-1.57473">
        <ele>13</ele>
        <time>2026-08-23T15:11:39.000Z</time>
      </trkpt>
      <trkpt lat="43.35788" lon="-1.57474">
        <ele>13</ele>
        <time>2026-08-23T15:11:39.000Z</time>
      </trkpt>
      <trkpt lat="43.35788" lon="-1.57475">
        <ele>13</ele>
        <time>2026-08-23T15:11:39.000Z</time>
      </trkpt>
      <trkpt lat="43.35787" lon="-1.57476">
        <ele>13</ele>
        <time>2026-08-23T15:11:39.000Z</time>
      </trkpt>
      <trkpt lat="43.35787" lon="-1.57477">
        <ele>13</ele>
        <time>2026-08-23T15:11:40.000Z</time>
      </trkpt>
      <trkpt lat="43.35786" lon="-1.57477">
        <ele>13</ele>
        <time>2026-08-23T15:11:40.000Z</time>
      </trkpt>
      <trkpt lat="43.35786" lon="-1.57478">
        <ele>13</ele>
        <time>2026-08-23T15:11:40.000Z</time>
      </trkpt>
      <trkpt lat="43.35785" lon="-1.57479">
        <ele>13</ele>
        <time>2026-08-23T15:11:40.000Z</time>
      </trkpt>
      <trkpt lat="43.35784" lon="-1.5748">
        <ele>13</ele>
        <time>2026-08-23T15:11:40.000Z</time>
      </trkpt>
      <trkpt lat="43.35783" lon="-1.57484">
        <ele>13</ele>
        <time>2026-08-23T15:11:41.000Z</time>
      </trkpt>
      <trkpt lat="43.35782" lon="-1.57489">
        <ele>13</ele>
        <time>2026-08-23T15:11:42.000Z</time>
      </trkpt>
      <trkpt lat="43.35782" lon="-1.57493">
        <ele>13</ele>
        <time>2026-08-23T15:11:42.000Z</time>
      </trkpt>
      <trkpt lat="43.35781" lon="-1.57499">
        <ele>13</ele>
        <time>2026-08-23T15:11:43.000Z</time>
      </trkpt>
      <trkpt lat="43.3578" lon="-1.5752">
        <ele>13</ele>
        <time>2026-08-23T15:11:46.000Z</time>
      </trkpt>
      <trkpt lat="43.35778" lon="-1.57524">
        <ele>13</ele>
        <time>2026-08-23T15:11:46.000Z</time>
      </trkpt>
      <trkpt lat="43.35779" lon="-1.57536">
        <ele>13</ele>
        <time>2026-08-23T15:11:48.000Z</time>
      </trkpt>
      <trkpt lat="43.35779" lon="-1.57548">
        <ele>13</ele>
        <time>2026-08-23T15:11:49.000Z</time>
      </trkpt>
      <trkpt lat="43.3578" lon="-1.57562">
        <ele>13</ele>
        <time>2026-08-23T15:11:51.000Z</time>
      </trkpt>
      <trkpt lat="43.35782" lon="-1.57577">
        <ele>13</ele>
        <time>2026-08-23T15:11:53.000Z</time>
      </trkpt>
      <trkpt lat="43.35788" lon="-1.57615">
        <ele>13</ele>
        <time>2026-08-23T15:11:58.000Z</time>
      </trkpt>
      <trkpt lat="43.35808" lon="-1.57721">
        <ele>12</ele>
        <time>2026-08-23T15:12:12.000Z</time>
      </trkpt>
      <trkpt lat="43.35819" lon="-1.57781">
        <ele>11</ele>
        <time>2026-08-23T15:12:20.000Z</time>
      </trkpt>
      <trkpt lat="43.35829" lon="-1.57824">
        <ele>11</ele>
        <time>2026-08-23T15:12:26.000Z</time>
      </trkpt>
      <trkpt lat="43.35837" lon="-1.57863">
        <ele>11</ele>
        <time>2026-08-23T15:12:31.000Z</time>
      </trkpt>
      <trkpt lat="43.35844" lon="-1.57887">
        <ele>12</ele>
        <time>2026-08-23T15:12:35.000Z</time>
      </trkpt>
      <trkpt lat="43.3585" lon="-1.57904">
        <ele>12</ele>
        <time>2026-08-23T15:12:37.000Z</time>
      </trkpt>
      <trkpt lat="43.35859" lon="-1.57925">
        <ele>12</ele>
        <time>2026-08-23T15:12:40.000Z</time>
      </trkpt>
      <trkpt lat="43.35864" lon="-1.57936">
        <ele>12</ele>
        <time>2026-08-23T15:12:42.000Z</time>
      </trkpt>
      <trkpt lat="43.3587" lon="-1.57949">
        <ele>12</ele>
        <time>2026-08-23T15:12:44.000Z</time>
      </trkpt>
      <trkpt lat="43.35887" lon="-1.57979">
        <ele>11</ele>
        <time>2026-08-23T15:12:49.000Z</time>
      </trkpt>
      <trkpt lat="43.35898" lon="-1.57996">
        <ele>11</ele>
        <time>2026-08-23T15:12:52.000Z</time>
      </trkpt>
      <trkpt lat="43.35923" lon="-1.58033">
        <ele>11</ele>
        <time>2026-08-23T15:12:58.000Z</time>
      </trkpt>
      <trkpt lat="43.35992" lon="-1.58132">
        <ele>11</ele>
        <time>2026-08-23T15:13:16.000Z</time>
      </trkpt>
      <trkpt lat="43.36003" lon="-1.58148">
        <ele>11</ele>
        <time>2026-08-23T15:13:19.000Z</time>
      </trkpt>
      <trkpt lat="43.36029" lon="-1.58186">
        <ele>12</ele>
        <time>2026-08-23T15:13:26.000Z</time>
      </trkpt>
      <trkpt lat="43.36063" lon="-1.58235">
        <ele>12</ele>
        <time>2026-08-23T15:13:34.000Z</time>
      </trkpt>
      <trkpt lat="43.36078" lon="-1.58256">
        <ele>12</ele>
        <time>2026-08-23T15:13:38.000Z</time>
      </trkpt>
      <trkpt lat="43.36092" lon="-1.58277">
        <ele>12</ele>
        <time>2026-08-23T15:13:42.000Z</time>
      </trkpt>
      <trkpt lat="43.36105" lon="-1.58298">
        <ele>12</ele>
        <time>2026-08-23T15:13:46.000Z</time>
      </trkpt>
      <trkpt lat="43.36116" lon="-1.58316">
        <ele>12</ele>
        <time>2026-08-23T15:13:49.000Z</time>
      </trkpt>
      <trkpt lat="43.3613" lon="-1.58342">
        <ele>12</ele>
        <time>2026-08-23T15:13:53.000Z</time>
      </trkpt>
      <trkpt lat="43.36135" lon="-1.58354">
        <ele>12</ele>
        <time>2026-08-23T15:13:55.000Z</time>
      </trkpt>
      <trkpt lat="43.3614" lon="-1.58367">
        <ele>12</ele>
        <time>2026-08-23T15:13:56.000Z</time>
      </trkpt>
      <trkpt lat="43.36144" lon="-1.58377">
        <ele>12</ele>
        <time>2026-08-23T15:13:58.000Z</time>
      </trkpt>
      <trkpt lat="43.3615" lon="-1.5839">
        <ele>12</ele>
        <time>2026-08-23T15:14:00.000Z</time>
      </trkpt>
      <trkpt lat="43.36157" lon="-1.58412">
        <ele>12</ele>
        <time>2026-08-23T15:14:03.000Z</time>
      </trkpt>
      <trkpt lat="43.36169" lon="-1.58447">
        <ele>12</ele>
        <time>2026-08-23T15:14:08.000Z</time>
      </trkpt>
      <trkpt lat="43.36189" lon="-1.58508">
        <ele>11</ele>
        <time>2026-08-23T15:14:17.000Z</time>
      </trkpt>
      <trkpt lat="43.36206" lon="-1.58564">
        <ele>11</ele>
        <time>2026-08-23T15:14:25.000Z</time>
      </trkpt>
      <trkpt lat="43.36229" lon="-1.58636">
        <ele>11</ele>
        <time>2026-08-23T15:14:35.000Z</time>
      </trkpt>
      <trkpt lat="43.3623" lon="-1.5864">
        <ele>11</ele>
        <time>2026-08-23T15:14:35.000Z</time>
      </trkpt>
      <trkpt lat="43.36231" lon="-1.58645">
        <ele>11</ele>
        <time>2026-08-23T15:14:36.000Z</time>
      </trkpt>
      <trkpt lat="43.36239" lon="-1.5867">
        <ele>12</ele>
        <time>2026-08-23T15:14:39.000Z</time>
      </trkpt>
      <trkpt lat="43.3625" lon="-1.58703">
        <ele>12</ele>
        <time>2026-08-23T15:14:44.000Z</time>
      </trkpt>
      <trkpt lat="43.36257" lon="-1.58721">
        <ele>14</ele>
        <time>2026-08-23T15:14:47.000Z</time>
      </trkpt>
      <trkpt lat="43.36265" lon="-1.5874">
        <ele>16</ele>
        <time>2026-08-23T15:14:50.000Z</time>
      </trkpt>
      <trkpt lat="43.36273" lon="-1.58756">
        <ele>18</ele>
        <time>2026-08-23T15:14:52.000Z</time>
      </trkpt>
      <trkpt lat="43.36282" lon="-1.58772">
        <ele>18</ele>
        <time>2026-08-23T15:14:55.000Z</time>
      </trkpt>
      <trkpt lat="43.36292" lon="-1.58786">
        <ele>18</ele>
        <time>2026-08-23T15:14:57.000Z</time>
      </trkpt>
      <trkpt lat="43.36306" lon="-1.58801">
        <ele>19</ele>
        <time>2026-08-23T15:15:00.000Z</time>
      </trkpt>
      <trkpt lat="43.36323" lon="-1.58817">
        <ele>19</ele>
        <time>2026-08-23T15:15:04.000Z</time>
      </trkpt>
      <trkpt lat="43.36336" lon="-1.58829">
        <ele>18</ele>
        <time>2026-08-23T15:15:07.000Z</time>
      </trkpt>
      <trkpt lat="43.36356" lon="-1.58846">
        <ele>18</ele>
        <time>2026-08-23T15:15:11.000Z</time>
      </trkpt>
      <trkpt lat="43.36402" lon="-1.58886">
        <ele>17</ele>
        <time>2026-08-23T15:15:21.000Z</time>
      </trkpt>
      <trkpt lat="43.36407" lon="-1.58892">
        <ele>16</ele>
        <time>2026-08-23T15:15:22.000Z</time>
      </trkpt>
      <trkpt lat="43.36413" lon="-1.58899">
        <ele>15</ele>
        <time>2026-08-23T15:15:23.000Z</time>
      </trkpt>
      <trkpt lat="43.36423" lon="-1.58911">
        <ele>13</ele>
        <time>2026-08-23T15:15:26.000Z</time>
      </trkpt>
      <trkpt lat="43.3643" lon="-1.58921">
        <ele>12</ele>
        <time>2026-08-23T15:15:28.000Z</time>
      </trkpt>
      <trkpt lat="43.36439" lon="-1.58935">
        <ele>12</ele>
        <time>2026-08-23T15:15:30.000Z</time>
      </trkpt>
      <trkpt lat="43.36448" lon="-1.5895">
        <ele>12</ele>
        <time>2026-08-23T15:15:32.000Z</time>
      </trkpt>
      <trkpt lat="43.36454" lon="-1.58963">
        <ele>11</ele>
        <time>2026-08-23T15:15:34.000Z</time>
      </trkpt>
      <trkpt lat="43.3646" lon="-1.58976">
        <ele>11</ele>
        <time>2026-08-23T15:15:36.000Z</time>
      </trkpt>
      <trkpt lat="43.36465" lon="-1.58989">
        <ele>10</ele>
        <time>2026-08-23T15:15:38.000Z</time>
      </trkpt>
      <trkpt lat="43.3647" lon="-1.59005">
        <ele>10</ele>
        <time>2026-08-23T15:15:41.000Z</time>
      </trkpt>
      <trkpt lat="43.3648" lon="-1.59037">
        <ele>9</ele>
        <time>2026-08-23T15:15:45.000Z</time>
      </trkpt>
      <trkpt lat="43.36481" lon="-1.59044">
        <ele>9</ele>
        <time>2026-08-23T15:15:46.000Z</time>
      </trkpt>
      <trkpt lat="43.3651" lon="-1.59136">
        <ele>9</ele>
        <time>2026-08-23T15:15:59.000Z</time>
      </trkpt>
      <trkpt lat="43.36538" lon="-1.59228">
        <ele>10</ele>
        <time>2026-08-23T15:16:12.000Z</time>
      </trkpt>
      <trkpt lat="43.36548" lon="-1.5926">
        <ele>10</ele>
        <time>2026-08-23T15:16:16.000Z</time>
      </trkpt>
      <trkpt lat="43.36562" lon="-1.59304">
        <ele>9</ele>
        <time>2026-08-23T15:16:23.000Z</time>
      </trkpt>
      <trkpt lat="43.36574" lon="-1.59349">
        <ele>9</ele>
        <time>2026-08-23T15:16:29.000Z</time>
      </trkpt>
      <trkpt lat="43.3658" lon="-1.59376">
        <ele>9</ele>
        <time>2026-08-23T15:16:32.000Z</time>
      </trkpt>
      <trkpt lat="43.36584" lon="-1.59396">
        <ele>9</ele>
        <time>2026-08-23T15:16:35.000Z</time>
      </trkpt>
      <trkpt lat="43.36586" lon="-1.59409">
        <ele>9</ele>
        <time>2026-08-23T15:16:37.000Z</time>
      </trkpt>
      <trkpt lat="43.36589" lon="-1.59436">
        <ele>9</ele>
        <time>2026-08-23T15:16:40.000Z</time>
      </trkpt>
      <trkpt lat="43.36591" lon="-1.59458">
        <ele>9</ele>
        <time>2026-08-23T15:16:43.000Z</time>
      </trkpt>
      <trkpt lat="43.36592" lon="-1.59476">
        <ele>9</ele>
        <time>2026-08-23T15:16:46.000Z</time>
      </trkpt>
      <trkpt lat="43.36591" lon="-1.5949">
        <ele>9</ele>
        <time>2026-08-23T15:16:47.000Z</time>
      </trkpt>
      <trkpt lat="43.36591" lon="-1.59506">
        <ele>10</ele>
        <time>2026-08-23T15:16:50.000Z</time>
      </trkpt>
      <trkpt lat="43.36588" lon="-1.59545">
        <ele>11</ele>
        <time>2026-08-23T15:16:55.000Z</time>
      </trkpt>
      <trkpt lat="43.36582" lon="-1.59605">
        <ele>13</ele>
        <time>2026-08-23T15:17:02.000Z</time>
      </trkpt>
      <trkpt lat="43.36575" lon="-1.59691">
        <ele>18</ele>
        <time>2026-08-23T15:17:14.000Z</time>
      </trkpt>
      <trkpt lat="43.36566" lon="-1.59803">
        <ele>18</ele>
        <time>2026-08-23T15:17:28.000Z</time>
      </trkpt>
      <trkpt lat="43.36564" lon="-1.59818">
        <ele>18</ele>
        <time>2026-08-23T15:17:30.000Z</time>
      </trkpt>
      <trkpt lat="43.36562" lon="-1.59828">
        <ele>18</ele>
        <time>2026-08-23T15:17:31.000Z</time>
      </trkpt>
      <trkpt lat="43.3656" lon="-1.59839">
        <ele>18</ele>
        <time>2026-08-23T15:17:33.000Z</time>
      </trkpt>
      <trkpt lat="43.36558" lon="-1.59845">
        <ele>18</ele>
        <time>2026-08-23T15:17:34.000Z</time>
      </trkpt>
      <trkpt lat="43.36557" lon="-1.5985">
        <ele>18</ele>
        <time>2026-08-23T15:17:34.000Z</time>
      </trkpt>
      <trkpt lat="43.36556" lon="-1.59854">
        <ele>18</ele>
        <time>2026-08-23T15:17:35.000Z</time>
      </trkpt>
      <trkpt lat="43.36553" lon="-1.59861">
        <ele>17</ele>
        <time>2026-08-23T15:17:36.000Z</time>
      </trkpt>
      <trkpt lat="43.3655" lon="-1.59867">
        <ele>17</ele>
        <time>2026-08-23T15:17:37.000Z</time>
      </trkpt>
      <trkpt lat="43.36546" lon="-1.59875">
        <ele>17</ele>
        <time>2026-08-23T15:17:38.000Z</time>
      </trkpt>
      <trkpt lat="43.36541" lon="-1.59882">
        <ele>16</ele>
        <time>2026-08-23T15:17:40.000Z</time>
      </trkpt>
      <trkpt lat="43.36537" lon="-1.59889">
        <ele>16</ele>
        <time>2026-08-23T15:17:41.000Z</time>
      </trkpt>
      <trkpt lat="43.36535" lon="-1.59892">
        <ele>16</ele>
        <time>2026-08-23T15:17:41.000Z</time>
      </trkpt>
      <trkpt lat="43.36533" lon="-1.59895">
        <ele>16</ele>
        <time>2026-08-23T15:17:42.000Z</time>
      </trkpt>
      <trkpt lat="43.3653" lon="-1.59897">
        <ele>15</ele>
        <time>2026-08-23T15:17:42.000Z</time>
      </trkpt>
      <trkpt lat="43.36528" lon="-1.599">
        <ele>15</ele>
        <time>2026-08-23T15:17:43.000Z</time>
      </trkpt>
      <trkpt lat="43.36523" lon="-1.59904">
        <ele>15</ele>
        <time>2026-08-23T15:17:44.000Z</time>
      </trkpt>
      <trkpt lat="43.36519" lon="-1.59907">
        <ele>14</ele>
        <time>2026-08-23T15:17:45.000Z</time>
      </trkpt>
      <trkpt lat="43.36516" lon="-1.5991">
        <ele>14</ele>
        <time>2026-08-23T15:17:45.000Z</time>
      </trkpt>
      <trkpt lat="43.36511" lon="-1.59913">
        <ele>13</ele>
        <time>2026-08-23T15:17:46.000Z</time>
      </trkpt>
      <trkpt lat="43.36497" lon="-1.59923">
        <ele>13</ele>
        <time>2026-08-23T15:17:49.000Z</time>
      </trkpt>
      <trkpt lat="43.36488" lon="-1.5993">
        <ele>13</ele>
        <time>2026-08-23T15:17:51.000Z</time>
      </trkpt>
      <trkpt lat="43.36469" lon="-1.59944">
        <ele>14</ele>
        <time>2026-08-23T15:17:55.000Z</time>
      </trkpt>
      <trkpt lat="43.36456" lon="-1.59956">
        <ele>14</ele>
        <time>2026-08-23T15:17:58.000Z</time>
      </trkpt>
      <trkpt lat="43.36444" lon="-1.59966">
        <ele>14</ele>
        <time>2026-08-23T15:18:00.000Z</time>
      </trkpt>
      <trkpt lat="43.36432" lon="-1.59979">
        <ele>14</ele>
        <time>2026-08-23T15:18:03.000Z</time>
      </trkpt>
      <trkpt lat="43.36421" lon="-1.59991">
        <ele>13</ele>
        <time>2026-08-23T15:18:05.000Z</time>
      </trkpt>
      <trkpt lat="43.36411" lon="-1.60004">
        <ele>13</ele>
        <time>2026-08-23T15:18:08.000Z</time>
      </trkpt>
      <trkpt lat="43.364" lon="-1.6002">
        <ele>14</ele>
        <time>2026-08-23T15:18:11.000Z</time>
      </trkpt>
      <trkpt lat="43.3639" lon="-1.60038">
        <ele>15</ele>
        <time>2026-08-23T15:18:14.000Z</time>
      </trkpt>
      <trkpt lat="43.36381" lon="-1.60052">
        <ele>15</ele>
        <time>2026-08-23T15:18:16.000Z</time>
      </trkpt>
      <trkpt lat="43.36375" lon="-1.60065">
        <ele>15</ele>
        <time>2026-08-23T15:18:18.000Z</time>
      </trkpt>
      <trkpt lat="43.36367" lon="-1.6008">
        <ele>15</ele>
        <time>2026-08-23T15:18:20.000Z</time>
      </trkpt>
      <trkpt lat="43.36362" lon="-1.60094">
        <ele>16</ele>
        <time>2026-08-23T15:18:22.000Z</time>
      </trkpt>
      <trkpt lat="43.36358" lon="-1.60105">
        <ele>16</ele>
        <time>2026-08-23T15:18:24.000Z</time>
      </trkpt>
      <trkpt lat="43.36355" lon="-1.60113">
        <ele>16</ele>
        <time>2026-08-23T15:18:25.000Z</time>
      </trkpt>
      <trkpt lat="43.36351" lon="-1.60124">
        <ele>16</ele>
        <time>2026-08-23T15:18:27.000Z</time>
      </trkpt>
      <trkpt lat="43.36345" lon="-1.6014">
        <ele>16</ele>
        <time>2026-08-23T15:18:29.000Z</time>
      </trkpt>
      <trkpt lat="43.3634" lon="-1.60153">
        <ele>16</ele>
        <time>2026-08-23T15:18:31.000Z</time>
      </trkpt>
      <trkpt lat="43.36337" lon="-1.60161">
        <ele>16</ele>
        <time>2026-08-23T15:18:32.000Z</time>
      </trkpt>
      <trkpt lat="43.36334" lon="-1.60167">
        <ele>16</ele>
        <time>2026-08-23T15:18:33.000Z</time>
      </trkpt>
      <trkpt lat="43.36329" lon="-1.60177">
        <ele>17</ele>
        <time>2026-08-23T15:18:35.000Z</time>
      </trkpt>
      <trkpt lat="43.36322" lon="-1.6019">
        <ele>19</ele>
        <time>2026-08-23T15:18:37.000Z</time>
      </trkpt>
      <trkpt lat="43.36318" lon="-1.60196">
        <ele>19</ele>
        <time>2026-08-23T15:18:38.000Z</time>
      </trkpt>
      <trkpt lat="43.3631" lon="-1.60208">
        <ele>20</ele>
        <time>2026-08-23T15:18:40.000Z</time>
      </trkpt>
      <trkpt lat="43.36304" lon="-1.60215">
        <ele>20</ele>
        <time>2026-08-23T15:18:41.000Z</time>
      </trkpt>
      <trkpt lat="43.36299" lon="-1.60221">
        <ele>20</ele>
        <time>2026-08-23T15:18:42.000Z</time>
      </trkpt>
      <trkpt lat="43.36292" lon="-1.60229">
        <ele>20</ele>
        <time>2026-08-23T15:18:44.000Z</time>
      </trkpt>
      <trkpt lat="43.36289" lon="-1.60232">
        <ele>20</ele>
        <time>2026-08-23T15:18:45.000Z</time>
      </trkpt>
      <trkpt lat="43.36258" lon="-1.60262">
        <ele>18</ele>
        <time>2026-08-23T15:18:51.000Z</time>
      </trkpt>
      <trkpt lat="43.36229" lon="-1.60286">
        <ele>17</ele>
        <time>2026-08-23T15:18:58.000Z</time>
      </trkpt>
      <trkpt lat="43.36212" lon="-1.60301">
        <ele>16</ele>
        <time>2026-08-23T15:19:01.000Z</time>
      </trkpt>
      <trkpt lat="43.36198" lon="-1.60313">
        <ele>15</ele>
        <time>2026-08-23T15:19:04.000Z</time>
      </trkpt>
      <trkpt lat="43.3618" lon="-1.60329">
        <ele>13</ele>
        <time>2026-08-23T15:19:08.000Z</time>
      </trkpt>
      <trkpt lat="43.36175" lon="-1.60334">
        <ele>13</ele>
        <time>2026-08-23T15:19:09.000Z</time>
      </trkpt>
      <trkpt lat="43.3617" lon="-1.60341">
        <ele>13</ele>
        <time>2026-08-23T15:19:10.000Z</time>
      </trkpt>
      <trkpt lat="43.36163" lon="-1.60348">
        <ele>14</ele>
        <time>2026-08-23T15:19:12.000Z</time>
      </trkpt>
      <trkpt lat="43.36158" lon="-1.60355">
        <ele>14</ele>
        <time>2026-08-23T15:19:13.000Z</time>
      </trkpt>
      <trkpt lat="43.36147" lon="-1.60369">
        <ele>14</ele>
        <time>2026-08-23T15:19:16.000Z</time>
      </trkpt>
      <trkpt lat="43.36143" lon="-1.60375">
        <ele>15</ele>
        <time>2026-08-23T15:19:17.000Z</time>
      </trkpt>
      <trkpt lat="43.36139" lon="-1.60381">
        <ele>15</ele>
        <time>2026-08-23T15:19:18.000Z</time>
      </trkpt>
      <trkpt lat="43.36135" lon="-1.60388">
        <ele>15</ele>
        <time>2026-08-23T15:19:19.000Z</time>
      </trkpt>
      <trkpt lat="43.36132" lon="-1.60396">
        <ele>15</ele>
        <time>2026-08-23T15:19:20.000Z</time>
      </trkpt>
      <trkpt lat="43.36125" lon="-1.60412">
        <ele>15</ele>
        <time>2026-08-23T15:19:23.000Z</time>
      </trkpt>
      <trkpt lat="43.36119" lon="-1.60427">
        <ele>15</ele>
        <time>2026-08-23T15:19:25.000Z</time>
      </trkpt>
      <trkpt lat="43.36116" lon="-1.60437">
        <ele>16</ele>
        <time>2026-08-23T15:19:26.000Z</time>
      </trkpt>
      <trkpt lat="43.36113" lon="-1.60445">
        <ele>16</ele>
        <time>2026-08-23T15:19:27.000Z</time>
      </trkpt>
      <trkpt lat="43.36108" lon="-1.60465">
        <ele>16</ele>
        <time>2026-08-23T15:19:30.000Z</time>
      </trkpt>
      <trkpt lat="43.36104" lon="-1.60486">
        <ele>17</ele>
        <time>2026-08-23T15:19:33.000Z</time>
      </trkpt>
      <trkpt lat="43.36102" lon="-1.60503">
        <ele>17</ele>
        <time>2026-08-23T15:19:35.000Z</time>
      </trkpt>
      <trkpt lat="43.36101" lon="-1.60516">
        <ele>17</ele>
        <time>2026-08-23T15:19:37.000Z</time>
      </trkpt>
      <trkpt lat="43.36101" lon="-1.60537">
        <ele>17</ele>
        <time>2026-08-23T15:19:40.000Z</time>
      </trkpt>
      <trkpt lat="43.36101" lon="-1.60551">
        <ele>17</ele>
        <time>2026-08-23T15:19:41.000Z</time>
      </trkpt>
      <trkpt lat="43.36102" lon="-1.60567">
        <ele>18</ele>
        <time>2026-08-23T15:19:43.000Z</time>
      </trkpt>
      <trkpt lat="43.36103" lon="-1.60584">
        <ele>18</ele>
        <time>2026-08-23T15:19:46.000Z</time>
      </trkpt>
      <trkpt lat="43.36106" lon="-1.60609">
        <ele>18</ele>
        <time>2026-08-23T15:19:49.000Z</time>
      </trkpt>
      <trkpt lat="43.3611" lon="-1.60644">
        <ele>18</ele>
        <time>2026-08-23T15:19:53.000Z</time>
      </trkpt>
      <trkpt lat="43.36112" lon="-1.60659">
        <ele>18</ele>
        <time>2026-08-23T15:19:55.000Z</time>
      </trkpt>
      <trkpt lat="43.36113" lon="-1.60672">
        <ele>18</ele>
        <time>2026-08-23T15:19:57.000Z</time>
      </trkpt>
      <trkpt lat="43.36115" lon="-1.60689">
        <ele>18</ele>
        <time>2026-08-23T15:19:59.000Z</time>
      </trkpt>
      <trkpt lat="43.36116" lon="-1.60708">
        <ele>18</ele>
        <time>2026-08-23T15:20:02.000Z</time>
      </trkpt>
      <trkpt lat="43.36117" lon="-1.60726">
        <ele>18</ele>
        <time>2026-08-23T15:20:04.000Z</time>
      </trkpt>
      <trkpt lat="43.36117" lon="-1.60739">
        <ele>18</ele>
        <time>2026-08-23T15:20:06.000Z</time>
      </trkpt>
      <trkpt lat="43.36117" lon="-1.60752">
        <ele>18</ele>
        <time>2026-08-23T15:20:08.000Z</time>
      </trkpt>
      <trkpt lat="43.36117" lon="-1.60759">
        <ele>18</ele>
        <time>2026-08-23T15:20:08.000Z</time>
      </trkpt>
      <trkpt lat="43.36116" lon="-1.6078">
        <ele>17</ele>
        <time>2026-08-23T15:20:11.000Z</time>
      </trkpt>
      <trkpt lat="43.36113" lon="-1.60832">
        <ele>16</ele>
        <time>2026-08-23T15:20:18.000Z</time>
      </trkpt>
      <trkpt lat="43.36112" lon="-1.60861">
        <ele>16</ele>
        <time>2026-08-23T15:20:22.000Z</time>
      </trkpt>
      <trkpt lat="43.36112" lon="-1.60875">
        <ele>16</ele>
        <time>2026-08-23T15:20:23.000Z</time>
      </trkpt>
      <trkpt lat="43.36112" lon="-1.60902">
        <ele>16</ele>
        <time>2026-08-23T15:20:27.000Z</time>
      </trkpt>
      <trkpt lat="43.36111" lon="-1.60936">
        <ele>16</ele>
        <time>2026-08-23T15:20:31.000Z</time>
      </trkpt>
      <trkpt lat="43.3611" lon="-1.60961">
        <ele>17</ele>
        <time>2026-08-23T15:20:35.000Z</time>
      </trkpt>
      <trkpt lat="43.36109" lon="-1.60986">
        <ele>17</ele>
        <time>2026-08-23T15:20:38.000Z</time>
      </trkpt>
      <trkpt lat="43.36107" lon="-1.61017">
        <ele>17</ele>
        <time>2026-08-23T15:20:42.000Z</time>
      </trkpt>
      <trkpt lat="43.36106" lon="-1.61041">
        <ele>17</ele>
        <time>2026-08-23T15:20:45.000Z</time>
      </trkpt>
      <trkpt lat="43.36105" lon="-1.61048">
        <ele>16</ele>
        <time>2026-08-23T15:20:46.000Z</time>
      </trkpt>
      <trkpt lat="43.36104" lon="-1.6106">
        <ele>16</ele>
        <time>2026-08-23T15:20:47.000Z</time>
      </trkpt>
      <trkpt lat="43.36103" lon="-1.61073">
        <ele>16</ele>
        <time>2026-08-23T15:20:49.000Z</time>
      </trkpt>
      <trkpt lat="43.36102" lon="-1.61082">
        <ele>15</ele>
        <time>2026-08-23T15:20:50.000Z</time>
      </trkpt>
      <trkpt lat="43.36101" lon="-1.61092">
        <ele>15</ele>
        <time>2026-08-23T15:20:52.000Z</time>
      </trkpt>
      <trkpt lat="43.36099" lon="-1.61103">
        <ele>15</ele>
        <time>2026-08-23T15:20:53.000Z</time>
      </trkpt>
      <trkpt lat="43.36097" lon="-1.61116">
        <ele>14</ele>
        <time>2026-08-23T15:20:55.000Z</time>
      </trkpt>
      <trkpt lat="43.36095" lon="-1.61127">
        <ele>14</ele>
        <time>2026-08-23T15:20:56.000Z</time>
      </trkpt>
      <trkpt lat="43.36091" lon="-1.61142">
        <ele>13</ele>
        <time>2026-08-23T15:20:58.000Z</time>
      </trkpt>
      <trkpt lat="43.36087" lon="-1.61149">
        <ele>13</ele>
        <time>2026-08-23T15:20:59.000Z</time>
      </trkpt>
      <trkpt lat="43.36082" lon="-1.61167">
        <ele>12</ele>
        <time>2026-08-23T15:21:02.000Z</time>
      </trkpt>
      <trkpt lat="43.36079" lon="-1.61175">
        <ele>12</ele>
        <time>2026-08-23T15:21:03.000Z</time>
      </trkpt>
      <trkpt lat="43.36076" lon="-1.61184">
        <ele>12</ele>
        <time>2026-08-23T15:21:04.000Z</time>
      </trkpt>
      <trkpt lat="43.36068" lon="-1.61204">
        <ele>11</ele>
        <time>2026-08-23T15:21:07.000Z</time>
      </trkpt>
      <trkpt lat="43.36058" lon="-1.61226">
        <ele>11</ele>
        <time>2026-08-23T15:21:11.000Z</time>
      </trkpt>
      <trkpt lat="43.36048" lon="-1.61243">
        <ele>11</ele>
        <time>2026-08-23T15:21:14.000Z</time>
      </trkpt>
      <trkpt lat="43.36042" lon="-1.61254">
        <ele>11</ele>
        <time>2026-08-23T15:21:15.000Z</time>
      </trkpt>
      <trkpt lat="43.36036" lon="-1.61262">
        <ele>11</ele>
        <time>2026-08-23T15:21:17.000Z</time>
      </trkpt>
      <trkpt lat="43.36026" lon="-1.61276">
        <ele>11</ele>
        <time>2026-08-23T15:21:19.000Z</time>
      </trkpt>
      <trkpt lat="43.36005" lon="-1.61304">
        <ele>11</ele>
        <time>2026-08-23T15:21:25.000Z</time>
      </trkpt>
      <trkpt lat="43.35992" lon="-1.6132">
        <ele>11</ele>
        <time>2026-08-23T15:21:28.000Z</time>
      </trkpt>
      <trkpt lat="43.35953" lon="-1.61369">
        <ele>14</ele>
        <time>2026-08-23T15:21:37.000Z</time>
      </trkpt>
      <trkpt lat="43.3594" lon="-1.61386">
        <ele>15</ele>
        <time>2026-08-23T15:21:40.000Z</time>
      </trkpt>
      <trkpt lat="43.35932" lon="-1.61396">
        <ele>15</ele>
        <time>2026-08-23T15:21:42.000Z</time>
      </trkpt>
      <trkpt lat="43.3592" lon="-1.61409">
        <ele>16</ele>
        <time>2026-08-23T15:21:45.000Z</time>
      </trkpt>
      <trkpt lat="43.3591" lon="-1.6142">
        <ele>16</ele>
        <time>2026-08-23T15:21:47.000Z</time>
      </trkpt>
      <trkpt lat="43.35903" lon="-1.61426">
        <ele>16</ele>
        <time>2026-08-23T15:21:49.000Z</time>
      </trkpt>
      <trkpt lat="43.35895" lon="-1.61433">
        <ele>16</ele>
        <time>2026-08-23T15:21:50.000Z</time>
      </trkpt>
      <trkpt lat="43.35872" lon="-1.61452">
        <ele>16</ele>
        <time>2026-08-23T15:21:55.000Z</time>
      </trkpt>
      <trkpt lat="43.35841" lon="-1.61476">
        <ele>13</ele>
        <time>2026-08-23T15:22:01.000Z</time>
      </trkpt>
      <trkpt lat="43.35826" lon="-1.61489">
        <ele>12</ele>
        <time>2026-08-23T15:22:05.000Z</time>
      </trkpt>
      <trkpt lat="43.35811" lon="-1.61503">
        <ele>12</ele>
        <time>2026-08-23T15:22:08.000Z</time>
      </trkpt>
      <trkpt lat="43.358" lon="-1.61516">
        <ele>13</ele>
        <time>2026-08-23T15:22:10.000Z</time>
      </trkpt>
      <trkpt lat="43.3579" lon="-1.61528">
        <ele>14</ele>
        <time>2026-08-23T15:22:13.000Z</time>
      </trkpt>
      <trkpt lat="43.35779" lon="-1.61546">
        <ele>14</ele>
        <time>2026-08-23T15:22:16.000Z</time>
      </trkpt>
      <trkpt lat="43.35758" lon="-1.61578">
        <ele>14</ele>
        <time>2026-08-23T15:22:21.000Z</time>
      </trkpt>
      <trkpt lat="43.35742" lon="-1.61603">
        <ele>15</ele>
        <time>2026-08-23T15:22:26.000Z</time>
      </trkpt>
      <trkpt lat="43.35714" lon="-1.61647">
        <ele>17</ele>
        <time>2026-08-23T15:22:33.000Z</time>
      </trkpt>
      <trkpt lat="43.35689" lon="-1.61686">
        <ele>16</ele>
        <time>2026-08-23T15:22:40.000Z</time>
      </trkpt>
      <trkpt lat="43.35668" lon="-1.6172">
        <ele>15</ele>
        <time>2026-08-23T15:22:46.000Z</time>
      </trkpt>
      <trkpt lat="43.35638" lon="-1.61767">
        <ele>15</ele>
        <time>2026-08-23T15:22:54.000Z</time>
      </trkpt>
      <trkpt lat="43.35615" lon="-1.61803">
        <ele>13</ele>
        <time>2026-08-23T15:23:00.000Z</time>
      </trkpt>
      <trkpt lat="43.35594" lon="-1.61837">
        <ele>12</ele>
        <time>2026-08-23T15:23:06.000Z</time>
      </trkpt>
      <trkpt lat="43.35566" lon="-1.6188">
        <ele>16</ele>
        <time>2026-08-23T15:23:13.000Z</time>
      </trkpt>
      <trkpt lat="43.35532" lon="-1.61933">
        <ele>17</ele>
        <time>2026-08-23T15:23:22.000Z</time>
      </trkpt>
      <trkpt lat="43.35513" lon="-1.61962">
        <ele>17</ele>
        <time>2026-08-23T15:23:27.000Z</time>
      </trkpt>
      <trkpt lat="43.35504" lon="-1.61975">
        <ele>17</ele>
        <time>2026-08-23T15:23:30.000Z</time>
      </trkpt>
      <trkpt lat="43.35493" lon="-1.6199">
        <ele>18</ele>
        <time>2026-08-23T15:23:33.000Z</time>
      </trkpt>
      <trkpt lat="43.35481" lon="-1.62002">
        <ele>18</ele>
        <time>2026-08-23T15:23:35.000Z</time>
      </trkpt>
      <trkpt lat="43.35468" lon="-1.62014">
        <ele>19</ele>
        <time>2026-08-23T15:23:38.000Z</time>
      </trkpt>
      <trkpt lat="43.35454" lon="-1.62026">
        <ele>19</ele>
        <time>2026-08-23T15:23:41.000Z</time>
      </trkpt>
      <trkpt lat="43.35443" lon="-1.62035">
        <ele>20</ele>
        <time>2026-08-23T15:23:43.000Z</time>
      </trkpt>
      <trkpt lat="43.35433" lon="-1.62042">
        <ele>20</ele>
        <time>2026-08-23T15:23:45.000Z</time>
      </trkpt>
      <trkpt lat="43.35422" lon="-1.62049">
        <ele>20</ele>
        <time>2026-08-23T15:23:47.000Z</time>
      </trkpt>
      <trkpt lat="43.35415" lon="-1.62054">
        <ele>21</ele>
        <time>2026-08-23T15:23:49.000Z</time>
      </trkpt>
      <trkpt lat="43.3541" lon="-1.62056">
        <ele>21</ele>
        <time>2026-08-23T15:23:50.000Z</time>
      </trkpt>
      <trkpt lat="43.35402" lon="-1.6206">
        <ele>21</ele>
        <time>2026-08-23T15:23:51.000Z</time>
      </trkpt>
      <trkpt lat="43.35389" lon="-1.62066">
        <ele>21</ele>
        <time>2026-08-23T15:23:54.000Z</time>
      </trkpt>
      <trkpt lat="43.35365" lon="-1.62076">
        <ele>20</ele>
        <time>2026-08-23T15:23:58.000Z</time>
      </trkpt>
      <trkpt lat="43.35336" lon="-1.62087">
        <ele>19</ele>
        <time>2026-08-23T15:24:03.000Z</time>
      </trkpt>
      <trkpt lat="43.35307" lon="-1.62098">
        <ele>18</ele>
        <time>2026-08-23T15:24:09.000Z</time>
      </trkpt>
      <trkpt lat="43.35285" lon="-1.62107">
        <ele>17</ele>
        <time>2026-08-23T15:24:13.000Z</time>
      </trkpt>
      <trkpt lat="43.35271" lon="-1.62113">
        <ele>16</ele>
        <time>2026-08-23T15:24:16.000Z</time>
      </trkpt>
      <trkpt lat="43.35252" lon="-1.6212">
        <ele>14</ele>
        <time>2026-08-23T15:24:19.000Z</time>
      </trkpt>
      <trkpt lat="43.35243" lon="-1.62124">
        <ele>14</ele>
        <time>2026-08-23T15:24:21.000Z</time>
      </trkpt>
      <trkpt lat="43.35235" lon="-1.62128">
        <ele>13</ele>
        <time>2026-08-23T15:24:22.000Z</time>
      </trkpt>
      <trkpt lat="43.35231" lon="-1.6213">
        <ele>13</ele>
        <time>2026-08-23T15:24:23.000Z</time>
      </trkpt>
      <trkpt lat="43.35224" lon="-1.62135">
        <ele>13</ele>
        <time>2026-08-23T15:24:24.000Z</time>
      </trkpt>
      <trkpt lat="43.35221" lon="-1.62137">
        <ele>13</ele>
        <time>2026-08-23T15:24:25.000Z</time>
      </trkpt>
      <trkpt lat="43.35217" lon="-1.6214">
        <ele>13</ele>
        <time>2026-08-23T15:24:26.000Z</time>
      </trkpt>
      <trkpt lat="43.35213" lon="-1.62144">
        <ele>12</ele>
        <time>2026-08-23T15:24:27.000Z</time>
      </trkpt>
      <trkpt lat="43.35207" lon="-1.62149">
        <ele>12</ele>
        <time>2026-08-23T15:24:28.000Z</time>
      </trkpt>
      <trkpt lat="43.35202" lon="-1.62154">
        <ele>12</ele>
        <time>2026-08-23T15:24:29.000Z</time>
      </trkpt>
      <trkpt lat="43.35198" lon="-1.62158">
        <ele>12</ele>
        <time>2026-08-23T15:24:30.000Z</time>
      </trkpt>
      <trkpt lat="43.35193" lon="-1.62165">
        <ele>11</ele>
        <time>2026-08-23T15:24:31.000Z</time>
      </trkpt>
      <trkpt lat="43.35188" lon="-1.62171">
        <ele>11</ele>
        <time>2026-08-23T15:24:32.000Z</time>
      </trkpt>
      <trkpt lat="43.35178" lon="-1.62189">
        <ele>10</ele>
        <time>2026-08-23T15:24:35.000Z</time>
      </trkpt>
      <trkpt lat="43.35168" lon="-1.62208">
        <ele>10</ele>
        <time>2026-08-23T15:24:38.000Z</time>
      </trkpt>
      <trkpt lat="43.35152" lon="-1.62239">
        <ele>10</ele>
        <time>2026-08-23T15:24:43.000Z</time>
      </trkpt>
      <trkpt lat="43.35142" lon="-1.6226">
        <ele>11</ele>
        <time>2026-08-23T15:24:46.000Z</time>
      </trkpt>
      <trkpt lat="43.35127" lon="-1.62288">
        <ele>11</ele>
        <time>2026-08-23T15:24:51.000Z</time>
      </trkpt>
      <trkpt lat="43.35125" lon="-1.62292">
        <ele>11</ele>
        <time>2026-08-23T15:24:52.000Z</time>
      </trkpt>
      <trkpt lat="43.35122" lon="-1.62299">
        <ele>11</ele>
        <time>2026-08-23T15:24:53.000Z</time>
      </trkpt>
      <trkpt lat="43.35116" lon="-1.62309">
        <ele>11</ele>
        <time>2026-08-23T15:24:54.000Z</time>
      </trkpt>
      <trkpt lat="43.35114" lon="-1.62315">
        <ele>11</ele>
        <time>2026-08-23T15:24:55.000Z</time>
      </trkpt>
      <trkpt lat="43.35111" lon="-1.62321">
        <ele>10</ele>
        <time>2026-08-23T15:24:56.000Z</time>
      </trkpt>
      <trkpt lat="43.3511" lon="-1.62326">
        <ele>10</ele>
        <time>2026-08-23T15:24:57.000Z</time>
      </trkpt>
      <trkpt lat="43.35109" lon="-1.6233">
        <ele>10</ele>
        <time>2026-08-23T15:24:57.000Z</time>
      </trkpt>
      <trkpt lat="43.35108" lon="-1.62337">
        <ele>10</ele>
        <time>2026-08-23T15:24:58.000Z</time>
      </trkpt>
      <trkpt lat="43.35107" lon="-1.62343">
        <ele>10</ele>
        <time>2026-08-23T15:24:59.000Z</time>
      </trkpt>
      <trkpt lat="43.35106" lon="-1.62351">
        <ele>10</ele>
        <time>2026-08-23T15:25:00.000Z</time>
      </trkpt>
      <trkpt lat="43.35105" lon="-1.62359">
        <ele>10</ele>
        <time>2026-08-23T15:25:01.000Z</time>
      </trkpt>
      <trkpt lat="43.35104" lon="-1.62381">
        <ele>10</ele>
        <time>2026-08-23T15:25:04.000Z</time>
      </trkpt>
      <trkpt lat="43.35102" lon="-1.62403">
        <ele>11</ele>
        <time>2026-08-23T15:25:07.000Z</time>
      </trkpt>
      <trkpt lat="43.35102" lon="-1.62423">
        <ele>11</ele>
        <time>2026-08-23T15:25:09.000Z</time>
      </trkpt>
      <trkpt lat="43.35102" lon="-1.62437">
        <ele>11</ele>
        <time>2026-08-23T15:25:11.000Z</time>
      </trkpt>
      <trkpt lat="43.35103" lon="-1.62449">
        <ele>11</ele>
        <time>2026-08-23T15:25:13.000Z</time>
      </trkpt>
      <trkpt lat="43.35103" lon="-1.62455">
        <ele>10</ele>
        <time>2026-08-23T15:25:14.000Z</time>
      </trkpt>
      <trkpt lat="43.35106" lon="-1.62475">
        <ele>11</ele>
        <time>2026-08-23T15:25:16.000Z</time>
      </trkpt>
      <trkpt lat="43.3511" lon="-1.62497">
        <ele>11</ele>
        <time>2026-08-23T15:25:19.000Z</time>
      </trkpt>
      <trkpt lat="43.35116" lon="-1.62524">
        <ele>11</ele>
        <time>2026-08-23T15:25:23.000Z</time>
      </trkpt>
      <trkpt lat="43.35121" lon="-1.62539">
        <ele>12</ele>
        <time>2026-08-23T15:25:25.000Z</time>
      </trkpt>
      <trkpt lat="43.3513" lon="-1.62562">
        <ele>12</ele>
        <time>2026-08-23T15:25:28.000Z</time>
      </trkpt>
      <trkpt lat="43.35145" lon="-1.62603">
        <ele>12</ele>
        <time>2026-08-23T15:25:34.000Z</time>
      </trkpt>
      <trkpt lat="43.35147" lon="-1.62608">
        <ele>11</ele>
        <time>2026-08-23T15:25:35.000Z</time>
      </trkpt>
      <trkpt lat="43.35157" lon="-1.62632">
        <ele>10</ele>
        <time>2026-08-23T15:25:39.000Z</time>
      </trkpt>
      <trkpt lat="43.3517" lon="-1.62665">
        <ele>8</ele>
        <time>2026-08-23T15:25:43.000Z</time>
      </trkpt>
      <trkpt lat="43.35189" lon="-1.62714">
        <ele>8</ele>
        <time>2026-08-23T15:25:51.000Z</time>
      </trkpt>
      <trkpt lat="43.35207" lon="-1.62758">
        <ele>8</ele>
        <time>2026-08-23T15:25:57.000Z</time>
      </trkpt>
      <trkpt lat="43.35221" lon="-1.62797">
        <ele>8</ele>
        <time>2026-08-23T15:26:03.000Z</time>
      </trkpt>
      <trkpt lat="43.35228" lon="-1.62818">
        <ele>7</ele>
        <time>2026-08-23T15:26:06.000Z</time>
      </trkpt>
      <trkpt lat="43.35236" lon="-1.62843">
        <ele>7</ele>
        <time>2026-08-23T15:26:09.000Z</time>
      </trkpt>
      <trkpt lat="43.35244" lon="-1.62867">
        <ele>6</ele>
        <time>2026-08-23T15:26:13.000Z</time>
      </trkpt>
      <trkpt lat="43.35251" lon="-1.62887">
        <ele>6</ele>
        <time>2026-08-23T15:26:16.000Z</time>
      </trkpt>
      <trkpt lat="43.35258" lon="-1.62906">
        <ele>6</ele>
        <time>2026-08-23T15:26:18.000Z</time>
      </trkpt>
      <trkpt lat="43.35263" lon="-1.62918">
        <ele>7</ele>
        <time>2026-08-23T15:26:20.000Z</time>
      </trkpt>
      <trkpt lat="43.35268" lon="-1.6293">
        <ele>6</ele>
        <time>2026-08-23T15:26:22.000Z</time>
      </trkpt>
      <trkpt lat="43.35274" lon="-1.62944">
        <ele>6</ele>
        <time>2026-08-23T15:26:24.000Z</time>
      </trkpt>
      <trkpt lat="43.35284" lon="-1.62963">
        <ele>6</ele>
        <time>2026-08-23T15:26:27.000Z</time>
      </trkpt>
      <trkpt lat="43.35291" lon="-1.62976">
        <ele>6</ele>
        <time>2026-08-23T15:26:29.000Z</time>
      </trkpt>
      <trkpt lat="43.35297" lon="-1.62986">
        <ele>6</ele>
        <time>2026-08-23T15:26:31.000Z</time>
      </trkpt>
      <trkpt lat="43.35302" lon="-1.62992">
        <ele>6</ele>
        <time>2026-08-23T15:26:32.000Z</time>
      </trkpt>
      <trkpt lat="43.3531" lon="-1.63002">
        <ele>6</ele>
        <time>2026-08-23T15:26:34.000Z</time>
      </trkpt>
      <trkpt lat="43.3532" lon="-1.63013">
        <ele>6</ele>
        <time>2026-08-23T15:26:36.000Z</time>
      </trkpt>
      <trkpt lat="43.3533" lon="-1.63025">
        <ele>7</ele>
        <time>2026-08-23T15:26:39.000Z</time>
      </trkpt>
      <trkpt lat="43.35342" lon="-1.63036">
        <ele>7</ele>
        <time>2026-08-23T15:26:41.000Z</time>
      </trkpt>
      <trkpt lat="43.35351" lon="-1.63045">
        <ele>7</ele>
        <time>2026-08-23T15:26:43.000Z</time>
      </trkpt>
      <trkpt lat="43.35366" lon="-1.63058">
        <ele>7</ele>
        <time>2026-08-23T15:26:46.000Z</time>
      </trkpt>
      <trkpt lat="43.35377" lon="-1.63066">
        <ele>7</ele>
        <time>2026-08-23T15:26:49.000Z</time>
      </trkpt>
      <trkpt lat="43.35386" lon="-1.63072">
        <ele>7</ele>
        <time>2026-08-23T15:26:50.000Z</time>
      </trkpt>
      <trkpt lat="43.35395" lon="-1.63077">
        <ele>7</ele>
        <time>2026-08-23T15:26:52.000Z</time>
      </trkpt>
      <trkpt lat="43.35405" lon="-1.63082">
        <ele>7</ele>
        <time>2026-08-23T15:26:54.000Z</time>
      </trkpt>
      <trkpt lat="43.35417" lon="-1.63087">
        <ele>7</ele>
        <time>2026-08-23T15:26:56.000Z</time>
      </trkpt>
      <trkpt lat="43.35426" lon="-1.63091">
        <ele>7</ele>
        <time>2026-08-23T15:26:58.000Z</time>
      </trkpt>
      <trkpt lat="43.35441" lon="-1.63096">
        <ele>6</ele>
        <time>2026-08-23T15:27:01.000Z</time>
      </trkpt>
      <trkpt lat="43.35453" lon="-1.631">
        <ele>6</ele>
        <time>2026-08-23T15:27:03.000Z</time>
      </trkpt>
      <trkpt lat="43.35482" lon="-1.63109">
        <ele>6</ele>
        <time>2026-08-23T15:27:08.000Z</time>
      </trkpt>
      <trkpt lat="43.35512" lon="-1.63118">
        <ele>6</ele>
        <time>2026-08-23T15:27:14.000Z</time>
      </trkpt>
      <trkpt lat="43.35543" lon="-1.63125">
        <ele>5</ele>
        <time>2026-08-23T15:27:19.000Z</time>
      </trkpt>
      <trkpt lat="43.35613" lon="-1.63143">
        <ele>5</ele>
        <time>2026-08-23T15:27:32.000Z</time>
      </trkpt>
      <trkpt lat="43.35647" lon="-1.63155">
        <ele>6</ele>
        <time>2026-08-23T15:27:38.000Z</time>
      </trkpt>
      <trkpt lat="43.35655" lon="-1.63157">
        <ele>6</ele>
        <time>2026-08-23T15:27:39.000Z</time>
      </trkpt>
      <trkpt lat="43.35673" lon="-1.63163">
        <ele>6</ele>
        <time>2026-08-23T15:27:43.000Z</time>
      </trkpt>
      <trkpt lat="43.35697" lon="-1.6317">
        <ele>6</ele>
        <time>2026-08-23T15:27:47.000Z</time>
      </trkpt>
      <trkpt lat="43.35716" lon="-1.63177">
        <ele>7</ele>
        <time>2026-08-23T15:27:51.000Z</time>
      </trkpt>
      <trkpt lat="43.35717" lon="-1.63177">
        <ele>7</ele>
        <time>2026-08-23T15:27:51.000Z</time>
      </trkpt>
      <trkpt lat="43.35736" lon="-1.63185">
        <ele>7</ele>
        <time>2026-08-23T15:27:54.000Z</time>
      </trkpt>
      <trkpt lat="43.35753" lon="-1.63193">
        <ele>7</ele>
        <time>2026-08-23T15:27:58.000Z</time>
      </trkpt>
      <trkpt lat="43.35768" lon="-1.63201">
        <ele>8</ele>
        <time>2026-08-23T15:28:00.000Z</time>
      </trkpt>
      <trkpt lat="43.35781" lon="-1.6321">
        <ele>9</ele>
        <time>2026-08-23T15:28:03.000Z</time>
      </trkpt>
      <trkpt lat="43.35793" lon="-1.6322">
        <ele>9</ele>
        <time>2026-08-23T15:28:05.000Z</time>
      </trkpt>
      <trkpt lat="43.35808" lon="-1.63232">
        <ele>9</ele>
        <time>2026-08-23T15:28:09.000Z</time>
      </trkpt>
      <trkpt lat="43.35825" lon="-1.63247">
        <ele>8</ele>
        <time>2026-08-23T15:28:12.000Z</time>
      </trkpt>
      <trkpt lat="43.35854" lon="-1.63273">
        <ele>9</ele>
        <time>2026-08-23T15:28:18.000Z</time>
      </trkpt>
      <trkpt lat="43.35896" lon="-1.6331">
        <ele>10</ele>
        <time>2026-08-23T15:28:27.000Z</time>
      </trkpt>
      <trkpt lat="43.35908" lon="-1.63322">
        <ele>9</ele>
        <time>2026-08-23T15:28:30.000Z</time>
      </trkpt>
      <trkpt lat="43.3592" lon="-1.63334">
        <ele>8</ele>
        <time>2026-08-23T15:28:32.000Z</time>
      </trkpt>
      <trkpt lat="43.35929" lon="-1.63344">
        <ele>9</ele>
        <time>2026-08-23T15:28:35.000Z</time>
      </trkpt>
      <trkpt lat="43.35936" lon="-1.63353">
        <ele>9</ele>
        <time>2026-08-23T15:28:36.000Z</time>
      </trkpt>
      <trkpt lat="43.35949" lon="-1.63373">
        <ele>9</ele>
        <time>2026-08-23T15:28:40.000Z</time>
      </trkpt>
      <trkpt lat="43.35963" lon="-1.63394">
        <ele>9</ele>
        <time>2026-08-23T15:28:43.000Z</time>
      </trkpt>
      <trkpt lat="43.35977" lon="-1.63416">
        <ele>9</ele>
        <time>2026-08-23T15:28:47.000Z</time>
      </trkpt>
      <trkpt lat="43.3599" lon="-1.63435">
        <ele>8</ele>
        <time>2026-08-23T15:28:51.000Z</time>
      </trkpt>
      <trkpt lat="43.35995" lon="-1.63444">
        <ele>8</ele>
        <time>2026-08-23T15:28:52.000Z</time>
      </trkpt>
      <trkpt lat="43.35996" lon="-1.63448">
        <ele>8</ele>
        <time>2026-08-23T15:28:53.000Z</time>
      </trkpt>
      <trkpt lat="43.36001" lon="-1.6346">
        <ele>8</ele>
        <time>2026-08-23T15:28:54.000Z</time>
      </trkpt>
      <trkpt lat="43.36007" lon="-1.63472">
        <ele>7</ele>
        <time>2026-08-23T15:28:56.000Z</time>
      </trkpt>
      <trkpt lat="43.36012" lon="-1.63486">
        <ele>7</ele>
        <time>2026-08-23T15:28:58.000Z</time>
      </trkpt>
      <trkpt lat="43.36018" lon="-1.635">
        <ele>7</ele>
        <time>2026-08-23T15:29:00.000Z</time>
      </trkpt>
      <trkpt lat="43.36022" lon="-1.63509">
        <ele>6</ele>
        <time>2026-08-23T15:29:02.000Z</time>
      </trkpt>
      <trkpt lat="43.36027" lon="-1.6352">
        <ele>6</ele>
        <time>2026-08-23T15:29:03.000Z</time>
      </trkpt>
      <trkpt lat="43.36033" lon="-1.63531">
        <ele>6</ele>
        <time>2026-08-23T15:29:05.000Z</time>
      </trkpt>
      <trkpt lat="43.36041" lon="-1.63544">
        <ele>6</ele>
        <time>2026-08-23T15:29:07.000Z</time>
      </trkpt>
      <trkpt lat="43.3605" lon="-1.63557">
        <ele>6</ele>
        <time>2026-08-23T15:29:10.000Z</time>
      </trkpt>
      <trkpt lat="43.36059" lon="-1.63568">
        <ele>6</ele>
        <time>2026-08-23T15:29:12.000Z</time>
      </trkpt>
      <trkpt lat="43.36065" lon="-1.63575">
        <ele>6</ele>
        <time>2026-08-23T15:29:13.000Z</time>
      </trkpt>
      <trkpt lat="43.36072" lon="-1.63582">
        <ele>6</ele>
        <time>2026-08-23T15:29:15.000Z</time>
      </trkpt>
      <trkpt lat="43.3608" lon="-1.63589">
        <ele>6</ele>
        <time>2026-08-23T15:29:16.000Z</time>
      </trkpt>
      <trkpt lat="43.3609" lon="-1.63595">
        <ele>5</ele>
        <time>2026-08-23T15:29:18.000Z</time>
      </trkpt>
      <trkpt lat="43.36096" lon="-1.63598">
        <ele>5</ele>
        <time>2026-08-23T15:29:20.000Z</time>
      </trkpt>
      <trkpt lat="43.361" lon="-1.636">
        <ele>5</ele>
        <time>2026-08-23T15:29:20.000Z</time>
      </trkpt>
      <trkpt lat="43.36108" lon="-1.63602">
        <ele>6</ele>
        <time>2026-08-23T15:29:22.000Z</time>
      </trkpt>
      <trkpt lat="43.3613" lon="-1.6361">
        <ele>6</ele>
        <time>2026-08-23T15:29:26.000Z</time>
      </trkpt>
      <trkpt lat="43.36161" lon="-1.63621">
        <ele>6</ele>
        <time>2026-08-23T15:29:32.000Z</time>
      </trkpt>
      <trkpt lat="43.3619" lon="-1.63632">
        <ele>6</ele>
        <time>2026-08-23T15:29:37.000Z</time>
      </trkpt>
      <trkpt lat="43.36216" lon="-1.63643">
        <ele>6</ele>
        <time>2026-08-23T15:29:42.000Z</time>
      </trkpt>
      <trkpt lat="43.36221" lon="-1.63649">
        <ele>6</ele>
        <time>2026-08-23T15:29:43.000Z</time>
      </trkpt>
      <trkpt lat="43.36235" lon="-1.63656">
        <ele>6</ele>
        <time>2026-08-23T15:29:46.000Z</time>
      </trkpt>
      <trkpt lat="43.36245" lon="-1.6366">
        <ele>6</ele>
        <time>2026-08-23T15:29:47.000Z</time>
      </trkpt>
      <trkpt lat="43.36255" lon="-1.63663">
        <ele>6</ele>
        <time>2026-08-23T15:29:49.000Z</time>
      </trkpt>
      <trkpt lat="43.36261" lon="-1.63665">
        <ele>6</ele>
        <time>2026-08-23T15:29:50.000Z</time>
      </trkpt>
      <trkpt lat="43.36268" lon="-1.63666">
        <ele>6</ele>
        <time>2026-08-23T15:29:52.000Z</time>
      </trkpt>
      <trkpt lat="43.36274" lon="-1.63663">
        <ele>6</ele>
        <time>2026-08-23T15:29:53.000Z</time>
      </trkpt>
      <trkpt lat="43.3628" lon="-1.63664">
        <ele>6</ele>
        <time>2026-08-23T15:29:54.000Z</time>
      </trkpt>
      <trkpt lat="43.36285" lon="-1.63665">
        <ele>6</ele>
        <time>2026-08-23T15:29:55.000Z</time>
      </trkpt>
      <trkpt lat="43.36291" lon="-1.63666">
        <ele>7</ele>
        <time>2026-08-23T15:29:56.000Z</time>
      </trkpt>
      <trkpt lat="43.36295" lon="-1.63667">
        <ele>7</ele>
        <time>2026-08-23T15:29:56.000Z</time>
      </trkpt>
      <trkpt lat="43.36301" lon="-1.63667">
        <ele>7</ele>
        <time>2026-08-23T15:29:58.000Z</time>
      </trkpt>
      <trkpt lat="43.36319" lon="-1.63666">
        <ele>7</ele>
        <time>2026-08-23T15:30:01.000Z</time>
      </trkpt>
      <trkpt lat="43.36341" lon="-1.63664">
        <ele>7</ele>
        <time>2026-08-23T15:30:05.000Z</time>
      </trkpt>
      <trkpt lat="43.36355" lon="-1.63662">
        <ele>7</ele>
        <time>2026-08-23T15:30:07.000Z</time>
      </trkpt>
      <trkpt lat="43.36368" lon="-1.63658">
        <ele>7</ele>
        <time>2026-08-23T15:30:10.000Z</time>
      </trkpt>
      <trkpt lat="43.36388" lon="-1.63652">
        <ele>7</ele>
        <time>2026-08-23T15:30:13.000Z</time>
      </trkpt>
      <trkpt lat="43.36402" lon="-1.63647">
        <ele>7</ele>
        <time>2026-08-23T15:30:16.000Z</time>
      </trkpt>
      <trkpt lat="43.36462" lon="-1.63627">
        <ele>5</ele>
        <time>2026-08-23T15:30:27.000Z</time>
      </trkpt>
      <trkpt lat="43.3655" lon="-1.63599">
        <ele>4</ele>
        <time>2026-08-23T15:30:43.000Z</time>
      </trkpt>
      <trkpt lat="43.36559" lon="-1.63598">
        <ele>5</ele>
        <time>2026-08-23T15:30:44.000Z</time>
      </trkpt>
      <trkpt lat="43.36581" lon="-1.63591">
        <ele>5</ele>
        <time>2026-08-23T15:30:48.000Z</time>
      </trkpt>
      <trkpt lat="43.36599" lon="-1.63585">
        <ele>6</ele>
        <time>2026-08-23T15:30:52.000Z</time>
      </trkpt>
      <trkpt lat="43.36616" lon="-1.6358">
        <ele>6</ele>
        <time>2026-08-23T15:30:55.000Z</time>
      </trkpt>
      <trkpt lat="43.36631" lon="-1.63577">
        <ele>7</ele>
        <time>2026-08-23T15:30:58.000Z</time>
      </trkpt>
      <trkpt lat="43.36633" lon="-1.63576">
        <ele>7</ele>
        <time>2026-08-23T15:30:58.000Z</time>
      </trkpt>
      <trkpt lat="43.36636" lon="-1.63576">
        <ele>7</ele>
        <time>2026-08-23T15:30:58.000Z</time>
      </trkpt>
      <trkpt lat="43.36641" lon="-1.63575">
        <ele>7</ele>
        <time>2026-08-23T15:30:59.000Z</time>
      </trkpt>
      <trkpt lat="43.36653" lon="-1.63575">
        <ele>8</ele>
        <time>2026-08-23T15:31:01.000Z</time>
      </trkpt>
      <trkpt lat="43.36668" lon="-1.63574">
        <ele>8</ele>
        <time>2026-08-23T15:31:04.000Z</time>
      </trkpt>
      <trkpt lat="43.36683" lon="-1.63575">
        <ele>8</ele>
        <time>2026-08-23T15:31:07.000Z</time>
      </trkpt>
      <trkpt lat="43.36701" lon="-1.63577">
        <ele>8</ele>
        <time>2026-08-23T15:31:10.000Z</time>
      </trkpt>
      <trkpt lat="43.36717" lon="-1.6358">
        <ele>7</ele>
        <time>2026-08-23T15:31:13.000Z</time>
      </trkpt>
      <trkpt lat="43.36734" lon="-1.63586">
        <ele>7</ele>
        <time>2026-08-23T15:31:16.000Z</time>
      </trkpt>
      <trkpt lat="43.36748" lon="-1.63591">
        <ele>7</ele>
        <time>2026-08-23T15:31:19.000Z</time>
      </trkpt>
      <trkpt lat="43.36756" lon="-1.63595">
        <ele>7</ele>
        <time>2026-08-23T15:31:20.000Z</time>
      </trkpt>
      <trkpt lat="43.36771" lon="-1.63603">
        <ele>6</ele>
        <time>2026-08-23T15:31:23.000Z</time>
      </trkpt>
      <trkpt lat="43.36787" lon="-1.63613">
        <ele>6</ele>
        <time>2026-08-23T15:31:26.000Z</time>
      </trkpt>
      <trkpt lat="43.36809" lon="-1.63627">
        <ele>5</ele>
        <time>2026-08-23T15:31:30.000Z</time>
      </trkpt>
      <trkpt lat="43.36857" lon="-1.63658">
        <ele>4</ele>
        <time>2026-08-23T15:31:40.000Z</time>
      </trkpt>
      <trkpt lat="43.36898" lon="-1.63685">
        <ele>4</ele>
        <time>2026-08-23T15:31:48.000Z</time>
      </trkpt>
      <trkpt lat="43.3703" lon="-1.63771">
        <ele>5</ele>
        <time>2026-08-23T15:32:14.000Z</time>
      </trkpt>
      <trkpt lat="43.37045" lon="-1.6378">
        <ele>6</ele>
        <time>2026-08-23T15:32:17.000Z</time>
      </trkpt>
      <trkpt lat="43.37058" lon="-1.63788">
        <ele>6</ele>
        <time>2026-08-23T15:32:19.000Z</time>
      </trkpt>
      <trkpt lat="43.37067" lon="-1.63793">
        <ele>6</ele>
        <time>2026-08-23T15:32:21.000Z</time>
      </trkpt>
      <trkpt lat="43.37076" lon="-1.63796">
        <ele>6</ele>
        <time>2026-08-23T15:32:23.000Z</time>
      </trkpt>
      <trkpt lat="43.37085" lon="-1.638">
        <ele>6</ele>
        <time>2026-08-23T15:32:24.000Z</time>
      </trkpt>
      <trkpt lat="43.37093" lon="-1.63802">
        <ele>6</ele>
        <time>2026-08-23T15:32:26.000Z</time>
      </trkpt>
      <trkpt lat="43.37099" lon="-1.63803">
        <ele>6</ele>
        <time>2026-08-23T15:32:27.000Z</time>
      </trkpt>
      <trkpt lat="43.37105" lon="-1.63804">
        <ele>5</ele>
        <time>2026-08-23T15:32:28.000Z</time>
      </trkpt>
      <trkpt lat="43.37108" lon="-1.63804">
        <ele>5</ele>
        <time>2026-08-23T15:32:29.000Z</time>
      </trkpt>
      <trkpt lat="43.37111" lon="-1.63805">
        <ele>5</ele>
        <time>2026-08-23T15:32:29.000Z</time>
      </trkpt>
      <trkpt lat="43.37123" lon="-1.63805">
        <ele>5</ele>
        <time>2026-08-23T15:32:31.000Z</time>
      </trkpt>
      <trkpt lat="43.37146" lon="-1.63804">
        <ele>5</ele>
        <time>2026-08-23T15:32:35.000Z</time>
      </trkpt>
      <trkpt lat="43.37189" lon="-1.63801">
        <ele>4</ele>
        <time>2026-08-23T15:32:43.000Z</time>
      </trkpt>
      <trkpt lat="43.37298" lon="-1.63793">
        <ele>3</ele>
        <time>2026-08-23T15:33:02.000Z</time>
      </trkpt>
      <trkpt lat="43.37385" lon="-1.63788">
        <ele>3</ele>
        <time>2026-08-23T15:33:18.000Z</time>
      </trkpt>
      <trkpt lat="43.37395" lon="-1.63785">
        <ele>4</ele>
        <time>2026-08-23T15:33:20.000Z</time>
      </trkpt>
      <trkpt lat="43.37413" lon="-1.63784">
        <ele>4</ele>
        <time>2026-08-23T15:33:23.000Z</time>
      </trkpt>
      <trkpt lat="43.37429" lon="-1.63781">
        <ele>4</ele>
        <time>2026-08-23T15:33:26.000Z</time>
      </trkpt>
      <trkpt lat="43.37451" lon="-1.63777">
        <ele>4</ele>
        <time>2026-08-23T15:33:30.000Z</time>
      </trkpt>
      <trkpt lat="43.37469" lon="-1.63776">
        <ele>4</ele>
        <time>2026-08-23T15:33:33.000Z</time>
      </trkpt>
      <trkpt lat="43.37516" lon="-1.63774">
        <ele>4</ele>
        <time>2026-08-23T15:33:41.000Z</time>
      </trkpt>
      <trkpt lat="43.37522" lon="-1.63774">
        <ele>5</ele>
        <time>2026-08-23T15:33:42.000Z</time>
      </trkpt>
      <trkpt lat="43.37536" lon="-1.63773">
        <ele>5</ele>
        <time>2026-08-23T15:33:45.000Z</time>
      </trkpt>
      <trkpt lat="43.37603" lon="-1.63769">
        <ele>6</ele>
        <time>2026-08-23T15:33:57.000Z</time>
      </trkpt>
      <trkpt lat="43.37615" lon="-1.6377">
        <ele>6</ele>
        <time>2026-08-23T15:33:59.000Z</time>
      </trkpt>
      <trkpt lat="43.3763" lon="-1.63771">
        <ele>6</ele>
        <time>2026-08-23T15:34:02.000Z</time>
      </trkpt>
      <trkpt lat="43.37649" lon="-1.63771">
        <ele>6</ele>
        <time>2026-08-23T15:34:05.000Z</time>
      </trkpt>
      <trkpt lat="43.37654" lon="-1.63774">
        <ele>6</ele>
        <time>2026-08-23T15:34:06.000Z</time>
      </trkpt>
      <trkpt lat="43.37724" lon="-1.6377">
        <ele>8</ele>
        <time>2026-08-23T15:34:18.000Z</time>
      </trkpt>
      <trkpt lat="43.37735" lon="-1.6377">
        <ele>8</ele>
        <time>2026-08-23T15:34:20.000Z</time>
      </trkpt>
      <trkpt lat="43.37746" lon="-1.6377">
        <ele>8</ele>
        <time>2026-08-23T15:34:22.000Z</time>
      </trkpt>
      <trkpt lat="43.3775" lon="-1.6377">
        <ele>8</ele>
        <time>2026-08-23T15:34:23.000Z</time>
      </trkpt>
      <trkpt lat="43.37754" lon="-1.63771">
        <ele>8</ele>
        <time>2026-08-23T15:34:24.000Z</time>
      </trkpt>
      <trkpt lat="43.37756" lon="-1.63772">
        <ele>8</ele>
        <time>2026-08-23T15:34:24.000Z</time>
      </trkpt>
      <trkpt lat="43.37762" lon="-1.63774">
        <ele>8</ele>
        <time>2026-08-23T15:34:25.000Z</time>
      </trkpt>
      <trkpt lat="43.37768" lon="-1.63777">
        <ele>8</ele>
        <time>2026-08-23T15:34:26.000Z</time>
      </trkpt>
      <trkpt lat="43.37774" lon="-1.63781">
        <ele>8</ele>
        <time>2026-08-23T15:34:28.000Z</time>
      </trkpt>
      <trkpt lat="43.37781" lon="-1.63785">
        <ele>8</ele>
        <time>2026-08-23T15:34:29.000Z</time>
      </trkpt>
      <trkpt lat="43.37788" lon="-1.63791">
        <ele>8</ele>
        <time>2026-08-23T15:34:30.000Z</time>
      </trkpt>
      <trkpt lat="43.37796" lon="-1.638">
        <ele>8</ele>
        <time>2026-08-23T15:34:32.000Z</time>
      </trkpt>
      <trkpt lat="43.37803" lon="-1.63806">
        <ele>8</ele>
        <time>2026-08-23T15:34:34.000Z</time>
      </trkpt>
      <trkpt lat="43.37817" lon="-1.6382">
        <ele>8</ele>
        <time>2026-08-23T15:34:37.000Z</time>
      </trkpt>
      <trkpt lat="43.37836" lon="-1.6384">
        <ele>8</ele>
        <time>2026-08-23T15:34:41.000Z</time>
      </trkpt>
      <trkpt lat="43.37864" lon="-1.63869">
        <ele>7</ele>
        <time>2026-08-23T15:34:47.000Z</time>
      </trkpt>
      <trkpt lat="43.37885" lon="-1.63891">
        <ele>6</ele>
        <time>2026-08-23T15:34:52.000Z</time>
      </trkpt>
      <trkpt lat="43.37911" lon="-1.63917">
        <ele>7</ele>
        <time>2026-08-23T15:34:58.000Z</time>
      </trkpt>
      <trkpt lat="43.37951" lon="-1.63955">
        <ele>7</ele>
        <time>2026-08-23T15:35:06.000Z</time>
      </trkpt>
      <trkpt lat="43.37975" lon="-1.63977">
        <ele>8</ele>
        <time>2026-08-23T15:35:11.000Z</time>
      </trkpt>
      <trkpt lat="43.38001" lon="-1.64001">
        <ele>8</ele>
        <time>2026-08-23T15:35:17.000Z</time>
      </trkpt>
      <trkpt lat="43.38026" lon="-1.64024">
        <ele>9</ele>
        <time>2026-08-23T15:35:22.000Z</time>
      </trkpt>
      <trkpt lat="43.3804" lon="-1.64037">
        <ele>9</ele>
        <time>2026-08-23T15:35:25.000Z</time>
      </trkpt>
      <trkpt lat="43.3805" lon="-1.64047">
        <ele>9</ele>
        <time>2026-08-23T15:35:28.000Z</time>
      </trkpt>
      <trkpt lat="43.38056" lon="-1.64055">
        <ele>9</ele>
        <time>2026-08-23T15:35:29.000Z</time>
      </trkpt>
      <trkpt lat="43.38062" lon="-1.64063">
        <ele>9</ele>
        <time>2026-08-23T15:35:31.000Z</time>
      </trkpt>
      <trkpt lat="43.38067" lon="-1.64071">
        <ele>9</ele>
        <time>2026-08-23T15:35:32.000Z</time>
      </trkpt>
      <trkpt lat="43.38071" lon="-1.64078">
        <ele>9</ele>
        <time>2026-08-23T15:35:33.000Z</time>
      </trkpt>
      <trkpt lat="43.38074" lon="-1.64086">
        <ele>8</ele>
        <time>2026-08-23T15:35:34.000Z</time>
      </trkpt>
      <trkpt lat="43.38084" lon="-1.64107">
        <ele>8</ele>
        <time>2026-08-23T15:35:38.000Z</time>
      </trkpt>
      <trkpt lat="43.38094" lon="-1.64129">
        <ele>8</ele>
        <time>2026-08-23T15:35:41.000Z</time>
      </trkpt>
      <trkpt lat="43.38103" lon="-1.6415">
        <ele>7</ele>
        <time>2026-08-23T15:35:44.000Z</time>
      </trkpt>
      <trkpt lat="43.3811" lon="-1.64167">
        <ele>7</ele>
        <time>2026-08-23T15:35:47.000Z</time>
      </trkpt>
      <trkpt lat="43.38116" lon="-1.6418">
        <ele>7</ele>
        <time>2026-08-23T15:35:49.000Z</time>
      </trkpt>
      <trkpt lat="43.38119" lon="-1.64186">
        <ele>7</ele>
        <time>2026-08-23T15:35:49.000Z</time>
      </trkpt>
      <trkpt lat="43.38121" lon="-1.6419">
        <ele>7</ele>
        <time>2026-08-23T15:35:50.000Z</time>
      </trkpt>
      <trkpt lat="43.38126" lon="-1.64198">
        <ele>7</ele>
        <time>2026-08-23T15:35:51.000Z</time>
      </trkpt>
      <trkpt lat="43.38132" lon="-1.64204">
        <ele>7</ele>
        <time>2026-08-23T15:35:53.000Z</time>
      </trkpt>
      <trkpt lat="43.38135" lon="-1.64208">
        <ele>6</ele>
        <time>2026-08-23T15:35:54.000Z</time>
      </trkpt>
      <trkpt lat="43.38139" lon="-1.64212">
        <ele>6</ele>
        <time>2026-08-23T15:35:54.000Z</time>
      </trkpt>
      <trkpt lat="43.38141" lon="-1.64213">
        <ele>7</ele>
        <time>2026-08-23T15:35:55.000Z</time>
      </trkpt>
      <trkpt lat="43.38155" lon="-1.64227">
        <ele>6</ele>
        <time>2026-08-23T15:35:58.000Z</time>
      </trkpt>
      <trkpt lat="43.3817" lon="-1.6424">
        <ele>6</ele>
        <time>2026-08-23T15:36:01.000Z</time>
      </trkpt>
      <trkpt lat="43.38187" lon="-1.64257">
        <ele>5</ele>
        <time>2026-08-23T15:36:05.000Z</time>
      </trkpt>
      <trkpt lat="43.38195" lon="-1.64264">
        <ele>5</ele>
        <time>2026-08-23T15:36:06.000Z</time>
      </trkpt>
      <trkpt lat="43.38203" lon="-1.64271">
        <ele>5</ele>
        <time>2026-08-23T15:36:08.000Z</time>
      </trkpt>
      <trkpt lat="43.38212" lon="-1.6428">
        <ele>5</ele>
        <time>2026-08-23T15:36:10.000Z</time>
      </trkpt>
      <trkpt lat="43.38215" lon="-1.64282">
        <ele>5</ele>
        <time>2026-08-23T15:36:11.000Z</time>
      </trkpt>
      <trkpt lat="43.38219" lon="-1.64286">
        <ele>5</ele>
        <time>2026-08-23T15:36:12.000Z</time>
      </trkpt>
      <trkpt lat="43.38223" lon="-1.64291">
        <ele>5</ele>
        <time>2026-08-23T15:36:13.000Z</time>
      </trkpt>
      <trkpt lat="43.38227" lon="-1.64296">
        <ele>5</ele>
        <time>2026-08-23T15:36:14.000Z</time>
      </trkpt>
      <trkpt lat="43.38231" lon="-1.64301">
        <ele>5</ele>
        <time>2026-08-23T15:36:14.000Z</time>
      </trkpt>
      <trkpt lat="43.38235" lon="-1.64307">
        <ele>5</ele>
        <time>2026-08-23T15:36:16.000Z</time>
      </trkpt>
      <trkpt lat="43.3824" lon="-1.64314">
        <ele>5</ele>
        <time>2026-08-23T15:36:17.000Z</time>
      </trkpt>
      <trkpt lat="43.38243" lon="-1.6432">
        <ele>5</ele>
        <time>2026-08-23T15:36:18.000Z</time>
      </trkpt>
      <trkpt lat="43.38247" lon="-1.64326">
        <ele>5</ele>
        <time>2026-08-23T15:36:19.000Z</time>
      </trkpt>
      <trkpt lat="43.3825" lon="-1.64332">
        <ele>5</ele>
        <time>2026-08-23T15:36:20.000Z</time>
      </trkpt>
      <trkpt lat="43.38254" lon="-1.64342">
        <ele>5</ele>
        <time>2026-08-23T15:36:21.000Z</time>
      </trkpt>
      <trkpt lat="43.3826" lon="-1.64355">
        <ele>6</ele>
        <time>2026-08-23T15:36:23.000Z</time>
      </trkpt>
      <trkpt lat="43.38264" lon="-1.64367">
        <ele>6</ele>
        <time>2026-08-23T15:36:25.000Z</time>
      </trkpt>
      <trkpt lat="43.38267" lon="-1.64378">
        <ele>7</ele>
        <time>2026-08-23T15:36:26.000Z</time>
      </trkpt>
      <trkpt lat="43.38269" lon="-1.64385">
        <ele>7</ele>
        <time>2026-08-23T15:36:27.000Z</time>
      </trkpt>
      <trkpt lat="43.38272" lon="-1.64398">
        <ele>8</ele>
        <time>2026-08-23T15:36:29.000Z</time>
      </trkpt>
      <trkpt lat="43.38273" lon="-1.64407">
        <ele>8</ele>
        <time>2026-08-23T15:36:30.000Z</time>
      </trkpt>
      <trkpt lat="43.38274" lon="-1.64415">
        <ele>8</ele>
        <time>2026-08-23T15:36:31.000Z</time>
      </trkpt>
      <trkpt lat="43.38275" lon="-1.64423">
        <ele>8</ele>
        <time>2026-08-23T15:36:32.000Z</time>
      </trkpt>
      <trkpt lat="43.38276" lon="-1.64431">
        <ele>9</ele>
        <time>2026-08-23T15:36:34.000Z</time>
      </trkpt>
      <trkpt lat="43.38277" lon="-1.64442">
        <ele>9</ele>
        <time>2026-08-23T15:36:35.000Z</time>
      </trkpt>
      <trkpt lat="43.38279" lon="-1.64473">
        <ele>10</ele>
        <time>2026-08-23T15:36:39.000Z</time>
      </trkpt>
      <trkpt lat="43.38281" lon="-1.64501">
        <ele>11</ele>
        <time>2026-08-23T15:36:43.000Z</time>
      </trkpt>
      <trkpt lat="43.38282" lon="-1.64525">
        <ele>10</ele>
        <time>2026-08-23T15:36:46.000Z</time>
      </trkpt>
      <trkpt lat="43.38282" lon="-1.64534">
        <ele>10</ele>
        <time>2026-08-23T15:36:47.000Z</time>
      </trkpt>
      <trkpt lat="43.38282" lon="-1.64568">
        <ele>9</ele>
        <time>2026-08-23T15:36:51.000Z</time>
      </trkpt>
      <trkpt lat="43.38282" lon="-1.64596">
        <ele>8</ele>
        <time>2026-08-23T15:36:55.000Z</time>
      </trkpt>
      <trkpt lat="43.38281" lon="-1.64622">
        <ele>8</ele>
        <time>2026-08-23T15:36:58.000Z</time>
      </trkpt>
      <trkpt lat="43.38277" lon="-1.64667">
        <ele>7</ele>
        <time>2026-08-23T15:37:04.000Z</time>
      </trkpt>
      <trkpt lat="43.38274" lon="-1.64697">
        <ele>7</ele>
        <time>2026-08-23T15:37:08.000Z</time>
      </trkpt>
      <trkpt lat="43.38273" lon="-1.64712">
        <ele>7</ele>
        <time>2026-08-23T15:37:10.000Z</time>
      </trkpt>
      <trkpt lat="43.38271" lon="-1.6473">
        <ele>7</ele>
        <time>2026-08-23T15:37:12.000Z</time>
      </trkpt>
      <trkpt lat="43.38265" lon="-1.64789">
        <ele>9</ele>
        <time>2026-08-23T15:37:20.000Z</time>
      </trkpt>
      <trkpt lat="43.38259" lon="-1.64848">
        <ele>10</ele>
        <time>2026-08-23T15:37:28.000Z</time>
      </trkpt>
      <trkpt lat="43.38255" lon="-1.64888">
        <ele>9</ele>
        <time>2026-08-23T15:37:33.000Z</time>
      </trkpt>
      <trkpt lat="43.38254" lon="-1.64897">
        <ele>9</ele>
        <time>2026-08-23T15:37:34.000Z</time>
      </trkpt>
      <trkpt lat="43.38254" lon="-1.64905">
        <ele>9</ele>
        <time>2026-08-23T15:37:35.000Z</time>
      </trkpt>
      <trkpt lat="43.38254" lon="-1.64913">
        <ele>9</ele>
        <time>2026-08-23T15:37:36.000Z</time>
      </trkpt>
      <trkpt lat="43.38254" lon="-1.64919">
        <ele>9</ele>
        <time>2026-08-23T15:37:37.000Z</time>
      </trkpt>
      <trkpt lat="43.38254" lon="-1.64928">
        <ele>8</ele>
        <time>2026-08-23T15:37:38.000Z</time>
      </trkpt>
      <trkpt lat="43.38254" lon="-1.64936">
        <ele>8</ele>
        <time>2026-08-23T15:37:39.000Z</time>
      </trkpt>
      <trkpt lat="43.38255" lon="-1.64941">
        <ele>8</ele>
        <time>2026-08-23T15:37:40.000Z</time>
      </trkpt>
      <trkpt lat="43.38256" lon="-1.6495">
        <ele>8</ele>
        <time>2026-08-23T15:37:41.000Z</time>
      </trkpt>
      <trkpt lat="43.38258" lon="-1.64958">
        <ele>8</ele>
        <time>2026-08-23T15:37:42.000Z</time>
      </trkpt>
      <trkpt lat="43.3826" lon="-1.64966">
        <ele>8</ele>
        <time>2026-08-23T15:37:43.000Z</time>
      </trkpt>
      <trkpt lat="43.38262" lon="-1.64974">
        <ele>8</ele>
        <time>2026-08-23T15:37:44.000Z</time>
      </trkpt>
      <trkpt lat="43.38267" lon="-1.64988">
        <ele>9</ele>
        <time>2026-08-23T15:37:46.000Z</time>
      </trkpt>
      <trkpt lat="43.38275" lon="-1.65009">
        <ele>9</ele>
        <time>2026-08-23T15:37:49.000Z</time>
      </trkpt>
      <trkpt lat="43.38279" lon="-1.6502">
        <ele>9</ele>
        <time>2026-08-23T15:37:51.000Z</time>
      </trkpt>
      <trkpt lat="43.38302" lon="-1.65083">
        <ele>11</ele>
        <time>2026-08-23T15:38:00.000Z</time>
      </trkpt>
      <trkpt lat="43.38334" lon="-1.65171">
        <ele>12</ele>
        <time>2026-08-23T15:38:13.000Z</time>
      </trkpt>
      <trkpt lat="43.3834" lon="-1.65189">
        <ele>12</ele>
        <time>2026-08-23T15:38:15.000Z</time>
      </trkpt>
      <trkpt lat="43.38345" lon="-1.65194">
        <ele>13</ele>
        <time>2026-08-23T15:38:16.000Z</time>
      </trkpt>
      <trkpt lat="43.38347" lon="-1.65198">
        <ele>13</ele>
        <time>2026-08-23T15:38:17.000Z</time>
      </trkpt>
      <trkpt lat="43.3835" lon="-1.65204">
        <ele>13</ele>
        <time>2026-08-23T15:38:18.000Z</time>
      </trkpt>
      <trkpt lat="43.38354" lon="-1.65211">
        <ele>13</ele>
        <time>2026-08-23T15:38:19.000Z</time>
      </trkpt>
      <trkpt lat="43.38355" lon="-1.65213">
        <ele>13</ele>
        <time>2026-08-23T15:38:20.000Z</time>
      </trkpt>
      <trkpt lat="43.38358" lon="-1.65218">
        <ele>13</ele>
        <time>2026-08-23T15:38:20.000Z</time>
      </trkpt>
      <trkpt lat="43.38363" lon="-1.65226">
        <ele>14</ele>
        <time>2026-08-23T15:38:22.000Z</time>
      </trkpt>
      <trkpt lat="43.3837" lon="-1.65235">
        <ele>14</ele>
        <time>2026-08-23T15:38:23.000Z</time>
      </trkpt>
      <trkpt lat="43.38377" lon="-1.65244">
        <ele>14</ele>
        <time>2026-08-23T15:38:25.000Z</time>
      </trkpt>
      <trkpt lat="43.38384" lon="-1.65251">
        <ele>14</ele>
        <time>2026-08-23T15:38:27.000Z</time>
      </trkpt>
      <trkpt lat="43.38392" lon="-1.65259">
        <ele>14</ele>
        <time>2026-08-23T15:38:28.000Z</time>
      </trkpt>
      <trkpt lat="43.38398" lon="-1.65264">
        <ele>14</ele>
        <time>2026-08-23T15:38:30.000Z</time>
      </trkpt>
      <trkpt lat="43.38404" lon="-1.65268">
        <ele>14</ele>
        <time>2026-08-23T15:38:31.000Z</time>
      </trkpt>
      <trkpt lat="43.38412" lon="-1.65274">
        <ele>14</ele>
        <time>2026-08-23T15:38:33.000Z</time>
      </trkpt>
      <trkpt lat="43.38412" lon="-1.65274">
        <ele>14</ele>
        <time>2026-08-23T15:38:33.000Z</time>
      </trkpt>
      <trkpt lat="43.38418" lon="-1.65278">
        <ele>14</ele>
        <time>2026-08-23T15:38:34.000Z</time>
      </trkpt>
      <trkpt lat="43.38417" lon="-1.65286">
        <ele>13</ele>
        <time>2026-08-23T15:38:35.000Z</time>
      </trkpt>
      <trkpt lat="43.38415" lon="-1.6529">
        <ele>12</ele>
        <time>2026-08-23T15:38:35.000Z</time>
      </trkpt>
      <trkpt lat="43.38406" lon="-1.65316">
        <ele>8</ele>
        <time>2026-08-23T15:38:39.000Z</time>
      </trkpt>
      <trkpt lat="43.38382" lon="-1.65371">
        <ele>5</ele>
        <time>2026-08-23T15:38:47.000Z</time>
      </trkpt>
      <trkpt lat="43.38378" lon="-1.65378">
        <ele>5</ele>
        <time>2026-08-23T15:38:49.000Z</time>
      </trkpt>
      <trkpt lat="43.38376" lon="-1.65382">
        <ele>5</ele>
        <time>2026-08-23T15:38:49.000Z</time>
      </trkpt>
      <trkpt lat="43.38346" lon="-1.65443">
        <ele>5</ele>
        <time>2026-08-23T15:38:59.000Z</time>
      </trkpt>
      <trkpt lat="43.3834" lon="-1.65453">
        <ele>5</ele>
        <time>2026-08-23T15:39:00.000Z</time>
      </trkpt>
      <trkpt lat="43.38339" lon="-1.65455">
        <ele>5</ele>
        <time>2026-08-23T15:39:01.000Z</time>
      </trkpt>
      <trkpt lat="43.38362" lon="-1.65489">
        <ele>4</ele>
        <time>2026-08-23T15:39:07.000Z</time>
      </trkpt>
      <trkpt lat="43.38362" lon="-1.65491">
        <ele>4</ele>
        <time>2026-08-23T15:39:07.000Z</time>
      </trkpt>
      <trkpt lat="43.38363" lon="-1.65493">
        <ele>4</ele>
        <time>2026-08-23T15:39:07.000Z</time>
      </trkpt>
      <trkpt lat="43.38364" lon="-1.65494">
        <ele>4</ele>
        <time>2026-08-23T15:39:07.000Z</time>
      </trkpt>
      <trkpt lat="43.38364" lon="-1.65496">
        <ele>4</ele>
        <time>2026-08-23T15:39:08.000Z</time>
      </trkpt>
      <trkpt lat="43.38363" lon="-1.65498">
        <ele>4</ele>
        <time>2026-08-23T15:39:08.000Z</time>
      </trkpt>
      <trkpt lat="43.38363" lon="-1.65499">
        <ele>4</ele>
        <time>2026-08-23T15:39:08.000Z</time>
      </trkpt>
      <trkpt lat="43.38363" lon="-1.65501">
        <ele>4</ele>
        <time>2026-08-23T15:39:08.000Z</time>
      </trkpt>
      <trkpt lat="43.38362" lon="-1.65502">
        <ele>4</ele>
        <time>2026-08-23T15:39:09.000Z</time>
      </trkpt>
      <trkpt lat="43.38359" lon="-1.65509">
        <ele>4</ele>
        <time>2026-08-23T15:39:10.000Z</time>
      </trkpt>
      <trkpt lat="43.38352" lon="-1.65518">
        <ele>4</ele>
        <time>2026-08-23T15:39:11.000Z</time>
      </trkpt>
      <trkpt lat="43.38308" lon="-1.65578">
        <ele>3</ele>
        <time>2026-08-23T15:39:22.000Z</time>
      </trkpt>
      <trkpt lat="43.38304" lon="-1.65583">
        <ele>3</ele>
        <time>2026-08-23T15:39:23.000Z</time>
      </trkpt>
      <trkpt lat="43.38299" lon="-1.6559">
        <ele>3</ele>
        <time>2026-08-23T15:39:25.000Z</time>
      </trkpt>
      <trkpt lat="43.38285" lon="-1.65609">
        <ele>3</ele>
        <time>2026-08-23T15:39:28.000Z</time>
      </trkpt>
      <trkpt lat="43.38267" lon="-1.65633">
        <ele>4</ele>
        <time>2026-08-23T15:39:33.000Z</time>
      </trkpt>
      <trkpt lat="43.38246" lon="-1.65661">
        <ele>4</ele>
        <time>2026-08-23T15:39:38.000Z</time>
      </trkpt>
      <trkpt lat="43.3824" lon="-1.6567">
        <ele>4</ele>
        <time>2026-08-23T15:39:39.000Z</time>
      </trkpt>
      <trkpt lat="43.38237" lon="-1.65676">
        <ele>4</ele>
        <time>2026-08-23T15:39:40.000Z</time>
      </trkpt>
      <trkpt lat="43.38235" lon="-1.65683">
        <ele>4</ele>
        <time>2026-08-23T15:39:41.000Z</time>
      </trkpt>
      <trkpt lat="43.38235" lon="-1.65689">
        <ele>4</ele>
        <time>2026-08-23T15:39:42.000Z</time>
      </trkpt>
      <trkpt lat="43.38235" lon="-1.65696">
        <ele>4</ele>
        <time>2026-08-23T15:39:43.000Z</time>
      </trkpt>
      <trkpt lat="43.38236" lon="-1.65703">
        <ele>4</ele>
        <time>2026-08-23T15:39:44.000Z</time>
      </trkpt>
      <trkpt lat="43.38264" lon="-1.65784">
        <ele>4</ele>
        <time>2026-08-23T15:39:56.000Z</time>
      </trkpt>
      <trkpt lat="43.38296" lon="-1.65874">
        <ele>4</ele>
        <time>2026-08-23T15:40:08.000Z</time>
      </trkpt>
      <trkpt lat="43.38303" lon="-1.6589">
        <ele>4</ele>
        <time>2026-08-23T15:40:11.000Z</time>
      </trkpt>
      <trkpt lat="43.38304" lon="-1.65892">
        <ele>4</ele>
        <time>2026-08-23T15:40:11.000Z</time>
      </trkpt>
      <trkpt lat="43.38308" lon="-1.65901">
        <ele>5</ele>
        <time>2026-08-23T15:40:13.000Z</time>
      </trkpt>
      <trkpt lat="43.3831" lon="-1.65904">
        <ele>5</ele>
        <time>2026-08-23T15:40:13.000Z</time>
      </trkpt>
      <trkpt lat="43.38317" lon="-1.65914">
        <ele>5</ele>
        <time>2026-08-23T15:40:15.000Z</time>
      </trkpt>
      <trkpt lat="43.38329" lon="-1.65927">
        <ele>6</ele>
        <time>2026-08-23T15:40:18.000Z</time>
      </trkpt>
      <trkpt lat="43.3833" lon="-1.65926">
        <ele>6</ele>
        <time>2026-08-23T15:40:18.000Z</time>
      </trkpt>
      <trkpt lat="43.38333" lon="-1.65923">
        <ele>6</ele>
        <time>2026-08-23T15:40:18.000Z</time>
      </trkpt>
      <trkpt lat="43.38335" lon="-1.65922">
        <ele>6</ele>
        <time>2026-08-23T15:40:19.000Z</time>
      </trkpt>
      <trkpt lat="43.38337" lon="-1.65922">
        <ele>6</ele>
        <time>2026-08-23T15:40:19.000Z</time>
      </trkpt>
      <trkpt lat="43.38339" lon="-1.65923">
        <ele>6</ele>
        <time>2026-08-23T15:40:20.000Z</time>
      </trkpt>
      <trkpt lat="43.3834" lon="-1.65925">
        <ele>6</ele>
        <time>2026-08-23T15:40:20.000Z</time>
      </trkpt>
      <trkpt lat="43.38342" lon="-1.65929">
        <ele>6</ele>
        <time>2026-08-23T15:40:21.000Z</time>
      </trkpt>
      <trkpt lat="43.38343" lon="-1.65931">
        <ele>6</ele>
        <time>2026-08-23T15:40:21.000Z</time>
      </trkpt>
      <trkpt lat="43.38343" lon="-1.65933">
        <ele>6</ele>
        <time>2026-08-23T15:40:21.000Z</time>
      </trkpt>
      <trkpt lat="43.38343" lon="-1.65935">
        <ele>6</ele>
        <time>2026-08-23T15:40:21.000Z</time>
      </trkpt>
      <trkpt lat="43.38342" lon="-1.65938">
        <ele>6</ele>
        <time>2026-08-23T15:40:22.000Z</time>
      </trkpt>
      <trkpt lat="43.38341" lon="-1.65941">
        <ele>6</ele>
        <time>2026-08-23T15:40:22.000Z</time>
      </trkpt>
      <trkpt lat="43.38358" lon="-1.65973">
        <ele>6</ele>
        <time>2026-08-23T15:40:27.000Z</time>
      </trkpt>
      <trkpt lat="43.38382" lon="-1.66008">
        <ele>5</ele>
        <time>2026-08-23T15:40:34.000Z</time>
      </trkpt>
      <trkpt lat="43.38395" lon="-1.66025">
        <ele>5</ele>
        <time>2026-08-23T15:40:37.000Z</time>
      </trkpt>
      <trkpt lat="43.38424" lon="-1.66064">
        <ele>5</ele>
        <time>2026-08-23T15:40:44.000Z</time>
      </trkpt>
      <trkpt lat="43.38429" lon="-1.66071">
        <ele>5</ele>
        <time>2026-08-23T15:40:45.000Z</time>
      </trkpt>
      <trkpt lat="43.38436" lon="-1.6608">
        <ele>5</ele>
        <time>2026-08-23T15:40:47.000Z</time>
      </trkpt>
      <trkpt lat="43.38446" lon="-1.66092">
        <ele>5</ele>
        <time>2026-08-23T15:40:49.000Z</time>
      </trkpt>
      <trkpt lat="43.38462" lon="-1.66117">
        <ele>5</ele>
        <time>2026-08-23T15:40:54.000Z</time>
      </trkpt>
      <trkpt lat="43.38473" lon="-1.66138">
        <ele>5</ele>
        <time>2026-08-23T15:40:57.000Z</time>
      </trkpt>
      <trkpt lat="43.38481" lon="-1.66156">
        <ele>5</ele>
        <time>2026-08-23T15:41:00.000Z</time>
      </trkpt>
      <trkpt lat="43.38483" lon="-1.66161">
        <ele>5</ele>
        <time>2026-08-23T15:41:00.000Z</time>
      </trkpt>
      <trkpt lat="43.3849" lon="-1.66182">
        <ele>5</ele>
        <time>2026-08-23T15:41:03.000Z</time>
      </trkpt>
      <trkpt lat="43.38495" lon="-1.66191">
        <ele>5</ele>
        <time>2026-08-23T15:41:05.000Z</time>
      </trkpt>
      <trkpt lat="43.385" lon="-1.66198">
        <ele>5</ele>
        <time>2026-08-23T15:41:06.000Z</time>
      </trkpt>
      <trkpt lat="43.38502" lon="-1.662">
        <ele>5</ele>
        <time>2026-08-23T15:41:07.000Z</time>
      </trkpt>
      <trkpt lat="43.38504" lon="-1.66202">
        <ele>5</ele>
        <time>2026-08-23T15:41:07.000Z</time>
      </trkpt>
      <trkpt lat="43.38506" lon="-1.66205">
        <ele>4</ele>
        <time>2026-08-23T15:41:08.000Z</time>
      </trkpt>
      <trkpt lat="43.38547" lon="-1.66242">
        <ele>4</ele>
        <time>2026-08-23T15:41:16.000Z</time>
      </trkpt>
      <trkpt lat="43.38568" lon="-1.6626">
        <ele>3</ele>
        <time>2026-08-23T15:41:21.000Z</time>
      </trkpt>
      <trkpt lat="43.38591" lon="-1.66282">
        <ele>2</ele>
        <time>2026-08-23T15:41:26.000Z</time>
      </trkpt>
      <trkpt lat="43.38617" lon="-1.66307">
        <ele>1</ele>
        <time>2026-08-23T15:41:31.000Z</time>
      </trkpt>
      <trkpt lat="43.38624" lon="-1.66311">
        <ele>1</ele>
        <time>2026-08-23T15:41:33.000Z</time>
      </trkpt>
      <trkpt lat="43.38627" lon="-1.66313">
        <ele>1</ele>
        <time>2026-08-23T15:41:33.000Z</time>
      </trkpt>
      <trkpt lat="43.38632" lon="-1.66315">
        <ele>3.8</ele>
        <time>2026-08-23T15:41:34.000Z</time>
      </trkpt>
      <trkpt lat="43.38638" lon="-1.66316">
        <ele>4</ele>
        <time>2026-08-23T15:41:35.000Z</time>
      </trkpt>
      <trkpt lat="43.38645" lon="-1.66316">
        <ele>1</ele>
        <time>2026-08-23T15:41:37.000Z</time>
      </trkpt>
      <trkpt lat="43.38648" lon="-1.66316">
        <ele>1</ele>
        <time>2026-08-23T15:41:37.000Z</time>
      </trkpt>
      <trkpt lat="43.3865" lon="-1.66316">
        <ele>1</ele>
        <time>2026-08-23T15:41:37.000Z</time>
      </trkpt>
      <trkpt lat="43.38668" lon="-1.6632">
        <ele>1</ele>
        <time>2026-08-23T15:41:41.000Z</time>
      </trkpt>
      <trkpt lat="43.38668" lon="-1.6632">
        <ele>1</ele>
        <time>2026-08-23T15:41:41.000Z</time>
      </trkpt>
      <trkpt lat="43.38668" lon="-1.66319">
        <ele>1</ele>
        <time>2026-08-23T15:41:41.000Z</time>
      </trkpt>
      <trkpt lat="43.38668" lon="-1.66318">
        <ele>1</ele>
        <time>2026-08-23T15:41:41.000Z</time>
      </trkpt>
      <trkpt lat="43.38668" lon="-1.66317">
        <ele>1</ele>
        <time>2026-08-23T15:41:41.000Z</time>
      </trkpt>
      <trkpt lat="43.38668" lon="-1.66316">
        <ele>1</ele>
        <time>2026-08-23T15:41:41.000Z</time>
      </trkpt>
      <trkpt lat="43.38668" lon="-1.66315">
        <ele>1</ele>
        <time>2026-08-23T15:41:41.000Z</time>
      </trkpt>
      <trkpt lat="43.38668" lon="-1.66314">
        <ele>1</ele>
        <time>2026-08-23T15:41:41.000Z</time>
      </trkpt>
      <trkpt lat="43.38669" lon="-1.66313">
        <ele>1</ele>
        <time>2026-08-23T15:41:42.000Z</time>
      </trkpt>
      <trkpt lat="43.38669" lon="-1.66312">
        <ele>1</ele>
        <time>2026-08-23T15:41:42.000Z</time>
      </trkpt>
      <trkpt lat="43.3867" lon="-1.66311">
        <ele>1</ele>
        <time>2026-08-23T15:41:42.000Z</time>
      </trkpt>
      <trkpt lat="43.3867" lon="-1.6631">
        <ele>1</ele>
        <time>2026-08-23T15:41:42.000Z</time>
      </trkpt>
      <trkpt lat="43.38671" lon="-1.66309">
        <ele>1</ele>
        <time>2026-08-23T15:41:42.000Z</time>
      </trkpt>
      <trkpt lat="43.38672" lon="-1.66308">
        <ele>1</ele>
        <time>2026-08-23T15:41:43.000Z</time>
      </trkpt>
      <trkpt lat="43.38672" lon="-1.66307">
        <ele>2</ele>
        <time>2026-08-23T15:41:43.000Z</time>
      </trkpt>
      <trkpt lat="43.38673" lon="-1.66306">
        <ele>2</ele>
        <time>2026-08-23T15:41:43.000Z</time>
      </trkpt>
      <trkpt lat="43.38674" lon="-1.66306">
        <ele>2</ele>
        <time>2026-08-23T15:41:43.000Z</time>
      </trkpt>
      <trkpt lat="43.38675" lon="-1.66305">
        <ele>2</ele>
        <time>2026-08-23T15:41:43.000Z</time>
      </trkpt>
      <trkpt lat="43.38676" lon="-1.66305">
        <ele>2</ele>
        <time>2026-08-23T15:41:43.000Z</time>
      </trkpt>
      <trkpt lat="43.38677" lon="-1.66304">
        <ele>2</ele>
        <time>2026-08-23T15:41:44.000Z</time>
      </trkpt>
      <trkpt lat="43.38678" lon="-1.66304">
        <ele>2</ele>
        <time>2026-08-23T15:41:44.000Z</time>
      </trkpt>
      <trkpt lat="43.38679" lon="-1.66304">
        <ele>2</ele>
        <time>2026-08-23T15:41:44.000Z</time>
      </trkpt>
      <trkpt lat="43.3868" lon="-1.66304">
        <ele>2</ele>
        <time>2026-08-23T15:41:44.000Z</time>
      </trkpt>
      <trkpt lat="43.38681" lon="-1.66304">
        <ele>2</ele>
        <time>2026-08-23T15:41:44.000Z</time>
      </trkpt>
      <trkpt lat="43.38682" lon="-1.66305">
        <ele>2</ele>
        <time>2026-08-23T15:41:45.000Z</time>
      </trkpt>
      <trkpt lat="43.38683" lon="-1.66305">
        <ele>2</ele>
        <time>2026-08-23T15:41:45.000Z</time>
      </trkpt>
      <trkpt lat="43.38684" lon="-1.66305">
        <ele>2</ele>
        <time>2026-08-23T15:41:45.000Z</time>
      </trkpt>
      <trkpt lat="43.38685" lon="-1.66305">
        <ele>2</ele>
        <time>2026-08-23T15:41:45.000Z</time>
      </trkpt>
      <trkpt lat="43.38685" lon="-1.66306">
        <ele>2</ele>
        <time>2026-08-23T15:41:45.000Z</time>
      </trkpt>
      <trkpt lat="43.38686" lon="-1.66306">
        <ele>2</ele>
        <time>2026-08-23T15:41:45.000Z</time>
      </trkpt>
      <trkpt lat="43.38686" lon="-1.66307">
        <ele>2</ele>
        <time>2026-08-23T15:41:46.000Z</time>
      </trkpt>
      <trkpt lat="43.38687" lon="-1.66307">
        <ele>2</ele>
        <time>2026-08-23T15:41:46.000Z</time>
      </trkpt>
      <trkpt lat="43.38687" lon="-1.66308">
        <ele>2</ele>
        <time>2026-08-23T15:41:46.000Z</time>
      </trkpt>
      <trkpt lat="43.38688" lon="-1.66308">
        <ele>2</ele>
        <time>2026-08-23T15:41:46.000Z</time>
      </trkpt>
      <trkpt lat="43.38688" lon="-1.66309">
        <ele>2</ele>
        <time>2026-08-23T15:41:46.000Z</time>
      </trkpt>
      <trkpt lat="43.38689" lon="-1.6631">
        <ele>2</ele>
        <time>2026-08-23T15:41:46.000Z</time>
      </trkpt>
      <trkpt lat="43.38689" lon="-1.66311">
        <ele>2</ele>
        <time>2026-08-23T15:41:47.000Z</time>
      </trkpt>
      <trkpt lat="43.3869" lon="-1.66311">
        <ele>2</ele>
        <time>2026-08-23T15:41:47.000Z</time>
      </trkpt>
      <trkpt lat="43.3869" lon="-1.66312">
        <ele>2</ele>
        <time>2026-08-23T15:41:47.000Z</time>
      </trkpt>
      <trkpt lat="43.3869" lon="-1.66313">
        <ele>2</ele>
        <time>2026-08-23T15:41:47.000Z</time>
      </trkpt>
      <trkpt lat="43.3869" lon="-1.66314">
        <ele>2</ele>
        <time>2026-08-23T15:41:47.000Z</time>
      </trkpt>
      <trkpt lat="43.38691" lon="-1.66314">
        <ele>2</ele>
        <time>2026-08-23T15:41:47.000Z</time>
      </trkpt>
      <trkpt lat="43.38691" lon="-1.66315">
        <ele>2</ele>
        <time>2026-08-23T15:41:47.000Z</time>
      </trkpt>
      <trkpt lat="43.38691" lon="-1.66316">
        <ele>2</ele>
        <time>2026-08-23T15:41:48.000Z</time>
      </trkpt>
      <trkpt lat="43.38691" lon="-1.66317">
        <ele>2</ele>
        <time>2026-08-23T15:41:48.000Z</time>
      </trkpt>
      <trkpt lat="43.38691" lon="-1.66318">
        <ele>2</ele>
        <time>2026-08-23T15:41:48.000Z</time>
      </trkpt>
      <trkpt lat="43.38691" lon="-1.66319">
        <ele>2</ele>
        <time>2026-08-23T15:41:48.000Z</time>
      </trkpt>
      <trkpt lat="43.38691" lon="-1.6632">
        <ele>2</ele>
        <time>2026-08-23T15:41:48.000Z</time>
      </trkpt>
      <trkpt lat="43.38691" lon="-1.66321">
        <ele>2</ele>
        <time>2026-08-23T15:41:48.000Z</time>
      </trkpt>
      <trkpt lat="43.38691" lon="-1.66322">
        <ele>2</ele>
        <time>2026-08-23T15:41:48.000Z</time>
      </trkpt>
      <trkpt lat="43.387" lon="-1.66327">
        <ele>2</ele>
        <time>2026-08-23T15:41:50.000Z</time>
      </trkpt>
      <trkpt lat="43.38701" lon="-1.66327">
        <ele>2</ele>
        <time>2026-08-23T15:41:50.000Z</time>
      </trkpt>
      <trkpt lat="43.38702" lon="-1.66328">
        <ele>2</ele>
        <time>2026-08-23T15:41:50.000Z</time>
      </trkpt>
      <trkpt lat="43.38706" lon="-1.66335">
        <ele>2</ele>
        <time>2026-08-23T15:41:52.000Z</time>
      </trkpt>
      <trkpt lat="43.38714" lon="-1.66339">
        <ele>3</ele>
        <time>2026-08-23T15:41:53.000Z</time>
      </trkpt>
      <trkpt lat="43.38716" lon="-1.6634">
        <ele>3</ele>
        <time>2026-08-23T15:41:53.000Z</time>
      </trkpt>
      <trkpt lat="43.38726" lon="-1.66345">
        <ele>3</ele>
        <time>2026-08-23T15:41:55.000Z</time>
      </trkpt>
      <trkpt lat="43.38726" lon="-1.66345">
        <ele>3</ele>
        <time>2026-08-23T15:41:55.000Z</time>
      </trkpt>
      <trkpt lat="43.38726" lon="-1.66361">
        <ele>3</ele>
        <time>2026-08-23T15:41:57.000Z</time>
      </trkpt>
      <trkpt lat="43.38726" lon="-1.66364">
        <ele>3</ele>
        <time>2026-08-23T15:41:58.000Z</time>
      </trkpt>
      <trkpt lat="43.38726" lon="-1.66367">
        <ele>3</ele>
        <time>2026-08-23T15:41:58.000Z</time>
      </trkpt>
      <trkpt lat="43.38726" lon="-1.6637">
        <ele>3</ele>
        <time>2026-08-23T15:41:59.000Z</time>
      </trkpt>
      <trkpt lat="43.38725" lon="-1.66374">
        <ele>3</ele>
        <time>2026-08-23T15:41:59.000Z</time>
      </trkpt>
      <trkpt lat="43.38723" lon="-1.66376">
        <ele>3</ele>
        <time>2026-08-23T15:42:00.000Z</time>
      </trkpt>
      <trkpt lat="43.38722" lon="-1.66378">
        <ele>3</ele>
        <time>2026-08-23T15:42:00.000Z</time>
      </trkpt>
      <trkpt lat="43.3872" lon="-1.66381">
        <ele>3</ele>
        <time>2026-08-23T15:42:00.000Z</time>
      </trkpt>
      <trkpt lat="43.38693" lon="-1.66355">
        <ele>1</ele>
        <time>2026-08-23T15:42:06.000Z</time>
      </trkpt>
    </trkseg>
  </trk>
</gpx>